<?xml version="1.0" encoding="UTF-8" standalone="no" ?>
<gpx xmlns="http://www.topografix.com/GPX/1/1" xmlns:xsi="http://www.w3.org/2001/XMLSchema-instance" xsi:schemaLocation="http://www.topografix.com/GPX/1/1 http://www.topografix.com/GPX/1/1/gpx.xsd" version="1.1" creator="VisuGPX - https://www.visugpx.com">
  <metadata>
    <name>Rando VTT Forêt Villalet</name>
    <desc><![CDATA[Rando VTT sympa]]></desc>
  </metadata>
  <trk>
    <name><![CDATA[Rando VTT Forêt Villalet_1]]></name>
    <trkseg>
      <trkpt lat="48.88363" lon="1.09597">
        <ele>184</ele>
        <time>2014-05-29T08:35:59.000Z</time>
      </trkpt>
      <trkpt lat="48.88363" lon="1.09597">
        <ele>184</ele>
        <time>2014-05-29T08:36:01.000Z</time>
      </trkpt>
      <trkpt lat="48.88363" lon="1.09597">
        <ele>184</ele>
        <time>2014-05-29T08:36:34.000Z</time>
      </trkpt>
      <trkpt lat="48.88353" lon="1.09608">
        <ele>186</ele>
        <time>2014-05-29T08:36:42.000Z</time>
      </trkpt>
      <trkpt lat="48.88346" lon="1.09604">
        <ele>186</ele>
        <time>2014-05-29T08:36:44.000Z</time>
      </trkpt>
      <trkpt lat="48.88341" lon="1.09595">
        <ele>186</ele>
        <time>2014-05-29T08:36:46.000Z</time>
      </trkpt>
      <trkpt lat="48.88334" lon="1.09584">
        <ele>186</ele>
        <time>2014-05-29T08:36:48.000Z</time>
      </trkpt>
      <trkpt lat="48.88328" lon="1.09575">
        <ele>188</ele>
        <time>2014-05-29T08:36:50.000Z</time>
      </trkpt>
      <trkpt lat="48.88321" lon="1.09566">
        <ele>189</ele>
        <time>2014-05-29T08:36:52.000Z</time>
      </trkpt>
      <trkpt lat="48.88314" lon="1.09555">
        <ele>190</ele>
        <time>2014-05-29T08:36:54.000Z</time>
      </trkpt>
      <trkpt lat="48.88308" lon="1.09544">
        <ele>190</ele>
        <time>2014-05-29T08:36:56.000Z</time>
      </trkpt>
      <trkpt lat="48.88307" lon="1.09535">
        <ele>189</ele>
        <time>2014-05-29T08:36:58.000Z</time>
      </trkpt>
      <trkpt lat="48.88313" lon="1.09529">
        <ele>189</ele>
        <time>2014-05-29T08:37:00.000Z</time>
      </trkpt>
      <trkpt lat="48.88338" lon="1.09509">
        <ele>194</ele>
        <time>2014-05-29T08:37:04.000Z</time>
      </trkpt>
      <trkpt lat="48.88348" lon="1.09502">
        <ele>195</ele>
        <time>2014-05-29T08:37:06.000Z</time>
      </trkpt>
      <trkpt lat="48.88359" lon="1.09497">
        <ele>195</ele>
        <time>2014-05-29T08:37:08.000Z</time>
      </trkpt>
      <trkpt lat="48.88369" lon="1.09491">
        <ele>196</ele>
        <time>2014-05-29T08:37:10.000Z</time>
      </trkpt>
      <trkpt lat="48.88382" lon="1.09484">
        <ele>197</ele>
        <time>2014-05-29T08:37:12.000Z</time>
      </trkpt>
      <trkpt lat="48.88391" lon="1.09477">
        <ele>198</ele>
        <time>2014-05-29T08:37:14.000Z</time>
      </trkpt>
      <trkpt lat="48.884" lon="1.0947">
        <ele>198</ele>
        <time>2014-05-29T08:37:16.000Z</time>
      </trkpt>
      <trkpt lat="48.88408" lon="1.09462">
        <ele>197</ele>
        <time>2014-05-29T08:37:18.000Z</time>
      </trkpt>
      <trkpt lat="48.88417" lon="1.09453">
        <ele>196</ele>
        <time>2014-05-29T08:37:20.000Z</time>
      </trkpt>
      <trkpt lat="48.88427" lon="1.09444">
        <ele>196</ele>
        <time>2014-05-29T08:37:22.000Z</time>
      </trkpt>
      <trkpt lat="48.88436" lon="1.09436">
        <ele>195</ele>
        <time>2014-05-29T08:37:24.000Z</time>
      </trkpt>
      <trkpt lat="48.88445" lon="1.09428">
        <ele>195</ele>
        <time>2014-05-29T08:37:26.000Z</time>
      </trkpt>
      <trkpt lat="48.88454" lon="1.09423">
        <ele>197</ele>
        <time>2014-05-29T08:37:28.000Z</time>
      </trkpt>
      <trkpt lat="48.88463" lon="1.0942">
        <ele>198</ele>
        <time>2014-05-29T08:37:30.000Z</time>
      </trkpt>
      <trkpt lat="48.88472" lon="1.09417">
        <ele>199</ele>
        <time>2014-05-29T08:37:32.000Z</time>
      </trkpt>
      <trkpt lat="48.88482" lon="1.09413">
        <ele>199</ele>
        <time>2014-05-29T08:37:34.000Z</time>
      </trkpt>
      <trkpt lat="48.88492" lon="1.09408">
        <ele>200</ele>
        <time>2014-05-29T08:37:36.000Z</time>
      </trkpt>
      <trkpt lat="48.88503" lon="1.09402">
        <ele>200</ele>
        <time>2014-05-29T08:37:38.000Z</time>
      </trkpt>
      <trkpt lat="48.88512" lon="1.09395">
        <ele>201</ele>
        <time>2014-05-29T08:37:40.000Z</time>
      </trkpt>
      <trkpt lat="48.8852" lon="1.09383">
        <ele>201</ele>
        <time>2014-05-29T08:37:42.000Z</time>
      </trkpt>
      <trkpt lat="48.88524" lon="1.09369">
        <ele>201</ele>
        <time>2014-05-29T08:37:44.000Z</time>
      </trkpt>
      <trkpt lat="48.88528" lon="1.09351">
        <ele>201</ele>
        <time>2014-05-29T08:37:46.000Z</time>
      </trkpt>
      <trkpt lat="48.88532" lon="1.09334">
        <ele>201</ele>
        <time>2014-05-29T08:37:48.000Z</time>
      </trkpt>
      <trkpt lat="48.88538" lon="1.09317">
        <ele>200</ele>
        <time>2014-05-29T08:37:50.000Z</time>
      </trkpt>
      <trkpt lat="48.88546" lon="1.093">
        <ele>198</ele>
        <time>2014-05-29T08:37:52.000Z</time>
      </trkpt>
      <trkpt lat="48.88556" lon="1.09285">
        <ele>196</ele>
        <time>2014-05-29T08:37:54.000Z</time>
      </trkpt>
      <trkpt lat="48.88564" lon="1.09272">
        <ele>196</ele>
        <time>2014-05-29T08:37:56.000Z</time>
      </trkpt>
      <trkpt lat="48.88573" lon="1.09261">
        <ele>196</ele>
        <time>2014-05-29T08:37:58.000Z</time>
      </trkpt>
      <trkpt lat="48.88583" lon="1.0925">
        <ele>196</ele>
        <time>2014-05-29T08:38:00.000Z</time>
      </trkpt>
      <trkpt lat="48.88592" lon="1.0924">
        <ele>197</ele>
        <time>2014-05-29T08:38:02.000Z</time>
      </trkpt>
      <trkpt lat="48.88602" lon="1.0923">
        <ele>197</ele>
        <time>2014-05-29T08:38:04.000Z</time>
      </trkpt>
      <trkpt lat="48.88613" lon="1.09219">
        <ele>196</ele>
        <time>2014-05-29T08:38:06.000Z</time>
      </trkpt>
      <trkpt lat="48.88623" lon="1.09209">
        <ele>197</ele>
        <time>2014-05-29T08:38:08.000Z</time>
      </trkpt>
      <trkpt lat="48.88633" lon="1.09198">
        <ele>198</ele>
        <time>2014-05-29T08:38:10.000Z</time>
      </trkpt>
      <trkpt lat="48.88644" lon="1.09186">
        <ele>198</ele>
        <time>2014-05-29T08:38:12.000Z</time>
      </trkpt>
      <trkpt lat="48.88655" lon="1.09174">
        <ele>198</ele>
        <time>2014-05-29T08:38:14.000Z</time>
      </trkpt>
      <trkpt lat="48.88666" lon="1.09163">
        <ele>197</ele>
        <time>2014-05-29T08:38:16.000Z</time>
      </trkpt>
      <trkpt lat="48.88676" lon="1.09153">
        <ele>196</ele>
        <time>2014-05-29T08:38:18.000Z</time>
      </trkpt>
      <trkpt lat="48.88686" lon="1.09142">
        <ele>195</ele>
        <time>2014-05-29T08:38:20.000Z</time>
      </trkpt>
      <trkpt lat="48.88697" lon="1.09132">
        <ele>195</ele>
        <time>2014-05-29T08:38:22.000Z</time>
      </trkpt>
      <trkpt lat="48.88707" lon="1.0912">
        <ele>195</ele>
        <time>2014-05-29T08:38:24.000Z</time>
      </trkpt>
      <trkpt lat="48.88716" lon="1.09111">
        <ele>195</ele>
        <time>2014-05-29T08:38:26.000Z</time>
      </trkpt>
      <trkpt lat="48.88722" lon="1.09105">
        <ele>195</ele>
        <time>2014-05-29T08:38:28.000Z</time>
      </trkpt>
      <trkpt lat="48.88728" lon="1.09098">
        <ele>195</ele>
        <time>2014-05-29T08:38:30.000Z</time>
      </trkpt>
      <trkpt lat="48.88733" lon="1.09088">
        <ele>193</ele>
        <time>2014-05-29T08:38:32.000Z</time>
      </trkpt>
      <trkpt lat="48.88741" lon="1.09078">
        <ele>193</ele>
        <time>2014-05-29T08:38:34.000Z</time>
      </trkpt>
      <trkpt lat="48.8875" lon="1.09068">
        <ele>192</ele>
        <time>2014-05-29T08:38:36.000Z</time>
      </trkpt>
      <trkpt lat="48.88758" lon="1.09056">
        <ele>192</ele>
        <time>2014-05-29T08:38:38.000Z</time>
      </trkpt>
      <trkpt lat="48.88767" lon="1.09043">
        <ele>192</ele>
        <time>2014-05-29T08:38:40.000Z</time>
      </trkpt>
      <trkpt lat="48.88776" lon="1.0903">
        <ele>191</ele>
        <time>2014-05-29T08:38:42.000Z</time>
      </trkpt>
      <trkpt lat="48.88784" lon="1.09017">
        <ele>190</ele>
        <time>2014-05-29T08:38:44.000Z</time>
      </trkpt>
      <trkpt lat="48.88792" lon="1.09005">
        <ele>189</ele>
        <time>2014-05-29T08:38:46.000Z</time>
      </trkpt>
      <trkpt lat="48.888" lon="1.0899">
        <ele>190</ele>
        <time>2014-05-29T08:38:48.000Z</time>
      </trkpt>
      <trkpt lat="48.8881" lon="1.08976">
        <ele>191</ele>
        <time>2014-05-29T08:38:50.000Z</time>
      </trkpt>
      <trkpt lat="48.88818" lon="1.08962">
        <ele>193</ele>
        <time>2014-05-29T08:38:52.000Z</time>
      </trkpt>
      <trkpt lat="48.88827" lon="1.08947">
        <ele>194</ele>
        <time>2014-05-29T08:38:54.000Z</time>
      </trkpt>
      <trkpt lat="48.88838" lon="1.0893">
        <ele>195</ele>
        <time>2014-05-29T08:38:56.000Z</time>
      </trkpt>
      <trkpt lat="48.88848" lon="1.08914">
        <ele>194</ele>
        <time>2014-05-29T08:38:58.000Z</time>
      </trkpt>
      <trkpt lat="48.88856" lon="1.089">
        <ele>194</ele>
        <time>2014-05-29T08:39:00.000Z</time>
      </trkpt>
      <trkpt lat="48.88861" lon="1.08889">
        <ele>194</ele>
        <time>2014-05-29T08:39:02.000Z</time>
      </trkpt>
      <trkpt lat="48.88867" lon="1.08879">
        <ele>195</ele>
        <time>2014-05-29T08:39:04.000Z</time>
      </trkpt>
      <trkpt lat="48.88875" lon="1.08866">
        <ele>198</ele>
        <time>2014-05-29T08:39:06.000Z</time>
      </trkpt>
      <trkpt lat="48.88884" lon="1.08854">
        <ele>201</ele>
        <time>2014-05-29T08:39:08.000Z</time>
      </trkpt>
      <trkpt lat="48.88893" lon="1.08842">
        <ele>205</ele>
        <time>2014-05-29T08:39:10.000Z</time>
      </trkpt>
      <trkpt lat="48.88905" lon="1.08824">
        <ele>207</ele>
        <time>2014-05-29T08:39:12.000Z</time>
      </trkpt>
      <trkpt lat="48.88919" lon="1.08805">
        <ele>207</ele>
        <time>2014-05-29T08:39:14.000Z</time>
      </trkpt>
      <trkpt lat="48.88933" lon="1.08789">
        <ele>205</ele>
        <time>2014-05-29T08:39:16.000Z</time>
      </trkpt>
      <trkpt lat="48.88943" lon="1.08772">
        <ele>202</ele>
        <time>2014-05-29T08:39:18.000Z</time>
      </trkpt>
      <trkpt lat="48.88953" lon="1.08755">
        <ele>200</ele>
        <time>2014-05-29T08:39:20.000Z</time>
      </trkpt>
      <trkpt lat="48.88961" lon="1.0874">
        <ele>199</ele>
        <time>2014-05-29T08:39:22.000Z</time>
      </trkpt>
      <trkpt lat="48.88971" lon="1.08722">
        <ele>198</ele>
        <time>2014-05-29T08:39:24.000Z</time>
      </trkpt>
      <trkpt lat="48.88981" lon="1.08705">
        <ele>197</ele>
        <time>2014-05-29T08:39:26.000Z</time>
      </trkpt>
      <trkpt lat="48.88992" lon="1.08689">
        <ele>195</ele>
        <time>2014-05-29T08:39:28.000Z</time>
      </trkpt>
      <trkpt lat="48.89003" lon="1.08672">
        <ele>194</ele>
        <time>2014-05-29T08:39:30.000Z</time>
      </trkpt>
      <trkpt lat="48.89014" lon="1.08655">
        <ele>192</ele>
        <time>2014-05-29T08:39:32.000Z</time>
      </trkpt>
      <trkpt lat="48.89024" lon="1.08637">
        <ele>190</ele>
        <time>2014-05-29T08:39:34.000Z</time>
      </trkpt>
      <trkpt lat="48.89036" lon="1.0862">
        <ele>189</ele>
        <time>2014-05-29T08:39:36.000Z</time>
      </trkpt>
      <trkpt lat="48.89046" lon="1.08604">
        <ele>188</ele>
        <time>2014-05-29T08:39:38.000Z</time>
      </trkpt>
      <trkpt lat="48.89056" lon="1.08586">
        <ele>187</ele>
        <time>2014-05-29T08:39:40.000Z</time>
      </trkpt>
      <trkpt lat="48.89067" lon="1.08571">
        <ele>188</ele>
        <time>2014-05-29T08:39:42.000Z</time>
      </trkpt>
      <trkpt lat="48.89076" lon="1.08557">
        <ele>189</ele>
        <time>2014-05-29T08:39:44.000Z</time>
      </trkpt>
      <trkpt lat="48.89085" lon="1.08542">
        <ele>189</ele>
        <time>2014-05-29T08:39:46.000Z</time>
      </trkpt>
      <trkpt lat="48.89094" lon="1.08524">
        <ele>189</ele>
        <time>2014-05-29T08:39:48.000Z</time>
      </trkpt>
      <trkpt lat="48.89103" lon="1.08507">
        <ele>190</ele>
        <time>2014-05-29T08:39:50.000Z</time>
      </trkpt>
      <trkpt lat="48.89113" lon="1.08487">
        <ele>191</ele>
        <time>2014-05-29T08:39:52.000Z</time>
      </trkpt>
      <trkpt lat="48.89124" lon="1.08466">
        <ele>191</ele>
        <time>2014-05-29T08:39:54.000Z</time>
      </trkpt>
      <trkpt lat="48.89134" lon="1.08447">
        <ele>191</ele>
        <time>2014-05-29T08:39:56.000Z</time>
      </trkpt>
      <trkpt lat="48.89144" lon="1.08429">
        <ele>191</ele>
        <time>2014-05-29T08:39:58.000Z</time>
      </trkpt>
      <trkpt lat="48.89156" lon="1.08411">
        <ele>190</ele>
        <time>2014-05-29T08:40:00.000Z</time>
      </trkpt>
      <trkpt lat="48.89168" lon="1.08393">
        <ele>188</ele>
        <time>2014-05-29T08:40:02.000Z</time>
      </trkpt>
      <trkpt lat="48.89178" lon="1.08377">
        <ele>188</ele>
        <time>2014-05-29T08:40:04.000Z</time>
      </trkpt>
      <trkpt lat="48.89189" lon="1.08362">
        <ele>187</ele>
        <time>2014-05-29T08:40:06.000Z</time>
      </trkpt>
      <trkpt lat="48.892" lon="1.08346">
        <ele>186</ele>
        <time>2014-05-29T08:40:08.000Z</time>
      </trkpt>
      <trkpt lat="48.89212" lon="1.08332">
        <ele>184</ele>
        <time>2014-05-29T08:40:10.000Z</time>
      </trkpt>
      <trkpt lat="48.89224" lon="1.08318">
        <ele>184</ele>
        <time>2014-05-29T08:40:12.000Z</time>
      </trkpt>
      <trkpt lat="48.89236" lon="1.08305">
        <ele>183</ele>
        <time>2014-05-29T08:40:14.000Z</time>
      </trkpt>
      <trkpt lat="48.89249" lon="1.08291">
        <ele>182</ele>
        <time>2014-05-29T08:40:16.000Z</time>
      </trkpt>
      <trkpt lat="48.89264" lon="1.0828">
        <ele>180</ele>
        <time>2014-05-29T08:40:18.000Z</time>
      </trkpt>
      <trkpt lat="48.89276" lon="1.08271">
        <ele>181</ele>
        <time>2014-05-29T08:40:20.000Z</time>
      </trkpt>
      <trkpt lat="48.89291" lon="1.08263">
        <ele>182</ele>
        <time>2014-05-29T08:40:22.000Z</time>
      </trkpt>
      <trkpt lat="48.89305" lon="1.08257">
        <ele>183</ele>
        <time>2014-05-29T08:40:24.000Z</time>
      </trkpt>
      <trkpt lat="48.89321" lon="1.08252">
        <ele>184</ele>
        <time>2014-05-29T08:40:26.000Z</time>
      </trkpt>
      <trkpt lat="48.89336" lon="1.08247">
        <ele>184</ele>
        <time>2014-05-29T08:40:28.000Z</time>
      </trkpt>
      <trkpt lat="48.8935" lon="1.08242">
        <ele>184</ele>
        <time>2014-05-29T08:40:30.000Z</time>
      </trkpt>
      <trkpt lat="48.89364" lon="1.08237">
        <ele>185</ele>
        <time>2014-05-29T08:40:32.000Z</time>
      </trkpt>
      <trkpt lat="48.89378" lon="1.0823">
        <ele>184</ele>
        <time>2014-05-29T08:40:34.000Z</time>
      </trkpt>
      <trkpt lat="48.8939" lon="1.08221">
        <ele>184</ele>
        <time>2014-05-29T08:40:36.000Z</time>
      </trkpt>
      <trkpt lat="48.894" lon="1.08214">
        <ele>184</ele>
        <time>2014-05-29T08:40:38.000Z</time>
      </trkpt>
      <trkpt lat="48.89407" lon="1.08219">
        <ele>184</ele>
        <time>2014-05-29T08:40:40.000Z</time>
      </trkpt>
      <trkpt lat="48.89411" lon="1.08232">
        <ele>184</ele>
        <time>2014-05-29T08:40:42.000Z</time>
      </trkpt>
      <trkpt lat="48.89415" lon="1.08245">
        <ele>183</ele>
        <time>2014-05-29T08:40:44.000Z</time>
      </trkpt>
      <trkpt lat="48.8942" lon="1.08256">
        <ele>183</ele>
        <time>2014-05-29T08:40:46.000Z</time>
      </trkpt>
      <trkpt lat="48.89425" lon="1.08267">
        <ele>184</ele>
        <time>2014-05-29T08:40:48.000Z</time>
      </trkpt>
      <trkpt lat="48.89429" lon="1.08279">
        <ele>184</ele>
        <time>2014-05-29T08:40:50.000Z</time>
      </trkpt>
      <trkpt lat="48.89435" lon="1.0829">
        <ele>184</ele>
        <time>2014-05-29T08:40:52.000Z</time>
      </trkpt>
      <trkpt lat="48.89441" lon="1.08302">
        <ele>185</ele>
        <time>2014-05-29T08:40:54.000Z</time>
      </trkpt>
      <trkpt lat="48.89446" lon="1.08312">
        <ele>185</ele>
        <time>2014-05-29T08:40:56.000Z</time>
      </trkpt>
      <trkpt lat="48.89452" lon="1.08323">
        <ele>186</ele>
        <time>2014-05-29T08:40:58.000Z</time>
      </trkpt>
      <trkpt lat="48.89457" lon="1.08333">
        <ele>186</ele>
        <time>2014-05-29T08:41:00.000Z</time>
      </trkpt>
      <trkpt lat="48.89461" lon="1.08343">
        <ele>187</ele>
        <time>2014-05-29T08:41:02.000Z</time>
      </trkpt>
      <trkpt lat="48.89465" lon="1.08352">
        <ele>187</ele>
        <time>2014-05-29T08:41:04.000Z</time>
      </trkpt>
      <trkpt lat="48.89469" lon="1.08361">
        <ele>187</ele>
        <time>2014-05-29T08:41:06.000Z</time>
      </trkpt>
      <trkpt lat="48.89473" lon="1.0837">
        <ele>187</ele>
        <time>2014-05-29T08:41:08.000Z</time>
      </trkpt>
      <trkpt lat="48.89476" lon="1.08379">
        <ele>187</ele>
        <time>2014-05-29T08:41:10.000Z</time>
      </trkpt>
      <trkpt lat="48.89476" lon="1.08379">
        <ele>187</ele>
        <time>2014-05-29T08:41:12.000Z</time>
      </trkpt>
      <trkpt lat="48.89479" lon="1.08393">
        <ele>187</ele>
        <time>2014-05-29T08:41:14.000Z</time>
      </trkpt>
      <trkpt lat="48.89479" lon="1.08393">
        <ele>187</ele>
        <time>2014-05-29T08:41:16.000Z</time>
      </trkpt>
      <trkpt lat="48.8948" lon="1.08405">
        <ele>188</ele>
        <time>2014-05-29T08:41:18.000Z</time>
      </trkpt>
      <trkpt lat="48.8948" lon="1.08405">
        <ele>188</ele>
        <time>2014-05-29T08:41:20.000Z</time>
      </trkpt>
      <trkpt lat="48.89482" lon="1.0842">
        <ele>188</ele>
        <time>2014-05-29T08:41:22.000Z</time>
      </trkpt>
      <trkpt lat="48.89482" lon="1.0842">
        <ele>188</ele>
        <time>2014-05-29T08:41:24.000Z</time>
      </trkpt>
      <trkpt lat="48.89483" lon="1.08434">
        <ele>189</ele>
        <time>2014-05-29T08:41:26.000Z</time>
      </trkpt>
      <trkpt lat="48.89483" lon="1.08445">
        <ele>189</ele>
        <time>2014-05-29T08:41:28.000Z</time>
      </trkpt>
      <trkpt lat="48.89483" lon="1.08445">
        <ele>189</ele>
        <time>2014-05-29T08:41:30.000Z</time>
      </trkpt>
      <trkpt lat="48.89483" lon="1.08455">
        <ele>190</ele>
        <time>2014-05-29T08:41:32.000Z</time>
      </trkpt>
      <trkpt lat="48.89483" lon="1.08455">
        <ele>190</ele>
        <time>2014-05-29T08:41:34.000Z</time>
      </trkpt>
      <trkpt lat="48.89483" lon="1.08469">
        <ele>191</ele>
        <time>2014-05-29T08:41:36.000Z</time>
      </trkpt>
      <trkpt lat="48.89485" lon="1.08477">
        <ele>191</ele>
        <time>2014-05-29T08:41:38.000Z</time>
      </trkpt>
      <trkpt lat="48.89487" lon="1.08488">
        <ele>192</ele>
        <time>2014-05-29T08:41:42.000Z</time>
      </trkpt>
      <trkpt lat="48.89494" lon="1.085">
        <ele>194</ele>
        <time>2014-05-29T08:41:46.000Z</time>
      </trkpt>
      <trkpt lat="48.89494" lon="1.085">
        <ele>194</ele>
        <time>2014-05-29T08:41:48.000Z</time>
      </trkpt>
      <trkpt lat="48.89498" lon="1.08506">
        <ele>195</ele>
        <time>2014-05-29T08:41:50.000Z</time>
      </trkpt>
      <trkpt lat="48.89505" lon="1.08521">
        <ele>197</ele>
        <time>2014-05-29T08:41:53.000Z</time>
      </trkpt>
      <trkpt lat="48.89511" lon="1.08536">
        <ele>198</ele>
        <time>2014-05-29T08:41:55.000Z</time>
      </trkpt>
      <trkpt lat="48.89516" lon="1.08548">
        <ele>199</ele>
        <time>2014-05-29T08:41:57.000Z</time>
      </trkpt>
      <trkpt lat="48.8952" lon="1.08558">
        <ele>200</ele>
        <time>2014-05-29T08:41:59.000Z</time>
      </trkpt>
      <trkpt lat="48.89524" lon="1.08568">
        <ele>200</ele>
        <time>2014-05-29T08:42:01.000Z</time>
      </trkpt>
      <trkpt lat="48.89526" lon="1.08581">
        <ele>201</ele>
        <time>2014-05-29T08:42:03.000Z</time>
      </trkpt>
      <trkpt lat="48.89524" lon="1.08614">
        <ele>201</ele>
        <time>2014-05-29T08:42:06.000Z</time>
      </trkpt>
      <trkpt lat="48.89527" lon="1.08636">
        <ele>202</ele>
        <time>2014-05-29T08:42:08.000Z</time>
      </trkpt>
      <trkpt lat="48.89531" lon="1.0865">
        <ele>202</ele>
        <time>2014-05-29T08:42:10.000Z</time>
      </trkpt>
      <trkpt lat="48.89535" lon="1.08657">
        <ele>202</ele>
        <time>2014-05-29T08:42:12.000Z</time>
      </trkpt>
      <trkpt lat="48.8954" lon="1.08662">
        <ele>202</ele>
        <time>2014-05-29T08:42:14.000Z</time>
      </trkpt>
      <trkpt lat="48.89548" lon="1.08665">
        <ele>202</ele>
        <time>2014-05-29T08:42:16.000Z</time>
      </trkpt>
      <trkpt lat="48.8956" lon="1.08667">
        <ele>203</ele>
        <time>2014-05-29T08:42:18.000Z</time>
      </trkpt>
      <trkpt lat="48.89574" lon="1.08667">
        <ele>203</ele>
        <time>2014-05-29T08:42:20.000Z</time>
      </trkpt>
      <trkpt lat="48.89586" lon="1.08665">
        <ele>203</ele>
        <time>2014-05-29T08:42:22.000Z</time>
      </trkpt>
      <trkpt lat="48.89596" lon="1.08664">
        <ele>203</ele>
        <time>2014-05-29T08:42:24.000Z</time>
      </trkpt>
      <trkpt lat="48.89605" lon="1.08664">
        <ele>203</ele>
        <time>2014-05-29T08:42:26.000Z</time>
      </trkpt>
      <trkpt lat="48.89614" lon="1.08663">
        <ele>203</ele>
        <time>2014-05-29T08:42:28.000Z</time>
      </trkpt>
      <trkpt lat="48.89623" lon="1.08663">
        <ele>203</ele>
        <time>2014-05-29T08:42:30.000Z</time>
      </trkpt>
      <trkpt lat="48.89632" lon="1.08663">
        <ele>203</ele>
        <time>2014-05-29T08:42:32.000Z</time>
      </trkpt>
      <trkpt lat="48.89641" lon="1.08662">
        <ele>203</ele>
        <time>2014-05-29T08:42:34.000Z</time>
      </trkpt>
      <trkpt lat="48.89651" lon="1.08661">
        <ele>203</ele>
        <time>2014-05-29T08:42:36.000Z</time>
      </trkpt>
      <trkpt lat="48.89661" lon="1.08659">
        <ele>203</ele>
        <time>2014-05-29T08:42:38.000Z</time>
      </trkpt>
      <trkpt lat="48.89671" lon="1.08657">
        <ele>204</ele>
        <time>2014-05-29T08:42:40.000Z</time>
      </trkpt>
      <trkpt lat="48.89683" lon="1.08654">
        <ele>204</ele>
        <time>2014-05-29T08:42:42.000Z</time>
      </trkpt>
      <trkpt lat="48.89695" lon="1.08652">
        <ele>205</ele>
        <time>2014-05-29T08:42:44.000Z</time>
      </trkpt>
      <trkpt lat="48.89706" lon="1.08649">
        <ele>209</ele>
        <time>2014-05-29T08:42:46.000Z</time>
      </trkpt>
      <trkpt lat="48.89717" lon="1.08647">
        <ele>211</ele>
        <time>2014-05-29T08:42:48.000Z</time>
      </trkpt>
      <trkpt lat="48.89726" lon="1.08644">
        <ele>211</ele>
        <time>2014-05-29T08:42:50.000Z</time>
      </trkpt>
      <trkpt lat="48.89737" lon="1.08641">
        <ele>211</ele>
        <time>2014-05-29T08:42:52.000Z</time>
      </trkpt>
      <trkpt lat="48.89747" lon="1.08638">
        <ele>211</ele>
        <time>2014-05-29T08:42:54.000Z</time>
      </trkpt>
      <trkpt lat="48.8976" lon="1.08632">
        <ele>212</ele>
        <time>2014-05-29T08:42:56.000Z</time>
      </trkpt>
      <trkpt lat="48.89773" lon="1.08626">
        <ele>212</ele>
        <time>2014-05-29T08:42:58.000Z</time>
      </trkpt>
      <trkpt lat="48.89783" lon="1.08621">
        <ele>213</ele>
        <time>2014-05-29T08:43:00.000Z</time>
      </trkpt>
      <trkpt lat="48.89791" lon="1.08618">
        <ele>213</ele>
        <time>2014-05-29T08:43:02.000Z</time>
      </trkpt>
      <trkpt lat="48.89797" lon="1.08615">
        <ele>213</ele>
        <time>2014-05-29T08:43:04.000Z</time>
      </trkpt>
      <trkpt lat="48.89804" lon="1.08615">
        <ele>212</ele>
        <time>2014-05-29T08:43:06.000Z</time>
      </trkpt>
      <trkpt lat="48.89812" lon="1.08625">
        <ele>212</ele>
        <time>2014-05-29T08:43:08.000Z</time>
      </trkpt>
      <trkpt lat="48.8983" lon="1.08652">
        <ele>201</ele>
        <time>2014-05-29T08:43:11.000Z</time>
      </trkpt>
      <trkpt lat="48.89841" lon="1.08666">
        <ele>196</ele>
        <time>2014-05-29T08:43:13.000Z</time>
      </trkpt>
      <trkpt lat="48.89853" lon="1.08682">
        <ele>193</ele>
        <time>2014-05-29T08:43:15.000Z</time>
      </trkpt>
      <trkpt lat="48.89864" lon="1.08698">
        <ele>191</ele>
        <time>2014-05-29T08:43:17.000Z</time>
      </trkpt>
      <trkpt lat="48.89877" lon="1.08715">
        <ele>190</ele>
        <time>2014-05-29T08:43:19.000Z</time>
      </trkpt>
      <trkpt lat="48.8989" lon="1.08732">
        <ele>189</ele>
        <time>2014-05-29T08:43:21.000Z</time>
      </trkpt>
      <trkpt lat="48.89902" lon="1.0875">
        <ele>188</ele>
        <time>2014-05-29T08:43:23.000Z</time>
      </trkpt>
      <trkpt lat="48.89916" lon="1.08768">
        <ele>187</ele>
        <time>2014-05-29T08:43:25.000Z</time>
      </trkpt>
      <trkpt lat="48.89929" lon="1.08786">
        <ele>186</ele>
        <time>2014-05-29T08:43:27.000Z</time>
      </trkpt>
      <trkpt lat="48.89942" lon="1.08803">
        <ele>186</ele>
        <time>2014-05-29T08:43:29.000Z</time>
      </trkpt>
      <trkpt lat="48.89956" lon="1.0882">
        <ele>186</ele>
        <time>2014-05-29T08:43:31.000Z</time>
      </trkpt>
      <trkpt lat="48.89968" lon="1.08836">
        <ele>186</ele>
        <time>2014-05-29T08:43:33.000Z</time>
      </trkpt>
      <trkpt lat="48.89981" lon="1.08853">
        <ele>186</ele>
        <time>2014-05-29T08:43:35.000Z</time>
      </trkpt>
      <trkpt lat="48.89993" lon="1.08869">
        <ele>186</ele>
        <time>2014-05-29T08:43:37.000Z</time>
      </trkpt>
      <trkpt lat="48.90005" lon="1.08885">
        <ele>186</ele>
        <time>2014-05-29T08:43:39.000Z</time>
      </trkpt>
      <trkpt lat="48.90017" lon="1.08899">
        <ele>186</ele>
        <time>2014-05-29T08:43:41.000Z</time>
      </trkpt>
      <trkpt lat="48.90027" lon="1.08912">
        <ele>186</ele>
        <time>2014-05-29T08:43:43.000Z</time>
      </trkpt>
      <trkpt lat="48.90038" lon="1.08923">
        <ele>185</ele>
        <time>2014-05-29T08:43:45.000Z</time>
      </trkpt>
      <trkpt lat="48.90049" lon="1.08932">
        <ele>185</ele>
        <time>2014-05-29T08:43:47.000Z</time>
      </trkpt>
      <trkpt lat="48.9006" lon="1.0894">
        <ele>185</ele>
        <time>2014-05-29T08:43:49.000Z</time>
      </trkpt>
      <trkpt lat="48.90071" lon="1.08948">
        <ele>185</ele>
        <time>2014-05-29T08:43:51.000Z</time>
      </trkpt>
      <trkpt lat="48.90081" lon="1.08959">
        <ele>186</ele>
        <time>2014-05-29T08:43:53.000Z</time>
      </trkpt>
      <trkpt lat="48.90091" lon="1.08973">
        <ele>187</ele>
        <time>2014-05-29T08:43:55.000Z</time>
      </trkpt>
      <trkpt lat="48.90098" lon="1.08992">
        <ele>187</ele>
        <time>2014-05-29T08:43:57.000Z</time>
      </trkpt>
      <trkpt lat="48.90105" lon="1.09011">
        <ele>188</ele>
        <time>2014-05-29T08:43:59.000Z</time>
      </trkpt>
      <trkpt lat="48.90111" lon="1.09032">
        <ele>188</ele>
        <time>2014-05-29T08:44:01.000Z</time>
      </trkpt>
      <trkpt lat="48.90117" lon="1.09053">
        <ele>188</ele>
        <time>2014-05-29T08:44:03.000Z</time>
      </trkpt>
      <trkpt lat="48.90124" lon="1.09077">
        <ele>189</ele>
        <time>2014-05-29T08:44:05.000Z</time>
      </trkpt>
      <trkpt lat="48.90131" lon="1.09102">
        <ele>189</ele>
        <time>2014-05-29T08:44:07.000Z</time>
      </trkpt>
      <trkpt lat="48.90138" lon="1.09127">
        <ele>189</ele>
        <time>2014-05-29T08:44:09.000Z</time>
      </trkpt>
      <trkpt lat="48.90144" lon="1.09152">
        <ele>188</ele>
        <time>2014-05-29T08:44:11.000Z</time>
      </trkpt>
      <trkpt lat="48.90157" lon="1.09171">
        <ele>187</ele>
        <time>2014-05-29T08:44:13.000Z</time>
      </trkpt>
      <trkpt lat="48.90172" lon="1.09172">
        <ele>186</ele>
        <time>2014-05-29T08:44:15.000Z</time>
      </trkpt>
      <trkpt lat="48.90188" lon="1.09166">
        <ele>186</ele>
        <time>2014-05-29T08:44:17.000Z</time>
      </trkpt>
      <trkpt lat="48.90203" lon="1.09157">
        <ele>186</ele>
        <time>2014-05-29T08:44:19.000Z</time>
      </trkpt>
      <trkpt lat="48.90214" lon="1.09144">
        <ele>186</ele>
        <time>2014-05-29T08:44:21.000Z</time>
      </trkpt>
      <trkpt lat="48.90226" lon="1.09129">
        <ele>186</ele>
        <time>2014-05-29T08:44:23.000Z</time>
      </trkpt>
      <trkpt lat="48.90238" lon="1.09113">
        <ele>184</ele>
        <time>2014-05-29T08:44:25.000Z</time>
      </trkpt>
      <trkpt lat="48.90249" lon="1.09097">
        <ele>183</ele>
        <time>2014-05-29T08:44:27.000Z</time>
      </trkpt>
      <trkpt lat="48.9026" lon="1.0908">
        <ele>182</ele>
        <time>2014-05-29T08:44:29.000Z</time>
      </trkpt>
      <trkpt lat="48.90269" lon="1.09065">
        <ele>181</ele>
        <time>2014-05-29T08:44:31.000Z</time>
      </trkpt>
      <trkpt lat="48.90276" lon="1.09049">
        <ele>182</ele>
        <time>2014-05-29T08:44:33.000Z</time>
      </trkpt>
      <trkpt lat="48.90283" lon="1.09031">
        <ele>184</ele>
        <time>2014-05-29T08:44:35.000Z</time>
      </trkpt>
      <trkpt lat="48.90289" lon="1.09012">
        <ele>185</ele>
        <time>2014-05-29T08:44:37.000Z</time>
      </trkpt>
      <trkpt lat="48.90296" lon="1.08991">
        <ele>186</ele>
        <time>2014-05-29T08:44:39.000Z</time>
      </trkpt>
      <trkpt lat="48.90303" lon="1.08972">
        <ele>186</ele>
        <time>2014-05-29T08:44:41.000Z</time>
      </trkpt>
      <trkpt lat="48.90313" lon="1.08958">
        <ele>186</ele>
        <time>2014-05-29T08:44:43.000Z</time>
      </trkpt>
      <trkpt lat="48.90324" lon="1.08944">
        <ele>185</ele>
        <time>2014-05-29T08:44:45.000Z</time>
      </trkpt>
      <trkpt lat="48.90336" lon="1.08933">
        <ele>184</ele>
        <time>2014-05-29T08:44:47.000Z</time>
      </trkpt>
      <trkpt lat="48.9035" lon="1.08923">
        <ele>183</ele>
        <time>2014-05-29T08:44:49.000Z</time>
      </trkpt>
      <trkpt lat="48.90364" lon="1.08915">
        <ele>182</ele>
        <time>2014-05-29T08:44:51.000Z</time>
      </trkpt>
      <trkpt lat="48.90379" lon="1.08907">
        <ele>183</ele>
        <time>2014-05-29T08:44:53.000Z</time>
      </trkpt>
      <trkpt lat="48.90391" lon="1.089">
        <ele>183</ele>
        <time>2014-05-29T08:44:55.000Z</time>
      </trkpt>
      <trkpt lat="48.90403" lon="1.08893">
        <ele>183</ele>
        <time>2014-05-29T08:44:57.000Z</time>
      </trkpt>
      <trkpt lat="48.90417" lon="1.08883">
        <ele>183</ele>
        <time>2014-05-29T08:44:59.000Z</time>
      </trkpt>
      <trkpt lat="48.90429" lon="1.08875">
        <ele>183</ele>
        <time>2014-05-29T08:45:01.000Z</time>
      </trkpt>
      <trkpt lat="48.90441" lon="1.08866">
        <ele>183</ele>
        <time>2014-05-29T08:45:03.000Z</time>
      </trkpt>
      <trkpt lat="48.90453" lon="1.08856">
        <ele>183</ele>
        <time>2014-05-29T08:45:05.000Z</time>
      </trkpt>
      <trkpt lat="48.90464" lon="1.08845">
        <ele>183</ele>
        <time>2014-05-29T08:45:07.000Z</time>
      </trkpt>
      <trkpt lat="48.90475" lon="1.08832">
        <ele>182</ele>
        <time>2014-05-29T08:45:09.000Z</time>
      </trkpt>
      <trkpt lat="48.90483" lon="1.08815">
        <ele>181</ele>
        <time>2014-05-29T08:45:11.000Z</time>
      </trkpt>
      <trkpt lat="48.90486" lon="1.08797">
        <ele>180</ele>
        <time>2014-05-29T08:45:13.000Z</time>
      </trkpt>
      <trkpt lat="48.90489" lon="1.08777">
        <ele>180</ele>
        <time>2014-05-29T08:45:15.000Z</time>
      </trkpt>
      <trkpt lat="48.90491" lon="1.08756">
        <ele>178</ele>
        <time>2014-05-29T08:45:17.000Z</time>
      </trkpt>
      <trkpt lat="48.90493" lon="1.08737">
        <ele>177</ele>
        <time>2014-05-29T08:45:19.000Z</time>
      </trkpt>
      <trkpt lat="48.90495" lon="1.08718">
        <ele>176</ele>
        <time>2014-05-29T08:45:21.000Z</time>
      </trkpt>
      <trkpt lat="48.90499" lon="1.087">
        <ele>176</ele>
        <time>2014-05-29T08:45:23.000Z</time>
      </trkpt>
      <trkpt lat="48.90505" lon="1.08686">
        <ele>176</ele>
        <time>2014-05-29T08:45:25.000Z</time>
      </trkpt>
      <trkpt lat="48.90513" lon="1.08674">
        <ele>176</ele>
        <time>2014-05-29T08:45:27.000Z</time>
      </trkpt>
      <trkpt lat="48.90522" lon="1.08668">
        <ele>175</ele>
        <time>2014-05-29T08:45:29.000Z</time>
      </trkpt>
      <trkpt lat="48.9053" lon="1.08667">
        <ele>173</ele>
        <time>2014-05-29T08:45:31.000Z</time>
      </trkpt>
      <trkpt lat="48.9053" lon="1.08667">
        <ele>173</ele>
        <time>2014-05-29T08:45:33.000Z</time>
      </trkpt>
      <trkpt lat="48.9054" lon="1.08666">
        <ele>173</ele>
        <time>2014-05-29T08:45:35.000Z</time>
      </trkpt>
      <trkpt lat="48.9054" lon="1.08666">
        <ele>173</ele>
        <time>2014-05-29T08:45:37.000Z</time>
      </trkpt>
      <trkpt lat="48.90547" lon="1.08667">
        <ele>173</ele>
        <time>2014-05-29T08:45:39.000Z</time>
      </trkpt>
      <trkpt lat="48.90547" lon="1.08667">
        <ele>173</ele>
        <time>2014-05-29T08:45:41.000Z</time>
      </trkpt>
      <trkpt lat="48.90547" lon="1.08667">
        <ele>173</ele>
        <time>2014-05-29T08:45:43.000Z</time>
      </trkpt>
      <trkpt lat="48.90547" lon="1.08667">
        <ele>173</ele>
        <time>2014-05-29T08:45:45.000Z</time>
      </trkpt>
      <trkpt lat="48.90547" lon="1.08667">
        <ele>173</ele>
        <time>2014-05-29T08:45:47.000Z</time>
      </trkpt>
      <trkpt lat="48.90547" lon="1.08667">
        <ele>173</ele>
        <time>2014-05-29T08:45:51.000Z</time>
      </trkpt>
      <trkpt lat="48.90547" lon="1.08667">
        <ele>173</ele>
        <time>2014-05-29T08:45:53.000Z</time>
      </trkpt>
      <trkpt lat="48.90547" lon="1.08667">
        <ele>173</ele>
        <time>2014-05-29T08:45:55.000Z</time>
      </trkpt>
      <trkpt lat="48.90547" lon="1.08667">
        <ele>173</ele>
        <time>2014-05-29T08:45:57.000Z</time>
      </trkpt>
      <trkpt lat="48.90547" lon="1.08667">
        <ele>173</ele>
        <time>2014-05-29T08:45:59.000Z</time>
      </trkpt>
      <trkpt lat="48.90547" lon="1.08667">
        <ele>173</ele>
        <time>2014-05-29T08:46:01.000Z</time>
      </trkpt>
      <trkpt lat="48.90547" lon="1.08667">
        <ele>173</ele>
        <time>2014-05-29T08:46:03.000Z</time>
      </trkpt>
      <trkpt lat="48.90549" lon="1.08671">
        <ele>175</ele>
        <time>2014-05-29T08:46:09.000Z</time>
      </trkpt>
      <trkpt lat="48.90549" lon="1.08671">
        <ele>175</ele>
        <time>2014-05-29T08:46:11.000Z</time>
      </trkpt>
      <trkpt lat="48.90549" lon="1.08671">
        <ele>175</ele>
        <time>2014-05-29T08:46:13.000Z</time>
      </trkpt>
      <trkpt lat="48.90551" lon="1.08674">
        <ele>176</ele>
        <time>2014-05-29T08:46:17.000Z</time>
      </trkpt>
      <trkpt lat="48.90553" lon="1.08679">
        <ele>178</ele>
        <time>2014-05-29T08:46:23.000Z</time>
      </trkpt>
      <trkpt lat="48.90554" lon="1.08683">
        <ele>179</ele>
        <time>2014-05-29T08:46:25.000Z</time>
      </trkpt>
      <trkpt lat="48.90554" lon="1.08683">
        <ele>179</ele>
        <time>2014-05-29T08:46:27.000Z</time>
      </trkpt>
      <trkpt lat="48.90555" lon="1.08689">
        <ele>180</ele>
        <time>2014-05-29T08:46:29.000Z</time>
      </trkpt>
      <trkpt lat="48.90555" lon="1.08689">
        <ele>180</ele>
        <time>2014-05-29T08:46:31.000Z</time>
      </trkpt>
      <trkpt lat="48.90556" lon="1.08695">
        <ele>182</ele>
        <time>2014-05-29T08:46:33.000Z</time>
      </trkpt>
      <trkpt lat="48.90557" lon="1.08699">
        <ele>182</ele>
        <time>2014-05-29T08:46:35.000Z</time>
      </trkpt>
      <trkpt lat="48.90558" lon="1.08704">
        <ele>185</ele>
        <time>2014-05-29T08:46:41.000Z</time>
      </trkpt>
      <trkpt lat="48.9056" lon="1.08708">
        <ele>185</ele>
        <time>2014-05-29T08:46:43.000Z</time>
      </trkpt>
      <trkpt lat="48.9056" lon="1.08708">
        <ele>185</ele>
        <time>2014-05-29T08:46:45.000Z</time>
      </trkpt>
      <trkpt lat="48.9056" lon="1.08708">
        <ele>185</ele>
        <time>2014-05-29T08:46:47.000Z</time>
      </trkpt>
      <trkpt lat="48.90561" lon="1.08711">
        <ele>186</ele>
        <time>2014-05-29T08:46:58.000Z</time>
      </trkpt>
      <trkpt lat="48.90564" lon="1.08715">
        <ele>186</ele>
        <time>2014-05-29T08:47:04.000Z</time>
      </trkpt>
      <trkpt lat="48.90567" lon="1.08717">
        <ele>187</ele>
        <time>2014-05-29T08:47:06.000Z</time>
      </trkpt>
      <trkpt lat="48.90571" lon="1.08718">
        <ele>188</ele>
        <time>2014-05-29T08:47:08.000Z</time>
      </trkpt>
      <trkpt lat="48.90576" lon="1.08719">
        <ele>188</ele>
        <time>2014-05-29T08:47:10.000Z</time>
      </trkpt>
      <trkpt lat="48.90581" lon="1.0872">
        <ele>189</ele>
        <time>2014-05-29T08:47:12.000Z</time>
      </trkpt>
      <trkpt lat="48.90591" lon="1.08728">
        <ele>189</ele>
        <time>2014-05-29T08:47:14.000Z</time>
      </trkpt>
      <trkpt lat="48.90597" lon="1.08736">
        <ele>190</ele>
        <time>2014-05-29T08:47:18.000Z</time>
      </trkpt>
      <trkpt lat="48.90597" lon="1.08736">
        <ele>190</ele>
        <time>2014-05-29T08:47:20.000Z</time>
      </trkpt>
      <trkpt lat="48.90601" lon="1.08743">
        <ele>191</ele>
        <time>2014-05-29T08:47:22.000Z</time>
      </trkpt>
      <trkpt lat="48.90609" lon="1.08752">
        <ele>192</ele>
        <time>2014-05-29T08:47:26.000Z</time>
      </trkpt>
      <trkpt lat="48.90617" lon="1.08758">
        <ele>193</ele>
        <time>2014-05-29T08:47:30.000Z</time>
      </trkpt>
      <trkpt lat="48.90625" lon="1.08764">
        <ele>195</ele>
        <time>2014-05-29T08:47:34.000Z</time>
      </trkpt>
      <trkpt lat="48.90625" lon="1.08764">
        <ele>195</ele>
        <time>2014-05-29T08:47:36.000Z</time>
      </trkpt>
      <trkpt lat="48.90633" lon="1.0877">
        <ele>196</ele>
        <time>2014-05-29T08:47:38.000Z</time>
      </trkpt>
      <trkpt lat="48.90633" lon="1.0877">
        <ele>196</ele>
        <time>2014-05-29T08:47:40.000Z</time>
      </trkpt>
      <trkpt lat="48.90641" lon="1.0878">
        <ele>196</ele>
        <time>2014-05-29T08:47:42.000Z</time>
      </trkpt>
      <trkpt lat="48.90641" lon="1.0878">
        <ele>196</ele>
        <time>2014-05-29T08:47:44.000Z</time>
      </trkpt>
      <trkpt lat="48.90644" lon="1.08791">
        <ele>196</ele>
        <time>2014-05-29T08:47:46.000Z</time>
      </trkpt>
      <trkpt lat="48.90644" lon="1.08791">
        <ele>196</ele>
        <time>2014-05-29T08:47:48.000Z</time>
      </trkpt>
      <trkpt lat="48.90644" lon="1.08791">
        <ele>196</ele>
        <time>2014-05-29T08:47:50.000Z</time>
      </trkpt>
      <trkpt lat="48.90649" lon="1.08805">
        <ele>196</ele>
        <time>2014-05-29T08:47:52.000Z</time>
      </trkpt>
      <trkpt lat="48.90649" lon="1.08805">
        <ele>196</ele>
        <time>2014-05-29T08:47:54.000Z</time>
      </trkpt>
      <trkpt lat="48.90652" lon="1.08818">
        <ele>196</ele>
        <time>2014-05-29T08:47:56.000Z</time>
      </trkpt>
      <trkpt lat="48.90654" lon="1.08827">
        <ele>196</ele>
        <time>2014-05-29T08:47:58.000Z</time>
      </trkpt>
      <trkpt lat="48.90657" lon="1.08842">
        <ele>196</ele>
        <time>2014-05-29T08:48:02.000Z</time>
      </trkpt>
      <trkpt lat="48.90661" lon="1.0886">
        <ele>197</ele>
        <time>2014-05-29T08:48:06.000Z</time>
      </trkpt>
      <trkpt lat="48.90663" lon="1.0887">
        <ele>197</ele>
        <time>2014-05-29T08:48:08.000Z</time>
      </trkpt>
      <trkpt lat="48.90665" lon="1.08881">
        <ele>197</ele>
        <time>2014-05-29T08:48:10.000Z</time>
      </trkpt>
      <trkpt lat="48.90667" lon="1.08894">
        <ele>197</ele>
        <time>2014-05-29T08:48:12.000Z</time>
      </trkpt>
      <trkpt lat="48.9067" lon="1.08909">
        <ele>197</ele>
        <time>2014-05-29T08:48:14.000Z</time>
      </trkpt>
      <trkpt lat="48.90672" lon="1.08922">
        <ele>197</ele>
        <time>2014-05-29T08:48:16.000Z</time>
      </trkpt>
      <trkpt lat="48.90673" lon="1.08933">
        <ele>197</ele>
        <time>2014-05-29T08:48:18.000Z</time>
      </trkpt>
      <trkpt lat="48.90673" lon="1.08933">
        <ele>197</ele>
        <time>2014-05-29T08:48:20.000Z</time>
      </trkpt>
      <trkpt lat="48.90676" lon="1.08948">
        <ele>197</ele>
        <time>2014-05-29T08:48:22.000Z</time>
      </trkpt>
      <trkpt lat="48.90678" lon="1.08956">
        <ele>197</ele>
        <time>2014-05-29T08:48:24.000Z</time>
      </trkpt>
      <trkpt lat="48.90681" lon="1.08967">
        <ele>197</ele>
        <time>2014-05-29T08:48:28.000Z</time>
      </trkpt>
      <trkpt lat="48.90681" lon="1.08967">
        <ele>197</ele>
        <time>2014-05-29T08:48:30.000Z</time>
      </trkpt>
      <trkpt lat="48.90681" lon="1.08967">
        <ele>197</ele>
        <time>2014-05-29T08:48:32.000Z</time>
      </trkpt>
      <trkpt lat="48.90685" lon="1.08976">
        <ele>197</ele>
        <time>2014-05-29T08:48:34.000Z</time>
      </trkpt>
      <trkpt lat="48.90685" lon="1.08976">
        <ele>197</ele>
        <time>2014-05-29T08:48:36.000Z</time>
      </trkpt>
      <trkpt lat="48.9069" lon="1.08989">
        <ele>198</ele>
        <time>2014-05-29T08:48:38.000Z</time>
      </trkpt>
      <trkpt lat="48.9069" lon="1.08989">
        <ele>198</ele>
        <time>2014-05-29T08:48:40.000Z</time>
      </trkpt>
      <trkpt lat="48.90694" lon="1.09002">
        <ele>199</ele>
        <time>2014-05-29T08:48:42.000Z</time>
      </trkpt>
      <trkpt lat="48.90697" lon="1.09017">
        <ele>199</ele>
        <time>2014-05-29T08:48:46.000Z</time>
      </trkpt>
      <trkpt lat="48.90697" lon="1.09017">
        <ele>199</ele>
        <time>2014-05-29T08:48:48.000Z</time>
      </trkpt>
      <trkpt lat="48.90697" lon="1.09017">
        <ele>199</ele>
        <time>2014-05-29T08:48:50.000Z</time>
      </trkpt>
      <trkpt lat="48.90701" lon="1.0903">
        <ele>199</ele>
        <time>2014-05-29T08:48:52.000Z</time>
      </trkpt>
      <trkpt lat="48.90705" lon="1.09046">
        <ele>200</ele>
        <time>2014-05-29T08:48:56.000Z</time>
      </trkpt>
      <trkpt lat="48.90712" lon="1.09062">
        <ele>200</ele>
        <time>2014-05-29T08:49:00.000Z</time>
      </trkpt>
      <trkpt lat="48.90715" lon="1.09069">
        <ele>200</ele>
        <time>2014-05-29T08:49:02.000Z</time>
      </trkpt>
      <trkpt lat="48.90719" lon="1.0908">
        <ele>200</ele>
        <time>2014-05-29T08:49:06.000Z</time>
      </trkpt>
      <trkpt lat="48.90719" lon="1.0908">
        <ele>200</ele>
        <time>2014-05-29T08:49:08.000Z</time>
      </trkpt>
      <trkpt lat="48.90723" lon="1.09091">
        <ele>201</ele>
        <time>2014-05-29T08:49:10.000Z</time>
      </trkpt>
      <trkpt lat="48.9073" lon="1.09106">
        <ele>201</ele>
        <time>2014-05-29T08:49:14.000Z</time>
      </trkpt>
      <trkpt lat="48.9073" lon="1.09106">
        <ele>201</ele>
        <time>2014-05-29T08:49:16.000Z</time>
      </trkpt>
      <trkpt lat="48.90734" lon="1.09119">
        <ele>202</ele>
        <time>2014-05-29T08:49:18.000Z</time>
      </trkpt>
      <trkpt lat="48.90737" lon="1.09127">
        <ele>202</ele>
        <time>2014-05-29T08:49:20.000Z</time>
      </trkpt>
      <trkpt lat="48.90741" lon="1.09135">
        <ele>202</ele>
        <time>2014-05-29T08:49:22.000Z</time>
      </trkpt>
      <trkpt lat="48.90746" lon="1.09142">
        <ele>202</ele>
        <time>2014-05-29T08:49:24.000Z</time>
      </trkpt>
      <trkpt lat="48.9075" lon="1.0915">
        <ele>202</ele>
        <time>2014-05-29T08:49:26.000Z</time>
      </trkpt>
      <trkpt lat="48.9075" lon="1.0915">
        <ele>202</ele>
        <time>2014-05-29T08:49:28.000Z</time>
      </trkpt>
      <trkpt lat="48.90757" lon="1.0916">
        <ele>203</ele>
        <time>2014-05-29T08:49:30.000Z</time>
      </trkpt>
      <trkpt lat="48.90763" lon="1.0916">
        <ele>203</ele>
        <time>2014-05-29T08:49:32.000Z</time>
      </trkpt>
      <trkpt lat="48.9077" lon="1.09158">
        <ele>203</ele>
        <time>2014-05-29T08:49:34.000Z</time>
      </trkpt>
      <trkpt lat="48.90779" lon="1.09158">
        <ele>203</ele>
        <time>2014-05-29T08:49:36.000Z</time>
      </trkpt>
      <trkpt lat="48.90788" lon="1.09154">
        <ele>203</ele>
        <time>2014-05-29T08:49:38.000Z</time>
      </trkpt>
      <trkpt lat="48.90797" lon="1.09149">
        <ele>204</ele>
        <time>2014-05-29T08:49:40.000Z</time>
      </trkpt>
      <trkpt lat="48.90805" lon="1.09145">
        <ele>204</ele>
        <time>2014-05-29T08:49:42.000Z</time>
      </trkpt>
      <trkpt lat="48.90815" lon="1.09141">
        <ele>204</ele>
        <time>2014-05-29T08:49:44.000Z</time>
      </trkpt>
      <trkpt lat="48.90824" lon="1.09136">
        <ele>204</ele>
        <time>2014-05-29T08:49:46.000Z</time>
      </trkpt>
      <trkpt lat="48.90832" lon="1.09132">
        <ele>203</ele>
        <time>2014-05-29T08:49:48.000Z</time>
      </trkpt>
      <trkpt lat="48.90841" lon="1.09128">
        <ele>203</ele>
        <time>2014-05-29T08:49:50.000Z</time>
      </trkpt>
      <trkpt lat="48.9085" lon="1.09122">
        <ele>203</ele>
        <time>2014-05-29T08:49:52.000Z</time>
      </trkpt>
      <trkpt lat="48.90858" lon="1.09116">
        <ele>204</ele>
        <time>2014-05-29T08:49:54.000Z</time>
      </trkpt>
      <trkpt lat="48.90868" lon="1.0911">
        <ele>205</ele>
        <time>2014-05-29T08:49:56.000Z</time>
      </trkpt>
      <trkpt lat="48.90878" lon="1.09104">
        <ele>205</ele>
        <time>2014-05-29T08:49:58.000Z</time>
      </trkpt>
      <trkpt lat="48.90887" lon="1.09099">
        <ele>204</ele>
        <time>2014-05-29T08:50:00.000Z</time>
      </trkpt>
      <trkpt lat="48.90897" lon="1.09093">
        <ele>203</ele>
        <time>2014-05-29T08:50:02.000Z</time>
      </trkpt>
      <trkpt lat="48.90908" lon="1.09088">
        <ele>203</ele>
        <time>2014-05-29T08:50:04.000Z</time>
      </trkpt>
      <trkpt lat="48.9092" lon="1.09082">
        <ele>202</ele>
        <time>2014-05-29T08:50:06.000Z</time>
      </trkpt>
      <trkpt lat="48.90931" lon="1.09075">
        <ele>202</ele>
        <time>2014-05-29T08:50:08.000Z</time>
      </trkpt>
      <trkpt lat="48.90943" lon="1.09067">
        <ele>201</ele>
        <time>2014-05-29T08:50:10.000Z</time>
      </trkpt>
      <trkpt lat="48.90955" lon="1.09061">
        <ele>200</ele>
        <time>2014-05-29T08:50:12.000Z</time>
      </trkpt>
      <trkpt lat="48.90966" lon="1.09055">
        <ele>200</ele>
        <time>2014-05-29T08:50:14.000Z</time>
      </trkpt>
      <trkpt lat="48.90977" lon="1.09047">
        <ele>200</ele>
        <time>2014-05-29T08:50:16.000Z</time>
      </trkpt>
      <trkpt lat="48.90983" lon="1.09032">
        <ele>201</ele>
        <time>2014-05-29T08:50:18.000Z</time>
      </trkpt>
      <trkpt lat="48.90989" lon="1.09015">
        <ele>201</ele>
        <time>2014-05-29T08:50:20.000Z</time>
      </trkpt>
      <trkpt lat="48.90995" lon="1.09">
        <ele>201</ele>
        <time>2014-05-29T08:50:22.000Z</time>
      </trkpt>
      <trkpt lat="48.91001" lon="1.08984">
        <ele>202</ele>
        <time>2014-05-29T08:50:24.000Z</time>
      </trkpt>
      <trkpt lat="48.91006" lon="1.0897">
        <ele>202</ele>
        <time>2014-05-29T08:50:26.000Z</time>
      </trkpt>
      <trkpt lat="48.91011" lon="1.08952">
        <ele>201</ele>
        <time>2014-05-29T08:50:28.000Z</time>
      </trkpt>
      <trkpt lat="48.91015" lon="1.08929">
        <ele>202</ele>
        <time>2014-05-29T08:50:30.000Z</time>
      </trkpt>
      <trkpt lat="48.91018" lon="1.08908">
        <ele>203</ele>
        <time>2014-05-29T08:50:32.000Z</time>
      </trkpt>
      <trkpt lat="48.91022" lon="1.08889">
        <ele>203</ele>
        <time>2014-05-29T08:50:34.000Z</time>
      </trkpt>
      <trkpt lat="48.91027" lon="1.08872">
        <ele>204</ele>
        <time>2014-05-29T08:50:36.000Z</time>
      </trkpt>
      <trkpt lat="48.91031" lon="1.08852">
        <ele>205</ele>
        <time>2014-05-29T08:50:38.000Z</time>
      </trkpt>
      <trkpt lat="48.91032" lon="1.08831">
        <ele>206</ele>
        <time>2014-05-29T08:50:40.000Z</time>
      </trkpt>
      <trkpt lat="48.91035" lon="1.08806">
        <ele>207</ele>
        <time>2014-05-29T08:50:42.000Z</time>
      </trkpt>
      <trkpt lat="48.91038" lon="1.08784">
        <ele>206</ele>
        <time>2014-05-29T08:50:44.000Z</time>
      </trkpt>
      <trkpt lat="48.91041" lon="1.08761">
        <ele>205</ele>
        <time>2014-05-29T08:50:46.000Z</time>
      </trkpt>
      <trkpt lat="48.91045" lon="1.08741">
        <ele>204</ele>
        <time>2014-05-29T08:50:48.000Z</time>
      </trkpt>
      <trkpt lat="48.91047" lon="1.08722">
        <ele>202</ele>
        <time>2014-05-29T08:50:50.000Z</time>
      </trkpt>
      <trkpt lat="48.91053" lon="1.08703">
        <ele>201</ele>
        <time>2014-05-29T08:50:52.000Z</time>
      </trkpt>
      <trkpt lat="48.9106" lon="1.08683">
        <ele>200</ele>
        <time>2014-05-29T08:50:54.000Z</time>
      </trkpt>
      <trkpt lat="48.91066" lon="1.08664">
        <ele>198</ele>
        <time>2014-05-29T08:50:56.000Z</time>
      </trkpt>
      <trkpt lat="48.91074" lon="1.08643">
        <ele>196</ele>
        <time>2014-05-29T08:50:58.000Z</time>
      </trkpt>
      <trkpt lat="48.9108" lon="1.08622">
        <ele>194</ele>
        <time>2014-05-29T08:51:00.000Z</time>
      </trkpt>
      <trkpt lat="48.91087" lon="1.086">
        <ele>193</ele>
        <time>2014-05-29T08:51:02.000Z</time>
      </trkpt>
      <trkpt lat="48.91093" lon="1.08576">
        <ele>193</ele>
        <time>2014-05-29T08:51:04.000Z</time>
      </trkpt>
      <trkpt lat="48.91099" lon="1.08554">
        <ele>194</ele>
        <time>2014-05-29T08:51:06.000Z</time>
      </trkpt>
      <trkpt lat="48.9111" lon="1.08526">
        <ele>195</ele>
        <time>2014-05-29T08:51:08.000Z</time>
      </trkpt>
      <trkpt lat="48.9112" lon="1.08502">
        <ele>196</ele>
        <time>2014-05-29T08:51:10.000Z</time>
      </trkpt>
      <trkpt lat="48.91129" lon="1.08479">
        <ele>197</ele>
        <time>2014-05-29T08:51:12.000Z</time>
      </trkpt>
      <trkpt lat="48.91137" lon="1.08456">
        <ele>198</ele>
        <time>2014-05-29T08:51:14.000Z</time>
      </trkpt>
      <trkpt lat="48.91143" lon="1.08433">
        <ele>197</ele>
        <time>2014-05-29T08:51:16.000Z</time>
      </trkpt>
      <trkpt lat="48.91148" lon="1.08411">
        <ele>196</ele>
        <time>2014-05-29T08:51:18.000Z</time>
      </trkpt>
      <trkpt lat="48.91152" lon="1.08394">
        <ele>196</ele>
        <time>2014-05-29T08:51:20.000Z</time>
      </trkpt>
      <trkpt lat="48.91159" lon="1.08373">
        <ele>195</ele>
        <time>2014-05-29T08:51:22.000Z</time>
      </trkpt>
      <trkpt lat="48.91168" lon="1.08352">
        <ele>193</ele>
        <time>2014-05-29T08:51:24.000Z</time>
      </trkpt>
      <trkpt lat="48.91177" lon="1.08333">
        <ele>192</ele>
        <time>2014-05-29T08:51:26.000Z</time>
      </trkpt>
      <trkpt lat="48.91185" lon="1.08318">
        <ele>190</ele>
        <time>2014-05-29T08:51:28.000Z</time>
      </trkpt>
      <trkpt lat="48.91193" lon="1.08304">
        <ele>190</ele>
        <time>2014-05-29T08:51:30.000Z</time>
      </trkpt>
      <trkpt lat="48.91201" lon="1.08293">
        <ele>190</ele>
        <time>2014-05-29T08:51:32.000Z</time>
      </trkpt>
      <trkpt lat="48.9121" lon="1.08282">
        <ele>191</ele>
        <time>2014-05-29T08:51:34.000Z</time>
      </trkpt>
      <trkpt lat="48.91218" lon="1.0827">
        <ele>193</ele>
        <time>2014-05-29T08:51:36.000Z</time>
      </trkpt>
      <trkpt lat="48.91226" lon="1.08257">
        <ele>195</ele>
        <time>2014-05-29T08:51:38.000Z</time>
      </trkpt>
      <trkpt lat="48.91234" lon="1.08242">
        <ele>196</ele>
        <time>2014-05-29T08:51:40.000Z</time>
      </trkpt>
      <trkpt lat="48.91243" lon="1.08228">
        <ele>197</ele>
        <time>2014-05-29T08:51:42.000Z</time>
      </trkpt>
      <trkpt lat="48.91253" lon="1.08214">
        <ele>197</ele>
        <time>2014-05-29T08:51:44.000Z</time>
      </trkpt>
      <trkpt lat="48.91262" lon="1.08201">
        <ele>198</ele>
        <time>2014-05-29T08:51:46.000Z</time>
      </trkpt>
      <trkpt lat="48.91269" lon="1.08189">
        <ele>198</ele>
        <time>2014-05-29T08:51:48.000Z</time>
      </trkpt>
      <trkpt lat="48.91275" lon="1.08179">
        <ele>198</ele>
        <time>2014-05-29T08:51:50.000Z</time>
      </trkpt>
      <trkpt lat="48.91281" lon="1.08168">
        <ele>198</ele>
        <time>2014-05-29T08:51:52.000Z</time>
      </trkpt>
      <trkpt lat="48.91289" lon="1.08156">
        <ele>198</ele>
        <time>2014-05-29T08:51:54.000Z</time>
      </trkpt>
      <trkpt lat="48.91294" lon="1.08146">
        <ele>198</ele>
        <time>2014-05-29T08:51:56.000Z</time>
      </trkpt>
      <trkpt lat="48.91299" lon="1.08136">
        <ele>198</ele>
        <time>2014-05-29T08:51:58.000Z</time>
      </trkpt>
      <trkpt lat="48.91304" lon="1.08125">
        <ele>198</ele>
        <time>2014-05-29T08:52:00.000Z</time>
      </trkpt>
      <trkpt lat="48.91309" lon="1.08113">
        <ele>196</ele>
        <time>2014-05-29T08:52:02.000Z</time>
      </trkpt>
      <trkpt lat="48.91313" lon="1.08101">
        <ele>194</ele>
        <time>2014-05-29T08:52:04.000Z</time>
      </trkpt>
      <trkpt lat="48.91318" lon="1.08089">
        <ele>193</ele>
        <time>2014-05-29T08:52:06.000Z</time>
      </trkpt>
      <trkpt lat="48.91323" lon="1.08077">
        <ele>192</ele>
        <time>2014-05-29T08:52:08.000Z</time>
      </trkpt>
      <trkpt lat="48.91328" lon="1.08067">
        <ele>192</ele>
        <time>2014-05-29T08:52:10.000Z</time>
      </trkpt>
      <trkpt lat="48.91331" lon="1.08059">
        <ele>192</ele>
        <time>2014-05-29T08:52:12.000Z</time>
      </trkpt>
      <trkpt lat="48.91336" lon="1.0805">
        <ele>192</ele>
        <time>2014-05-29T08:52:14.000Z</time>
      </trkpt>
      <trkpt lat="48.91339" lon="1.08043">
        <ele>192</ele>
        <time>2014-05-29T08:52:16.000Z</time>
      </trkpt>
      <trkpt lat="48.91343" lon="1.08034">
        <ele>191</ele>
        <time>2014-05-29T08:52:18.000Z</time>
      </trkpt>
      <trkpt lat="48.91349" lon="1.08024">
        <ele>191</ele>
        <time>2014-05-29T08:52:20.000Z</time>
      </trkpt>
      <trkpt lat="48.91355" lon="1.08014">
        <ele>190</ele>
        <time>2014-05-29T08:52:22.000Z</time>
      </trkpt>
      <trkpt lat="48.91361" lon="1.08004">
        <ele>190</ele>
        <time>2014-05-29T08:52:24.000Z</time>
      </trkpt>
      <trkpt lat="48.91366" lon="1.07995">
        <ele>190</ele>
        <time>2014-05-29T08:52:26.000Z</time>
      </trkpt>
      <trkpt lat="48.91372" lon="1.07984">
        <ele>189</ele>
        <time>2014-05-29T08:52:28.000Z</time>
      </trkpt>
      <trkpt lat="48.91379" lon="1.07971">
        <ele>188</ele>
        <time>2014-05-29T08:52:30.000Z</time>
      </trkpt>
      <trkpt lat="48.91386" lon="1.07959">
        <ele>188</ele>
        <time>2014-05-29T08:52:32.000Z</time>
      </trkpt>
      <trkpt lat="48.91392" lon="1.07947">
        <ele>187</ele>
        <time>2014-05-29T08:52:34.000Z</time>
      </trkpt>
      <trkpt lat="48.91399" lon="1.07934">
        <ele>186</ele>
        <time>2014-05-29T08:52:36.000Z</time>
      </trkpt>
      <trkpt lat="48.91405" lon="1.07921">
        <ele>186</ele>
        <time>2014-05-29T08:52:38.000Z</time>
      </trkpt>
      <trkpt lat="48.91411" lon="1.07911">
        <ele>185</ele>
        <time>2014-05-29T08:52:40.000Z</time>
      </trkpt>
      <trkpt lat="48.91417" lon="1.07901">
        <ele>185</ele>
        <time>2014-05-29T08:52:42.000Z</time>
      </trkpt>
      <trkpt lat="48.91424" lon="1.07887">
        <ele>186</ele>
        <time>2014-05-29T08:52:44.000Z</time>
      </trkpt>
      <trkpt lat="48.91431" lon="1.07873">
        <ele>187</ele>
        <time>2014-05-29T08:52:46.000Z</time>
      </trkpt>
      <trkpt lat="48.91438" lon="1.07856">
        <ele>189</ele>
        <time>2014-05-29T08:52:48.000Z</time>
      </trkpt>
      <trkpt lat="48.91444" lon="1.07839">
        <ele>190</ele>
        <time>2014-05-29T08:52:50.000Z</time>
      </trkpt>
      <trkpt lat="48.9145" lon="1.07821">
        <ele>191</ele>
        <time>2014-05-29T08:52:52.000Z</time>
      </trkpt>
      <trkpt lat="48.91453" lon="1.07803">
        <ele>190</ele>
        <time>2014-05-29T08:52:54.000Z</time>
      </trkpt>
      <trkpt lat="48.91456" lon="1.07785">
        <ele>189</ele>
        <time>2014-05-29T08:52:56.000Z</time>
      </trkpt>
      <trkpt lat="48.91459" lon="1.07766">
        <ele>189</ele>
        <time>2014-05-29T08:52:58.000Z</time>
      </trkpt>
      <trkpt lat="48.91461" lon="1.07748">
        <ele>191</ele>
        <time>2014-05-29T08:53:00.000Z</time>
      </trkpt>
      <trkpt lat="48.91463" lon="1.07732">
        <ele>192</ele>
        <time>2014-05-29T08:53:02.000Z</time>
      </trkpt>
      <trkpt lat="48.91466" lon="1.07713">
        <ele>193</ele>
        <time>2014-05-29T08:53:04.000Z</time>
      </trkpt>
      <trkpt lat="48.91471" lon="1.07699">
        <ele>193</ele>
        <time>2014-05-29T08:53:06.000Z</time>
      </trkpt>
      <trkpt lat="48.91475" lon="1.07692">
        <ele>193</ele>
        <time>2014-05-29T08:53:08.000Z</time>
      </trkpt>
      <trkpt lat="48.91483" lon="1.07689">
        <ele>194</ele>
        <time>2014-05-29T08:53:10.000Z</time>
      </trkpt>
      <trkpt lat="48.91492" lon="1.07688">
        <ele>194</ele>
        <time>2014-05-29T08:53:12.000Z</time>
      </trkpt>
      <trkpt lat="48.91499" lon="1.07687">
        <ele>195</ele>
        <time>2014-05-29T08:53:14.000Z</time>
      </trkpt>
      <trkpt lat="48.91507" lon="1.07687">
        <ele>195</ele>
        <time>2014-05-29T08:53:16.000Z</time>
      </trkpt>
      <trkpt lat="48.91515" lon="1.07687">
        <ele>195</ele>
        <time>2014-05-29T08:53:18.000Z</time>
      </trkpt>
      <trkpt lat="48.91515" lon="1.07687">
        <ele>195</ele>
        <time>2014-05-29T08:53:20.000Z</time>
      </trkpt>
      <trkpt lat="48.91521" lon="1.07688">
        <ele>194</ele>
        <time>2014-05-29T08:53:22.000Z</time>
      </trkpt>
      <trkpt lat="48.91528" lon="1.0769">
        <ele>194</ele>
        <time>2014-05-29T08:53:24.000Z</time>
      </trkpt>
      <trkpt lat="48.91537" lon="1.07691">
        <ele>194</ele>
        <time>2014-05-29T08:53:26.000Z</time>
      </trkpt>
      <trkpt lat="48.91546" lon="1.07691">
        <ele>194</ele>
        <time>2014-05-29T08:53:28.000Z</time>
      </trkpt>
      <trkpt lat="48.91554" lon="1.07692">
        <ele>194</ele>
        <time>2014-05-29T08:53:30.000Z</time>
      </trkpt>
      <trkpt lat="48.91571" lon="1.07693">
        <ele>193</ele>
        <time>2014-05-29T08:53:32.000Z</time>
      </trkpt>
      <trkpt lat="48.91578" lon="1.07693">
        <ele>193</ele>
        <time>2014-05-29T08:53:34.000Z</time>
      </trkpt>
      <trkpt lat="48.91586" lon="1.07691">
        <ele>193</ele>
        <time>2014-05-29T08:53:36.000Z</time>
      </trkpt>
      <trkpt lat="48.91591" lon="1.07689">
        <ele>193</ele>
        <time>2014-05-29T08:53:38.000Z</time>
      </trkpt>
      <trkpt lat="48.91599" lon="1.07687">
        <ele>193</ele>
        <time>2014-05-29T08:53:40.000Z</time>
      </trkpt>
      <trkpt lat="48.91605" lon="1.07685">
        <ele>193</ele>
        <time>2014-05-29T08:53:42.000Z</time>
      </trkpt>
      <trkpt lat="48.91605" lon="1.07685">
        <ele>193</ele>
        <time>2014-05-29T08:53:44.000Z</time>
      </trkpt>
      <trkpt lat="48.91617" lon="1.07682">
        <ele>194</ele>
        <time>2014-05-29T08:53:46.000Z</time>
      </trkpt>
      <trkpt lat="48.91624" lon="1.07681">
        <ele>194</ele>
        <time>2014-05-29T08:53:48.000Z</time>
      </trkpt>
      <trkpt lat="48.91631" lon="1.0768">
        <ele>195</ele>
        <time>2014-05-29T08:53:50.000Z</time>
      </trkpt>
      <trkpt lat="48.91631" lon="1.0768">
        <ele>195</ele>
        <time>2014-05-29T08:53:52.000Z</time>
      </trkpt>
      <trkpt lat="48.91641" lon="1.07682">
        <ele>196</ele>
        <time>2014-05-29T08:53:54.000Z</time>
      </trkpt>
      <trkpt lat="48.91641" lon="1.07682">
        <ele>196</ele>
        <time>2014-05-29T08:53:56.000Z</time>
      </trkpt>
      <trkpt lat="48.91651" lon="1.07681">
        <ele>197</ele>
        <time>2014-05-29T08:53:58.000Z</time>
      </trkpt>
      <trkpt lat="48.91651" lon="1.07681">
        <ele>197</ele>
        <time>2014-05-29T08:54:00.000Z</time>
      </trkpt>
      <trkpt lat="48.91659" lon="1.0768">
        <ele>198</ele>
        <time>2014-05-29T08:54:02.000Z</time>
      </trkpt>
      <trkpt lat="48.91659" lon="1.0768">
        <ele>198</ele>
        <time>2014-05-29T08:54:04.000Z</time>
      </trkpt>
      <trkpt lat="48.9167" lon="1.07678">
        <ele>199</ele>
        <time>2014-05-29T08:54:06.000Z</time>
      </trkpt>
      <trkpt lat="48.9168" lon="1.07677">
        <ele>200</ele>
        <time>2014-05-29T08:54:10.000Z</time>
      </trkpt>
      <trkpt lat="48.91686" lon="1.07677">
        <ele>201</ele>
        <time>2014-05-29T08:54:12.000Z</time>
      </trkpt>
      <trkpt lat="48.91692" lon="1.07677">
        <ele>201</ele>
        <time>2014-05-29T08:54:14.000Z</time>
      </trkpt>
      <trkpt lat="48.91698" lon="1.07676">
        <ele>201</ele>
        <time>2014-05-29T08:54:16.000Z</time>
      </trkpt>
      <trkpt lat="48.91706" lon="1.07676">
        <ele>202</ele>
        <time>2014-05-29T08:54:18.000Z</time>
      </trkpt>
      <trkpt lat="48.91713" lon="1.07676">
        <ele>202</ele>
        <time>2014-05-29T08:54:20.000Z</time>
      </trkpt>
      <trkpt lat="48.91713" lon="1.07676">
        <ele>202</ele>
        <time>2014-05-29T08:54:22.000Z</time>
      </trkpt>
      <trkpt lat="48.91724" lon="1.07676">
        <ele>203</ele>
        <time>2014-05-29T08:54:24.000Z</time>
      </trkpt>
      <trkpt lat="48.9173" lon="1.07675">
        <ele>203</ele>
        <time>2014-05-29T08:54:26.000Z</time>
      </trkpt>
      <trkpt lat="48.91736" lon="1.07674">
        <ele>204</ele>
        <time>2014-05-29T08:54:28.000Z</time>
      </trkpt>
      <trkpt lat="48.91743" lon="1.07674">
        <ele>204</ele>
        <time>2014-05-29T08:54:30.000Z</time>
      </trkpt>
      <trkpt lat="48.9175" lon="1.07673">
        <ele>204</ele>
        <time>2014-05-29T08:54:32.000Z</time>
      </trkpt>
      <trkpt lat="48.91757" lon="1.07673">
        <ele>205</ele>
        <time>2014-05-29T08:54:34.000Z</time>
      </trkpt>
      <trkpt lat="48.91764" lon="1.07671">
        <ele>205</ele>
        <time>2014-05-29T08:54:36.000Z</time>
      </trkpt>
      <trkpt lat="48.91771" lon="1.07669">
        <ele>206</ele>
        <time>2014-05-29T08:54:38.000Z</time>
      </trkpt>
      <trkpt lat="48.91778" lon="1.07666">
        <ele>206</ele>
        <time>2014-05-29T08:54:40.000Z</time>
      </trkpt>
      <trkpt lat="48.91785" lon="1.07664">
        <ele>206</ele>
        <time>2014-05-29T08:54:42.000Z</time>
      </trkpt>
      <trkpt lat="48.91792" lon="1.07662">
        <ele>206</ele>
        <time>2014-05-29T08:54:44.000Z</time>
      </trkpt>
      <trkpt lat="48.91798" lon="1.07661">
        <ele>206</ele>
        <time>2014-05-29T08:54:46.000Z</time>
      </trkpt>
      <trkpt lat="48.91804" lon="1.07659">
        <ele>206</ele>
        <time>2014-05-29T08:54:48.000Z</time>
      </trkpt>
      <trkpt lat="48.91811" lon="1.07659">
        <ele>206</ele>
        <time>2014-05-29T08:54:50.000Z</time>
      </trkpt>
      <trkpt lat="48.91811" lon="1.07659">
        <ele>206</ele>
        <time>2014-05-29T08:54:52.000Z</time>
      </trkpt>
      <trkpt lat="48.91821" lon="1.0766">
        <ele>207</ele>
        <time>2014-05-29T08:54:54.000Z</time>
      </trkpt>
      <trkpt lat="48.91821" lon="1.0766">
        <ele>207</ele>
        <time>2014-05-29T08:54:56.000Z</time>
      </trkpt>
      <trkpt lat="48.91829" lon="1.07661">
        <ele>207</ele>
        <time>2014-05-29T08:54:58.000Z</time>
      </trkpt>
      <trkpt lat="48.91829" lon="1.07661">
        <ele>207</ele>
        <time>2014-05-29T08:55:00.000Z</time>
      </trkpt>
      <trkpt lat="48.91836" lon="1.07663">
        <ele>207</ele>
        <time>2014-05-29T08:55:02.000Z</time>
      </trkpt>
      <trkpt lat="48.91836" lon="1.07663">
        <ele>207</ele>
        <time>2014-05-29T08:55:04.000Z</time>
      </trkpt>
      <trkpt lat="48.91847" lon="1.07662">
        <ele>207</ele>
        <time>2014-05-29T08:55:06.000Z</time>
      </trkpt>
      <trkpt lat="48.91853" lon="1.0766">
        <ele>207</ele>
        <time>2014-05-29T08:55:10.000Z</time>
      </trkpt>
      <trkpt lat="48.91853" lon="1.0766">
        <ele>207</ele>
        <time>2014-05-29T08:55:18.000Z</time>
      </trkpt>
      <trkpt lat="48.91853" lon="1.0766">
        <ele>207</ele>
        <time>2014-05-29T08:55:20.000Z</time>
      </trkpt>
      <trkpt lat="48.91861" lon="1.07654">
        <ele>207</ele>
        <time>2014-05-29T08:55:24.000Z</time>
      </trkpt>
      <trkpt lat="48.91864" lon="1.07642">
        <ele>207</ele>
        <time>2014-05-29T08:55:28.000Z</time>
      </trkpt>
      <trkpt lat="48.91865" lon="1.0763">
        <ele>208</ele>
        <time>2014-05-29T08:55:32.000Z</time>
      </trkpt>
      <trkpt lat="48.91865" lon="1.0763">
        <ele>208</ele>
        <time>2014-05-29T08:55:34.000Z</time>
      </trkpt>
      <trkpt lat="48.91868" lon="1.07617">
        <ele>209</ele>
        <time>2014-05-29T08:55:36.000Z</time>
      </trkpt>
      <trkpt lat="48.9188" lon="1.07607">
        <ele>209</ele>
        <time>2014-05-29T08:55:40.000Z</time>
      </trkpt>
      <trkpt lat="48.91888" lon="1.07604">
        <ele>210</ele>
        <time>2014-05-29T08:55:42.000Z</time>
      </trkpt>
      <trkpt lat="48.91896" lon="1.07602">
        <ele>210</ele>
        <time>2014-05-29T08:55:44.000Z</time>
      </trkpt>
      <trkpt lat="48.91926" lon="1.07593">
        <ele>211</ele>
        <time>2014-05-29T08:55:48.000Z</time>
      </trkpt>
      <trkpt lat="48.9194" lon="1.07586">
        <ele>211</ele>
        <time>2014-05-29T08:55:51.000Z</time>
      </trkpt>
      <trkpt lat="48.91948" lon="1.07582">
        <ele>212</ele>
        <time>2014-05-29T08:55:53.000Z</time>
      </trkpt>
      <trkpt lat="48.91956" lon="1.0758">
        <ele>212</ele>
        <time>2014-05-29T08:55:55.000Z</time>
      </trkpt>
      <trkpt lat="48.91965" lon="1.07578">
        <ele>212</ele>
        <time>2014-05-29T08:55:57.000Z</time>
      </trkpt>
      <trkpt lat="48.91972" lon="1.07576">
        <ele>213</ele>
        <time>2014-05-29T08:55:59.000Z</time>
      </trkpt>
      <trkpt lat="48.91982" lon="1.07573">
        <ele>213</ele>
        <time>2014-05-29T08:56:01.000Z</time>
      </trkpt>
      <trkpt lat="48.9199" lon="1.0757">
        <ele>213</ele>
        <time>2014-05-29T08:56:03.000Z</time>
      </trkpt>
      <trkpt lat="48.91998" lon="1.07566">
        <ele>214</ele>
        <time>2014-05-29T08:56:05.000Z</time>
      </trkpt>
      <trkpt lat="48.92003" lon="1.07563">
        <ele>214</ele>
        <time>2014-05-29T08:56:07.000Z</time>
      </trkpt>
      <trkpt lat="48.92003" lon="1.07563">
        <ele>214</ele>
        <time>2014-05-29T08:56:09.000Z</time>
      </trkpt>
      <trkpt lat="48.92013" lon="1.07557">
        <ele>215</ele>
        <time>2014-05-29T08:56:11.000Z</time>
      </trkpt>
      <trkpt lat="48.92019" lon="1.07554">
        <ele>215</ele>
        <time>2014-05-29T08:56:13.000Z</time>
      </trkpt>
      <trkpt lat="48.92025" lon="1.0755">
        <ele>215</ele>
        <time>2014-05-29T08:56:15.000Z</time>
      </trkpt>
      <trkpt lat="48.9203" lon="1.07545">
        <ele>215</ele>
        <time>2014-05-29T08:56:17.000Z</time>
      </trkpt>
      <trkpt lat="48.92037" lon="1.0754">
        <ele>215</ele>
        <time>2014-05-29T08:56:19.000Z</time>
      </trkpt>
      <trkpt lat="48.92042" lon="1.07536">
        <ele>215</ele>
        <time>2014-05-29T08:56:21.000Z</time>
      </trkpt>
      <trkpt lat="48.92051" lon="1.0753">
        <ele>215</ele>
        <time>2014-05-29T08:56:25.000Z</time>
      </trkpt>
      <trkpt lat="48.92057" lon="1.07526">
        <ele>215</ele>
        <time>2014-05-29T08:56:27.000Z</time>
      </trkpt>
      <trkpt lat="48.92063" lon="1.07522">
        <ele>215</ele>
        <time>2014-05-29T08:56:29.000Z</time>
      </trkpt>
      <trkpt lat="48.92069" lon="1.07518">
        <ele>215</ele>
        <time>2014-05-29T08:56:31.000Z</time>
      </trkpt>
      <trkpt lat="48.92075" lon="1.07515">
        <ele>215</ele>
        <time>2014-05-29T08:56:33.000Z</time>
      </trkpt>
      <trkpt lat="48.92081" lon="1.07512">
        <ele>215</ele>
        <time>2014-05-29T08:56:35.000Z</time>
      </trkpt>
      <trkpt lat="48.92088" lon="1.07506">
        <ele>215</ele>
        <time>2014-05-29T08:56:37.000Z</time>
      </trkpt>
      <trkpt lat="48.92094" lon="1.07501">
        <ele>215</ele>
        <time>2014-05-29T08:56:39.000Z</time>
      </trkpt>
      <trkpt lat="48.921" lon="1.07496">
        <ele>215</ele>
        <time>2014-05-29T08:56:41.000Z</time>
      </trkpt>
      <trkpt lat="48.92106" lon="1.07492">
        <ele>216</ele>
        <time>2014-05-29T08:56:43.000Z</time>
      </trkpt>
      <trkpt lat="48.92112" lon="1.07488">
        <ele>216</ele>
        <time>2014-05-29T08:56:45.000Z</time>
      </trkpt>
      <trkpt lat="48.92118" lon="1.07483">
        <ele>216</ele>
        <time>2014-05-29T08:56:47.000Z</time>
      </trkpt>
      <trkpt lat="48.92125" lon="1.07479">
        <ele>215</ele>
        <time>2014-05-29T08:56:49.000Z</time>
      </trkpt>
      <trkpt lat="48.92131" lon="1.07474">
        <ele>215</ele>
        <time>2014-05-29T08:56:51.000Z</time>
      </trkpt>
      <trkpt lat="48.92138" lon="1.0747">
        <ele>215</ele>
        <time>2014-05-29T08:56:53.000Z</time>
      </trkpt>
      <trkpt lat="48.92145" lon="1.07465">
        <ele>215</ele>
        <time>2014-05-29T08:56:55.000Z</time>
      </trkpt>
      <trkpt lat="48.92152" lon="1.07461">
        <ele>215</ele>
        <time>2014-05-29T08:56:57.000Z</time>
      </trkpt>
      <trkpt lat="48.9216" lon="1.07456">
        <ele>215</ele>
        <time>2014-05-29T08:56:59.000Z</time>
      </trkpt>
      <trkpt lat="48.92169" lon="1.0745">
        <ele>215</ele>
        <time>2014-05-29T08:57:01.000Z</time>
      </trkpt>
      <trkpt lat="48.92178" lon="1.07445">
        <ele>215</ele>
        <time>2014-05-29T08:57:03.000Z</time>
      </trkpt>
      <trkpt lat="48.92186" lon="1.0744">
        <ele>215</ele>
        <time>2014-05-29T08:57:05.000Z</time>
      </trkpt>
      <trkpt lat="48.92193" lon="1.07435">
        <ele>215</ele>
        <time>2014-05-29T08:57:07.000Z</time>
      </trkpt>
      <trkpt lat="48.92201" lon="1.07429">
        <ele>215</ele>
        <time>2014-05-29T08:57:09.000Z</time>
      </trkpt>
      <trkpt lat="48.92208" lon="1.07424">
        <ele>215</ele>
        <time>2014-05-29T08:57:11.000Z</time>
      </trkpt>
      <trkpt lat="48.92215" lon="1.07418">
        <ele>215</ele>
        <time>2014-05-29T08:57:13.000Z</time>
      </trkpt>
      <trkpt lat="48.92223" lon="1.07412">
        <ele>215</ele>
        <time>2014-05-29T08:57:15.000Z</time>
      </trkpt>
      <trkpt lat="48.92229" lon="1.07408">
        <ele>215</ele>
        <time>2014-05-29T08:57:17.000Z</time>
      </trkpt>
      <trkpt lat="48.92236" lon="1.07404">
        <ele>216</ele>
        <time>2014-05-29T08:57:19.000Z</time>
      </trkpt>
      <trkpt lat="48.92245" lon="1.07398">
        <ele>216</ele>
        <time>2014-05-29T08:57:21.000Z</time>
      </trkpt>
      <trkpt lat="48.92253" lon="1.07393">
        <ele>216</ele>
        <time>2014-05-29T08:57:23.000Z</time>
      </trkpt>
      <trkpt lat="48.9226" lon="1.07388">
        <ele>216</ele>
        <time>2014-05-29T08:57:25.000Z</time>
      </trkpt>
      <trkpt lat="48.92268" lon="1.07381">
        <ele>216</ele>
        <time>2014-05-29T08:57:27.000Z</time>
      </trkpt>
      <trkpt lat="48.92278" lon="1.07374">
        <ele>216</ele>
        <time>2014-05-29T08:57:29.000Z</time>
      </trkpt>
      <trkpt lat="48.92288" lon="1.07366">
        <ele>216</ele>
        <time>2014-05-29T08:57:31.000Z</time>
      </trkpt>
      <trkpt lat="48.92298" lon="1.0736">
        <ele>217</ele>
        <time>2014-05-29T08:57:33.000Z</time>
      </trkpt>
      <trkpt lat="48.92308" lon="1.07354">
        <ele>216</ele>
        <time>2014-05-29T08:57:35.000Z</time>
      </trkpt>
      <trkpt lat="48.92316" lon="1.0735">
        <ele>215</ele>
        <time>2014-05-29T08:57:37.000Z</time>
      </trkpt>
      <trkpt lat="48.92323" lon="1.07347">
        <ele>215</ele>
        <time>2014-05-29T08:57:39.000Z</time>
      </trkpt>
      <trkpt lat="48.92331" lon="1.07342">
        <ele>215</ele>
        <time>2014-05-29T08:57:41.000Z</time>
      </trkpt>
      <trkpt lat="48.92339" lon="1.07337">
        <ele>215</ele>
        <time>2014-05-29T08:57:43.000Z</time>
      </trkpt>
      <trkpt lat="48.92348" lon="1.0733">
        <ele>215</ele>
        <time>2014-05-29T08:57:45.000Z</time>
      </trkpt>
      <trkpt lat="48.92356" lon="1.07325">
        <ele>215</ele>
        <time>2014-05-29T08:57:47.000Z</time>
      </trkpt>
      <trkpt lat="48.92363" lon="1.0732">
        <ele>213</ele>
        <time>2014-05-29T08:57:49.000Z</time>
      </trkpt>
      <trkpt lat="48.92373" lon="1.07314">
        <ele>211</ele>
        <time>2014-05-29T08:57:51.000Z</time>
      </trkpt>
      <trkpt lat="48.92382" lon="1.07308">
        <ele>211</ele>
        <time>2014-05-29T08:57:53.000Z</time>
      </trkpt>
      <trkpt lat="48.92391" lon="1.07303">
        <ele>211</ele>
        <time>2014-05-29T08:57:55.000Z</time>
      </trkpt>
      <trkpt lat="48.924" lon="1.07298">
        <ele>211</ele>
        <time>2014-05-29T08:57:57.000Z</time>
      </trkpt>
      <trkpt lat="48.92408" lon="1.07292">
        <ele>211</ele>
        <time>2014-05-29T08:57:59.000Z</time>
      </trkpt>
      <trkpt lat="48.92415" lon="1.07286">
        <ele>211</ele>
        <time>2014-05-29T08:58:01.000Z</time>
      </trkpt>
      <trkpt lat="48.92424" lon="1.07279">
        <ele>211</ele>
        <time>2014-05-29T08:58:03.000Z</time>
      </trkpt>
      <trkpt lat="48.92432" lon="1.07273">
        <ele>211</ele>
        <time>2014-05-29T08:58:05.000Z</time>
      </trkpt>
      <trkpt lat="48.9244" lon="1.07268">
        <ele>211</ele>
        <time>2014-05-29T08:58:07.000Z</time>
      </trkpt>
      <trkpt lat="48.92451" lon="1.0726">
        <ele>211</ele>
        <time>2014-05-29T08:58:09.000Z</time>
      </trkpt>
      <trkpt lat="48.92461" lon="1.07254">
        <ele>211</ele>
        <time>2014-05-29T08:58:11.000Z</time>
      </trkpt>
      <trkpt lat="48.92469" lon="1.07247">
        <ele>212</ele>
        <time>2014-05-29T08:58:13.000Z</time>
      </trkpt>
      <trkpt lat="48.92477" lon="1.07242">
        <ele>212</ele>
        <time>2014-05-29T08:58:15.000Z</time>
      </trkpt>
      <trkpt lat="48.92484" lon="1.07237">
        <ele>212</ele>
        <time>2014-05-29T08:58:17.000Z</time>
      </trkpt>
      <trkpt lat="48.92492" lon="1.07232">
        <ele>212</ele>
        <time>2014-05-29T08:58:19.000Z</time>
      </trkpt>
      <trkpt lat="48.925" lon="1.07228">
        <ele>212</ele>
        <time>2014-05-29T08:58:21.000Z</time>
      </trkpt>
      <trkpt lat="48.92507" lon="1.07223">
        <ele>212</ele>
        <time>2014-05-29T08:58:23.000Z</time>
      </trkpt>
      <trkpt lat="48.92516" lon="1.07218">
        <ele>212</ele>
        <time>2014-05-29T08:58:25.000Z</time>
      </trkpt>
      <trkpt lat="48.92526" lon="1.07212">
        <ele>212</ele>
        <time>2014-05-29T08:58:27.000Z</time>
      </trkpt>
      <trkpt lat="48.92535" lon="1.07206">
        <ele>212</ele>
        <time>2014-05-29T08:58:29.000Z</time>
      </trkpt>
      <trkpt lat="48.92544" lon="1.07201">
        <ele>212</ele>
        <time>2014-05-29T08:58:31.000Z</time>
      </trkpt>
      <trkpt lat="48.92553" lon="1.07196">
        <ele>212</ele>
        <time>2014-05-29T08:58:33.000Z</time>
      </trkpt>
      <trkpt lat="48.9256" lon="1.07192">
        <ele>212</ele>
        <time>2014-05-29T08:58:35.000Z</time>
      </trkpt>
      <trkpt lat="48.92571" lon="1.07185">
        <ele>215</ele>
        <time>2014-05-29T08:58:37.000Z</time>
      </trkpt>
      <trkpt lat="48.92582" lon="1.07175">
        <ele>216</ele>
        <time>2014-05-29T08:58:39.000Z</time>
      </trkpt>
      <trkpt lat="48.92592" lon="1.07167">
        <ele>216</ele>
        <time>2014-05-29T08:58:41.000Z</time>
      </trkpt>
      <trkpt lat="48.92604" lon="1.07158">
        <ele>216</ele>
        <time>2014-05-29T08:58:43.000Z</time>
      </trkpt>
      <trkpt lat="48.92616" lon="1.0715">
        <ele>215</ele>
        <time>2014-05-29T08:58:45.000Z</time>
      </trkpt>
      <trkpt lat="48.92625" lon="1.07142">
        <ele>214</ele>
        <time>2014-05-29T08:58:47.000Z</time>
      </trkpt>
      <trkpt lat="48.92632" lon="1.07135">
        <ele>214</ele>
        <time>2014-05-29T08:58:49.000Z</time>
      </trkpt>
      <trkpt lat="48.92637" lon="1.07129">
        <ele>213</ele>
        <time>2014-05-29T08:58:51.000Z</time>
      </trkpt>
      <trkpt lat="48.92637" lon="1.07129">
        <ele>213</ele>
        <time>2014-05-29T08:58:54.000Z</time>
      </trkpt>
      <trkpt lat="48.92642" lon="1.07121">
        <ele>212</ele>
        <time>2014-05-29T08:58:56.000Z</time>
      </trkpt>
      <trkpt lat="48.92642" lon="1.07121">
        <ele>212</ele>
        <time>2014-05-29T08:58:58.000Z</time>
      </trkpt>
      <trkpt lat="48.92642" lon="1.07121">
        <ele>212</ele>
        <time>2014-05-29T08:59:00.000Z</time>
      </trkpt>
      <trkpt lat="48.92646" lon="1.07108">
        <ele>208</ele>
        <time>2014-05-29T08:59:02.000Z</time>
      </trkpt>
      <trkpt lat="48.92647" lon="1.071">
        <ele>208</ele>
        <time>2014-05-29T08:59:04.000Z</time>
      </trkpt>
      <trkpt lat="48.92649" lon="1.0709">
        <ele>207</ele>
        <time>2014-05-29T08:59:06.000Z</time>
      </trkpt>
      <trkpt lat="48.9265" lon="1.0708">
        <ele>206</ele>
        <time>2014-05-29T08:59:08.000Z</time>
      </trkpt>
      <trkpt lat="48.92651" lon="1.07069">
        <ele>205</ele>
        <time>2014-05-29T08:59:10.000Z</time>
      </trkpt>
      <trkpt lat="48.92651" lon="1.07059">
        <ele>204</ele>
        <time>2014-05-29T08:59:12.000Z</time>
      </trkpt>
      <trkpt lat="48.92651" lon="1.07046">
        <ele>204</ele>
        <time>2014-05-29T08:59:14.000Z</time>
      </trkpt>
      <trkpt lat="48.92651" lon="1.07037">
        <ele>204</ele>
        <time>2014-05-29T08:59:16.000Z</time>
      </trkpt>
      <trkpt lat="48.92651" lon="1.07037">
        <ele>204</ele>
        <time>2014-05-29T08:59:18.000Z</time>
      </trkpt>
      <trkpt lat="48.92652" lon="1.07031">
        <ele>202</ele>
        <time>2014-05-29T08:59:24.000Z</time>
      </trkpt>
      <trkpt lat="48.92654" lon="1.07027">
        <ele>201</ele>
        <time>2014-05-29T08:59:26.000Z</time>
      </trkpt>
      <trkpt lat="48.92656" lon="1.07024">
        <ele>201</ele>
        <time>2014-05-29T08:59:28.000Z</time>
      </trkpt>
      <trkpt lat="48.92659" lon="1.07021">
        <ele>201</ele>
        <time>2014-05-29T08:59:31.000Z</time>
      </trkpt>
      <trkpt lat="48.92663" lon="1.07018">
        <ele>200</ele>
        <time>2014-05-29T08:59:32.000Z</time>
      </trkpt>
      <trkpt lat="48.92671" lon="1.07015">
        <ele>200</ele>
        <time>2014-05-29T08:59:34.000Z</time>
      </trkpt>
      <trkpt lat="48.92671" lon="1.07015">
        <ele>200</ele>
        <time>2014-05-29T08:59:36.000Z</time>
      </trkpt>
      <trkpt lat="48.9268" lon="1.07015">
        <ele>200</ele>
        <time>2014-05-29T08:59:38.000Z</time>
      </trkpt>
      <trkpt lat="48.92689" lon="1.07016">
        <ele>200</ele>
        <time>2014-05-29T08:59:42.000Z</time>
      </trkpt>
      <trkpt lat="48.92689" lon="1.07016">
        <ele>200</ele>
        <time>2014-05-29T08:59:44.000Z</time>
      </trkpt>
      <trkpt lat="48.92698" lon="1.07016">
        <ele>201</ele>
        <time>2014-05-29T08:59:46.000Z</time>
      </trkpt>
      <trkpt lat="48.92698" lon="1.07016">
        <ele>201</ele>
        <time>2014-05-29T08:59:48.000Z</time>
      </trkpt>
      <trkpt lat="48.92708" lon="1.07016">
        <ele>202</ele>
        <time>2014-05-29T08:59:50.000Z</time>
      </trkpt>
      <trkpt lat="48.92708" lon="1.07016">
        <ele>202</ele>
        <time>2014-05-29T08:59:52.000Z</time>
      </trkpt>
      <trkpt lat="48.92718" lon="1.07011">
        <ele>203</ele>
        <time>2014-05-29T08:59:54.000Z</time>
      </trkpt>
      <trkpt lat="48.92726" lon="1.07004">
        <ele>203</ele>
        <time>2014-05-29T08:59:58.000Z</time>
      </trkpt>
      <trkpt lat="48.92733" lon="1.06996">
        <ele>202</ele>
        <time>2014-05-29T09:00:02.000Z</time>
      </trkpt>
      <trkpt lat="48.92737" lon="1.06987">
        <ele>202</ele>
        <time>2014-05-29T09:00:04.000Z</time>
      </trkpt>
      <trkpt lat="48.92741" lon="1.06979">
        <ele>202</ele>
        <time>2014-05-29T09:00:06.000Z</time>
      </trkpt>
      <trkpt lat="48.92745" lon="1.06971">
        <ele>202</ele>
        <time>2014-05-29T09:00:08.000Z</time>
      </trkpt>
      <trkpt lat="48.92749" lon="1.06963">
        <ele>202</ele>
        <time>2014-05-29T09:00:10.000Z</time>
      </trkpt>
      <trkpt lat="48.92754" lon="1.06947">
        <ele>201</ele>
        <time>2014-05-29T09:00:14.000Z</time>
      </trkpt>
      <trkpt lat="48.92754" lon="1.06938">
        <ele>201</ele>
        <time>2014-05-29T09:00:16.000Z</time>
      </trkpt>
      <trkpt lat="48.92756" lon="1.06921">
        <ele>201</ele>
        <time>2014-05-29T09:00:20.000Z</time>
      </trkpt>
      <trkpt lat="48.92757" lon="1.0691">
        <ele>201</ele>
        <time>2014-05-29T09:00:22.000Z</time>
      </trkpt>
      <trkpt lat="48.9276" lon="1.06902">
        <ele>202</ele>
        <time>2014-05-29T09:00:24.000Z</time>
      </trkpt>
      <trkpt lat="48.92763" lon="1.06893">
        <ele>202</ele>
        <time>2014-05-29T09:00:26.000Z</time>
      </trkpt>
      <trkpt lat="48.92763" lon="1.06893">
        <ele>202</ele>
        <time>2014-05-29T09:00:28.000Z</time>
      </trkpt>
      <trkpt lat="48.92767" lon="1.06879">
        <ele>202</ele>
        <time>2014-05-29T09:00:30.000Z</time>
      </trkpt>
      <trkpt lat="48.92767" lon="1.06879">
        <ele>202</ele>
        <time>2014-05-29T09:00:32.000Z</time>
      </trkpt>
      <trkpt lat="48.92769" lon="1.06866">
        <ele>201</ele>
        <time>2014-05-29T09:00:34.000Z</time>
      </trkpt>
      <trkpt lat="48.92769" lon="1.06866">
        <ele>201</ele>
        <time>2014-05-29T09:00:36.000Z</time>
      </trkpt>
      <trkpt lat="48.92772" lon="1.06852">
        <ele>201</ele>
        <time>2014-05-29T09:00:38.000Z</time>
      </trkpt>
      <trkpt lat="48.92773" lon="1.06842">
        <ele>200</ele>
        <time>2014-05-29T09:00:40.000Z</time>
      </trkpt>
      <trkpt lat="48.92775" lon="1.06834">
        <ele>200</ele>
        <time>2014-05-29T09:00:42.000Z</time>
      </trkpt>
      <trkpt lat="48.92775" lon="1.06834">
        <ele>200</ele>
        <time>2014-05-29T09:00:44.000Z</time>
      </trkpt>
      <trkpt lat="48.92775" lon="1.06823">
        <ele>200</ele>
        <time>2014-05-29T09:00:46.000Z</time>
      </trkpt>
      <trkpt lat="48.92775" lon="1.06823">
        <ele>200</ele>
        <time>2014-05-29T09:00:48.000Z</time>
      </trkpt>
      <trkpt lat="48.92777" lon="1.0681">
        <ele>201</ele>
        <time>2014-05-29T09:00:50.000Z</time>
      </trkpt>
      <trkpt lat="48.92778" lon="1.06802">
        <ele>201</ele>
        <time>2014-05-29T09:00:52.000Z</time>
      </trkpt>
      <trkpt lat="48.92779" lon="1.0679">
        <ele>202</ele>
        <time>2014-05-29T09:00:54.000Z</time>
      </trkpt>
      <trkpt lat="48.92781" lon="1.06777">
        <ele>202</ele>
        <time>2014-05-29T09:00:56.000Z</time>
      </trkpt>
      <trkpt lat="48.92783" lon="1.06765">
        <ele>202</ele>
        <time>2014-05-29T09:00:58.000Z</time>
      </trkpt>
      <trkpt lat="48.92784" lon="1.06754">
        <ele>203</ele>
        <time>2014-05-29T09:01:00.000Z</time>
      </trkpt>
      <trkpt lat="48.92785" lon="1.06743">
        <ele>204</ele>
        <time>2014-05-29T09:01:02.000Z</time>
      </trkpt>
      <trkpt lat="48.92787" lon="1.06734">
        <ele>204</ele>
        <time>2014-05-29T09:01:04.000Z</time>
      </trkpt>
      <trkpt lat="48.92787" lon="1.06734">
        <ele>204</ele>
        <time>2014-05-29T09:01:06.000Z</time>
      </trkpt>
      <trkpt lat="48.92792" lon="1.0672">
        <ele>204</ele>
        <time>2014-05-29T09:01:08.000Z</time>
      </trkpt>
      <trkpt lat="48.92797" lon="1.06713">
        <ele>204</ele>
        <time>2014-05-29T09:01:10.000Z</time>
      </trkpt>
      <trkpt lat="48.92803" lon="1.06707">
        <ele>205</ele>
        <time>2014-05-29T09:01:12.000Z</time>
      </trkpt>
      <trkpt lat="48.92803" lon="1.06707">
        <ele>205</ele>
        <time>2014-05-29T09:01:14.000Z</time>
      </trkpt>
      <trkpt lat="48.9281" lon="1.06698">
        <ele>205</ele>
        <time>2014-05-29T09:01:16.000Z</time>
      </trkpt>
      <trkpt lat="48.92815" lon="1.06691">
        <ele>205</ele>
        <time>2014-05-29T09:01:18.000Z</time>
      </trkpt>
      <trkpt lat="48.92822" lon="1.06685">
        <ele>206</ele>
        <time>2014-05-29T09:01:20.000Z</time>
      </trkpt>
      <trkpt lat="48.92829" lon="1.06678">
        <ele>206</ele>
        <time>2014-05-29T09:01:22.000Z</time>
      </trkpt>
      <trkpt lat="48.92836" lon="1.06672">
        <ele>206</ele>
        <time>2014-05-29T09:01:24.000Z</time>
      </trkpt>
      <trkpt lat="48.92843" lon="1.06666">
        <ele>206</ele>
        <time>2014-05-29T09:01:26.000Z</time>
      </trkpt>
      <trkpt lat="48.9285" lon="1.06661">
        <ele>206</ele>
        <time>2014-05-29T09:01:28.000Z</time>
      </trkpt>
      <trkpt lat="48.92855" lon="1.06656">
        <ele>207</ele>
        <time>2014-05-29T09:01:30.000Z</time>
      </trkpt>
      <trkpt lat="48.92861" lon="1.06652">
        <ele>207</ele>
        <time>2014-05-29T09:01:32.000Z</time>
      </trkpt>
      <trkpt lat="48.92868" lon="1.06648">
        <ele>207</ele>
        <time>2014-05-29T09:01:34.000Z</time>
      </trkpt>
      <trkpt lat="48.92876" lon="1.06642">
        <ele>207</ele>
        <time>2014-05-29T09:01:36.000Z</time>
      </trkpt>
      <trkpt lat="48.92882" lon="1.06638">
        <ele>207</ele>
        <time>2014-05-29T09:01:38.000Z</time>
      </trkpt>
      <trkpt lat="48.92888" lon="1.06635">
        <ele>207</ele>
        <time>2014-05-29T09:01:40.000Z</time>
      </trkpt>
      <trkpt lat="48.92894" lon="1.06632">
        <ele>207</ele>
        <time>2014-05-29T09:01:42.000Z</time>
      </trkpt>
      <trkpt lat="48.92901" lon="1.06627">
        <ele>208</ele>
        <time>2014-05-29T09:01:44.000Z</time>
      </trkpt>
      <trkpt lat="48.92906" lon="1.06623">
        <ele>208</ele>
        <time>2014-05-29T09:01:46.000Z</time>
      </trkpt>
      <trkpt lat="48.92912" lon="1.06619">
        <ele>208</ele>
        <time>2014-05-29T09:01:48.000Z</time>
      </trkpt>
      <trkpt lat="48.92918" lon="1.06615">
        <ele>208</ele>
        <time>2014-05-29T09:01:50.000Z</time>
      </trkpt>
      <trkpt lat="48.92926" lon="1.0661">
        <ele>209</ele>
        <time>2014-05-29T09:01:53.000Z</time>
      </trkpt>
      <trkpt lat="48.92931" lon="1.06605">
        <ele>209</ele>
        <time>2014-05-29T09:01:54.000Z</time>
      </trkpt>
      <trkpt lat="48.92931" lon="1.06605">
        <ele>209</ele>
        <time>2014-05-29T09:01:56.000Z</time>
      </trkpt>
      <trkpt lat="48.92938" lon="1.06599">
        <ele>209</ele>
        <time>2014-05-29T09:02:00.000Z</time>
      </trkpt>
      <trkpt lat="48.92938" lon="1.06599">
        <ele>209</ele>
        <time>2014-05-29T09:02:03.000Z</time>
      </trkpt>
      <trkpt lat="48.92945" lon="1.06594">
        <ele>210</ele>
        <time>2014-05-29T09:02:04.000Z</time>
      </trkpt>
      <trkpt lat="48.92945" lon="1.06594">
        <ele>210</ele>
        <time>2014-05-29T09:02:04.000Z</time>
      </trkpt>
      <trkpt lat="48.92953" lon="1.06589">
        <ele>210</ele>
        <time>2014-05-29T09:02:06.000Z</time>
      </trkpt>
      <trkpt lat="48.9296" lon="1.06585">
        <ele>211</ele>
        <time>2014-05-29T09:02:10.000Z</time>
      </trkpt>
      <trkpt lat="48.9296" lon="1.06585">
        <ele>211</ele>
        <time>2014-05-29T09:02:12.000Z</time>
      </trkpt>
      <trkpt lat="48.92969" lon="1.06577">
        <ele>212</ele>
        <time>2014-05-29T09:02:14.000Z</time>
      </trkpt>
      <trkpt lat="48.92969" lon="1.06577">
        <ele>212</ele>
        <time>2014-05-29T09:02:16.000Z</time>
      </trkpt>
      <trkpt lat="48.92977" lon="1.06572">
        <ele>213</ele>
        <time>2014-05-29T09:02:18.000Z</time>
      </trkpt>
      <trkpt lat="48.92977" lon="1.06572">
        <ele>213</ele>
        <time>2014-05-29T09:02:20.000Z</time>
      </trkpt>
      <trkpt lat="48.92977" lon="1.06572">
        <ele>213</ele>
        <time>2014-05-29T09:02:22.000Z</time>
      </trkpt>
      <trkpt lat="48.92976" lon="1.0656">
        <ele>214</ele>
        <time>2014-05-29T09:02:24.000Z</time>
      </trkpt>
      <trkpt lat="48.92978" lon="1.06546">
        <ele>214</ele>
        <time>2014-05-29T09:02:28.000Z</time>
      </trkpt>
      <trkpt lat="48.92978" lon="1.06546">
        <ele>214</ele>
        <time>2014-05-29T09:02:30.000Z</time>
      </trkpt>
      <trkpt lat="48.92974" lon="1.06535">
        <ele>214</ele>
        <time>2014-05-29T09:02:34.000Z</time>
      </trkpt>
      <trkpt lat="48.92974" lon="1.06535">
        <ele>214</ele>
        <time>2014-05-29T09:02:38.000Z</time>
      </trkpt>
      <trkpt lat="48.92978" lon="1.06523">
        <ele>213</ele>
        <time>2014-05-29T09:02:40.000Z</time>
      </trkpt>
      <trkpt lat="48.92978" lon="1.06523">
        <ele>213</ele>
        <time>2014-05-29T09:02:42.000Z</time>
      </trkpt>
      <trkpt lat="48.92981" lon="1.06517">
        <ele>212</ele>
        <time>2014-05-29T09:02:44.000Z</time>
      </trkpt>
      <trkpt lat="48.92984" lon="1.06512">
        <ele>211</ele>
        <time>2014-05-29T09:02:46.000Z</time>
      </trkpt>
      <trkpt lat="48.92988" lon="1.06508">
        <ele>211</ele>
        <time>2014-05-29T09:02:48.000Z</time>
      </trkpt>
      <trkpt lat="48.92988" lon="1.06508">
        <ele>211</ele>
        <time>2014-05-29T09:02:50.000Z</time>
      </trkpt>
      <trkpt lat="48.92993" lon="1.06502">
        <ele>209</ele>
        <time>2014-05-29T09:02:54.000Z</time>
      </trkpt>
      <trkpt lat="48.92993" lon="1.06502">
        <ele>209</ele>
        <time>2014-05-29T09:02:55.000Z</time>
      </trkpt>
      <trkpt lat="48.92999" lon="1.06499">
        <ele>207</ele>
        <time>2014-05-29T09:02:59.000Z</time>
      </trkpt>
      <trkpt lat="48.93006" lon="1.06496">
        <ele>206</ele>
        <time>2014-05-29T09:02:59.000Z</time>
      </trkpt>
      <trkpt lat="48.93014" lon="1.06493">
        <ele>205</ele>
        <time>2014-05-29T09:03:00.000Z</time>
      </trkpt>
      <trkpt lat="48.93021" lon="1.06489">
        <ele>204</ele>
        <time>2014-05-29T09:03:02.000Z</time>
      </trkpt>
      <trkpt lat="48.93027" lon="1.06487">
        <ele>203</ele>
        <time>2014-05-29T09:03:04.000Z</time>
      </trkpt>
      <trkpt lat="48.93037" lon="1.06484">
        <ele>203</ele>
        <time>2014-05-29T09:03:06.000Z</time>
      </trkpt>
      <trkpt lat="48.93043" lon="1.06485">
        <ele>203</ele>
        <time>2014-05-29T09:03:08.000Z</time>
      </trkpt>
      <trkpt lat="48.93053" lon="1.06484">
        <ele>203</ele>
        <time>2014-05-29T09:03:10.000Z</time>
      </trkpt>
      <trkpt lat="48.93061" lon="1.06482">
        <ele>203</ele>
        <time>2014-05-29T09:03:12.000Z</time>
      </trkpt>
      <trkpt lat="48.93066" lon="1.06479">
        <ele>203</ele>
        <time>2014-05-29T09:03:14.000Z</time>
      </trkpt>
      <trkpt lat="48.93073" lon="1.06475">
        <ele>203</ele>
        <time>2014-05-29T09:03:16.000Z</time>
      </trkpt>
      <trkpt lat="48.93079" lon="1.06471">
        <ele>203</ele>
        <time>2014-05-29T09:03:18.000Z</time>
      </trkpt>
      <trkpt lat="48.93085" lon="1.06469">
        <ele>203</ele>
        <time>2014-05-29T09:03:20.000Z</time>
      </trkpt>
      <trkpt lat="48.93093" lon="1.06467">
        <ele>203</ele>
        <time>2014-05-29T09:03:22.000Z</time>
      </trkpt>
      <trkpt lat="48.93099" lon="1.06464">
        <ele>203</ele>
        <time>2014-05-29T09:03:24.000Z</time>
      </trkpt>
      <trkpt lat="48.93099" lon="1.06464">
        <ele>203</ele>
        <time>2014-05-29T09:03:26.000Z</time>
      </trkpt>
      <trkpt lat="48.93108" lon="1.06458">
        <ele>204</ele>
        <time>2014-05-29T09:03:28.000Z</time>
      </trkpt>
      <trkpt lat="48.93115" lon="1.06454">
        <ele>204</ele>
        <time>2014-05-29T09:03:30.000Z</time>
      </trkpt>
      <trkpt lat="48.93121" lon="1.06451">
        <ele>204</ele>
        <time>2014-05-29T09:03:32.000Z</time>
      </trkpt>
      <trkpt lat="48.93121" lon="1.06451">
        <ele>204</ele>
        <time>2014-05-29T09:03:34.000Z</time>
      </trkpt>
      <trkpt lat="48.93132" lon="1.06446">
        <ele>205</ele>
        <time>2014-05-29T09:03:36.000Z</time>
      </trkpt>
      <trkpt lat="48.93138" lon="1.06443">
        <ele>205</ele>
        <time>2014-05-29T09:03:38.000Z</time>
      </trkpt>
      <trkpt lat="48.93138" lon="1.06443">
        <ele>205</ele>
        <time>2014-05-29T09:03:40.000Z</time>
      </trkpt>
      <trkpt lat="48.93148" lon="1.0644">
        <ele>206</ele>
        <time>2014-05-29T09:03:42.000Z</time>
      </trkpt>
      <trkpt lat="48.93155" lon="1.06438">
        <ele>206</ele>
        <time>2014-05-29T09:03:44.000Z</time>
      </trkpt>
      <trkpt lat="48.93161" lon="1.06437">
        <ele>207</ele>
        <time>2014-05-29T09:03:46.000Z</time>
      </trkpt>
      <trkpt lat="48.93161" lon="1.06437">
        <ele>207</ele>
        <time>2014-05-29T09:03:48.000Z</time>
      </trkpt>
      <trkpt lat="48.93171" lon="1.06432">
        <ele>208</ele>
        <time>2014-05-29T09:03:51.000Z</time>
      </trkpt>
      <trkpt lat="48.93176" lon="1.06429">
        <ele>209</ele>
        <time>2014-05-29T09:03:52.000Z</time>
      </trkpt>
      <trkpt lat="48.93182" lon="1.06427">
        <ele>209</ele>
        <time>2014-05-29T09:03:54.000Z</time>
      </trkpt>
      <trkpt lat="48.93187" lon="1.06423">
        <ele>209</ele>
        <time>2014-05-29T09:03:56.000Z</time>
      </trkpt>
      <trkpt lat="48.93193" lon="1.06419">
        <ele>209</ele>
        <time>2014-05-29T09:03:58.000Z</time>
      </trkpt>
      <trkpt lat="48.93203" lon="1.06415">
        <ele>209</ele>
        <time>2014-05-29T09:04:02.000Z</time>
      </trkpt>
      <trkpt lat="48.93203" lon="1.06415">
        <ele>209</ele>
        <time>2014-05-29T09:04:04.000Z</time>
      </trkpt>
      <trkpt lat="48.93211" lon="1.0641">
        <ele>209</ele>
        <time>2014-05-29T09:04:06.000Z</time>
      </trkpt>
      <trkpt lat="48.93211" lon="1.0641">
        <ele>209</ele>
        <time>2014-05-29T09:04:08.000Z</time>
      </trkpt>
      <trkpt lat="48.93221" lon="1.06401">
        <ele>210</ele>
        <time>2014-05-29T09:04:10.000Z</time>
      </trkpt>
      <trkpt lat="48.93233" lon="1.06394">
        <ele>210</ele>
        <time>2014-05-29T09:04:14.000Z</time>
      </trkpt>
      <trkpt lat="48.9324" lon="1.0639">
        <ele>211</ele>
        <time>2014-05-29T09:04:16.000Z</time>
      </trkpt>
      <trkpt lat="48.93247" lon="1.06386">
        <ele>211</ele>
        <time>2014-05-29T09:04:18.000Z</time>
      </trkpt>
      <trkpt lat="48.93254" lon="1.0638">
        <ele>211</ele>
        <time>2014-05-29T09:04:20.000Z</time>
      </trkpt>
      <trkpt lat="48.93261" lon="1.06375">
        <ele>211</ele>
        <time>2014-05-29T09:04:22.000Z</time>
      </trkpt>
      <trkpt lat="48.93267" lon="1.06371">
        <ele>211</ele>
        <time>2014-05-29T09:04:24.000Z</time>
      </trkpt>
      <trkpt lat="48.93275" lon="1.06364">
        <ele>211</ele>
        <time>2014-05-29T09:04:26.000Z</time>
      </trkpt>
      <trkpt lat="48.93282" lon="1.06359">
        <ele>211</ele>
        <time>2014-05-29T09:04:28.000Z</time>
      </trkpt>
      <trkpt lat="48.9329" lon="1.06354">
        <ele>211</ele>
        <time>2014-05-29T09:04:30.000Z</time>
      </trkpt>
      <trkpt lat="48.93299" lon="1.06349">
        <ele>210</ele>
        <time>2014-05-29T09:04:32.000Z</time>
      </trkpt>
      <trkpt lat="48.93307" lon="1.06343">
        <ele>210</ele>
        <time>2014-05-29T09:04:34.000Z</time>
      </trkpt>
      <trkpt lat="48.93315" lon="1.06338">
        <ele>210</ele>
        <time>2014-05-29T09:04:36.000Z</time>
      </trkpt>
      <trkpt lat="48.93323" lon="1.06332">
        <ele>209</ele>
        <time>2014-05-29T09:04:38.000Z</time>
      </trkpt>
      <trkpt lat="48.93331" lon="1.06327">
        <ele>209</ele>
        <time>2014-05-29T09:04:40.000Z</time>
      </trkpt>
      <trkpt lat="48.93337" lon="1.06322">
        <ele>208</ele>
        <time>2014-05-29T09:04:42.000Z</time>
      </trkpt>
      <trkpt lat="48.93344" lon="1.06317">
        <ele>208</ele>
        <time>2014-05-29T09:04:44.000Z</time>
      </trkpt>
      <trkpt lat="48.93352" lon="1.06313">
        <ele>207</ele>
        <time>2014-05-29T09:04:46.000Z</time>
      </trkpt>
      <trkpt lat="48.93359" lon="1.06309">
        <ele>206</ele>
        <time>2014-05-29T09:04:48.000Z</time>
      </trkpt>
      <trkpt lat="48.93366" lon="1.06303">
        <ele>206</ele>
        <time>2014-05-29T09:04:50.000Z</time>
      </trkpt>
      <trkpt lat="48.93373" lon="1.06297">
        <ele>205</ele>
        <time>2014-05-29T09:04:52.000Z</time>
      </trkpt>
      <trkpt lat="48.93382" lon="1.06293">
        <ele>205</ele>
        <time>2014-05-29T09:04:54.000Z</time>
      </trkpt>
      <trkpt lat="48.93388" lon="1.0629">
        <ele>204</ele>
        <time>2014-05-29T09:04:56.000Z</time>
      </trkpt>
      <trkpt lat="48.93396" lon="1.06285">
        <ele>204</ele>
        <time>2014-05-29T09:04:58.000Z</time>
      </trkpt>
      <trkpt lat="48.93402" lon="1.06281">
        <ele>204</ele>
        <time>2014-05-29T09:05:00.000Z</time>
      </trkpt>
      <trkpt lat="48.93409" lon="1.06276">
        <ele>204</ele>
        <time>2014-05-29T09:05:02.000Z</time>
      </trkpt>
      <trkpt lat="48.93416" lon="1.0627">
        <ele>204</ele>
        <time>2014-05-29T09:05:04.000Z</time>
      </trkpt>
      <trkpt lat="48.93424" lon="1.06262">
        <ele>204</ele>
        <time>2014-05-29T09:05:06.000Z</time>
      </trkpt>
      <trkpt lat="48.93431" lon="1.06256">
        <ele>204</ele>
        <time>2014-05-29T09:05:08.000Z</time>
      </trkpt>
      <trkpt lat="48.93438" lon="1.06253">
        <ele>204</ele>
        <time>2014-05-29T09:05:10.000Z</time>
      </trkpt>
      <trkpt lat="48.93445" lon="1.0625">
        <ele>205</ele>
        <time>2014-05-29T09:05:12.000Z</time>
      </trkpt>
      <trkpt lat="48.93452" lon="1.06245">
        <ele>205</ele>
        <time>2014-05-29T09:05:14.000Z</time>
      </trkpt>
      <trkpt lat="48.9346" lon="1.0624">
        <ele>209</ele>
        <time>2014-05-29T09:05:16.000Z</time>
      </trkpt>
      <trkpt lat="48.93469" lon="1.06235">
        <ele>209</ele>
        <time>2014-05-29T09:05:18.000Z</time>
      </trkpt>
      <trkpt lat="48.93476" lon="1.06231">
        <ele>210</ele>
        <time>2014-05-29T09:05:20.000Z</time>
      </trkpt>
      <trkpt lat="48.93481" lon="1.06225">
        <ele>210</ele>
        <time>2014-05-29T09:05:22.000Z</time>
      </trkpt>
      <trkpt lat="48.93486" lon="1.06218">
        <ele>211</ele>
        <time>2014-05-29T09:05:24.000Z</time>
      </trkpt>
      <trkpt lat="48.93493" lon="1.06212">
        <ele>211</ele>
        <time>2014-05-29T09:05:26.000Z</time>
      </trkpt>
      <trkpt lat="48.93499" lon="1.06206">
        <ele>211</ele>
        <time>2014-05-29T09:05:28.000Z</time>
      </trkpt>
      <trkpt lat="48.93499" lon="1.06206">
        <ele>211</ele>
        <time>2014-05-29T09:05:30.000Z</time>
      </trkpt>
      <trkpt lat="48.93509" lon="1.06199">
        <ele>212</ele>
        <time>2014-05-29T09:05:32.000Z</time>
      </trkpt>
      <trkpt lat="48.93509" lon="1.06199">
        <ele>212</ele>
        <time>2014-05-29T09:05:34.000Z</time>
      </trkpt>
      <trkpt lat="48.93519" lon="1.06193">
        <ele>212</ele>
        <time>2014-05-29T09:05:36.000Z</time>
      </trkpt>
      <trkpt lat="48.93528" lon="1.06193">
        <ele>213</ele>
        <time>2014-05-29T09:05:40.000Z</time>
      </trkpt>
      <trkpt lat="48.93528" lon="1.06193">
        <ele>213</ele>
        <time>2014-05-29T09:05:42.000Z</time>
      </trkpt>
      <trkpt lat="48.93538" lon="1.06189">
        <ele>213</ele>
        <time>2014-05-29T09:05:44.000Z</time>
      </trkpt>
      <trkpt lat="48.93538" lon="1.06189">
        <ele>213</ele>
        <time>2014-05-29T09:05:46.000Z</time>
      </trkpt>
      <trkpt lat="48.93546" lon="1.0618">
        <ele>213</ele>
        <time>2014-05-29T09:05:48.000Z</time>
      </trkpt>
      <trkpt lat="48.93546" lon="1.0618">
        <ele>213</ele>
        <time>2014-05-29T09:05:50.000Z</time>
      </trkpt>
      <trkpt lat="48.93555" lon="1.06175">
        <ele>212</ele>
        <time>2014-05-29T09:05:52.000Z</time>
      </trkpt>
      <trkpt lat="48.93562" lon="1.0617">
        <ele>212</ele>
        <time>2014-05-29T09:05:54.000Z</time>
      </trkpt>
      <trkpt lat="48.93568" lon="1.06165">
        <ele>211</ele>
        <time>2014-05-29T09:05:56.000Z</time>
      </trkpt>
      <trkpt lat="48.93573" lon="1.06162">
        <ele>211</ele>
        <time>2014-05-29T09:05:58.000Z</time>
      </trkpt>
      <trkpt lat="48.93579" lon="1.06157">
        <ele>211</ele>
        <time>2014-05-29T09:06:00.000Z</time>
      </trkpt>
      <trkpt lat="48.93585" lon="1.06153">
        <ele>211</ele>
        <time>2014-05-29T09:06:02.000Z</time>
      </trkpt>
      <trkpt lat="48.93593" lon="1.0615">
        <ele>211</ele>
        <time>2014-05-29T09:06:04.000Z</time>
      </trkpt>
      <trkpt lat="48.936" lon="1.06146">
        <ele>211</ele>
        <time>2014-05-29T09:06:06.000Z</time>
      </trkpt>
      <trkpt lat="48.93607" lon="1.06141">
        <ele>211</ele>
        <time>2014-05-29T09:06:08.000Z</time>
      </trkpt>
      <trkpt lat="48.93614" lon="1.06135">
        <ele>211</ele>
        <time>2014-05-29T09:06:10.000Z</time>
      </trkpt>
      <trkpt lat="48.93622" lon="1.0613">
        <ele>211</ele>
        <time>2014-05-29T09:06:12.000Z</time>
      </trkpt>
      <trkpt lat="48.93632" lon="1.06123">
        <ele>212</ele>
        <time>2014-05-29T09:06:14.000Z</time>
      </trkpt>
      <trkpt lat="48.93641" lon="1.06117">
        <ele>212</ele>
        <time>2014-05-29T09:06:16.000Z</time>
      </trkpt>
      <trkpt lat="48.9365" lon="1.0611">
        <ele>212</ele>
        <time>2014-05-29T09:06:18.000Z</time>
      </trkpt>
      <trkpt lat="48.9366" lon="1.06104">
        <ele>209</ele>
        <time>2014-05-29T09:06:20.000Z</time>
      </trkpt>
      <trkpt lat="48.93671" lon="1.06098">
        <ele>205</ele>
        <time>2014-05-29T09:06:22.000Z</time>
      </trkpt>
      <trkpt lat="48.93682" lon="1.06095">
        <ele>203</ele>
        <time>2014-05-29T09:06:24.000Z</time>
      </trkpt>
      <trkpt lat="48.93695" lon="1.0609">
        <ele>202</ele>
        <time>2014-05-29T09:06:26.000Z</time>
      </trkpt>
      <trkpt lat="48.93706" lon="1.06085">
        <ele>201</ele>
        <time>2014-05-29T09:06:28.000Z</time>
      </trkpt>
      <trkpt lat="48.93718" lon="1.0608">
        <ele>201</ele>
        <time>2014-05-29T09:06:30.000Z</time>
      </trkpt>
      <trkpt lat="48.93728" lon="1.06074">
        <ele>200</ele>
        <time>2014-05-29T09:06:32.000Z</time>
      </trkpt>
      <trkpt lat="48.93737" lon="1.0607">
        <ele>200</ele>
        <time>2014-05-29T09:06:34.000Z</time>
      </trkpt>
      <trkpt lat="48.93747" lon="1.06067">
        <ele>200</ele>
        <time>2014-05-29T09:06:36.000Z</time>
      </trkpt>
      <trkpt lat="48.93756" lon="1.06062">
        <ele>200</ele>
        <time>2014-05-29T09:06:38.000Z</time>
      </trkpt>
      <trkpt lat="48.93764" lon="1.06056">
        <ele>200</ele>
        <time>2014-05-29T09:06:40.000Z</time>
      </trkpt>
      <trkpt lat="48.93773" lon="1.06052">
        <ele>199</ele>
        <time>2014-05-29T09:06:42.000Z</time>
      </trkpt>
      <trkpt lat="48.93781" lon="1.0605">
        <ele>199</ele>
        <time>2014-05-29T09:06:44.000Z</time>
      </trkpt>
      <trkpt lat="48.93781" lon="1.0605">
        <ele>199</ele>
        <time>2014-05-29T09:06:46.000Z</time>
      </trkpt>
      <trkpt lat="48.93789" lon="1.06049">
        <ele>198</ele>
        <time>2014-05-29T09:06:48.000Z</time>
      </trkpt>
      <trkpt lat="48.93789" lon="1.06049">
        <ele>198</ele>
        <time>2014-05-29T09:06:50.000Z</time>
      </trkpt>
      <trkpt lat="48.93794" lon="1.06044">
        <ele>197</ele>
        <time>2014-05-29T09:06:52.000Z</time>
      </trkpt>
      <trkpt lat="48.93794" lon="1.06044">
        <ele>197</ele>
        <time>2014-05-29T09:06:54.000Z</time>
      </trkpt>
      <trkpt lat="48.93794" lon="1.06044">
        <ele>197</ele>
        <time>2014-05-29T09:06:56.000Z</time>
      </trkpt>
      <trkpt lat="48.93803" lon="1.06043">
        <ele>196</ele>
        <time>2014-05-29T09:06:58.000Z</time>
      </trkpt>
      <trkpt lat="48.93803" lon="1.06043">
        <ele>196</ele>
        <time>2014-05-29T09:07:00.000Z</time>
      </trkpt>
      <trkpt lat="48.9381" lon="1.06037">
        <ele>195</ele>
        <time>2014-05-29T09:07:02.000Z</time>
      </trkpt>
      <trkpt lat="48.9381" lon="1.06037">
        <ele>195</ele>
        <time>2014-05-29T09:07:04.000Z</time>
      </trkpt>
      <trkpt lat="48.93816" lon="1.06029">
        <ele>194</ele>
        <time>2014-05-29T09:07:06.000Z</time>
      </trkpt>
      <trkpt lat="48.93816" lon="1.06029">
        <ele>194</ele>
        <time>2014-05-29T09:07:08.000Z</time>
      </trkpt>
      <trkpt lat="48.9382" lon="1.06021">
        <ele>192</ele>
        <time>2014-05-29T09:07:10.000Z</time>
      </trkpt>
      <trkpt lat="48.9382" lon="1.06021">
        <ele>192</ele>
        <time>2014-05-29T09:07:12.000Z</time>
      </trkpt>
      <trkpt lat="48.93823" lon="1.06012">
        <ele>191</ele>
        <time>2014-05-29T09:07:14.000Z</time>
      </trkpt>
      <trkpt lat="48.93828" lon="1.06003">
        <ele>189</ele>
        <time>2014-05-29T09:07:18.000Z</time>
      </trkpt>
      <trkpt lat="48.93828" lon="1.06003">
        <ele>189</ele>
        <time>2014-05-29T09:07:20.000Z</time>
      </trkpt>
      <trkpt lat="48.9383" lon="1.05993">
        <ele>188</ele>
        <time>2014-05-29T09:07:22.000Z</time>
      </trkpt>
      <trkpt lat="48.9383" lon="1.05993">
        <ele>188</ele>
        <time>2014-05-29T09:07:24.000Z</time>
      </trkpt>
      <trkpt lat="48.93835" lon="1.05986">
        <ele>186</ele>
        <time>2014-05-29T09:07:28.000Z</time>
      </trkpt>
      <trkpt lat="48.93841" lon="1.05986">
        <ele>184</ele>
        <time>2014-05-29T09:07:32.000Z</time>
      </trkpt>
      <trkpt lat="48.93851" lon="1.05985">
        <ele>183</ele>
        <time>2014-05-29T09:07:36.000Z</time>
      </trkpt>
      <trkpt lat="48.93864" lon="1.0599">
        <ele>182</ele>
        <time>2014-05-29T09:07:40.000Z</time>
      </trkpt>
      <trkpt lat="48.93871" lon="1.05993">
        <ele>181</ele>
        <time>2014-05-29T09:07:42.000Z</time>
      </trkpt>
      <trkpt lat="48.93879" lon="1.05995">
        <ele>181</ele>
        <time>2014-05-29T09:07:44.000Z</time>
      </trkpt>
      <trkpt lat="48.93887" lon="1.05997">
        <ele>181</ele>
        <time>2014-05-29T09:07:46.000Z</time>
      </trkpt>
      <trkpt lat="48.93895" lon="1.05998">
        <ele>181</ele>
        <time>2014-05-29T09:07:48.000Z</time>
      </trkpt>
      <trkpt lat="48.93902" lon="1.06">
        <ele>180</ele>
        <time>2014-05-29T09:07:50.000Z</time>
      </trkpt>
      <trkpt lat="48.93911" lon="1.06003">
        <ele>180</ele>
        <time>2014-05-29T09:07:52.000Z</time>
      </trkpt>
      <trkpt lat="48.93919" lon="1.06006">
        <ele>180</ele>
        <time>2014-05-29T09:07:54.000Z</time>
      </trkpt>
      <trkpt lat="48.93927" lon="1.06009">
        <ele>180</ele>
        <time>2014-05-29T09:07:56.000Z</time>
      </trkpt>
      <trkpt lat="48.93933" lon="1.0601">
        <ele>180</ele>
        <time>2014-05-29T09:07:58.000Z</time>
      </trkpt>
      <trkpt lat="48.93941" lon="1.0601">
        <ele>180</ele>
        <time>2014-05-29T09:08:00.000Z</time>
      </trkpt>
      <trkpt lat="48.93948" lon="1.06011">
        <ele>180</ele>
        <time>2014-05-29T09:08:02.000Z</time>
      </trkpt>
      <trkpt lat="48.93954" lon="1.06013">
        <ele>180</ele>
        <time>2014-05-29T09:08:04.000Z</time>
      </trkpt>
      <trkpt lat="48.93961" lon="1.06015">
        <ele>180</ele>
        <time>2014-05-29T09:08:07.000Z</time>
      </trkpt>
      <trkpt lat="48.93967" lon="1.06017">
        <ele>180</ele>
        <time>2014-05-29T09:08:09.000Z</time>
      </trkpt>
      <trkpt lat="48.93973" lon="1.06018">
        <ele>179</ele>
        <time>2014-05-29T09:08:10.000Z</time>
      </trkpt>
      <trkpt lat="48.9398" lon="1.0602">
        <ele>179</ele>
        <time>2014-05-29T09:08:12.000Z</time>
      </trkpt>
      <trkpt lat="48.93987" lon="1.06021">
        <ele>178</ele>
        <time>2014-05-29T09:08:14.000Z</time>
      </trkpt>
      <trkpt lat="48.93996" lon="1.06024">
        <ele>178</ele>
        <time>2014-05-29T09:08:16.000Z</time>
      </trkpt>
      <trkpt lat="48.94001" lon="1.06026">
        <ele>178</ele>
        <time>2014-05-29T09:08:18.000Z</time>
      </trkpt>
      <trkpt lat="48.94001" lon="1.06026">
        <ele>178</ele>
        <time>2014-05-29T09:08:20.000Z</time>
      </trkpt>
      <trkpt lat="48.94006" lon="1.06029">
        <ele>177</ele>
        <time>2014-05-29T09:08:22.000Z</time>
      </trkpt>
      <trkpt lat="48.94011" lon="1.06032">
        <ele>177</ele>
        <time>2014-05-29T09:08:24.000Z</time>
      </trkpt>
      <trkpt lat="48.94016" lon="1.06035">
        <ele>177</ele>
        <time>2014-05-29T09:08:26.000Z</time>
      </trkpt>
      <trkpt lat="48.9402" lon="1.0604">
        <ele>177</ele>
        <time>2014-05-29T09:08:28.000Z</time>
      </trkpt>
      <trkpt lat="48.94025" lon="1.06046">
        <ele>176</ele>
        <time>2014-05-29T09:08:30.000Z</time>
      </trkpt>
      <trkpt lat="48.94033" lon="1.06054">
        <ele>176</ele>
        <time>2014-05-29T09:08:32.000Z</time>
      </trkpt>
      <trkpt lat="48.9404" lon="1.06055">
        <ele>175</ele>
        <time>2014-05-29T09:08:36.000Z</time>
      </trkpt>
      <trkpt lat="48.9404" lon="1.06055">
        <ele>175</ele>
        <time>2014-05-29T09:08:38.000Z</time>
      </trkpt>
      <trkpt lat="48.94046" lon="1.06058">
        <ele>175</ele>
        <time>2014-05-29T09:08:40.000Z</time>
      </trkpt>
      <trkpt lat="48.94054" lon="1.06058">
        <ele>174</ele>
        <time>2014-05-29T09:08:44.000Z</time>
      </trkpt>
      <trkpt lat="48.94062" lon="1.06066">
        <ele>174</ele>
        <time>2014-05-29T09:08:48.000Z</time>
      </trkpt>
      <trkpt lat="48.94067" lon="1.06072">
        <ele>174</ele>
        <time>2014-05-29T09:08:50.000Z</time>
      </trkpt>
      <trkpt lat="48.94073" lon="1.0608">
        <ele>174</ele>
        <time>2014-05-29T09:08:52.000Z</time>
      </trkpt>
      <trkpt lat="48.94078" lon="1.06088">
        <ele>173</ele>
        <time>2014-05-29T09:08:56.000Z</time>
      </trkpt>
      <trkpt lat="48.94078" lon="1.06088">
        <ele>173</ele>
        <time>2014-05-29T09:08:59.000Z</time>
      </trkpt>
      <trkpt lat="48.94085" lon="1.06096">
        <ele>173</ele>
        <time>2014-05-29T09:09:00.000Z</time>
      </trkpt>
      <trkpt lat="48.94085" lon="1.06096">
        <ele>173</ele>
        <time>2014-05-29T09:09:02.000Z</time>
      </trkpt>
      <trkpt lat="48.94089" lon="1.06105">
        <ele>173</ele>
        <time>2014-05-29T09:09:04.000Z</time>
      </trkpt>
      <trkpt lat="48.94093" lon="1.06119">
        <ele>173</ele>
        <time>2014-05-29T09:09:08.000Z</time>
      </trkpt>
      <trkpt lat="48.94094" lon="1.0613">
        <ele>173</ele>
        <time>2014-05-29T09:09:12.000Z</time>
      </trkpt>
      <trkpt lat="48.94096" lon="1.06141">
        <ele>173</ele>
        <time>2014-05-29T09:09:16.000Z</time>
      </trkpt>
      <trkpt lat="48.94096" lon="1.06141">
        <ele>173</ele>
        <time>2014-05-29T09:09:18.000Z</time>
      </trkpt>
      <trkpt lat="48.94096" lon="1.06141">
        <ele>173</ele>
        <time>2014-05-29T09:09:20.000Z</time>
      </trkpt>
      <trkpt lat="48.94096" lon="1.06141">
        <ele>173</ele>
        <time>2014-05-29T09:09:22.000Z</time>
      </trkpt>
      <trkpt lat="48.94096" lon="1.06141">
        <ele>173</ele>
        <time>2014-05-29T09:09:24.000Z</time>
      </trkpt>
      <trkpt lat="48.94096" lon="1.06141">
        <ele>173</ele>
        <time>2014-05-29T09:09:26.000Z</time>
      </trkpt>
      <trkpt lat="48.94098" lon="1.06149">
        <ele>173</ele>
        <time>2014-05-29T09:09:28.000Z</time>
      </trkpt>
      <trkpt lat="48.94098" lon="1.06149">
        <ele>173</ele>
        <time>2014-05-29T09:09:30.000Z</time>
      </trkpt>
      <trkpt lat="48.94095" lon="1.06159">
        <ele>173</ele>
        <time>2014-05-29T09:09:32.000Z</time>
      </trkpt>
      <trkpt lat="48.94095" lon="1.06159">
        <ele>173</ele>
        <time>2014-05-29T09:09:34.000Z</time>
      </trkpt>
      <trkpt lat="48.94095" lon="1.06159">
        <ele>173</ele>
        <time>2014-05-29T09:09:36.000Z</time>
      </trkpt>
      <trkpt lat="48.94093" lon="1.06171">
        <ele>174</ele>
        <time>2014-05-29T09:09:38.000Z</time>
      </trkpt>
      <trkpt lat="48.94089" lon="1.06183">
        <ele>175</ele>
        <time>2014-05-29T09:09:44.000Z</time>
      </trkpt>
      <trkpt lat="48.94084" lon="1.06194">
        <ele>176</ele>
        <time>2014-05-29T09:09:48.000Z</time>
      </trkpt>
      <trkpt lat="48.94081" lon="1.06206">
        <ele>177</ele>
        <time>2014-05-29T09:09:52.000Z</time>
      </trkpt>
      <trkpt lat="48.9408" lon="1.06217">
        <ele>178</ele>
        <time>2014-05-29T09:09:56.000Z</time>
      </trkpt>
      <trkpt lat="48.9408" lon="1.06217">
        <ele>178</ele>
        <time>2014-05-29T09:09:58.000Z</time>
      </trkpt>
      <trkpt lat="48.94082" lon="1.06227">
        <ele>179</ele>
        <time>2014-05-29T09:10:00.000Z</time>
      </trkpt>
      <trkpt lat="48.94082" lon="1.06242">
        <ele>180</ele>
        <time>2014-05-29T09:10:04.000Z</time>
      </trkpt>
      <trkpt lat="48.94082" lon="1.06242">
        <ele>180</ele>
        <time>2014-05-29T09:10:06.000Z</time>
      </trkpt>
      <trkpt lat="48.9408" lon="1.06251">
        <ele>181</ele>
        <time>2014-05-29T09:10:08.000Z</time>
      </trkpt>
      <trkpt lat="48.9408" lon="1.06251">
        <ele>181</ele>
        <time>2014-05-29T09:10:10.000Z</time>
      </trkpt>
      <trkpt lat="48.9408" lon="1.06251">
        <ele>181</ele>
        <time>2014-05-29T09:10:12.000Z</time>
      </trkpt>
      <trkpt lat="48.9408" lon="1.06251">
        <ele>181</ele>
        <time>2014-05-29T09:10:14.000Z</time>
      </trkpt>
      <trkpt lat="48.94076" lon="1.0626">
        <ele>182</ele>
        <time>2014-05-29T09:10:16.000Z</time>
      </trkpt>
      <trkpt lat="48.94078" lon="1.06267">
        <ele>183</ele>
        <time>2014-05-29T09:10:20.000Z</time>
      </trkpt>
      <trkpt lat="48.94079" lon="1.06273">
        <ele>183</ele>
        <time>2014-05-29T09:10:22.000Z</time>
      </trkpt>
      <trkpt lat="48.9408" lon="1.06278">
        <ele>183</ele>
        <time>2014-05-29T09:10:24.000Z</time>
      </trkpt>
      <trkpt lat="48.94083" lon="1.06281">
        <ele>183</ele>
        <time>2014-05-29T09:10:26.000Z</time>
      </trkpt>
      <trkpt lat="48.94083" lon="1.06281">
        <ele>183</ele>
        <time>2014-05-29T09:10:28.000Z</time>
      </trkpt>
      <trkpt lat="48.94083" lon="1.06281">
        <ele>183</ele>
        <time>2014-05-29T09:10:30.000Z</time>
      </trkpt>
      <trkpt lat="48.94083" lon="1.06281">
        <ele>183</ele>
        <time>2014-05-29T09:10:32.000Z</time>
      </trkpt>
      <trkpt lat="48.94083" lon="1.06281">
        <ele>183</ele>
        <time>2014-05-29T09:10:34.000Z</time>
      </trkpt>
      <trkpt lat="48.94083" lon="1.06281">
        <ele>183</ele>
        <time>2014-05-29T09:10:47.000Z</time>
      </trkpt>
      <trkpt lat="48.94086" lon="1.06283">
        <ele>184</ele>
        <time>2014-05-29T09:10:59.000Z</time>
      </trkpt>
      <trkpt lat="48.94089" lon="1.06284">
        <ele>184</ele>
        <time>2014-05-29T09:11:03.000Z</time>
      </trkpt>
      <trkpt lat="48.94089" lon="1.06284">
        <ele>184</ele>
        <time>2014-05-29T09:11:05.000Z</time>
      </trkpt>
      <trkpt lat="48.94089" lon="1.06284">
        <ele>184</ele>
        <time>2014-05-29T09:11:07.000Z</time>
      </trkpt>
      <trkpt lat="48.94093" lon="1.06286">
        <ele>184</ele>
        <time>2014-05-29T09:11:09.000Z</time>
      </trkpt>
      <trkpt lat="48.94093" lon="1.06286">
        <ele>184</ele>
        <time>2014-05-29T09:11:11.000Z</time>
      </trkpt>
      <trkpt lat="48.94096" lon="1.06289">
        <ele>184</ele>
        <time>2014-05-29T09:11:13.000Z</time>
      </trkpt>
      <trkpt lat="48.94098" lon="1.06292">
        <ele>184</ele>
        <time>2014-05-29T09:11:17.000Z</time>
      </trkpt>
      <trkpt lat="48.94098" lon="1.06292">
        <ele>184</ele>
        <time>2014-05-29T09:11:19.000Z</time>
      </trkpt>
      <trkpt lat="48.94098" lon="1.06292">
        <ele>184</ele>
        <time>2014-05-29T09:11:21.000Z</time>
      </trkpt>
      <trkpt lat="48.94101" lon="1.06296">
        <ele>183</ele>
        <time>2014-05-29T09:11:23.000Z</time>
      </trkpt>
      <trkpt lat="48.94104" lon="1.06298">
        <ele>182</ele>
        <time>2014-05-29T09:11:29.000Z</time>
      </trkpt>
      <trkpt lat="48.94107" lon="1.063">
        <ele>182</ele>
        <time>2014-05-29T09:11:33.000Z</time>
      </trkpt>
      <trkpt lat="48.94107" lon="1.063">
        <ele>182</ele>
        <time>2014-05-29T09:11:35.000Z</time>
      </trkpt>
      <trkpt lat="48.9411" lon="1.06302">
        <ele>182</ele>
        <time>2014-05-29T09:11:37.000Z</time>
      </trkpt>
      <trkpt lat="48.9411" lon="1.06302">
        <ele>182</ele>
        <time>2014-05-29T09:11:39.000Z</time>
      </trkpt>
      <trkpt lat="48.94114" lon="1.06305">
        <ele>182</ele>
        <time>2014-05-29T09:11:41.000Z</time>
      </trkpt>
      <trkpt lat="48.94114" lon="1.06305">
        <ele>182</ele>
        <time>2014-05-29T09:11:43.000Z</time>
      </trkpt>
      <trkpt lat="48.94117" lon="1.06308">
        <ele>183</ele>
        <time>2014-05-29T09:11:45.000Z</time>
      </trkpt>
      <trkpt lat="48.94117" lon="1.06308">
        <ele>183</ele>
        <time>2014-05-29T09:11:47.000Z</time>
      </trkpt>
      <trkpt lat="48.9412" lon="1.06309">
        <ele>184</ele>
        <time>2014-05-29T09:11:49.000Z</time>
      </trkpt>
      <trkpt lat="48.94123" lon="1.06312">
        <ele>184</ele>
        <time>2014-05-29T09:11:53.000Z</time>
      </trkpt>
      <trkpt lat="48.94123" lon="1.06312">
        <ele>184</ele>
        <time>2014-05-29T09:11:55.000Z</time>
      </trkpt>
      <trkpt lat="48.94123" lon="1.06312">
        <ele>184</ele>
        <time>2014-05-29T09:11:57.000Z</time>
      </trkpt>
      <trkpt lat="48.94123" lon="1.06312">
        <ele>184</ele>
        <time>2014-05-29T09:11:59.000Z</time>
      </trkpt>
      <trkpt lat="48.94123" lon="1.06312">
        <ele>184</ele>
        <time>2014-05-29T09:12:07.000Z</time>
      </trkpt>
      <trkpt lat="48.94123" lon="1.06312">
        <ele>184</ele>
        <time>2014-05-29T09:12:53.000Z</time>
      </trkpt>
      <trkpt lat="48.94132" lon="1.06316">
        <ele>187</ele>
        <time>2014-05-29T09:13:18.000Z</time>
      </trkpt>
      <trkpt lat="48.94137" lon="1.06322">
        <ele>187</ele>
        <time>2014-05-29T09:13:20.000Z</time>
      </trkpt>
      <trkpt lat="48.94139" lon="1.06327">
        <ele>187</ele>
        <time>2014-05-29T09:13:23.000Z</time>
      </trkpt>
      <trkpt lat="48.94141" lon="1.06331">
        <ele>187</ele>
        <time>2014-05-29T09:13:24.000Z</time>
      </trkpt>
      <trkpt lat="48.94142" lon="1.06335">
        <ele>187</ele>
        <time>2014-05-29T09:13:26.000Z</time>
      </trkpt>
      <trkpt lat="48.94144" lon="1.06344">
        <ele>187</ele>
        <time>2014-05-29T09:13:28.000Z</time>
      </trkpt>
      <trkpt lat="48.9414" lon="1.06352">
        <ele>188</ele>
        <time>2014-05-29T09:13:36.000Z</time>
      </trkpt>
      <trkpt lat="48.9414" lon="1.06352">
        <ele>188</ele>
        <time>2014-05-29T09:13:38.000Z</time>
      </trkpt>
      <trkpt lat="48.9414" lon="1.06352">
        <ele>188</ele>
        <time>2014-05-29T09:13:40.000Z</time>
      </trkpt>
      <trkpt lat="48.94144" lon="1.06365">
        <ele>189</ele>
        <time>2014-05-29T09:13:42.000Z</time>
      </trkpt>
      <trkpt lat="48.94144" lon="1.06365">
        <ele>189</ele>
        <time>2014-05-29T09:13:46.000Z</time>
      </trkpt>
      <trkpt lat="48.94145" lon="1.06375">
        <ele>191</ele>
        <time>2014-05-29T09:13:48.000Z</time>
      </trkpt>
      <trkpt lat="48.94145" lon="1.06375">
        <ele>191</ele>
        <time>2014-05-29T09:13:50.000Z</time>
      </trkpt>
      <trkpt lat="48.94147" lon="1.06386">
        <ele>191</ele>
        <time>2014-05-29T09:13:52.000Z</time>
      </trkpt>
      <trkpt lat="48.94147" lon="1.06386">
        <ele>191</ele>
        <time>2014-05-29T09:13:54.000Z</time>
      </trkpt>
      <trkpt lat="48.94147" lon="1.06386">
        <ele>191</ele>
        <time>2014-05-29T09:13:56.000Z</time>
      </trkpt>
      <trkpt lat="48.94149" lon="1.06395">
        <ele>192</ele>
        <time>2014-05-29T09:13:58.000Z</time>
      </trkpt>
      <trkpt lat="48.94149" lon="1.06395">
        <ele>192</ele>
        <time>2014-05-29T09:14:00.000Z</time>
      </trkpt>
      <trkpt lat="48.94149" lon="1.06395">
        <ele>192</ele>
        <time>2014-05-29T09:14:02.000Z</time>
      </trkpt>
      <trkpt lat="48.94151" lon="1.06405">
        <ele>193</ele>
        <time>2014-05-29T09:14:04.000Z</time>
      </trkpt>
      <trkpt lat="48.94154" lon="1.06413">
        <ele>193</ele>
        <time>2014-05-29T09:14:08.000Z</time>
      </trkpt>
      <trkpt lat="48.94154" lon="1.06413">
        <ele>193</ele>
        <time>2014-05-29T09:14:10.000Z</time>
      </trkpt>
      <trkpt lat="48.94154" lon="1.06413">
        <ele>193</ele>
        <time>2014-05-29T09:14:12.000Z</time>
      </trkpt>
      <trkpt lat="48.94156" lon="1.06422">
        <ele>194</ele>
        <time>2014-05-29T09:14:14.000Z</time>
      </trkpt>
      <trkpt lat="48.94156" lon="1.06422">
        <ele>194</ele>
        <time>2014-05-29T09:14:16.000Z</time>
      </trkpt>
      <trkpt lat="48.94159" lon="1.0643">
        <ele>195</ele>
        <time>2014-05-29T09:14:18.000Z</time>
      </trkpt>
      <trkpt lat="48.94159" lon="1.0643">
        <ele>195</ele>
        <time>2014-05-29T09:14:20.000Z</time>
      </trkpt>
      <trkpt lat="48.94159" lon="1.0643">
        <ele>195</ele>
        <time>2014-05-29T09:14:22.000Z</time>
      </trkpt>
      <trkpt lat="48.94159" lon="1.0643">
        <ele>195</ele>
        <time>2014-05-29T09:14:24.000Z</time>
      </trkpt>
      <trkpt lat="48.94159" lon="1.0643">
        <ele>195</ele>
        <time>2014-05-29T09:14:26.000Z</time>
      </trkpt>
      <trkpt lat="48.94167" lon="1.06435">
        <ele>196</ele>
        <time>2014-05-29T09:14:30.000Z</time>
      </trkpt>
      <trkpt lat="48.94167" lon="1.06435">
        <ele>196</ele>
        <time>2014-05-29T09:14:44.000Z</time>
      </trkpt>
      <trkpt lat="48.94167" lon="1.06435">
        <ele>196</ele>
        <time>2014-05-29T09:14:57.000Z</time>
      </trkpt>
      <trkpt lat="48.94177" lon="1.06437">
        <ele>196</ele>
        <time>2014-05-29T09:15:13.000Z</time>
      </trkpt>
      <trkpt lat="48.94183" lon="1.06437">
        <ele>196</ele>
        <time>2014-05-29T09:15:15.000Z</time>
      </trkpt>
      <trkpt lat="48.94188" lon="1.06437">
        <ele>196</ele>
        <time>2014-05-29T09:15:17.000Z</time>
      </trkpt>
      <trkpt lat="48.94191" lon="1.06436">
        <ele>196</ele>
        <time>2014-05-29T09:15:19.000Z</time>
      </trkpt>
      <trkpt lat="48.94195" lon="1.06434">
        <ele>196</ele>
        <time>2014-05-29T09:15:23.000Z</time>
      </trkpt>
      <trkpt lat="48.94195" lon="1.06434">
        <ele>196</ele>
        <time>2014-05-29T09:15:25.000Z</time>
      </trkpt>
      <trkpt lat="48.94199" lon="1.06429">
        <ele>196</ele>
        <time>2014-05-29T09:15:27.000Z</time>
      </trkpt>
      <trkpt lat="48.94205" lon="1.06424">
        <ele>197</ele>
        <time>2014-05-29T09:15:29.000Z</time>
      </trkpt>
      <trkpt lat="48.94212" lon="1.06422">
        <ele>197</ele>
        <time>2014-05-29T09:15:31.000Z</time>
      </trkpt>
      <trkpt lat="48.94218" lon="1.0642">
        <ele>197</ele>
        <time>2014-05-29T09:15:33.000Z</time>
      </trkpt>
      <trkpt lat="48.94223" lon="1.06418">
        <ele>198</ele>
        <time>2014-05-29T09:15:35.000Z</time>
      </trkpt>
      <trkpt lat="48.94234" lon="1.06414">
        <ele>198</ele>
        <time>2014-05-29T09:15:37.000Z</time>
      </trkpt>
      <trkpt lat="48.9424" lon="1.0641">
        <ele>199</ele>
        <time>2014-05-29T09:15:39.000Z</time>
      </trkpt>
      <trkpt lat="48.94246" lon="1.06407">
        <ele>199</ele>
        <time>2014-05-29T09:15:41.000Z</time>
      </trkpt>
      <trkpt lat="48.94251" lon="1.06403">
        <ele>199</ele>
        <time>2014-05-29T09:15:43.000Z</time>
      </trkpt>
      <trkpt lat="48.9426" lon="1.06395">
        <ele>199</ele>
        <time>2014-05-29T09:15:47.000Z</time>
      </trkpt>
      <trkpt lat="48.94265" lon="1.0639">
        <ele>200</ele>
        <time>2014-05-29T09:15:49.000Z</time>
      </trkpt>
      <trkpt lat="48.9427" lon="1.06386">
        <ele>200</ele>
        <time>2014-05-29T09:15:51.000Z</time>
      </trkpt>
      <trkpt lat="48.94275" lon="1.06381">
        <ele>200</ele>
        <time>2014-05-29T09:15:53.000Z</time>
      </trkpt>
      <trkpt lat="48.94285" lon="1.06375">
        <ele>200</ele>
        <time>2014-05-29T09:15:57.000Z</time>
      </trkpt>
      <trkpt lat="48.94296" lon="1.06369">
        <ele>200</ele>
        <time>2014-05-29T09:16:01.000Z</time>
      </trkpt>
      <trkpt lat="48.94301" lon="1.06365">
        <ele>200</ele>
        <time>2014-05-29T09:16:03.000Z</time>
      </trkpt>
      <trkpt lat="48.94306" lon="1.06361">
        <ele>200</ele>
        <time>2014-05-29T09:16:05.000Z</time>
      </trkpt>
      <trkpt lat="48.94316" lon="1.06355">
        <ele>201</ele>
        <time>2014-05-29T09:16:09.000Z</time>
      </trkpt>
      <trkpt lat="48.94323" lon="1.06352">
        <ele>201</ele>
        <time>2014-05-29T09:16:11.000Z</time>
      </trkpt>
      <trkpt lat="48.94332" lon="1.06344">
        <ele>202</ele>
        <time>2014-05-29T09:16:15.000Z</time>
      </trkpt>
      <trkpt lat="48.94343" lon="1.06337">
        <ele>202</ele>
        <time>2014-05-29T09:16:19.000Z</time>
      </trkpt>
      <trkpt lat="48.94349" lon="1.06333">
        <ele>202</ele>
        <time>2014-05-29T09:16:21.000Z</time>
      </trkpt>
      <trkpt lat="48.94358" lon="1.06327">
        <ele>202</ele>
        <time>2014-05-29T09:16:25.000Z</time>
      </trkpt>
      <trkpt lat="48.94363" lon="1.06323">
        <ele>202</ele>
        <time>2014-05-29T09:16:27.000Z</time>
      </trkpt>
      <trkpt lat="48.94363" lon="1.06323">
        <ele>202</ele>
        <time>2014-05-29T09:16:29.000Z</time>
      </trkpt>
      <trkpt lat="48.94373" lon="1.06317">
        <ele>202</ele>
        <time>2014-05-29T09:16:31.000Z</time>
      </trkpt>
      <trkpt lat="48.94379" lon="1.06314">
        <ele>203</ele>
        <time>2014-05-29T09:16:33.000Z</time>
      </trkpt>
      <trkpt lat="48.94384" lon="1.06311">
        <ele>203</ele>
        <time>2014-05-29T09:16:35.000Z</time>
      </trkpt>
      <trkpt lat="48.9439" lon="1.06307">
        <ele>203</ele>
        <time>2014-05-29T09:16:37.000Z</time>
      </trkpt>
      <trkpt lat="48.9439" lon="1.06307">
        <ele>203</ele>
        <time>2014-05-29T09:16:39.000Z</time>
      </trkpt>
      <trkpt lat="48.94401" lon="1.06301">
        <ele>203</ele>
        <time>2014-05-29T09:16:41.000Z</time>
      </trkpt>
      <trkpt lat="48.94407" lon="1.06297">
        <ele>203</ele>
        <time>2014-05-29T09:16:43.000Z</time>
      </trkpt>
      <trkpt lat="48.94416" lon="1.06288">
        <ele>203</ele>
        <time>2014-05-29T09:16:47.000Z</time>
      </trkpt>
      <trkpt lat="48.94416" lon="1.06288">
        <ele>203</ele>
        <time>2014-05-29T09:16:49.000Z</time>
      </trkpt>
      <trkpt lat="48.94424" lon="1.0628">
        <ele>203</ele>
        <time>2014-05-29T09:16:51.000Z</time>
      </trkpt>
      <trkpt lat="48.94429" lon="1.06275">
        <ele>203</ele>
        <time>2014-05-29T09:16:53.000Z</time>
      </trkpt>
      <trkpt lat="48.94435" lon="1.06271">
        <ele>203</ele>
        <time>2014-05-29T09:16:55.000Z</time>
      </trkpt>
      <trkpt lat="48.94442" lon="1.06267">
        <ele>203</ele>
        <time>2014-05-29T09:16:57.000Z</time>
      </trkpt>
      <trkpt lat="48.94449" lon="1.06263">
        <ele>203</ele>
        <time>2014-05-29T09:16:59.000Z</time>
      </trkpt>
      <trkpt lat="48.9446" lon="1.06254">
        <ele>203</ele>
        <time>2014-05-29T09:17:03.000Z</time>
      </trkpt>
      <trkpt lat="48.94465" lon="1.06249">
        <ele>203</ele>
        <time>2014-05-29T09:17:05.000Z</time>
      </trkpt>
      <trkpt lat="48.9447" lon="1.06245">
        <ele>203</ele>
        <time>2014-05-29T09:17:07.000Z</time>
      </trkpt>
      <trkpt lat="48.94476" lon="1.06241">
        <ele>203</ele>
        <time>2014-05-29T09:17:09.000Z</time>
      </trkpt>
      <trkpt lat="48.94481" lon="1.06238">
        <ele>202</ele>
        <time>2014-05-29T09:17:11.000Z</time>
      </trkpt>
      <trkpt lat="48.94481" lon="1.06238">
        <ele>202</ele>
        <time>2014-05-29T09:17:13.000Z</time>
      </trkpt>
      <trkpt lat="48.9449" lon="1.06233">
        <ele>202</ele>
        <time>2014-05-29T09:17:15.000Z</time>
      </trkpt>
      <trkpt lat="48.9449" lon="1.06233">
        <ele>202</ele>
        <time>2014-05-29T09:17:17.000Z</time>
      </trkpt>
      <trkpt lat="48.94498" lon="1.06229">
        <ele>202</ele>
        <time>2014-05-29T09:17:19.000Z</time>
      </trkpt>
      <trkpt lat="48.94498" lon="1.06229">
        <ele>202</ele>
        <time>2014-05-29T09:17:21.000Z</time>
      </trkpt>
      <trkpt lat="48.94507" lon="1.06221">
        <ele>203</ele>
        <time>2014-05-29T09:17:23.000Z</time>
      </trkpt>
      <trkpt lat="48.94507" lon="1.06221">
        <ele>203</ele>
        <time>2014-05-29T09:17:25.000Z</time>
      </trkpt>
      <trkpt lat="48.94513" lon="1.06215">
        <ele>203</ele>
        <time>2014-05-29T09:17:27.000Z</time>
      </trkpt>
      <trkpt lat="48.94513" lon="1.06215">
        <ele>203</ele>
        <time>2014-05-29T09:17:29.000Z</time>
      </trkpt>
      <trkpt lat="48.94516" lon="1.062">
        <ele>203</ele>
        <time>2014-05-29T09:17:31.000Z</time>
      </trkpt>
      <trkpt lat="48.94519" lon="1.06191">
        <ele>203</ele>
        <time>2014-05-29T09:17:33.000Z</time>
      </trkpt>
      <trkpt lat="48.94521" lon="1.06181">
        <ele>203</ele>
        <time>2014-05-29T09:17:35.000Z</time>
      </trkpt>
      <trkpt lat="48.94523" lon="1.06168">
        <ele>203</ele>
        <time>2014-05-29T09:17:37.000Z</time>
      </trkpt>
      <trkpt lat="48.94524" lon="1.06157">
        <ele>203</ele>
        <time>2014-05-29T09:17:39.000Z</time>
      </trkpt>
      <trkpt lat="48.94526" lon="1.06142">
        <ele>203</ele>
        <time>2014-05-29T09:17:41.000Z</time>
      </trkpt>
      <trkpt lat="48.94527" lon="1.06129">
        <ele>203</ele>
        <time>2014-05-29T09:17:43.000Z</time>
      </trkpt>
      <trkpt lat="48.94529" lon="1.06117">
        <ele>203</ele>
        <time>2014-05-29T09:17:45.000Z</time>
      </trkpt>
      <trkpt lat="48.9453" lon="1.06106">
        <ele>203</ele>
        <time>2014-05-29T09:17:47.000Z</time>
      </trkpt>
      <trkpt lat="48.94531" lon="1.06092">
        <ele>203</ele>
        <time>2014-05-29T09:17:49.000Z</time>
      </trkpt>
      <trkpt lat="48.9453" lon="1.06077">
        <ele>201</ele>
        <time>2014-05-29T09:17:51.000Z</time>
      </trkpt>
      <trkpt lat="48.9453" lon="1.06063">
        <ele>200</ele>
        <time>2014-05-29T09:17:53.000Z</time>
      </trkpt>
      <trkpt lat="48.9453" lon="1.06049">
        <ele>199</ele>
        <time>2014-05-29T09:17:55.000Z</time>
      </trkpt>
      <trkpt lat="48.9453" lon="1.06032">
        <ele>196</ele>
        <time>2014-05-29T09:17:57.000Z</time>
      </trkpt>
      <trkpt lat="48.94532" lon="1.06016">
        <ele>195</ele>
        <time>2014-05-29T09:17:59.000Z</time>
      </trkpt>
      <trkpt lat="48.94534" lon="1.06002">
        <ele>194</ele>
        <time>2014-05-29T09:18:01.000Z</time>
      </trkpt>
      <trkpt lat="48.94535" lon="1.05986">
        <ele>195</ele>
        <time>2014-05-29T09:18:03.000Z</time>
      </trkpt>
      <trkpt lat="48.94534" lon="1.0597">
        <ele>195</ele>
        <time>2014-05-29T09:18:05.000Z</time>
      </trkpt>
      <trkpt lat="48.94535" lon="1.05956">
        <ele>195</ele>
        <time>2014-05-29T09:18:07.000Z</time>
      </trkpt>
      <trkpt lat="48.94536" lon="1.05941">
        <ele>195</ele>
        <time>2014-05-29T09:18:09.000Z</time>
      </trkpt>
      <trkpt lat="48.94537" lon="1.05925">
        <ele>195</ele>
        <time>2014-05-29T09:18:11.000Z</time>
      </trkpt>
      <trkpt lat="48.94537" lon="1.05911">
        <ele>195</ele>
        <time>2014-05-29T09:18:13.000Z</time>
      </trkpt>
      <trkpt lat="48.94536" lon="1.05896">
        <ele>195</ele>
        <time>2014-05-29T09:18:15.000Z</time>
      </trkpt>
      <trkpt lat="48.94535" lon="1.05878">
        <ele>195</ele>
        <time>2014-05-29T09:18:17.000Z</time>
      </trkpt>
      <trkpt lat="48.94534" lon="1.05863">
        <ele>196</ele>
        <time>2014-05-29T09:18:19.000Z</time>
      </trkpt>
      <trkpt lat="48.94534" lon="1.05848">
        <ele>196</ele>
        <time>2014-05-29T09:18:21.000Z</time>
      </trkpt>
      <trkpt lat="48.94535" lon="1.05836">
        <ele>197</ele>
        <time>2014-05-29T09:18:23.000Z</time>
      </trkpt>
      <trkpt lat="48.94537" lon="1.05821">
        <ele>197</ele>
        <time>2014-05-29T09:18:25.000Z</time>
      </trkpt>
      <trkpt lat="48.94536" lon="1.05805">
        <ele>197</ele>
        <time>2014-05-29T09:18:27.000Z</time>
      </trkpt>
      <trkpt lat="48.94537" lon="1.05789">
        <ele>198</ele>
        <time>2014-05-29T09:18:29.000Z</time>
      </trkpt>
      <trkpt lat="48.94538" lon="1.05774">
        <ele>198</ele>
        <time>2014-05-29T09:18:31.000Z</time>
      </trkpt>
      <trkpt lat="48.9454" lon="1.05757">
        <ele>198</ele>
        <time>2014-05-29T09:18:33.000Z</time>
      </trkpt>
      <trkpt lat="48.94542" lon="1.05741">
        <ele>197</ele>
        <time>2014-05-29T09:18:35.000Z</time>
      </trkpt>
      <trkpt lat="48.94542" lon="1.05724">
        <ele>196</ele>
        <time>2014-05-29T09:18:37.000Z</time>
      </trkpt>
      <trkpt lat="48.94543" lon="1.05709">
        <ele>197</ele>
        <time>2014-05-29T09:18:39.000Z</time>
      </trkpt>
      <trkpt lat="48.94546" lon="1.05693">
        <ele>198</ele>
        <time>2014-05-29T09:18:41.000Z</time>
      </trkpt>
      <trkpt lat="48.94548" lon="1.05677">
        <ele>199</ele>
        <time>2014-05-29T09:18:43.000Z</time>
      </trkpt>
      <trkpt lat="48.94551" lon="1.05659">
        <ele>199</ele>
        <time>2014-05-29T09:18:45.000Z</time>
      </trkpt>
      <trkpt lat="48.94555" lon="1.05641">
        <ele>199</ele>
        <time>2014-05-29T09:18:47.000Z</time>
      </trkpt>
      <trkpt lat="48.94558" lon="1.05624">
        <ele>199</ele>
        <time>2014-05-29T09:18:49.000Z</time>
      </trkpt>
      <trkpt lat="48.9456" lon="1.05607">
        <ele>199</ele>
        <time>2014-05-29T09:18:51.000Z</time>
      </trkpt>
      <trkpt lat="48.94563" lon="1.05593">
        <ele>200</ele>
        <time>2014-05-29T09:18:53.000Z</time>
      </trkpt>
      <trkpt lat="48.94564" lon="1.05582">
        <ele>200</ele>
        <time>2014-05-29T09:18:55.000Z</time>
      </trkpt>
      <trkpt lat="48.94566" lon="1.05571">
        <ele>200</ele>
        <time>2014-05-29T09:18:57.000Z</time>
      </trkpt>
      <trkpt lat="48.94569" lon="1.05562">
        <ele>200</ele>
        <time>2014-05-29T09:18:59.000Z</time>
      </trkpt>
      <trkpt lat="48.94572" lon="1.05551">
        <ele>200</ele>
        <time>2014-05-29T09:19:01.000Z</time>
      </trkpt>
      <trkpt lat="48.94574" lon="1.0554">
        <ele>200</ele>
        <time>2014-05-29T09:19:03.000Z</time>
      </trkpt>
      <trkpt lat="48.94577" lon="1.05527">
        <ele>201</ele>
        <time>2014-05-29T09:19:05.000Z</time>
      </trkpt>
      <trkpt lat="48.9458" lon="1.05512">
        <ele>202</ele>
        <time>2014-05-29T09:19:07.000Z</time>
      </trkpt>
      <trkpt lat="48.94585" lon="1.05495">
        <ele>202</ele>
        <time>2014-05-29T09:19:09.000Z</time>
      </trkpt>
      <trkpt lat="48.94587" lon="1.0548">
        <ele>201</ele>
        <time>2014-05-29T09:19:11.000Z</time>
      </trkpt>
      <trkpt lat="48.94586" lon="1.05464">
        <ele>199</ele>
        <time>2014-05-29T09:19:13.000Z</time>
      </trkpt>
      <trkpt lat="48.94583" lon="1.05447">
        <ele>196</ele>
        <time>2014-05-29T09:19:15.000Z</time>
      </trkpt>
      <trkpt lat="48.94578" lon="1.0543">
        <ele>194</ele>
        <time>2014-05-29T09:19:17.000Z</time>
      </trkpt>
      <trkpt lat="48.94572" lon="1.05413">
        <ele>192</ele>
        <time>2014-05-29T09:19:19.000Z</time>
      </trkpt>
      <trkpt lat="48.94566" lon="1.05395">
        <ele>192</ele>
        <time>2014-05-29T09:19:21.000Z</time>
      </trkpt>
      <trkpt lat="48.94565" lon="1.05379">
        <ele>191</ele>
        <time>2014-05-29T09:19:23.000Z</time>
      </trkpt>
      <trkpt lat="48.94565" lon="1.05365">
        <ele>191</ele>
        <time>2014-05-29T09:19:25.000Z</time>
      </trkpt>
      <trkpt lat="48.94565" lon="1.05348">
        <ele>192</ele>
        <time>2014-05-29T09:19:27.000Z</time>
      </trkpt>
      <trkpt lat="48.94565" lon="1.0533">
        <ele>193</ele>
        <time>2014-05-29T09:19:29.000Z</time>
      </trkpt>
      <trkpt lat="48.94564" lon="1.05313">
        <ele>193</ele>
        <time>2014-05-29T09:19:31.000Z</time>
      </trkpt>
      <trkpt lat="48.94564" lon="1.053">
        <ele>193</ele>
        <time>2014-05-29T09:19:33.000Z</time>
      </trkpt>
      <trkpt lat="48.94564" lon="1.05285">
        <ele>192</ele>
        <time>2014-05-29T09:19:35.000Z</time>
      </trkpt>
      <trkpt lat="48.94562" lon="1.05271">
        <ele>192</ele>
        <time>2014-05-29T09:19:37.000Z</time>
      </trkpt>
      <trkpt lat="48.94561" lon="1.05253">
        <ele>192</ele>
        <time>2014-05-29T09:19:39.000Z</time>
      </trkpt>
      <trkpt lat="48.94562" lon="1.05238">
        <ele>190</ele>
        <time>2014-05-29T09:19:41.000Z</time>
      </trkpt>
      <trkpt lat="48.94565" lon="1.0522">
        <ele>189</ele>
        <time>2014-05-29T09:19:43.000Z</time>
      </trkpt>
      <trkpt lat="48.94567" lon="1.05204">
        <ele>189</ele>
        <time>2014-05-29T09:19:46.000Z</time>
      </trkpt>
      <trkpt lat="48.94567" lon="1.05191">
        <ele>189</ele>
        <time>2014-05-29T09:19:48.000Z</time>
      </trkpt>
      <trkpt lat="48.94568" lon="1.05182">
        <ele>188</ele>
        <time>2014-05-29T09:19:50.000Z</time>
      </trkpt>
      <trkpt lat="48.94568" lon="1.05182">
        <ele>188</ele>
        <time>2014-05-29T09:19:52.000Z</time>
      </trkpt>
      <trkpt lat="48.94568" lon="1.05182">
        <ele>188</ele>
        <time>2014-05-29T09:19:54.000Z</time>
      </trkpt>
      <trkpt lat="48.9457" lon="1.0517">
        <ele>186</ele>
        <time>2014-05-29T09:19:56.000Z</time>
      </trkpt>
      <trkpt lat="48.9457" lon="1.0517">
        <ele>186</ele>
        <time>2014-05-29T09:19:58.000Z</time>
      </trkpt>
      <trkpt lat="48.94575" lon="1.05184">
        <ele>185</ele>
        <time>2014-05-29T09:20:00.000Z</time>
      </trkpt>
      <trkpt lat="48.94577" lon="1.05195">
        <ele>184</ele>
        <time>2014-05-29T09:20:04.000Z</time>
      </trkpt>
      <trkpt lat="48.94577" lon="1.05195">
        <ele>184</ele>
        <time>2014-05-29T09:20:06.000Z</time>
      </trkpt>
      <trkpt lat="48.94583" lon="1.05209">
        <ele>183</ele>
        <time>2014-05-29T09:20:08.000Z</time>
      </trkpt>
      <trkpt lat="48.94587" lon="1.05219">
        <ele>182</ele>
        <time>2014-05-29T09:20:10.000Z</time>
      </trkpt>
      <trkpt lat="48.94591" lon="1.05233">
        <ele>182</ele>
        <time>2014-05-29T09:20:12.000Z</time>
      </trkpt>
      <trkpt lat="48.94595" lon="1.05244">
        <ele>181</ele>
        <time>2014-05-29T09:20:14.000Z</time>
      </trkpt>
      <trkpt lat="48.94599" lon="1.05254">
        <ele>181</ele>
        <time>2014-05-29T09:20:16.000Z</time>
      </trkpt>
      <trkpt lat="48.94603" lon="1.05263">
        <ele>181</ele>
        <time>2014-05-29T09:20:18.000Z</time>
      </trkpt>
      <trkpt lat="48.94608" lon="1.05273">
        <ele>181</ele>
        <time>2014-05-29T09:20:20.000Z</time>
      </trkpt>
      <trkpt lat="48.94613" lon="1.05281">
        <ele>180</ele>
        <time>2014-05-29T09:20:22.000Z</time>
      </trkpt>
      <trkpt lat="48.94618" lon="1.05292">
        <ele>180</ele>
        <time>2014-05-29T09:20:24.000Z</time>
      </trkpt>
      <trkpt lat="48.94623" lon="1.05302">
        <ele>180</ele>
        <time>2014-05-29T09:20:26.000Z</time>
      </trkpt>
      <trkpt lat="48.94627" lon="1.05311">
        <ele>179</ele>
        <time>2014-05-29T09:20:28.000Z</time>
      </trkpt>
      <trkpt lat="48.94631" lon="1.05319">
        <ele>178</ele>
        <time>2014-05-29T09:20:30.000Z</time>
      </trkpt>
      <trkpt lat="48.94631" lon="1.05319">
        <ele>178</ele>
        <time>2014-05-29T09:20:32.000Z</time>
      </trkpt>
      <trkpt lat="48.94637" lon="1.05328">
        <ele>178</ele>
        <time>2014-05-29T09:20:34.000Z</time>
      </trkpt>
      <trkpt lat="48.94637" lon="1.05328">
        <ele>178</ele>
        <time>2014-05-29T09:20:36.000Z</time>
      </trkpt>
      <trkpt lat="48.9464" lon="1.05336">
        <ele>177</ele>
        <time>2014-05-29T09:20:38.000Z</time>
      </trkpt>
      <trkpt lat="48.9464" lon="1.05336">
        <ele>177</ele>
        <time>2014-05-29T09:20:40.000Z</time>
      </trkpt>
      <trkpt lat="48.9464" lon="1.05336">
        <ele>177</ele>
        <time>2014-05-29T09:20:42.000Z</time>
      </trkpt>
      <trkpt lat="48.94646" lon="1.05346">
        <ele>176</ele>
        <time>2014-05-29T09:20:44.000Z</time>
      </trkpt>
      <trkpt lat="48.94646" lon="1.05346">
        <ele>176</ele>
        <time>2014-05-29T09:20:46.000Z</time>
      </trkpt>
      <trkpt lat="48.9465" lon="1.05357">
        <ele>175</ele>
        <time>2014-05-29T09:20:48.000Z</time>
      </trkpt>
      <trkpt lat="48.9465" lon="1.05357">
        <ele>175</ele>
        <time>2014-05-29T09:20:50.000Z</time>
      </trkpt>
      <trkpt lat="48.94657" lon="1.05367">
        <ele>175</ele>
        <time>2014-05-29T09:20:52.000Z</time>
      </trkpt>
      <trkpt lat="48.94661" lon="1.05375">
        <ele>174</ele>
        <time>2014-05-29T09:20:54.000Z</time>
      </trkpt>
      <trkpt lat="48.94664" lon="1.05382">
        <ele>175</ele>
        <time>2014-05-29T09:20:56.000Z</time>
      </trkpt>
      <trkpt lat="48.94672" lon="1.05396">
        <ele>175</ele>
        <time>2014-05-29T09:21:00.000Z</time>
      </trkpt>
      <trkpt lat="48.94675" lon="1.05403">
        <ele>175</ele>
        <time>2014-05-29T09:21:04.000Z</time>
      </trkpt>
      <trkpt lat="48.94679" lon="1.05409">
        <ele>175</ele>
        <time>2014-05-29T09:21:06.000Z</time>
      </trkpt>
      <trkpt lat="48.94682" lon="1.05414">
        <ele>175</ele>
        <time>2014-05-29T09:21:08.000Z</time>
      </trkpt>
      <trkpt lat="48.94682" lon="1.05414">
        <ele>175</ele>
        <time>2014-05-29T09:21:10.000Z</time>
      </trkpt>
      <trkpt lat="48.94685" lon="1.05418">
        <ele>175</ele>
        <time>2014-05-29T09:21:12.000Z</time>
      </trkpt>
      <trkpt lat="48.94688" lon="1.05421">
        <ele>175</ele>
        <time>2014-05-29T09:21:14.000Z</time>
      </trkpt>
      <trkpt lat="48.9469" lon="1.05423">
        <ele>175</ele>
        <time>2014-05-29T09:21:18.000Z</time>
      </trkpt>
      <trkpt lat="48.9469" lon="1.05423">
        <ele>175</ele>
        <time>2014-05-29T09:21:20.000Z</time>
      </trkpt>
      <trkpt lat="48.9469" lon="1.05423">
        <ele>175</ele>
        <time>2014-05-29T09:21:22.000Z</time>
      </trkpt>
      <trkpt lat="48.94696" lon="1.05427">
        <ele>175</ele>
        <time>2014-05-29T09:21:25.000Z</time>
      </trkpt>
      <trkpt lat="48.94705" lon="1.05434">
        <ele>175</ele>
        <time>2014-05-29T09:21:28.000Z</time>
      </trkpt>
      <trkpt lat="48.94712" lon="1.0544">
        <ele>176</ele>
        <time>2014-05-29T09:21:31.000Z</time>
      </trkpt>
      <trkpt lat="48.94717" lon="1.05445">
        <ele>176</ele>
        <time>2014-05-29T09:21:33.000Z</time>
      </trkpt>
      <trkpt lat="48.94722" lon="1.05449">
        <ele>176</ele>
        <time>2014-05-29T09:21:35.000Z</time>
      </trkpt>
      <trkpt lat="48.9473" lon="1.05455">
        <ele>176</ele>
        <time>2014-05-29T09:21:37.000Z</time>
      </trkpt>
      <trkpt lat="48.9473" lon="1.05455">
        <ele>176</ele>
        <time>2014-05-29T09:21:39.000Z</time>
      </trkpt>
      <trkpt lat="48.94737" lon="1.05462">
        <ele>177</ele>
        <time>2014-05-29T09:21:41.000Z</time>
      </trkpt>
      <trkpt lat="48.94742" lon="1.05467">
        <ele>177</ele>
        <time>2014-05-29T09:21:43.000Z</time>
      </trkpt>
      <trkpt lat="48.94742" lon="1.05467">
        <ele>177</ele>
        <time>2014-05-29T09:21:45.000Z</time>
      </trkpt>
      <trkpt lat="48.94751" lon="1.05474">
        <ele>178</ele>
        <time>2014-05-29T09:21:47.000Z</time>
      </trkpt>
      <trkpt lat="48.94758" lon="1.05484">
        <ele>178</ele>
        <time>2014-05-29T09:21:51.000Z</time>
      </trkpt>
      <trkpt lat="48.94758" lon="1.05484">
        <ele>178</ele>
        <time>2014-05-29T09:21:53.000Z</time>
      </trkpt>
      <trkpt lat="48.94762" lon="1.05496">
        <ele>177</ele>
        <time>2014-05-29T09:21:55.000Z</time>
      </trkpt>
      <trkpt lat="48.94762" lon="1.05496">
        <ele>177</ele>
        <time>2014-05-29T09:21:57.000Z</time>
      </trkpt>
      <trkpt lat="48.94768" lon="1.05505">
        <ele>178</ele>
        <time>2014-05-29T09:21:59.000Z</time>
      </trkpt>
      <trkpt lat="48.94768" lon="1.05505">
        <ele>178</ele>
        <time>2014-05-29T09:22:01.000Z</time>
      </trkpt>
      <trkpt lat="48.94773" lon="1.0551">
        <ele>178</ele>
        <time>2014-05-29T09:22:03.000Z</time>
      </trkpt>
      <trkpt lat="48.94773" lon="1.0551">
        <ele>178</ele>
        <time>2014-05-29T09:22:05.000Z</time>
      </trkpt>
      <trkpt lat="48.9478" lon="1.05511">
        <ele>177</ele>
        <time>2014-05-29T09:22:07.000Z</time>
      </trkpt>
      <trkpt lat="48.9478" lon="1.05511">
        <ele>177</ele>
        <time>2014-05-29T09:22:09.000Z</time>
      </trkpt>
      <trkpt lat="48.94787" lon="1.05519">
        <ele>177</ele>
        <time>2014-05-29T09:22:11.000Z</time>
      </trkpt>
      <trkpt lat="48.94787" lon="1.05519">
        <ele>177</ele>
        <time>2014-05-29T09:22:13.000Z</time>
      </trkpt>
      <trkpt lat="48.94794" lon="1.05527">
        <ele>177</ele>
        <time>2014-05-29T09:22:15.000Z</time>
      </trkpt>
      <trkpt lat="48.94794" lon="1.05527">
        <ele>177</ele>
        <time>2014-05-29T09:22:17.000Z</time>
      </trkpt>
      <trkpt lat="48.94799" lon="1.05534">
        <ele>177</ele>
        <time>2014-05-29T09:22:19.000Z</time>
      </trkpt>
      <trkpt lat="48.94805" lon="1.0554">
        <ele>178</ele>
        <time>2014-05-29T09:22:23.000Z</time>
      </trkpt>
      <trkpt lat="48.94805" lon="1.0554">
        <ele>178</ele>
        <time>2014-05-29T09:22:25.000Z</time>
      </trkpt>
      <trkpt lat="48.9481" lon="1.05545">
        <ele>177</ele>
        <time>2014-05-29T09:22:27.000Z</time>
      </trkpt>
      <trkpt lat="48.9481" lon="1.05545">
        <ele>177</ele>
        <time>2014-05-29T09:22:29.000Z</time>
      </trkpt>
      <trkpt lat="48.94818" lon="1.05553">
        <ele>177</ele>
        <time>2014-05-29T09:22:31.000Z</time>
      </trkpt>
      <trkpt lat="48.94818" lon="1.05553">
        <ele>177</ele>
        <time>2014-05-29T09:22:33.000Z</time>
      </trkpt>
      <trkpt lat="48.94826" lon="1.05559">
        <ele>178</ele>
        <time>2014-05-29T09:22:35.000Z</time>
      </trkpt>
      <trkpt lat="48.94826" lon="1.05559">
        <ele>178</ele>
        <time>2014-05-29T09:22:37.000Z</time>
      </trkpt>
      <trkpt lat="48.94834" lon="1.05565">
        <ele>178</ele>
        <time>2014-05-29T09:22:39.000Z</time>
      </trkpt>
      <trkpt lat="48.94843" lon="1.05571">
        <ele>178</ele>
        <time>2014-05-29T09:22:43.000Z</time>
      </trkpt>
      <trkpt lat="48.9485" lon="1.05576">
        <ele>179</ele>
        <time>2014-05-29T09:22:47.000Z</time>
      </trkpt>
      <trkpt lat="48.9485" lon="1.05576">
        <ele>179</ele>
        <time>2014-05-29T09:22:49.000Z</time>
      </trkpt>
      <trkpt lat="48.94858" lon="1.05581">
        <ele>179</ele>
        <time>2014-05-29T09:22:51.000Z</time>
      </trkpt>
      <trkpt lat="48.94858" lon="1.05581">
        <ele>179</ele>
        <time>2014-05-29T09:22:53.000Z</time>
      </trkpt>
      <trkpt lat="48.94865" lon="1.05585">
        <ele>180</ele>
        <time>2014-05-29T09:22:55.000Z</time>
      </trkpt>
      <trkpt lat="48.94873" lon="1.05588">
        <ele>180</ele>
        <time>2014-05-29T09:22:59.000Z</time>
      </trkpt>
      <trkpt lat="48.94873" lon="1.05588">
        <ele>180</ele>
        <time>2014-05-29T09:23:01.000Z</time>
      </trkpt>
      <trkpt lat="48.9488" lon="1.0559">
        <ele>180</ele>
        <time>2014-05-29T09:23:03.000Z</time>
      </trkpt>
      <trkpt lat="48.94887" lon="1.05591">
        <ele>180</ele>
        <time>2014-05-29T09:23:05.000Z</time>
      </trkpt>
      <trkpt lat="48.94893" lon="1.05594">
        <ele>181</ele>
        <time>2014-05-29T09:23:07.000Z</time>
      </trkpt>
      <trkpt lat="48.94899" lon="1.05598">
        <ele>181</ele>
        <time>2014-05-29T09:23:09.000Z</time>
      </trkpt>
      <trkpt lat="48.94906" lon="1.05601">
        <ele>181</ele>
        <time>2014-05-29T09:23:11.000Z</time>
      </trkpt>
      <trkpt lat="48.94914" lon="1.05603">
        <ele>181</ele>
        <time>2014-05-29T09:23:13.000Z</time>
      </trkpt>
      <trkpt lat="48.94923" lon="1.05605">
        <ele>181</ele>
        <time>2014-05-29T09:23:15.000Z</time>
      </trkpt>
      <trkpt lat="48.94929" lon="1.05607">
        <ele>180</ele>
        <time>2014-05-29T09:23:17.000Z</time>
      </trkpt>
      <trkpt lat="48.94939" lon="1.05611">
        <ele>180</ele>
        <time>2014-05-29T09:23:19.000Z</time>
      </trkpt>
      <trkpt lat="48.94947" lon="1.05614">
        <ele>179</ele>
        <time>2014-05-29T09:23:21.000Z</time>
      </trkpt>
      <trkpt lat="48.94955" lon="1.05617">
        <ele>178</ele>
        <time>2014-05-29T09:23:23.000Z</time>
      </trkpt>
      <trkpt lat="48.94962" lon="1.0562">
        <ele>178</ele>
        <time>2014-05-29T09:23:25.000Z</time>
      </trkpt>
      <trkpt lat="48.94962" lon="1.0562">
        <ele>178</ele>
        <time>2014-05-29T09:23:27.000Z</time>
      </trkpt>
      <trkpt lat="48.9497" lon="1.05624">
        <ele>177</ele>
        <time>2014-05-29T09:23:29.000Z</time>
      </trkpt>
      <trkpt lat="48.9497" lon="1.05624">
        <ele>177</ele>
        <time>2014-05-29T09:23:31.000Z</time>
      </trkpt>
      <trkpt lat="48.94989" lon="1.05625">
        <ele>176</ele>
        <time>2014-05-29T09:23:34.000Z</time>
      </trkpt>
      <trkpt lat="48.94989" lon="1.05625">
        <ele>176</ele>
        <time>2014-05-29T09:23:36.000Z</time>
      </trkpt>
      <trkpt lat="48.95" lon="1.05624">
        <ele>175</ele>
        <time>2014-05-29T09:23:38.000Z</time>
      </trkpt>
      <trkpt lat="48.95006" lon="1.05623">
        <ele>174</ele>
        <time>2014-05-29T09:23:40.000Z</time>
      </trkpt>
      <trkpt lat="48.95013" lon="1.05623">
        <ele>174</ele>
        <time>2014-05-29T09:23:42.000Z</time>
      </trkpt>
      <trkpt lat="48.95021" lon="1.05623">
        <ele>173</ele>
        <time>2014-05-29T09:23:44.000Z</time>
      </trkpt>
      <trkpt lat="48.95027" lon="1.05622">
        <ele>173</ele>
        <time>2014-05-29T09:23:46.000Z</time>
      </trkpt>
      <trkpt lat="48.95034" lon="1.05619">
        <ele>173</ele>
        <time>2014-05-29T09:23:48.000Z</time>
      </trkpt>
      <trkpt lat="48.95041" lon="1.05617">
        <ele>172</ele>
        <time>2014-05-29T09:23:50.000Z</time>
      </trkpt>
      <trkpt lat="48.95047" lon="1.05618">
        <ele>172</ele>
        <time>2014-05-29T09:23:52.000Z</time>
      </trkpt>
      <trkpt lat="48.95054" lon="1.05619">
        <ele>171</ele>
        <time>2014-05-29T09:23:54.000Z</time>
      </trkpt>
      <trkpt lat="48.95061" lon="1.0562">
        <ele>171</ele>
        <time>2014-05-29T09:23:56.000Z</time>
      </trkpt>
      <trkpt lat="48.95067" lon="1.05623">
        <ele>170</ele>
        <time>2014-05-29T09:23:58.000Z</time>
      </trkpt>
      <trkpt lat="48.95067" lon="1.05623">
        <ele>170</ele>
        <time>2014-05-29T09:24:00.000Z</time>
      </trkpt>
      <trkpt lat="48.95076" lon="1.05626">
        <ele>170</ele>
        <time>2014-05-29T09:24:02.000Z</time>
      </trkpt>
      <trkpt lat="48.95082" lon="1.05629">
        <ele>170</ele>
        <time>2014-05-29T09:24:04.000Z</time>
      </trkpt>
      <trkpt lat="48.95082" lon="1.05629">
        <ele>170</ele>
        <time>2014-05-29T09:24:06.000Z</time>
      </trkpt>
      <trkpt lat="48.9509" lon="1.0563">
        <ele>169</ele>
        <time>2014-05-29T09:24:08.000Z</time>
      </trkpt>
      <trkpt lat="48.9509" lon="1.0563">
        <ele>169</ele>
        <time>2014-05-29T09:24:10.000Z</time>
      </trkpt>
      <trkpt lat="48.95097" lon="1.0563">
        <ele>169</ele>
        <time>2014-05-29T09:24:12.000Z</time>
      </trkpt>
      <trkpt lat="48.95097" lon="1.0563">
        <ele>169</ele>
        <time>2014-05-29T09:24:14.000Z</time>
      </trkpt>
      <trkpt lat="48.95103" lon="1.05631">
        <ele>169</ele>
        <time>2014-05-29T09:24:16.000Z</time>
      </trkpt>
      <trkpt lat="48.95103" lon="1.05631">
        <ele>169</ele>
        <time>2014-05-29T09:24:18.000Z</time>
      </trkpt>
      <trkpt lat="48.95113" lon="1.05632">
        <ele>170</ele>
        <time>2014-05-29T09:24:20.000Z</time>
      </trkpt>
      <trkpt lat="48.95113" lon="1.05632">
        <ele>170</ele>
        <time>2014-05-29T09:24:22.000Z</time>
      </trkpt>
      <trkpt lat="48.95116" lon="1.05632">
        <ele>169</ele>
        <time>2014-05-29T09:24:24.000Z</time>
      </trkpt>
      <trkpt lat="48.9512" lon="1.0563">
        <ele>169</ele>
        <time>2014-05-29T09:24:26.000Z</time>
      </trkpt>
      <trkpt lat="48.95125" lon="1.05628">
        <ele>169</ele>
        <time>2014-05-29T09:24:28.000Z</time>
      </trkpt>
      <trkpt lat="48.95129" lon="1.05625">
        <ele>169</ele>
        <time>2014-05-29T09:24:30.000Z</time>
      </trkpt>
      <trkpt lat="48.95134" lon="1.05623">
        <ele>169</ele>
        <time>2014-05-29T09:24:32.000Z</time>
      </trkpt>
      <trkpt lat="48.9514" lon="1.05619">
        <ele>169</ele>
        <time>2014-05-29T09:24:34.000Z</time>
      </trkpt>
      <trkpt lat="48.9514" lon="1.05619">
        <ele>169</ele>
        <time>2014-05-29T09:24:36.000Z</time>
      </trkpt>
      <trkpt lat="48.95147" lon="1.05616">
        <ele>169</ele>
        <time>2014-05-29T09:24:38.000Z</time>
      </trkpt>
      <trkpt lat="48.95155" lon="1.05611">
        <ele>170</ele>
        <time>2014-05-29T09:24:42.000Z</time>
      </trkpt>
      <trkpt lat="48.95165" lon="1.05605">
        <ele>170</ele>
        <time>2014-05-29T09:24:46.000Z</time>
      </trkpt>
      <trkpt lat="48.95171" lon="1.056">
        <ele>169</ele>
        <time>2014-05-29T09:24:48.000Z</time>
      </trkpt>
      <trkpt lat="48.95178" lon="1.05601">
        <ele>169</ele>
        <time>2014-05-29T09:24:52.000Z</time>
      </trkpt>
      <trkpt lat="48.95178" lon="1.05601">
        <ele>169</ele>
        <time>2014-05-29T09:24:54.000Z</time>
      </trkpt>
      <trkpt lat="48.95173" lon="1.05597">
        <ele>169</ele>
        <time>2014-05-29T09:24:58.000Z</time>
      </trkpt>
      <trkpt lat="48.95173" lon="1.05597">
        <ele>169</ele>
        <time>2014-05-29T09:25:00.000Z</time>
      </trkpt>
      <trkpt lat="48.95181" lon="1.05594">
        <ele>169</ele>
        <time>2014-05-29T09:25:02.000Z</time>
      </trkpt>
      <trkpt lat="48.95188" lon="1.05588">
        <ele>169</ele>
        <time>2014-05-29T09:25:04.000Z</time>
      </trkpt>
      <trkpt lat="48.95195" lon="1.05582">
        <ele>169</ele>
        <time>2014-05-29T09:25:06.000Z</time>
      </trkpt>
      <trkpt lat="48.95195" lon="1.05582">
        <ele>169</ele>
        <time>2014-05-29T09:25:08.000Z</time>
      </trkpt>
      <trkpt lat="48.95203" lon="1.05576">
        <ele>170</ele>
        <time>2014-05-29T09:25:10.000Z</time>
      </trkpt>
      <trkpt lat="48.95203" lon="1.05576">
        <ele>170</ele>
        <time>2014-05-29T09:25:12.000Z</time>
      </trkpt>
      <trkpt lat="48.95211" lon="1.05571">
        <ele>171</ele>
        <time>2014-05-29T09:25:16.000Z</time>
      </trkpt>
      <trkpt lat="48.95215" lon="1.05565">
        <ele>172</ele>
        <time>2014-05-29T09:25:20.000Z</time>
      </trkpt>
      <trkpt lat="48.95219" lon="1.05556">
        <ele>173</ele>
        <time>2014-05-29T09:25:24.000Z</time>
      </trkpt>
      <trkpt lat="48.95224" lon="1.05546">
        <ele>173</ele>
        <time>2014-05-29T09:25:28.000Z</time>
      </trkpt>
      <trkpt lat="48.95227" lon="1.05535">
        <ele>174</ele>
        <time>2014-05-29T09:25:30.000Z</time>
      </trkpt>
      <trkpt lat="48.9523" lon="1.05525">
        <ele>174</ele>
        <time>2014-05-29T09:25:32.000Z</time>
      </trkpt>
      <trkpt lat="48.95233" lon="1.05516">
        <ele>174</ele>
        <time>2014-05-29T09:25:34.000Z</time>
      </trkpt>
      <trkpt lat="48.95235" lon="1.05506">
        <ele>174</ele>
        <time>2014-05-29T09:25:36.000Z</time>
      </trkpt>
      <trkpt lat="48.95239" lon="1.05493">
        <ele>174</ele>
        <time>2014-05-29T09:25:38.000Z</time>
      </trkpt>
      <trkpt lat="48.95244" lon="1.05476">
        <ele>174</ele>
        <time>2014-05-29T09:25:40.000Z</time>
      </trkpt>
      <trkpt lat="48.95248" lon="1.05456">
        <ele>173</ele>
        <time>2014-05-29T09:25:42.000Z</time>
      </trkpt>
      <trkpt lat="48.95255" lon="1.05437">
        <ele>171</ele>
        <time>2014-05-29T09:25:44.000Z</time>
      </trkpt>
      <trkpt lat="48.95261" lon="1.05419">
        <ele>169</ele>
        <time>2014-05-29T09:25:46.000Z</time>
      </trkpt>
      <trkpt lat="48.95267" lon="1.05403">
        <ele>167</ele>
        <time>2014-05-29T09:25:48.000Z</time>
      </trkpt>
      <trkpt lat="48.95272" lon="1.05389">
        <ele>167</ele>
        <time>2014-05-29T09:25:50.000Z</time>
      </trkpt>
      <trkpt lat="48.95277" lon="1.05379">
        <ele>166</ele>
        <time>2014-05-29T09:25:52.000Z</time>
      </trkpt>
      <trkpt lat="48.95281" lon="1.05368">
        <ele>166</ele>
        <time>2014-05-29T09:25:54.000Z</time>
      </trkpt>
      <trkpt lat="48.95286" lon="1.05358">
        <ele>165</ele>
        <time>2014-05-29T09:25:56.000Z</time>
      </trkpt>
      <trkpt lat="48.95291" lon="1.05349">
        <ele>165</ele>
        <time>2014-05-29T09:25:58.000Z</time>
      </trkpt>
      <trkpt lat="48.95296" lon="1.0534">
        <ele>164</ele>
        <time>2014-05-29T09:26:00.000Z</time>
      </trkpt>
      <trkpt lat="48.953" lon="1.05332">
        <ele>164</ele>
        <time>2014-05-29T09:26:02.000Z</time>
      </trkpt>
      <trkpt lat="48.953" lon="1.05332">
        <ele>164</ele>
        <time>2014-05-29T09:26:04.000Z</time>
      </trkpt>
      <trkpt lat="48.95307" lon="1.05319">
        <ele>163</ele>
        <time>2014-05-29T09:26:06.000Z</time>
      </trkpt>
      <trkpt lat="48.95311" lon="1.05312">
        <ele>163</ele>
        <time>2014-05-29T09:26:08.000Z</time>
      </trkpt>
      <trkpt lat="48.95315" lon="1.05304">
        <ele>162</ele>
        <time>2014-05-29T09:26:10.000Z</time>
      </trkpt>
      <trkpt lat="48.95319" lon="1.05294">
        <ele>161</ele>
        <time>2014-05-29T09:26:12.000Z</time>
      </trkpt>
      <trkpt lat="48.95323" lon="1.05286">
        <ele>161</ele>
        <time>2014-05-29T09:26:14.000Z</time>
      </trkpt>
      <trkpt lat="48.95326" lon="1.05277">
        <ele>161</ele>
        <time>2014-05-29T09:26:16.000Z</time>
      </trkpt>
      <trkpt lat="48.9533" lon="1.05268">
        <ele>160</ele>
        <time>2014-05-29T09:26:18.000Z</time>
      </trkpt>
      <trkpt lat="48.95333" lon="1.0526">
        <ele>160</ele>
        <time>2014-05-29T09:26:20.000Z</time>
      </trkpt>
      <trkpt lat="48.95336" lon="1.05252">
        <ele>159</ele>
        <time>2014-05-29T09:26:22.000Z</time>
      </trkpt>
      <trkpt lat="48.95339" lon="1.05244">
        <ele>159</ele>
        <time>2014-05-29T09:26:24.000Z</time>
      </trkpt>
      <trkpt lat="48.95343" lon="1.05236">
        <ele>159</ele>
        <time>2014-05-29T09:26:26.000Z</time>
      </trkpt>
      <trkpt lat="48.95346" lon="1.05228">
        <ele>158</ele>
        <time>2014-05-29T09:26:28.000Z</time>
      </trkpt>
      <trkpt lat="48.95349" lon="1.05219">
        <ele>158</ele>
        <time>2014-05-29T09:26:30.000Z</time>
      </trkpt>
      <trkpt lat="48.95352" lon="1.0521">
        <ele>158</ele>
        <time>2014-05-29T09:26:32.000Z</time>
      </trkpt>
      <trkpt lat="48.95352" lon="1.0521">
        <ele>158</ele>
        <time>2014-05-29T09:26:34.000Z</time>
      </trkpt>
      <trkpt lat="48.95355" lon="1.05201">
        <ele>158</ele>
        <time>2014-05-29T09:26:36.000Z</time>
      </trkpt>
      <trkpt lat="48.95355" lon="1.05201">
        <ele>158</ele>
        <time>2014-05-29T09:26:38.000Z</time>
      </trkpt>
      <trkpt lat="48.95355" lon="1.05201">
        <ele>158</ele>
        <time>2014-05-29T09:26:40.000Z</time>
      </trkpt>
      <trkpt lat="48.95355" lon="1.05201">
        <ele>158</ele>
        <time>2014-05-29T09:26:42.000Z</time>
      </trkpt>
      <trkpt lat="48.95355" lon="1.05201">
        <ele>158</ele>
        <time>2014-05-29T09:26:44.000Z</time>
      </trkpt>
      <trkpt lat="48.95358" lon="1.0519">
        <ele>158</ele>
        <time>2014-05-29T09:26:46.000Z</time>
      </trkpt>
      <trkpt lat="48.9536" lon="1.05181">
        <ele>159</ele>
        <time>2014-05-29T09:26:50.000Z</time>
      </trkpt>
      <trkpt lat="48.95362" lon="1.05167">
        <ele>159</ele>
        <time>2014-05-29T09:26:54.000Z</time>
      </trkpt>
      <trkpt lat="48.95365" lon="1.05152">
        <ele>159</ele>
        <time>2014-05-29T09:26:58.000Z</time>
      </trkpt>
      <trkpt lat="48.95365" lon="1.05152">
        <ele>159</ele>
        <time>2014-05-29T09:27:00.000Z</time>
      </trkpt>
      <trkpt lat="48.95367" lon="1.05141">
        <ele>159</ele>
        <time>2014-05-29T09:27:02.000Z</time>
      </trkpt>
      <trkpt lat="48.95367" lon="1.05141">
        <ele>159</ele>
        <time>2014-05-29T09:27:04.000Z</time>
      </trkpt>
      <trkpt lat="48.95369" lon="1.05129">
        <ele>158</ele>
        <time>2014-05-29T09:27:06.000Z</time>
      </trkpt>
      <trkpt lat="48.95369" lon="1.05129">
        <ele>158</ele>
        <time>2014-05-29T09:27:08.000Z</time>
      </trkpt>
      <trkpt lat="48.95373" lon="1.05114">
        <ele>158</ele>
        <time>2014-05-29T09:27:10.000Z</time>
      </trkpt>
      <trkpt lat="48.95375" lon="1.05105">
        <ele>159</ele>
        <time>2014-05-29T09:27:12.000Z</time>
      </trkpt>
      <trkpt lat="48.95378" lon="1.05097">
        <ele>159</ele>
        <time>2014-05-29T09:27:14.000Z</time>
      </trkpt>
      <trkpt lat="48.95381" lon="1.05088">
        <ele>159</ele>
        <time>2014-05-29T09:27:16.000Z</time>
      </trkpt>
      <trkpt lat="48.95384" lon="1.05078">
        <ele>159</ele>
        <time>2014-05-29T09:27:18.000Z</time>
      </trkpt>
      <trkpt lat="48.95387" lon="1.05066">
        <ele>159</ele>
        <time>2014-05-29T09:27:20.000Z</time>
      </trkpt>
      <trkpt lat="48.95391" lon="1.0505">
        <ele>159</ele>
        <time>2014-05-29T09:27:22.000Z</time>
      </trkpt>
      <trkpt lat="48.95393" lon="1.0504">
        <ele>159</ele>
        <time>2014-05-29T09:27:24.000Z</time>
      </trkpt>
      <trkpt lat="48.95395" lon="1.0503">
        <ele>158</ele>
        <time>2014-05-29T09:27:26.000Z</time>
      </trkpt>
      <trkpt lat="48.95398" lon="1.05022">
        <ele>159</ele>
        <time>2014-05-29T09:27:28.000Z</time>
      </trkpt>
      <trkpt lat="48.95398" lon="1.05022">
        <ele>159</ele>
        <time>2014-05-29T09:27:30.000Z</time>
      </trkpt>
      <trkpt lat="48.95402" lon="1.05007">
        <ele>159</ele>
        <time>2014-05-29T09:27:32.000Z</time>
      </trkpt>
      <trkpt lat="48.95402" lon="1.05007">
        <ele>159</ele>
        <time>2014-05-29T09:27:34.000Z</time>
      </trkpt>
      <trkpt lat="48.95408" lon="1.04992">
        <ele>159</ele>
        <time>2014-05-29T09:27:36.000Z</time>
      </trkpt>
      <trkpt lat="48.95411" lon="1.04984">
        <ele>160</ele>
        <time>2014-05-29T09:27:38.000Z</time>
      </trkpt>
      <trkpt lat="48.95413" lon="1.04975">
        <ele>160</ele>
        <time>2014-05-29T09:27:40.000Z</time>
      </trkpt>
      <trkpt lat="48.95417" lon="1.04963">
        <ele>160</ele>
        <time>2014-05-29T09:27:42.000Z</time>
      </trkpt>
      <trkpt lat="48.95421" lon="1.0495">
        <ele>160</ele>
        <time>2014-05-29T09:27:44.000Z</time>
      </trkpt>
      <trkpt lat="48.95424" lon="1.0494">
        <ele>160</ele>
        <time>2014-05-29T09:27:46.000Z</time>
      </trkpt>
      <trkpt lat="48.95427" lon="1.0493">
        <ele>159</ele>
        <time>2014-05-29T09:27:48.000Z</time>
      </trkpt>
      <trkpt lat="48.95431" lon="1.0492">
        <ele>159</ele>
        <time>2014-05-29T09:27:50.000Z</time>
      </trkpt>
      <trkpt lat="48.95434" lon="1.0491">
        <ele>159</ele>
        <time>2014-05-29T09:27:52.000Z</time>
      </trkpt>
      <trkpt lat="48.95437" lon="1.049">
        <ele>159</ele>
        <time>2014-05-29T09:27:54.000Z</time>
      </trkpt>
      <trkpt lat="48.9544" lon="1.04891">
        <ele>159</ele>
        <time>2014-05-29T09:27:56.000Z</time>
      </trkpt>
      <trkpt lat="48.95444" lon="1.04879">
        <ele>158</ele>
        <time>2014-05-29T09:27:58.000Z</time>
      </trkpt>
      <trkpt lat="48.95448" lon="1.04869">
        <ele>158</ele>
        <time>2014-05-29T09:28:00.000Z</time>
      </trkpt>
      <trkpt lat="48.95451" lon="1.0486">
        <ele>158</ele>
        <time>2014-05-29T09:28:02.000Z</time>
      </trkpt>
      <trkpt lat="48.95455" lon="1.04851">
        <ele>158</ele>
        <time>2014-05-29T09:28:04.000Z</time>
      </trkpt>
      <trkpt lat="48.95459" lon="1.04843">
        <ele>158</ele>
        <time>2014-05-29T09:28:06.000Z</time>
      </trkpt>
      <trkpt lat="48.95462" lon="1.04835">
        <ele>157</ele>
        <time>2014-05-29T09:28:08.000Z</time>
      </trkpt>
      <trkpt lat="48.95466" lon="1.04827">
        <ele>157</ele>
        <time>2014-05-29T09:28:10.000Z</time>
      </trkpt>
      <trkpt lat="48.9547" lon="1.0482">
        <ele>157</ele>
        <time>2014-05-29T09:28:12.000Z</time>
      </trkpt>
      <trkpt lat="48.95473" lon="1.04811">
        <ele>157</ele>
        <time>2014-05-29T09:28:14.000Z</time>
      </trkpt>
      <trkpt lat="48.95476" lon="1.04803">
        <ele>157</ele>
        <time>2014-05-29T09:28:16.000Z</time>
      </trkpt>
      <trkpt lat="48.95481" lon="1.04789">
        <ele>157</ele>
        <time>2014-05-29T09:28:20.000Z</time>
      </trkpt>
      <trkpt lat="48.95481" lon="1.04789">
        <ele>157</ele>
        <time>2014-05-29T09:28:22.000Z</time>
      </trkpt>
      <trkpt lat="48.95486" lon="1.04774">
        <ele>156</ele>
        <time>2014-05-29T09:28:24.000Z</time>
      </trkpt>
      <trkpt lat="48.95486" lon="1.04774">
        <ele>156</ele>
        <time>2014-05-29T09:28:26.000Z</time>
      </trkpt>
      <trkpt lat="48.95488" lon="1.04765">
        <ele>156</ele>
        <time>2014-05-29T09:28:28.000Z</time>
      </trkpt>
      <trkpt lat="48.95491" lon="1.04757">
        <ele>156</ele>
        <time>2014-05-29T09:28:30.000Z</time>
      </trkpt>
      <trkpt lat="48.95493" lon="1.04748">
        <ele>156</ele>
        <time>2014-05-29T09:28:32.000Z</time>
      </trkpt>
      <trkpt lat="48.95496" lon="1.0474">
        <ele>156</ele>
        <time>2014-05-29T09:28:34.000Z</time>
      </trkpt>
      <trkpt lat="48.95499" lon="1.04734">
        <ele>156</ele>
        <time>2014-05-29T09:28:36.000Z</time>
      </trkpt>
      <trkpt lat="48.95508" lon="1.04724">
        <ele>156</ele>
        <time>2014-05-29T09:28:38.000Z</time>
      </trkpt>
      <trkpt lat="48.95516" lon="1.04717">
        <ele>155</ele>
        <time>2014-05-29T09:28:42.000Z</time>
      </trkpt>
      <trkpt lat="48.95516" lon="1.04717">
        <ele>155</ele>
        <time>2014-05-29T09:28:44.000Z</time>
      </trkpt>
      <trkpt lat="48.95525" lon="1.04708">
        <ele>155</ele>
        <time>2014-05-29T09:28:46.000Z</time>
      </trkpt>
      <trkpt lat="48.95532" lon="1.047">
        <ele>155</ele>
        <time>2014-05-29T09:28:50.000Z</time>
      </trkpt>
      <trkpt lat="48.95532" lon="1.047">
        <ele>155</ele>
        <time>2014-05-29T09:28:52.000Z</time>
      </trkpt>
      <trkpt lat="48.95539" lon="1.04693">
        <ele>155</ele>
        <time>2014-05-29T09:28:54.000Z</time>
      </trkpt>
      <trkpt lat="48.95539" lon="1.04693">
        <ele>155</ele>
        <time>2014-05-29T09:28:56.000Z</time>
      </trkpt>
      <trkpt lat="48.95539" lon="1.04693">
        <ele>155</ele>
        <time>2014-05-29T09:28:58.000Z</time>
      </trkpt>
      <trkpt lat="48.95546" lon="1.0469">
        <ele>156</ele>
        <time>2014-05-29T09:29:00.000Z</time>
      </trkpt>
      <trkpt lat="48.95555" lon="1.04685">
        <ele>157</ele>
        <time>2014-05-29T09:29:04.000Z</time>
      </trkpt>
      <trkpt lat="48.95562" lon="1.04684">
        <ele>158</ele>
        <time>2014-05-29T09:29:08.000Z</time>
      </trkpt>
      <trkpt lat="48.95562" lon="1.04684">
        <ele>158</ele>
        <time>2014-05-29T09:29:10.000Z</time>
      </trkpt>
      <trkpt lat="48.95572" lon="1.04683">
        <ele>159</ele>
        <time>2014-05-29T09:29:12.000Z</time>
      </trkpt>
      <trkpt lat="48.95572" lon="1.04683">
        <ele>159</ele>
        <time>2014-05-29T09:29:16.000Z</time>
      </trkpt>
      <trkpt lat="48.9558" lon="1.04681">
        <ele>160</ele>
        <time>2014-05-29T09:29:18.000Z</time>
      </trkpt>
      <trkpt lat="48.9558" lon="1.04681">
        <ele>160</ele>
        <time>2014-05-29T09:29:20.000Z</time>
      </trkpt>
      <trkpt lat="48.9558" lon="1.04681">
        <ele>160</ele>
        <time>2014-05-29T09:29:22.000Z</time>
      </trkpt>
      <trkpt lat="48.95587" lon="1.0468">
        <ele>162</ele>
        <time>2014-05-29T09:29:24.000Z</time>
      </trkpt>
      <trkpt lat="48.95587" lon="1.0468">
        <ele>162</ele>
        <time>2014-05-29T09:29:26.000Z</time>
      </trkpt>
      <trkpt lat="48.95595" lon="1.04687">
        <ele>164</ele>
        <time>2014-05-29T09:29:30.000Z</time>
      </trkpt>
      <trkpt lat="48.95601" lon="1.04691">
        <ele>165</ele>
        <time>2014-05-29T09:29:34.000Z</time>
      </trkpt>
      <trkpt lat="48.95608" lon="1.04693">
        <ele>166</ele>
        <time>2014-05-29T09:29:38.000Z</time>
      </trkpt>
      <trkpt lat="48.95614" lon="1.047">
        <ele>168</ele>
        <time>2014-05-29T09:29:44.000Z</time>
      </trkpt>
      <trkpt lat="48.95621" lon="1.04707">
        <ele>169</ele>
        <time>2014-05-29T09:29:48.000Z</time>
      </trkpt>
      <trkpt lat="48.95626" lon="1.04713">
        <ele>171</ele>
        <time>2014-05-29T09:29:52.000Z</time>
      </trkpt>
      <trkpt lat="48.95626" lon="1.04713">
        <ele>171</ele>
        <time>2014-05-29T09:29:54.000Z</time>
      </trkpt>
      <trkpt lat="48.95626" lon="1.04713">
        <ele>171</ele>
        <time>2014-05-29T09:29:56.000Z</time>
      </trkpt>
      <trkpt lat="48.95626" lon="1.04713">
        <ele>171</ele>
        <time>2014-05-29T09:29:58.000Z</time>
      </trkpt>
      <trkpt lat="48.95632" lon="1.04722">
        <ele>172</ele>
        <time>2014-05-29T09:30:00.000Z</time>
      </trkpt>
      <trkpt lat="48.95637" lon="1.04728">
        <ele>173</ele>
        <time>2014-05-29T09:30:04.000Z</time>
      </trkpt>
      <trkpt lat="48.95637" lon="1.04728">
        <ele>173</ele>
        <time>2014-05-29T09:30:06.000Z</time>
      </trkpt>
      <trkpt lat="48.95637" lon="1.04728">
        <ele>173</ele>
        <time>2014-05-29T09:30:08.000Z</time>
      </trkpt>
      <trkpt lat="48.95644" lon="1.04735">
        <ele>175</ele>
        <time>2014-05-29T09:30:10.000Z</time>
      </trkpt>
      <trkpt lat="48.95648" lon="1.04745">
        <ele>176</ele>
        <time>2014-05-29T09:30:16.000Z</time>
      </trkpt>
      <trkpt lat="48.95648" lon="1.04745">
        <ele>176</ele>
        <time>2014-05-29T09:30:18.000Z</time>
      </trkpt>
      <trkpt lat="48.95648" lon="1.04745">
        <ele>176</ele>
        <time>2014-05-29T09:30:26.000Z</time>
      </trkpt>
      <trkpt lat="48.95648" lon="1.04745">
        <ele>176</ele>
        <time>2014-05-29T09:30:28.000Z</time>
      </trkpt>
      <trkpt lat="48.95648" lon="1.04745">
        <ele>176</ele>
        <time>2014-05-29T09:30:30.000Z</time>
      </trkpt>
      <trkpt lat="48.95648" lon="1.04745">
        <ele>176</ele>
        <time>2014-05-29T09:30:32.000Z</time>
      </trkpt>
      <trkpt lat="48.95648" lon="1.04745">
        <ele>176</ele>
        <time>2014-05-29T09:30:34.000Z</time>
      </trkpt>
      <trkpt lat="48.95648" lon="1.04745">
        <ele>176</ele>
        <time>2014-05-29T09:30:36.000Z</time>
      </trkpt>
      <trkpt lat="48.95651" lon="1.04747">
        <ele>180</ele>
        <time>2014-05-29T09:30:38.000Z</time>
      </trkpt>
      <trkpt lat="48.95654" lon="1.0475">
        <ele>181</ele>
        <time>2014-05-29T09:30:42.000Z</time>
      </trkpt>
      <trkpt lat="48.95655" lon="1.04754">
        <ele>182</ele>
        <time>2014-05-29T09:30:46.000Z</time>
      </trkpt>
      <trkpt lat="48.95655" lon="1.04754">
        <ele>182</ele>
        <time>2014-05-29T09:30:48.000Z</time>
      </trkpt>
      <trkpt lat="48.95655" lon="1.04754">
        <ele>182</ele>
        <time>2014-05-29T09:30:50.000Z</time>
      </trkpt>
      <trkpt lat="48.95657" lon="1.04758">
        <ele>183</ele>
        <time>2014-05-29T09:30:52.000Z</time>
      </trkpt>
      <trkpt lat="48.95657" lon="1.04758">
        <ele>183</ele>
        <time>2014-05-29T09:30:54.000Z</time>
      </trkpt>
      <trkpt lat="48.95659" lon="1.04761">
        <ele>184</ele>
        <time>2014-05-29T09:30:56.000Z</time>
      </trkpt>
      <trkpt lat="48.95662" lon="1.04764">
        <ele>185</ele>
        <time>2014-05-29T09:31:02.000Z</time>
      </trkpt>
      <trkpt lat="48.95664" lon="1.04768">
        <ele>185</ele>
        <time>2014-05-29T09:31:04.000Z</time>
      </trkpt>
      <trkpt lat="48.95667" lon="1.0477">
        <ele>185</ele>
        <time>2014-05-29T09:31:06.000Z</time>
      </trkpt>
      <trkpt lat="48.95669" lon="1.04775">
        <ele>186</ele>
        <time>2014-05-29T09:31:10.000Z</time>
      </trkpt>
      <trkpt lat="48.95671" lon="1.04778">
        <ele>187</ele>
        <time>2014-05-29T09:31:12.000Z</time>
      </trkpt>
      <trkpt lat="48.95671" lon="1.04778">
        <ele>187</ele>
        <time>2014-05-29T09:31:16.000Z</time>
      </trkpt>
      <trkpt lat="48.95673" lon="1.04782">
        <ele>188</ele>
        <time>2014-05-29T09:31:18.000Z</time>
      </trkpt>
      <trkpt lat="48.95673" lon="1.04782">
        <ele>188</ele>
        <time>2014-05-29T09:31:20.000Z</time>
      </trkpt>
      <trkpt lat="48.95673" lon="1.04782">
        <ele>188</ele>
        <time>2014-05-29T09:31:22.000Z</time>
      </trkpt>
      <trkpt lat="48.95673" lon="1.04782">
        <ele>188</ele>
        <time>2014-05-29T09:31:24.000Z</time>
      </trkpt>
      <trkpt lat="48.95673" lon="1.04787">
        <ele>188</ele>
        <time>2014-05-29T09:31:26.000Z</time>
      </trkpt>
      <trkpt lat="48.95673" lon="1.04787">
        <ele>188</ele>
        <time>2014-05-29T09:31:28.000Z</time>
      </trkpt>
      <trkpt lat="48.95673" lon="1.04787">
        <ele>188</ele>
        <time>2014-05-29T09:31:30.000Z</time>
      </trkpt>
      <trkpt lat="48.95673" lon="1.04787">
        <ele>188</ele>
        <time>2014-05-29T09:31:32.000Z</time>
      </trkpt>
      <trkpt lat="48.95679" lon="1.04802">
        <ele>183</ele>
        <time>2014-05-29T09:32:29.000Z</time>
      </trkpt>
      <trkpt lat="48.95682" lon="1.04811">
        <ele>182</ele>
        <time>2014-05-29T09:32:31.000Z</time>
      </trkpt>
      <trkpt lat="48.95683" lon="1.04818">
        <ele>182</ele>
        <time>2014-05-29T09:32:33.000Z</time>
      </trkpt>
      <trkpt lat="48.95683" lon="1.04823">
        <ele>182</ele>
        <time>2014-05-29T09:32:35.000Z</time>
      </trkpt>
      <trkpt lat="48.9568" lon="1.04827">
        <ele>182</ele>
        <time>2014-05-29T09:32:39.000Z</time>
      </trkpt>
      <trkpt lat="48.95678" lon="1.04831">
        <ele>183</ele>
        <time>2014-05-29T09:32:43.000Z</time>
      </trkpt>
      <trkpt lat="48.95677" lon="1.04837">
        <ele>183</ele>
        <time>2014-05-29T09:32:47.000Z</time>
      </trkpt>
      <trkpt lat="48.95677" lon="1.04842">
        <ele>184</ele>
        <time>2014-05-29T09:32:49.000Z</time>
      </trkpt>
      <trkpt lat="48.95677" lon="1.04842">
        <ele>184</ele>
        <time>2014-05-29T09:32:51.000Z</time>
      </trkpt>
      <trkpt lat="48.95677" lon="1.04842">
        <ele>184</ele>
        <time>2014-05-29T09:32:53.000Z</time>
      </trkpt>
      <trkpt lat="48.95677" lon="1.04842">
        <ele>184</ele>
        <time>2014-05-29T09:32:55.000Z</time>
      </trkpt>
      <trkpt lat="48.95676" lon="1.04848">
        <ele>186</ele>
        <time>2014-05-29T09:32:57.000Z</time>
      </trkpt>
      <trkpt lat="48.95676" lon="1.04853">
        <ele>186</ele>
        <time>2014-05-29T09:32:59.000Z</time>
      </trkpt>
      <trkpt lat="48.95675" lon="1.04859">
        <ele>187</ele>
        <time>2014-05-29T09:33:01.000Z</time>
      </trkpt>
      <trkpt lat="48.95674" lon="1.04866">
        <ele>187</ele>
        <time>2014-05-29T09:33:03.000Z</time>
      </trkpt>
      <trkpt lat="48.95673" lon="1.04872">
        <ele>188</ele>
        <time>2014-05-29T09:33:06.000Z</time>
      </trkpt>
      <trkpt lat="48.95673" lon="1.04872">
        <ele>188</ele>
        <time>2014-05-29T09:33:07.000Z</time>
      </trkpt>
      <trkpt lat="48.95671" lon="1.04882">
        <ele>188</ele>
        <time>2014-05-29T09:33:09.000Z</time>
      </trkpt>
      <trkpt lat="48.95671" lon="1.04882">
        <ele>188</ele>
        <time>2014-05-29T09:33:11.000Z</time>
      </trkpt>
      <trkpt lat="48.95671" lon="1.04882">
        <ele>188</ele>
        <time>2014-05-29T09:33:13.000Z</time>
      </trkpt>
      <trkpt lat="48.95667" lon="1.04889">
        <ele>189</ele>
        <time>2014-05-29T09:33:15.000Z</time>
      </trkpt>
      <trkpt lat="48.95663" lon="1.04897">
        <ele>190</ele>
        <time>2014-05-29T09:33:19.000Z</time>
      </trkpt>
      <trkpt lat="48.95659" lon="1.04906">
        <ele>191</ele>
        <time>2014-05-29T09:33:23.000Z</time>
      </trkpt>
      <trkpt lat="48.95654" lon="1.04919">
        <ele>191</ele>
        <time>2014-05-29T09:33:27.000Z</time>
      </trkpt>
      <trkpt lat="48.95654" lon="1.04919">
        <ele>191</ele>
        <time>2014-05-29T09:33:29.000Z</time>
      </trkpt>
      <trkpt lat="48.95654" lon="1.04919">
        <ele>191</ele>
        <time>2014-05-29T09:33:31.000Z</time>
      </trkpt>
      <trkpt lat="48.95654" lon="1.04919">
        <ele>191</ele>
        <time>2014-05-29T09:33:33.000Z</time>
      </trkpt>
      <trkpt lat="48.95654" lon="1.04919">
        <ele>191</ele>
        <time>2014-05-29T09:33:35.000Z</time>
      </trkpt>
      <trkpt lat="48.95648" lon="1.0492">
        <ele>192</ele>
        <time>2014-05-29T09:33:37.000Z</time>
      </trkpt>
      <trkpt lat="48.95648" lon="1.0492">
        <ele>192</ele>
        <time>2014-05-29T09:33:39.000Z</time>
      </trkpt>
      <trkpt lat="48.95647" lon="1.04936">
        <ele>193</ele>
        <time>2014-05-29T09:33:43.000Z</time>
      </trkpt>
      <trkpt lat="48.95647" lon="1.04936">
        <ele>193</ele>
        <time>2014-05-29T09:33:45.000Z</time>
      </trkpt>
      <trkpt lat="48.95644" lon="1.04945">
        <ele>194</ele>
        <time>2014-05-29T09:33:47.000Z</time>
      </trkpt>
      <trkpt lat="48.95644" lon="1.04945">
        <ele>194</ele>
        <time>2014-05-29T09:33:49.000Z</time>
      </trkpt>
      <trkpt lat="48.95644" lon="1.04945">
        <ele>194</ele>
        <time>2014-05-29T09:33:51.000Z</time>
      </trkpt>
      <trkpt lat="48.95644" lon="1.04958">
        <ele>194</ele>
        <time>2014-05-29T09:33:53.000Z</time>
      </trkpt>
      <trkpt lat="48.95644" lon="1.04968">
        <ele>195</ele>
        <time>2014-05-29T09:33:57.000Z</time>
      </trkpt>
      <trkpt lat="48.95644" lon="1.04968">
        <ele>195</ele>
        <time>2014-05-29T09:33:59.000Z</time>
      </trkpt>
      <trkpt lat="48.95642" lon="1.04977">
        <ele>196</ele>
        <time>2014-05-29T09:34:01.000Z</time>
      </trkpt>
      <trkpt lat="48.95642" lon="1.04987">
        <ele>197</ele>
        <time>2014-05-29T09:34:05.000Z</time>
      </trkpt>
      <trkpt lat="48.95642" lon="1.04987">
        <ele>197</ele>
        <time>2014-05-29T09:34:09.000Z</time>
      </trkpt>
      <trkpt lat="48.95643" lon="1.05">
        <ele>198</ele>
        <time>2014-05-29T09:34:11.000Z</time>
      </trkpt>
      <trkpt lat="48.95643" lon="1.05012">
        <ele>199</ele>
        <time>2014-05-29T09:34:15.000Z</time>
      </trkpt>
      <trkpt lat="48.95643" lon="1.05012">
        <ele>199</ele>
        <time>2014-05-29T09:34:17.000Z</time>
      </trkpt>
      <trkpt lat="48.95644" lon="1.05021">
        <ele>199</ele>
        <time>2014-05-29T09:34:19.000Z</time>
      </trkpt>
      <trkpt lat="48.95644" lon="1.05021">
        <ele>199</ele>
        <time>2014-05-29T09:34:21.000Z</time>
      </trkpt>
      <trkpt lat="48.95646" lon="1.05032">
        <ele>199</ele>
        <time>2014-05-29T09:34:23.000Z</time>
      </trkpt>
      <trkpt lat="48.95647" lon="1.05043">
        <ele>199</ele>
        <time>2014-05-29T09:34:27.000Z</time>
      </trkpt>
      <trkpt lat="48.95647" lon="1.05043">
        <ele>199</ele>
        <time>2014-05-29T09:34:31.000Z</time>
      </trkpt>
      <trkpt lat="48.95647" lon="1.05043">
        <ele>199</ele>
        <time>2014-05-29T09:34:33.000Z</time>
      </trkpt>
      <trkpt lat="48.95646" lon="1.05053">
        <ele>200</ele>
        <time>2014-05-29T09:34:35.000Z</time>
      </trkpt>
      <trkpt lat="48.95647" lon="1.05064">
        <ele>201</ele>
        <time>2014-05-29T09:34:39.000Z</time>
      </trkpt>
      <trkpt lat="48.95645" lon="1.05077">
        <ele>201</ele>
        <time>2014-05-29T09:34:43.000Z</time>
      </trkpt>
      <trkpt lat="48.95645" lon="1.05077">
        <ele>201</ele>
        <time>2014-05-29T09:34:45.000Z</time>
      </trkpt>
      <trkpt lat="48.95644" lon="1.05082">
        <ele>202</ele>
        <time>2014-05-29T09:34:47.000Z</time>
      </trkpt>
      <trkpt lat="48.95642" lon="1.05087">
        <ele>202</ele>
        <time>2014-05-29T09:34:49.000Z</time>
      </trkpt>
      <trkpt lat="48.95641" lon="1.05091">
        <ele>202</ele>
        <time>2014-05-29T09:34:51.000Z</time>
      </trkpt>
      <trkpt lat="48.95641" lon="1.05096">
        <ele>202</ele>
        <time>2014-05-29T09:34:53.000Z</time>
      </trkpt>
      <trkpt lat="48.95641" lon="1.05101">
        <ele>202</ele>
        <time>2014-05-29T09:34:57.000Z</time>
      </trkpt>
      <trkpt lat="48.95641" lon="1.05101">
        <ele>202</ele>
        <time>2014-05-29T09:34:59.000Z</time>
      </trkpt>
      <trkpt lat="48.95639" lon="1.05107">
        <ele>203</ele>
        <time>2014-05-29T09:35:01.000Z</time>
      </trkpt>
      <trkpt lat="48.95637" lon="1.05113">
        <ele>203</ele>
        <time>2014-05-29T09:35:03.000Z</time>
      </trkpt>
      <trkpt lat="48.95636" lon="1.05119">
        <ele>203</ele>
        <time>2014-05-29T09:35:05.000Z</time>
      </trkpt>
      <trkpt lat="48.95635" lon="1.05123">
        <ele>204</ele>
        <time>2014-05-29T09:35:07.000Z</time>
      </trkpt>
      <trkpt lat="48.95634" lon="1.05128">
        <ele>204</ele>
        <time>2014-05-29T09:35:09.000Z</time>
      </trkpt>
      <trkpt lat="48.95634" lon="1.05138">
        <ele>205</ele>
        <time>2014-05-29T09:35:11.000Z</time>
      </trkpt>
      <trkpt lat="48.95636" lon="1.05152">
        <ele>206</ele>
        <time>2014-05-29T09:35:15.000Z</time>
      </trkpt>
      <trkpt lat="48.95636" lon="1.05152">
        <ele>206</ele>
        <time>2014-05-29T09:35:17.000Z</time>
      </trkpt>
      <trkpt lat="48.95635" lon="1.05163">
        <ele>207</ele>
        <time>2014-05-29T09:35:19.000Z</time>
      </trkpt>
      <trkpt lat="48.95635" lon="1.05163">
        <ele>207</ele>
        <time>2014-05-29T09:35:21.000Z</time>
      </trkpt>
      <trkpt lat="48.95633" lon="1.05173">
        <ele>208</ele>
        <time>2014-05-29T09:35:23.000Z</time>
      </trkpt>
      <trkpt lat="48.95637" lon="1.05186">
        <ele>209</ele>
        <time>2014-05-29T09:35:27.000Z</time>
      </trkpt>
      <trkpt lat="48.95637" lon="1.05186">
        <ele>209</ele>
        <time>2014-05-29T09:35:29.000Z</time>
      </trkpt>
      <trkpt lat="48.95639" lon="1.05197">
        <ele>209</ele>
        <time>2014-05-29T09:35:31.000Z</time>
      </trkpt>
      <trkpt lat="48.95639" lon="1.05197">
        <ele>209</ele>
        <time>2014-05-29T09:35:33.000Z</time>
      </trkpt>
      <trkpt lat="48.95639" lon="1.05197">
        <ele>209</ele>
        <time>2014-05-29T09:35:35.000Z</time>
      </trkpt>
      <trkpt lat="48.95641" lon="1.05208">
        <ele>210</ele>
        <time>2014-05-29T09:35:38.000Z</time>
      </trkpt>
      <trkpt lat="48.95644" lon="1.05218">
        <ele>211</ele>
        <time>2014-05-29T09:35:41.000Z</time>
      </trkpt>
      <trkpt lat="48.95644" lon="1.05218">
        <ele>211</ele>
        <time>2014-05-29T09:35:45.000Z</time>
      </trkpt>
      <trkpt lat="48.95646" lon="1.05229">
        <ele>211</ele>
        <time>2014-05-29T09:35:47.000Z</time>
      </trkpt>
      <trkpt lat="48.95646" lon="1.05229">
        <ele>211</ele>
        <time>2014-05-29T09:35:49.000Z</time>
      </trkpt>
      <trkpt lat="48.95649" lon="1.05242">
        <ele>212</ele>
        <time>2014-05-29T09:35:51.000Z</time>
      </trkpt>
      <trkpt lat="48.95652" lon="1.05249">
        <ele>212</ele>
        <time>2014-05-29T09:35:53.000Z</time>
      </trkpt>
      <trkpt lat="48.95655" lon="1.0526">
        <ele>212</ele>
        <time>2014-05-29T09:35:55.000Z</time>
      </trkpt>
      <trkpt lat="48.95658" lon="1.05268">
        <ele>213</ele>
        <time>2014-05-29T09:35:57.000Z</time>
      </trkpt>
      <trkpt lat="48.9566" lon="1.05283">
        <ele>213</ele>
        <time>2014-05-29T09:36:01.000Z</time>
      </trkpt>
      <trkpt lat="48.95661" lon="1.05292">
        <ele>214</ele>
        <time>2014-05-29T09:36:03.000Z</time>
      </trkpt>
      <trkpt lat="48.95663" lon="1.05304">
        <ele>214</ele>
        <time>2014-05-29T09:36:05.000Z</time>
      </trkpt>
      <trkpt lat="48.95663" lon="1.05313">
        <ele>214</ele>
        <time>2014-05-29T09:36:07.000Z</time>
      </trkpt>
      <trkpt lat="48.95665" lon="1.05323">
        <ele>214</ele>
        <time>2014-05-29T09:36:09.000Z</time>
      </trkpt>
      <trkpt lat="48.95667" lon="1.05336">
        <ele>213</ele>
        <time>2014-05-29T09:36:11.000Z</time>
      </trkpt>
      <trkpt lat="48.95668" lon="1.05348">
        <ele>213</ele>
        <time>2014-05-29T09:36:13.000Z</time>
      </trkpt>
      <trkpt lat="48.9567" lon="1.05358">
        <ele>213</ele>
        <time>2014-05-29T09:36:15.000Z</time>
      </trkpt>
      <trkpt lat="48.9567" lon="1.05358">
        <ele>213</ele>
        <time>2014-05-29T09:36:17.000Z</time>
      </trkpt>
      <trkpt lat="48.95673" lon="1.05369">
        <ele>213</ele>
        <time>2014-05-29T09:36:19.000Z</time>
      </trkpt>
      <trkpt lat="48.95673" lon="1.05369">
        <ele>213</ele>
        <time>2014-05-29T09:36:21.000Z</time>
      </trkpt>
      <trkpt lat="48.95675" lon="1.05379">
        <ele>213</ele>
        <time>2014-05-29T09:36:23.000Z</time>
      </trkpt>
      <trkpt lat="48.95675" lon="1.05379">
        <ele>213</ele>
        <time>2014-05-29T09:36:25.000Z</time>
      </trkpt>
      <trkpt lat="48.95674" lon="1.05388">
        <ele>213</ele>
        <time>2014-05-29T09:36:27.000Z</time>
      </trkpt>
      <trkpt lat="48.95674" lon="1.05388">
        <ele>213</ele>
        <time>2014-05-29T09:36:29.000Z</time>
      </trkpt>
      <trkpt lat="48.95672" lon="1.05401">
        <ele>213</ele>
        <time>2014-05-29T09:36:31.000Z</time>
      </trkpt>
      <trkpt lat="48.95672" lon="1.05401">
        <ele>213</ele>
        <time>2014-05-29T09:36:33.000Z</time>
      </trkpt>
      <trkpt lat="48.95676" lon="1.05411">
        <ele>213</ele>
        <time>2014-05-29T09:36:35.000Z</time>
      </trkpt>
      <trkpt lat="48.95676" lon="1.05411">
        <ele>213</ele>
        <time>2014-05-29T09:36:37.000Z</time>
      </trkpt>
      <trkpt lat="48.95676" lon="1.05411">
        <ele>213</ele>
        <time>2014-05-29T09:36:39.000Z</time>
      </trkpt>
      <trkpt lat="48.95676" lon="1.05411">
        <ele>213</ele>
        <time>2014-05-29T09:36:41.000Z</time>
      </trkpt>
      <trkpt lat="48.95678" lon="1.0542">
        <ele>211</ele>
        <time>2014-05-29T09:37:16.000Z</time>
      </trkpt>
      <trkpt lat="48.95678" lon="1.0542">
        <ele>211</ele>
        <time>2014-05-29T09:37:18.000Z</time>
      </trkpt>
      <trkpt lat="48.95678" lon="1.0542">
        <ele>211</ele>
        <time>2014-05-29T09:37:20.000Z</time>
      </trkpt>
      <trkpt lat="48.95678" lon="1.0542">
        <ele>211</ele>
        <time>2014-05-29T09:37:23.000Z</time>
      </trkpt>
      <trkpt lat="48.95678" lon="1.0542">
        <ele>211</ele>
        <time>2014-05-29T09:37:39.000Z</time>
      </trkpt>
      <trkpt lat="48.95678" lon="1.0542">
        <ele>211</ele>
        <time>2014-05-29T09:37:52.000Z</time>
      </trkpt>
      <trkpt lat="48.95678" lon="1.0542">
        <ele>211</ele>
        <time>2014-05-29T09:37:53.000Z</time>
      </trkpt>
      <trkpt lat="48.95681" lon="1.05422">
        <ele>210</ele>
        <time>2014-05-29T09:38:06.000Z</time>
      </trkpt>
      <trkpt lat="48.95681" lon="1.05422">
        <ele>210</ele>
        <time>2014-05-29T09:38:12.000Z</time>
      </trkpt>
      <trkpt lat="48.95681" lon="1.05422">
        <ele>210</ele>
        <time>2014-05-29T09:38:16.000Z</time>
      </trkpt>
      <trkpt lat="48.95681" lon="1.05422">
        <ele>210</ele>
        <time>2014-05-29T09:38:18.000Z</time>
      </trkpt>
      <trkpt lat="48.95681" lon="1.05422">
        <ele>210</ele>
        <time>2014-05-29T09:38:33.000Z</time>
      </trkpt>
      <trkpt lat="48.95681" lon="1.05422">
        <ele>210</ele>
        <time>2014-05-29T09:38:58.000Z</time>
      </trkpt>
      <trkpt lat="48.9568" lon="1.05427">
        <ele>208</ele>
        <time>2014-05-29T09:39:20.000Z</time>
      </trkpt>
      <trkpt lat="48.9568" lon="1.05431">
        <ele>208</ele>
        <time>2014-05-29T09:39:22.000Z</time>
      </trkpt>
      <trkpt lat="48.95681" lon="1.05436">
        <ele>208</ele>
        <time>2014-05-29T09:39:24.000Z</time>
      </trkpt>
      <trkpt lat="48.95682" lon="1.05442">
        <ele>208</ele>
        <time>2014-05-29T09:39:26.000Z</time>
      </trkpt>
      <trkpt lat="48.95684" lon="1.05448">
        <ele>208</ele>
        <time>2014-05-29T09:39:28.000Z</time>
      </trkpt>
      <trkpt lat="48.95689" lon="1.05463">
        <ele>209</ele>
        <time>2014-05-29T09:39:30.000Z</time>
      </trkpt>
      <trkpt lat="48.95691" lon="1.05473">
        <ele>209</ele>
        <time>2014-05-29T09:39:32.000Z</time>
      </trkpt>
      <trkpt lat="48.95694" lon="1.05484">
        <ele>209</ele>
        <time>2014-05-29T09:39:34.000Z</time>
      </trkpt>
      <trkpt lat="48.95696" lon="1.05497">
        <ele>210</ele>
        <time>2014-05-29T09:39:36.000Z</time>
      </trkpt>
      <trkpt lat="48.957" lon="1.05508">
        <ele>210</ele>
        <time>2014-05-29T09:39:38.000Z</time>
      </trkpt>
      <trkpt lat="48.95704" lon="1.0552">
        <ele>210</ele>
        <time>2014-05-29T09:39:40.000Z</time>
      </trkpt>
      <trkpt lat="48.95707" lon="1.05531">
        <ele>210</ele>
        <time>2014-05-29T09:39:42.000Z</time>
      </trkpt>
      <trkpt lat="48.9571" lon="1.05543">
        <ele>210</ele>
        <time>2014-05-29T09:39:44.000Z</time>
      </trkpt>
      <trkpt lat="48.95716" lon="1.05555">
        <ele>210</ele>
        <time>2014-05-29T09:39:46.000Z</time>
      </trkpt>
      <trkpt lat="48.9572" lon="1.05568">
        <ele>210</ele>
        <time>2014-05-29T09:39:48.000Z</time>
      </trkpt>
      <trkpt lat="48.95722" lon="1.05579">
        <ele>211</ele>
        <time>2014-05-29T09:39:50.000Z</time>
      </trkpt>
      <trkpt lat="48.95725" lon="1.05594">
        <ele>211</ele>
        <time>2014-05-29T09:39:52.000Z</time>
      </trkpt>
      <trkpt lat="48.95727" lon="1.05607">
        <ele>211</ele>
        <time>2014-05-29T09:39:54.000Z</time>
      </trkpt>
      <trkpt lat="48.95729" lon="1.0562">
        <ele>211</ele>
        <time>2014-05-29T09:39:56.000Z</time>
      </trkpt>
      <trkpt lat="48.95732" lon="1.05631">
        <ele>211</ele>
        <time>2014-05-29T09:39:58.000Z</time>
      </trkpt>
      <trkpt lat="48.95734" lon="1.05643">
        <ele>211</ele>
        <time>2014-05-29T09:40:00.000Z</time>
      </trkpt>
      <trkpt lat="48.95734" lon="1.05659">
        <ele>211</ele>
        <time>2014-05-29T09:40:02.000Z</time>
      </trkpt>
      <trkpt lat="48.95736" lon="1.05672">
        <ele>211</ele>
        <time>2014-05-29T09:40:05.000Z</time>
      </trkpt>
      <trkpt lat="48.95739" lon="1.05683">
        <ele>211</ele>
        <time>2014-05-29T09:40:07.000Z</time>
      </trkpt>
      <trkpt lat="48.95741" lon="1.05694">
        <ele>211</ele>
        <time>2014-05-29T09:40:09.000Z</time>
      </trkpt>
      <trkpt lat="48.95743" lon="1.05708">
        <ele>211</ele>
        <time>2014-05-29T09:40:11.000Z</time>
      </trkpt>
      <trkpt lat="48.95745" lon="1.05722">
        <ele>211</ele>
        <time>2014-05-29T09:40:13.000Z</time>
      </trkpt>
      <trkpt lat="48.95747" lon="1.05737">
        <ele>211</ele>
        <time>2014-05-29T09:40:15.000Z</time>
      </trkpt>
      <trkpt lat="48.95749" lon="1.05751">
        <ele>211</ele>
        <time>2014-05-29T09:40:17.000Z</time>
      </trkpt>
      <trkpt lat="48.95751" lon="1.05765">
        <ele>211</ele>
        <time>2014-05-29T09:40:19.000Z</time>
      </trkpt>
      <trkpt lat="48.95754" lon="1.05777">
        <ele>211</ele>
        <time>2014-05-29T09:40:21.000Z</time>
      </trkpt>
      <trkpt lat="48.95757" lon="1.05788">
        <ele>211</ele>
        <time>2014-05-29T09:40:23.000Z</time>
      </trkpt>
      <trkpt lat="48.95759" lon="1.05799">
        <ele>211</ele>
        <time>2014-05-29T09:40:25.000Z</time>
      </trkpt>
      <trkpt lat="48.95761" lon="1.0581">
        <ele>210</ele>
        <time>2014-05-29T09:40:27.000Z</time>
      </trkpt>
      <trkpt lat="48.95763" lon="1.05821">
        <ele>210</ele>
        <time>2014-05-29T09:40:29.000Z</time>
      </trkpt>
      <trkpt lat="48.95765" lon="1.05831">
        <ele>210</ele>
        <time>2014-05-29T09:40:31.000Z</time>
      </trkpt>
      <trkpt lat="48.95767" lon="1.0584">
        <ele>210</ele>
        <time>2014-05-29T09:40:33.000Z</time>
      </trkpt>
      <trkpt lat="48.9577" lon="1.05852">
        <ele>210</ele>
        <time>2014-05-29T09:40:35.000Z</time>
      </trkpt>
      <trkpt lat="48.95772" lon="1.0586">
        <ele>210</ele>
        <time>2014-05-29T09:40:37.000Z</time>
      </trkpt>
      <trkpt lat="48.95774" lon="1.0587">
        <ele>210</ele>
        <time>2014-05-29T09:40:39.000Z</time>
      </trkpt>
      <trkpt lat="48.95775" lon="1.0588">
        <ele>209</ele>
        <time>2014-05-29T09:40:41.000Z</time>
      </trkpt>
      <trkpt lat="48.95776" lon="1.05889">
        <ele>209</ele>
        <time>2014-05-29T09:40:43.000Z</time>
      </trkpt>
      <trkpt lat="48.95778" lon="1.05898">
        <ele>209</ele>
        <time>2014-05-29T09:40:45.000Z</time>
      </trkpt>
      <trkpt lat="48.95778" lon="1.05907">
        <ele>209</ele>
        <time>2014-05-29T09:40:47.000Z</time>
      </trkpt>
      <trkpt lat="48.95781" lon="1.05925">
        <ele>209</ele>
        <time>2014-05-29T09:40:51.000Z</time>
      </trkpt>
      <trkpt lat="48.95783" lon="1.05936">
        <ele>209</ele>
        <time>2014-05-29T09:40:53.000Z</time>
      </trkpt>
      <trkpt lat="48.95786" lon="1.05948">
        <ele>209</ele>
        <time>2014-05-29T09:40:55.000Z</time>
      </trkpt>
      <trkpt lat="48.9579" lon="1.05959">
        <ele>209</ele>
        <time>2014-05-29T09:40:57.000Z</time>
      </trkpt>
      <trkpt lat="48.95792" lon="1.05971">
        <ele>208</ele>
        <time>2014-05-29T09:40:59.000Z</time>
      </trkpt>
      <trkpt lat="48.95795" lon="1.05984">
        <ele>208</ele>
        <time>2014-05-29T09:41:01.000Z</time>
      </trkpt>
      <trkpt lat="48.95797" lon="1.05994">
        <ele>208</ele>
        <time>2014-05-29T09:41:03.000Z</time>
      </trkpt>
      <trkpt lat="48.95799" lon="1.06003">
        <ele>208</ele>
        <time>2014-05-29T09:41:05.000Z</time>
      </trkpt>
      <trkpt lat="48.95801" lon="1.06014">
        <ele>208</ele>
        <time>2014-05-29T09:41:07.000Z</time>
      </trkpt>
      <trkpt lat="48.95803" lon="1.06025">
        <ele>208</ele>
        <time>2014-05-29T09:41:09.000Z</time>
      </trkpt>
      <trkpt lat="48.95805" lon="1.06036">
        <ele>208</ele>
        <time>2014-05-29T09:41:11.000Z</time>
      </trkpt>
      <trkpt lat="48.95807" lon="1.06047">
        <ele>208</ele>
        <time>2014-05-29T09:41:13.000Z</time>
      </trkpt>
      <trkpt lat="48.9581" lon="1.06059">
        <ele>208</ele>
        <time>2014-05-29T09:41:15.000Z</time>
      </trkpt>
      <trkpt lat="48.95811" lon="1.06072">
        <ele>208</ele>
        <time>2014-05-29T09:41:17.000Z</time>
      </trkpt>
      <trkpt lat="48.95813" lon="1.06082">
        <ele>208</ele>
        <time>2014-05-29T09:41:19.000Z</time>
      </trkpt>
      <trkpt lat="48.95816" lon="1.06092">
        <ele>208</ele>
        <time>2014-05-29T09:41:21.000Z</time>
      </trkpt>
      <trkpt lat="48.95816" lon="1.06092">
        <ele>208</ele>
        <time>2014-05-29T09:41:23.000Z</time>
      </trkpt>
      <trkpt lat="48.95819" lon="1.06104">
        <ele>208</ele>
        <time>2014-05-29T09:41:25.000Z</time>
      </trkpt>
      <trkpt lat="48.95819" lon="1.06104">
        <ele>208</ele>
        <time>2014-05-29T09:41:27.000Z</time>
      </trkpt>
      <trkpt lat="48.95818" lon="1.06113">
        <ele>208</ele>
        <time>2014-05-29T09:41:29.000Z</time>
      </trkpt>
      <trkpt lat="48.95818" lon="1.06113">
        <ele>208</ele>
        <time>2014-05-29T09:41:31.000Z</time>
      </trkpt>
      <trkpt lat="48.95813" lon="1.06122">
        <ele>208</ele>
        <time>2014-05-29T09:41:33.000Z</time>
      </trkpt>
      <trkpt lat="48.95813" lon="1.06122">
        <ele>208</ele>
        <time>2014-05-29T09:41:35.000Z</time>
      </trkpt>
      <trkpt lat="48.95803" lon="1.06133">
        <ele>209</ele>
        <time>2014-05-29T09:41:37.000Z</time>
      </trkpt>
      <trkpt lat="48.95796" lon="1.06139">
        <ele>209</ele>
        <time>2014-05-29T09:41:39.000Z</time>
      </trkpt>
      <trkpt lat="48.9579" lon="1.06144">
        <ele>210</ele>
        <time>2014-05-29T09:41:41.000Z</time>
      </trkpt>
      <trkpt lat="48.95781" lon="1.0615">
        <ele>210</ele>
        <time>2014-05-29T09:41:43.000Z</time>
      </trkpt>
      <trkpt lat="48.95771" lon="1.06155">
        <ele>211</ele>
        <time>2014-05-29T09:41:47.000Z</time>
      </trkpt>
      <trkpt lat="48.95766" lon="1.06159">
        <ele>211</ele>
        <time>2014-05-29T09:41:49.000Z</time>
      </trkpt>
      <trkpt lat="48.9576" lon="1.06165">
        <ele>212</ele>
        <time>2014-05-29T09:41:51.000Z</time>
      </trkpt>
      <trkpt lat="48.95754" lon="1.06171">
        <ele>212</ele>
        <time>2014-05-29T09:41:53.000Z</time>
      </trkpt>
      <trkpt lat="48.95748" lon="1.06177">
        <ele>212</ele>
        <time>2014-05-29T09:41:55.000Z</time>
      </trkpt>
      <trkpt lat="48.95741" lon="1.06185">
        <ele>213</ele>
        <time>2014-05-29T09:41:57.000Z</time>
      </trkpt>
      <trkpt lat="48.95734" lon="1.0619">
        <ele>213</ele>
        <time>2014-05-29T09:41:59.000Z</time>
      </trkpt>
      <trkpt lat="48.95728" lon="1.06195">
        <ele>213</ele>
        <time>2014-05-29T09:42:01.000Z</time>
      </trkpt>
      <trkpt lat="48.95722" lon="1.062">
        <ele>213</ele>
        <time>2014-05-29T09:42:03.000Z</time>
      </trkpt>
      <trkpt lat="48.95717" lon="1.06203">
        <ele>213</ele>
        <time>2014-05-29T09:42:05.000Z</time>
      </trkpt>
      <trkpt lat="48.95706" lon="1.06213">
        <ele>214</ele>
        <time>2014-05-29T09:42:09.000Z</time>
      </trkpt>
      <trkpt lat="48.95699" lon="1.06219">
        <ele>214</ele>
        <time>2014-05-29T09:42:11.000Z</time>
      </trkpt>
      <trkpt lat="48.95699" lon="1.06219">
        <ele>214</ele>
        <time>2014-05-29T09:42:13.000Z</time>
      </trkpt>
      <trkpt lat="48.9569" lon="1.06228">
        <ele>214</ele>
        <time>2014-05-29T09:42:15.000Z</time>
      </trkpt>
      <trkpt lat="48.9569" lon="1.06228">
        <ele>214</ele>
        <time>2014-05-29T09:42:17.000Z</time>
      </trkpt>
      <trkpt lat="48.95683" lon="1.06237">
        <ele>215</ele>
        <time>2014-05-29T09:42:19.000Z</time>
      </trkpt>
      <trkpt lat="48.95683" lon="1.06237">
        <ele>215</ele>
        <time>2014-05-29T09:42:21.000Z</time>
      </trkpt>
      <trkpt lat="48.95676" lon="1.06247">
        <ele>215</ele>
        <time>2014-05-29T09:42:23.000Z</time>
      </trkpt>
      <trkpt lat="48.95676" lon="1.06247">
        <ele>215</ele>
        <time>2014-05-29T09:42:25.000Z</time>
      </trkpt>
      <trkpt lat="48.95673" lon="1.06255">
        <ele>216</ele>
        <time>2014-05-29T09:42:27.000Z</time>
      </trkpt>
      <trkpt lat="48.95667" lon="1.0626">
        <ele>216</ele>
        <time>2014-05-29T09:42:29.000Z</time>
      </trkpt>
      <trkpt lat="48.95662" lon="1.06264">
        <ele>217</ele>
        <time>2014-05-29T09:42:31.000Z</time>
      </trkpt>
      <trkpt lat="48.95662" lon="1.06264">
        <ele>217</ele>
        <time>2014-05-29T09:42:33.000Z</time>
      </trkpt>
      <trkpt lat="48.95654" lon="1.06271">
        <ele>218</ele>
        <time>2014-05-29T09:42:35.000Z</time>
      </trkpt>
      <trkpt lat="48.95654" lon="1.06271">
        <ele>218</ele>
        <time>2014-05-29T09:42:37.000Z</time>
      </trkpt>
      <trkpt lat="48.95645" lon="1.06278">
        <ele>219</ele>
        <time>2014-05-29T09:42:39.000Z</time>
      </trkpt>
      <trkpt lat="48.95641" lon="1.06282">
        <ele>219</ele>
        <time>2014-05-29T09:42:41.000Z</time>
      </trkpt>
      <trkpt lat="48.95641" lon="1.06282">
        <ele>219</ele>
        <time>2014-05-29T09:42:43.000Z</time>
      </trkpt>
      <trkpt lat="48.95633" lon="1.06289">
        <ele>220</ele>
        <time>2014-05-29T09:42:45.000Z</time>
      </trkpt>
      <trkpt lat="48.95627" lon="1.06292">
        <ele>220</ele>
        <time>2014-05-29T09:42:47.000Z</time>
      </trkpt>
      <trkpt lat="48.9562" lon="1.06296">
        <ele>220</ele>
        <time>2014-05-29T09:42:49.000Z</time>
      </trkpt>
      <trkpt lat="48.95613" lon="1.063">
        <ele>221</ele>
        <time>2014-05-29T09:42:51.000Z</time>
      </trkpt>
      <trkpt lat="48.95613" lon="1.063">
        <ele>221</ele>
        <time>2014-05-29T09:42:53.000Z</time>
      </trkpt>
      <trkpt lat="48.95606" lon="1.06309">
        <ele>221</ele>
        <time>2014-05-29T09:42:55.000Z</time>
      </trkpt>
      <trkpt lat="48.95606" lon="1.06309">
        <ele>221</ele>
        <time>2014-05-29T09:42:57.000Z</time>
      </trkpt>
      <trkpt lat="48.95602" lon="1.06317">
        <ele>221</ele>
        <time>2014-05-29T09:42:59.000Z</time>
      </trkpt>
      <trkpt lat="48.9559" lon="1.06325">
        <ele>221</ele>
        <time>2014-05-29T09:43:02.000Z</time>
      </trkpt>
      <trkpt lat="48.95584" lon="1.06327">
        <ele>221</ele>
        <time>2014-05-29T09:43:04.000Z</time>
      </trkpt>
      <trkpt lat="48.95576" lon="1.06331">
        <ele>221</ele>
        <time>2014-05-29T09:43:06.000Z</time>
      </trkpt>
      <trkpt lat="48.95569" lon="1.06336">
        <ele>221</ele>
        <time>2014-05-29T09:43:08.000Z</time>
      </trkpt>
      <trkpt lat="48.95562" lon="1.06341">
        <ele>221</ele>
        <time>2014-05-29T09:43:10.000Z</time>
      </trkpt>
      <trkpt lat="48.95562" lon="1.06341">
        <ele>221</ele>
        <time>2014-05-29T09:43:12.000Z</time>
      </trkpt>
      <trkpt lat="48.95556" lon="1.06343">
        <ele>221</ele>
        <time>2014-05-29T09:43:14.000Z</time>
      </trkpt>
      <trkpt lat="48.9555" lon="1.06347">
        <ele>220</ele>
        <time>2014-05-29T09:43:20.000Z</time>
      </trkpt>
      <trkpt lat="48.9555" lon="1.06347">
        <ele>220</ele>
        <time>2014-05-29T09:43:22.000Z</time>
      </trkpt>
      <trkpt lat="48.95542" lon="1.06364">
        <ele>220</ele>
        <time>2014-05-29T09:43:24.000Z</time>
      </trkpt>
      <trkpt lat="48.95535" lon="1.06373">
        <ele>220</ele>
        <time>2014-05-29T09:43:26.000Z</time>
      </trkpt>
      <trkpt lat="48.9553" lon="1.0638">
        <ele>220</ele>
        <time>2014-05-29T09:43:28.000Z</time>
      </trkpt>
      <trkpt lat="48.95522" lon="1.06387">
        <ele>220</ele>
        <time>2014-05-29T09:43:30.000Z</time>
      </trkpt>
      <trkpt lat="48.95514" lon="1.06395">
        <ele>220</ele>
        <time>2014-05-29T09:43:32.000Z</time>
      </trkpt>
      <trkpt lat="48.95506" lon="1.06403">
        <ele>220</ele>
        <time>2014-05-29T09:43:34.000Z</time>
      </trkpt>
      <trkpt lat="48.955" lon="1.06411">
        <ele>220</ele>
        <time>2014-05-29T09:43:36.000Z</time>
      </trkpt>
      <trkpt lat="48.95493" lon="1.06416">
        <ele>219</ele>
        <time>2014-05-29T09:43:38.000Z</time>
      </trkpt>
      <trkpt lat="48.95486" lon="1.06423">
        <ele>219</ele>
        <time>2014-05-29T09:43:40.000Z</time>
      </trkpt>
      <trkpt lat="48.95478" lon="1.0643">
        <ele>219</ele>
        <time>2014-05-29T09:43:42.000Z</time>
      </trkpt>
      <trkpt lat="48.95472" lon="1.06438">
        <ele>219</ele>
        <time>2014-05-29T09:43:44.000Z</time>
      </trkpt>
      <trkpt lat="48.95464" lon="1.06446">
        <ele>219</ele>
        <time>2014-05-29T09:43:46.000Z</time>
      </trkpt>
      <trkpt lat="48.95456" lon="1.06453">
        <ele>219</ele>
        <time>2014-05-29T09:43:48.000Z</time>
      </trkpt>
      <trkpt lat="48.95449" lon="1.06459">
        <ele>219</ele>
        <time>2014-05-29T09:43:50.000Z</time>
      </trkpt>
      <trkpt lat="48.95449" lon="1.06459">
        <ele>219</ele>
        <time>2014-05-29T09:43:52.000Z</time>
      </trkpt>
      <trkpt lat="48.95441" lon="1.0647">
        <ele>219</ele>
        <time>2014-05-29T09:43:54.000Z</time>
      </trkpt>
      <trkpt lat="48.95435" lon="1.06475">
        <ele>218</ele>
        <time>2014-05-29T09:43:56.000Z</time>
      </trkpt>
      <trkpt lat="48.95428" lon="1.0648">
        <ele>218</ele>
        <time>2014-05-29T09:43:58.000Z</time>
      </trkpt>
      <trkpt lat="48.95421" lon="1.06486">
        <ele>218</ele>
        <time>2014-05-29T09:44:00.000Z</time>
      </trkpt>
      <trkpt lat="48.95416" lon="1.06493">
        <ele>219</ele>
        <time>2014-05-29T09:44:02.000Z</time>
      </trkpt>
      <trkpt lat="48.95411" lon="1.06502">
        <ele>219</ele>
        <time>2014-05-29T09:44:04.000Z</time>
      </trkpt>
      <trkpt lat="48.95411" lon="1.06502">
        <ele>219</ele>
        <time>2014-05-29T09:44:07.000Z</time>
      </trkpt>
      <trkpt lat="48.95411" lon="1.06502">
        <ele>219</ele>
        <time>2014-05-29T09:44:09.000Z</time>
      </trkpt>
      <trkpt lat="48.95411" lon="1.06502">
        <ele>219</ele>
        <time>2014-05-29T09:44:11.000Z</time>
      </trkpt>
      <trkpt lat="48.95411" lon="1.06502">
        <ele>219</ele>
        <time>2014-05-29T09:44:13.000Z</time>
      </trkpt>
      <trkpt lat="48.95405" lon="1.06507">
        <ele>219</ele>
        <time>2014-05-29T09:44:15.000Z</time>
      </trkpt>
      <trkpt lat="48.954" lon="1.06514">
        <ele>219</ele>
        <time>2014-05-29T09:44:21.000Z</time>
      </trkpt>
      <trkpt lat="48.954" lon="1.06514">
        <ele>219</ele>
        <time>2014-05-29T09:44:23.000Z</time>
      </trkpt>
      <trkpt lat="48.95393" lon="1.06516">
        <ele>219</ele>
        <time>2014-05-29T09:44:25.000Z</time>
      </trkpt>
      <trkpt lat="48.95393" lon="1.06516">
        <ele>219</ele>
        <time>2014-05-29T09:44:27.000Z</time>
      </trkpt>
      <trkpt lat="48.95387" lon="1.06522">
        <ele>218</ele>
        <time>2014-05-29T09:44:29.000Z</time>
      </trkpt>
      <trkpt lat="48.95381" lon="1.06525">
        <ele>218</ele>
        <time>2014-05-29T09:44:31.000Z</time>
      </trkpt>
      <trkpt lat="48.95374" lon="1.06529">
        <ele>218</ele>
        <time>2014-05-29T09:44:33.000Z</time>
      </trkpt>
      <trkpt lat="48.95366" lon="1.06532">
        <ele>218</ele>
        <time>2014-05-29T09:44:35.000Z</time>
      </trkpt>
      <trkpt lat="48.95356" lon="1.06536">
        <ele>216</ele>
        <time>2014-05-29T09:44:37.000Z</time>
      </trkpt>
      <trkpt lat="48.95323" lon="1.06551">
        <ele>216</ele>
        <time>2014-05-29T09:44:41.000Z</time>
      </trkpt>
      <trkpt lat="48.9531" lon="1.06559">
        <ele>216</ele>
        <time>2014-05-29T09:44:43.000Z</time>
      </trkpt>
      <trkpt lat="48.95299" lon="1.06564">
        <ele>216</ele>
        <time>2014-05-29T09:44:45.000Z</time>
      </trkpt>
      <trkpt lat="48.95288" lon="1.0657">
        <ele>216</ele>
        <time>2014-05-29T09:44:47.000Z</time>
      </trkpt>
      <trkpt lat="48.95279" lon="1.06576">
        <ele>216</ele>
        <time>2014-05-29T09:44:49.000Z</time>
      </trkpt>
      <trkpt lat="48.95271" lon="1.06582">
        <ele>216</ele>
        <time>2014-05-29T09:44:51.000Z</time>
      </trkpt>
      <trkpt lat="48.95263" lon="1.06588">
        <ele>216</ele>
        <time>2014-05-29T09:44:53.000Z</time>
      </trkpt>
      <trkpt lat="48.95256" lon="1.06593">
        <ele>216</ele>
        <time>2014-05-29T09:44:55.000Z</time>
      </trkpt>
      <trkpt lat="48.9525" lon="1.06598">
        <ele>216</ele>
        <time>2014-05-29T09:44:57.000Z</time>
      </trkpt>
      <trkpt lat="48.95245" lon="1.06602">
        <ele>216</ele>
        <time>2014-05-29T09:44:59.000Z</time>
      </trkpt>
      <trkpt lat="48.95245" lon="1.06602">
        <ele>216</ele>
        <time>2014-05-29T09:45:01.000Z</time>
      </trkpt>
      <trkpt lat="48.95239" lon="1.06608">
        <ele>218</ele>
        <time>2014-05-29T09:45:03.000Z</time>
      </trkpt>
      <trkpt lat="48.95232" lon="1.06613">
        <ele>218</ele>
        <time>2014-05-29T09:45:05.000Z</time>
      </trkpt>
      <trkpt lat="48.95225" lon="1.06618">
        <ele>219</ele>
        <time>2014-05-29T09:45:07.000Z</time>
      </trkpt>
      <trkpt lat="48.95218" lon="1.06623">
        <ele>219</ele>
        <time>2014-05-29T09:45:09.000Z</time>
      </trkpt>
      <trkpt lat="48.95211" lon="1.06626">
        <ele>219</ele>
        <time>2014-05-29T09:45:11.000Z</time>
      </trkpt>
      <trkpt lat="48.95197" lon="1.06639">
        <ele>219</ele>
        <time>2014-05-29T09:45:13.000Z</time>
      </trkpt>
      <trkpt lat="48.9519" lon="1.06636">
        <ele>219</ele>
        <time>2014-05-29T09:45:15.000Z</time>
      </trkpt>
      <trkpt lat="48.95182" lon="1.06634">
        <ele>220</ele>
        <time>2014-05-29T09:45:17.000Z</time>
      </trkpt>
      <trkpt lat="48.95182" lon="1.06634">
        <ele>220</ele>
        <time>2014-05-29T09:45:19.000Z</time>
      </trkpt>
      <trkpt lat="48.95173" lon="1.06628">
        <ele>219</ele>
        <time>2014-05-29T09:45:21.000Z</time>
      </trkpt>
      <trkpt lat="48.95173" lon="1.06628">
        <ele>219</ele>
        <time>2014-05-29T09:45:23.000Z</time>
      </trkpt>
      <trkpt lat="48.95162" lon="1.06623">
        <ele>220</ele>
        <time>2014-05-29T09:45:25.000Z</time>
      </trkpt>
      <trkpt lat="48.95157" lon="1.0662">
        <ele>220</ele>
        <time>2014-05-29T09:45:27.000Z</time>
      </trkpt>
      <trkpt lat="48.95152" lon="1.06617">
        <ele>219</ele>
        <time>2014-05-29T09:45:29.000Z</time>
      </trkpt>
      <trkpt lat="48.95147" lon="1.06609">
        <ele>219</ele>
        <time>2014-05-29T09:45:33.000Z</time>
      </trkpt>
      <trkpt lat="48.95147" lon="1.06609">
        <ele>219</ele>
        <time>2014-05-29T09:45:35.000Z</time>
      </trkpt>
      <trkpt lat="48.95143" lon="1.06601">
        <ele>220</ele>
        <time>2014-05-29T09:45:37.000Z</time>
      </trkpt>
      <trkpt lat="48.95143" lon="1.06601">
        <ele>220</ele>
        <time>2014-05-29T09:45:39.000Z</time>
      </trkpt>
      <trkpt lat="48.95143" lon="1.06601">
        <ele>220</ele>
        <time>2014-05-29T09:45:41.000Z</time>
      </trkpt>
      <trkpt lat="48.95138" lon="1.06594">
        <ele>220</ele>
        <time>2014-05-29T09:45:43.000Z</time>
      </trkpt>
      <trkpt lat="48.95138" lon="1.06594">
        <ele>220</ele>
        <time>2014-05-29T09:45:45.000Z</time>
      </trkpt>
      <trkpt lat="48.95138" lon="1.06594">
        <ele>220</ele>
        <time>2014-05-29T09:45:47.000Z</time>
      </trkpt>
      <trkpt lat="48.9513" lon="1.06592">
        <ele>221</ele>
        <time>2014-05-29T09:45:49.000Z</time>
      </trkpt>
      <trkpt lat="48.95123" lon="1.06587">
        <ele>221</ele>
        <time>2014-05-29T09:45:55.000Z</time>
      </trkpt>
      <trkpt lat="48.95123" lon="1.06587">
        <ele>221</ele>
        <time>2014-05-29T09:45:57.000Z</time>
      </trkpt>
      <trkpt lat="48.95123" lon="1.06587">
        <ele>221</ele>
        <time>2014-05-29T09:45:59.000Z</time>
      </trkpt>
      <trkpt lat="48.95115" lon="1.06583">
        <ele>222</ele>
        <time>2014-05-29T09:46:01.000Z</time>
      </trkpt>
      <trkpt lat="48.95113" lon="1.06571">
        <ele>222</ele>
        <time>2014-05-29T09:46:07.000Z</time>
      </trkpt>
      <trkpt lat="48.95113" lon="1.06571">
        <ele>222</ele>
        <time>2014-05-29T09:46:09.000Z</time>
      </trkpt>
      <trkpt lat="48.95106" lon="1.06567">
        <ele>222</ele>
        <time>2014-05-29T09:46:11.000Z</time>
      </trkpt>
      <trkpt lat="48.95096" lon="1.06561">
        <ele>222</ele>
        <time>2014-05-29T09:46:15.000Z</time>
      </trkpt>
      <trkpt lat="48.95096" lon="1.06561">
        <ele>222</ele>
        <time>2014-05-29T09:46:17.000Z</time>
      </trkpt>
      <trkpt lat="48.95089" lon="1.06555">
        <ele>222</ele>
        <time>2014-05-29T09:46:19.000Z</time>
      </trkpt>
      <trkpt lat="48.95089" lon="1.06555">
        <ele>222</ele>
        <time>2014-05-29T09:46:21.000Z</time>
      </trkpt>
      <trkpt lat="48.95081" lon="1.06554">
        <ele>222</ele>
        <time>2014-05-29T09:46:23.000Z</time>
      </trkpt>
      <trkpt lat="48.95081" lon="1.06554">
        <ele>222</ele>
        <time>2014-05-29T09:46:25.000Z</time>
      </trkpt>
      <trkpt lat="48.95074" lon="1.06549">
        <ele>221</ele>
        <time>2014-05-29T09:46:27.000Z</time>
      </trkpt>
      <trkpt lat="48.95074" lon="1.06549">
        <ele>221</ele>
        <time>2014-05-29T09:46:29.000Z</time>
      </trkpt>
      <trkpt lat="48.95068" lon="1.06547">
        <ele>220</ele>
        <time>2014-05-29T09:46:31.000Z</time>
      </trkpt>
      <trkpt lat="48.95068" lon="1.06547">
        <ele>220</ele>
        <time>2014-05-29T09:46:33.000Z</time>
      </trkpt>
      <trkpt lat="48.9506" lon="1.06541">
        <ele>220</ele>
        <time>2014-05-29T09:46:35.000Z</time>
      </trkpt>
      <trkpt lat="48.9506" lon="1.06541">
        <ele>220</ele>
        <time>2014-05-29T09:46:37.000Z</time>
      </trkpt>
      <trkpt lat="48.9506" lon="1.06541">
        <ele>220</ele>
        <time>2014-05-29T09:46:39.000Z</time>
      </trkpt>
      <trkpt lat="48.95054" lon="1.06536">
        <ele>220</ele>
        <time>2014-05-29T09:46:41.000Z</time>
      </trkpt>
      <trkpt lat="48.95045" lon="1.06533">
        <ele>220</ele>
        <time>2014-05-29T09:46:45.000Z</time>
      </trkpt>
      <trkpt lat="48.95045" lon="1.06533">
        <ele>220</ele>
        <time>2014-05-29T09:46:47.000Z</time>
      </trkpt>
      <trkpt lat="48.95045" lon="1.06533">
        <ele>220</ele>
        <time>2014-05-29T09:46:51.000Z</time>
      </trkpt>
      <trkpt lat="48.95045" lon="1.06533">
        <ele>220</ele>
        <time>2014-05-29T09:46:53.000Z</time>
      </trkpt>
      <trkpt lat="48.95046" lon="1.06524">
        <ele>220</ele>
        <time>2014-05-29T09:46:56.000Z</time>
      </trkpt>
      <trkpt lat="48.95043" lon="1.06521">
        <ele>220</ele>
        <time>2014-05-29T09:47:04.000Z</time>
      </trkpt>
      <trkpt lat="48.95041" lon="1.06518">
        <ele>220</ele>
        <time>2014-05-29T09:47:06.000Z</time>
      </trkpt>
      <trkpt lat="48.95041" lon="1.06518">
        <ele>220</ele>
        <time>2014-05-29T09:47:08.000Z</time>
      </trkpt>
      <trkpt lat="48.95037" lon="1.06518">
        <ele>220</ele>
        <time>2014-05-29T09:47:10.000Z</time>
      </trkpt>
      <trkpt lat="48.95033" lon="1.06516">
        <ele>219</ele>
        <time>2014-05-29T09:47:14.000Z</time>
      </trkpt>
      <trkpt lat="48.95029" lon="1.06515">
        <ele>219</ele>
        <time>2014-05-29T09:47:16.000Z</time>
      </trkpt>
      <trkpt lat="48.95026" lon="1.06513">
        <ele>219</ele>
        <time>2014-05-29T09:47:18.000Z</time>
      </trkpt>
      <trkpt lat="48.95023" lon="1.0651">
        <ele>219</ele>
        <time>2014-05-29T09:47:20.000Z</time>
      </trkpt>
      <trkpt lat="48.9502" lon="1.06507">
        <ele>219</ele>
        <time>2014-05-29T09:47:22.000Z</time>
      </trkpt>
      <trkpt lat="48.95013" lon="1.06502">
        <ele>219</ele>
        <time>2014-05-29T09:47:24.000Z</time>
      </trkpt>
      <trkpt lat="48.95013" lon="1.06502">
        <ele>219</ele>
        <time>2014-05-29T09:47:26.000Z</time>
      </trkpt>
      <trkpt lat="48.95006" lon="1.06497">
        <ele>219</ele>
        <time>2014-05-29T09:47:28.000Z</time>
      </trkpt>
      <trkpt lat="48.94998" lon="1.06489">
        <ele>219</ele>
        <time>2014-05-29T09:47:32.000Z</time>
      </trkpt>
      <trkpt lat="48.94988" lon="1.06489">
        <ele>219</ele>
        <time>2014-05-29T09:47:36.000Z</time>
      </trkpt>
      <trkpt lat="48.94988" lon="1.06489">
        <ele>219</ele>
        <time>2014-05-29T09:47:38.000Z</time>
      </trkpt>
      <trkpt lat="48.94979" lon="1.06484">
        <ele>218</ele>
        <time>2014-05-29T09:47:40.000Z</time>
      </trkpt>
      <trkpt lat="48.94972" lon="1.06479">
        <ele>218</ele>
        <time>2014-05-29T09:47:44.000Z</time>
      </trkpt>
      <trkpt lat="48.94972" lon="1.06479">
        <ele>218</ele>
        <time>2014-05-29T09:47:46.000Z</time>
      </trkpt>
      <trkpt lat="48.94966" lon="1.06478">
        <ele>218</ele>
        <time>2014-05-29T09:47:48.000Z</time>
      </trkpt>
      <trkpt lat="48.94966" lon="1.06478">
        <ele>218</ele>
        <time>2014-05-29T09:47:50.000Z</time>
      </trkpt>
      <trkpt lat="48.9496" lon="1.06475">
        <ele>217</ele>
        <time>2014-05-29T09:47:52.000Z</time>
      </trkpt>
      <trkpt lat="48.9496" lon="1.06475">
        <ele>217</ele>
        <time>2014-05-29T09:47:54.000Z</time>
      </trkpt>
      <trkpt lat="48.94954" lon="1.06468">
        <ele>217</ele>
        <time>2014-05-29T09:47:56.000Z</time>
      </trkpt>
      <trkpt lat="48.94949" lon="1.06461">
        <ele>217</ele>
        <time>2014-05-29T09:47:58.000Z</time>
      </trkpt>
      <trkpt lat="48.94949" lon="1.06461">
        <ele>217</ele>
        <time>2014-05-29T09:48:00.000Z</time>
      </trkpt>
      <trkpt lat="48.9494" lon="1.06454">
        <ele>216</ele>
        <time>2014-05-29T09:48:02.000Z</time>
      </trkpt>
      <trkpt lat="48.9494" lon="1.06454">
        <ele>216</ele>
        <time>2014-05-29T09:48:04.000Z</time>
      </trkpt>
      <trkpt lat="48.94933" lon="1.06448">
        <ele>216</ele>
        <time>2014-05-29T09:48:06.000Z</time>
      </trkpt>
      <trkpt lat="48.94923" lon="1.0644">
        <ele>217</ele>
        <time>2014-05-29T09:48:10.000Z</time>
      </trkpt>
      <trkpt lat="48.94917" lon="1.06438">
        <ele>217</ele>
        <time>2014-05-29T09:48:12.000Z</time>
      </trkpt>
      <trkpt lat="48.94911" lon="1.06434">
        <ele>217</ele>
        <time>2014-05-29T09:48:14.000Z</time>
      </trkpt>
      <trkpt lat="48.94905" lon="1.06431">
        <ele>217</ele>
        <time>2014-05-29T09:48:16.000Z</time>
      </trkpt>
      <trkpt lat="48.94897" lon="1.06425">
        <ele>217</ele>
        <time>2014-05-29T09:48:18.000Z</time>
      </trkpt>
      <trkpt lat="48.94889" lon="1.06422">
        <ele>217</ele>
        <time>2014-05-29T09:48:20.000Z</time>
      </trkpt>
      <trkpt lat="48.94883" lon="1.06421">
        <ele>217</ele>
        <time>2014-05-29T09:48:22.000Z</time>
      </trkpt>
      <trkpt lat="48.94877" lon="1.06417">
        <ele>218</ele>
        <time>2014-05-29T09:48:24.000Z</time>
      </trkpt>
      <trkpt lat="48.94871" lon="1.06414">
        <ele>218</ele>
        <time>2014-05-29T09:48:26.000Z</time>
      </trkpt>
      <trkpt lat="48.94865" lon="1.0641">
        <ele>218</ele>
        <time>2014-05-29T09:48:28.000Z</time>
      </trkpt>
      <trkpt lat="48.94865" lon="1.0641">
        <ele>218</ele>
        <time>2014-05-29T09:48:30.000Z</time>
      </trkpt>
      <trkpt lat="48.94856" lon="1.064">
        <ele>219</ele>
        <time>2014-05-29T09:48:32.000Z</time>
      </trkpt>
      <trkpt lat="48.94851" lon="1.06396">
        <ele>219</ele>
        <time>2014-05-29T09:48:34.000Z</time>
      </trkpt>
      <trkpt lat="48.94846" lon="1.06391">
        <ele>219</ele>
        <time>2014-05-29T09:48:36.000Z</time>
      </trkpt>
      <trkpt lat="48.94846" lon="1.06391">
        <ele>219</ele>
        <time>2014-05-29T09:48:38.000Z</time>
      </trkpt>
      <trkpt lat="48.94837" lon="1.06386">
        <ele>219</ele>
        <time>2014-05-29T09:48:40.000Z</time>
      </trkpt>
      <trkpt lat="48.94837" lon="1.06386">
        <ele>219</ele>
        <time>2014-05-29T09:48:42.000Z</time>
      </trkpt>
      <trkpt lat="48.94828" lon="1.06379">
        <ele>219</ele>
        <time>2014-05-29T09:48:44.000Z</time>
      </trkpt>
      <trkpt lat="48.94822" lon="1.06374">
        <ele>219</ele>
        <time>2014-05-29T09:48:46.000Z</time>
      </trkpt>
      <trkpt lat="48.94822" lon="1.06374">
        <ele>219</ele>
        <time>2014-05-29T09:48:48.000Z</time>
      </trkpt>
      <trkpt lat="48.94814" lon="1.06367">
        <ele>219</ele>
        <time>2014-05-29T09:48:50.000Z</time>
      </trkpt>
      <trkpt lat="48.94814" lon="1.06367">
        <ele>219</ele>
        <time>2014-05-29T09:48:52.000Z</time>
      </trkpt>
      <trkpt lat="48.94807" lon="1.0636">
        <ele>220</ele>
        <time>2014-05-29T09:48:54.000Z</time>
      </trkpt>
      <trkpt lat="48.94807" lon="1.0636">
        <ele>220</ele>
        <time>2014-05-29T09:48:56.000Z</time>
      </trkpt>
      <trkpt lat="48.94801" lon="1.06357">
        <ele>220</ele>
        <time>2014-05-29T09:48:58.000Z</time>
      </trkpt>
      <trkpt lat="48.94801" lon="1.06357">
        <ele>220</ele>
        <time>2014-05-29T09:49:00.000Z</time>
      </trkpt>
      <trkpt lat="48.94794" lon="1.06351">
        <ele>220</ele>
        <time>2014-05-29T09:49:02.000Z</time>
      </trkpt>
      <trkpt lat="48.94794" lon="1.06351">
        <ele>220</ele>
        <time>2014-05-29T09:49:04.000Z</time>
      </trkpt>
      <trkpt lat="48.94786" lon="1.06349">
        <ele>220</ele>
        <time>2014-05-29T09:49:06.000Z</time>
      </trkpt>
      <trkpt lat="48.94781" lon="1.06351">
        <ele>220</ele>
        <time>2014-05-29T09:49:08.000Z</time>
      </trkpt>
      <trkpt lat="48.94774" lon="1.06354">
        <ele>220</ele>
        <time>2014-05-29T09:49:10.000Z</time>
      </trkpt>
      <trkpt lat="48.94769" lon="1.06358">
        <ele>220</ele>
        <time>2014-05-29T09:49:12.000Z</time>
      </trkpt>
      <trkpt lat="48.94769" lon="1.06358">
        <ele>220</ele>
        <time>2014-05-29T09:49:14.000Z</time>
      </trkpt>
      <trkpt lat="48.94762" lon="1.06359">
        <ele>220</ele>
        <time>2014-05-29T09:49:16.000Z</time>
      </trkpt>
      <trkpt lat="48.94762" lon="1.06359">
        <ele>220</ele>
        <time>2014-05-29T09:49:18.000Z</time>
      </trkpt>
      <trkpt lat="48.94755" lon="1.06358">
        <ele>220</ele>
        <time>2014-05-29T09:49:20.000Z</time>
      </trkpt>
      <trkpt lat="48.94755" lon="1.06358">
        <ele>220</ele>
        <time>2014-05-29T09:49:22.000Z</time>
      </trkpt>
      <trkpt lat="48.94748" lon="1.06359">
        <ele>220</ele>
        <time>2014-05-29T09:49:24.000Z</time>
      </trkpt>
      <trkpt lat="48.94748" lon="1.06359">
        <ele>220</ele>
        <time>2014-05-29T09:49:26.000Z</time>
      </trkpt>
      <trkpt lat="48.94742" lon="1.06361">
        <ele>220</ele>
        <time>2014-05-29T09:49:28.000Z</time>
      </trkpt>
      <trkpt lat="48.94742" lon="1.06361">
        <ele>220</ele>
        <time>2014-05-29T09:49:30.000Z</time>
      </trkpt>
      <trkpt lat="48.94735" lon="1.06363">
        <ele>220</ele>
        <time>2014-05-29T09:49:32.000Z</time>
      </trkpt>
      <trkpt lat="48.94735" lon="1.06363">
        <ele>220</ele>
        <time>2014-05-29T09:49:34.000Z</time>
      </trkpt>
      <trkpt lat="48.94728" lon="1.06368">
        <ele>219</ele>
        <time>2014-05-29T09:49:36.000Z</time>
      </trkpt>
      <trkpt lat="48.94728" lon="1.06368">
        <ele>219</ele>
        <time>2014-05-29T09:49:38.000Z</time>
      </trkpt>
      <trkpt lat="48.94722" lon="1.06373">
        <ele>219</ele>
        <time>2014-05-29T09:49:40.000Z</time>
      </trkpt>
      <trkpt lat="48.94722" lon="1.06373">
        <ele>219</ele>
        <time>2014-05-29T09:49:42.000Z</time>
      </trkpt>
      <trkpt lat="48.94722" lon="1.06373">
        <ele>219</ele>
        <time>2014-05-29T09:49:44.000Z</time>
      </trkpt>
      <trkpt lat="48.94718" lon="1.06382">
        <ele>218</ele>
        <time>2014-05-29T09:49:46.000Z</time>
      </trkpt>
      <trkpt lat="48.94715" lon="1.06384">
        <ele>218</ele>
        <time>2014-05-29T09:49:52.000Z</time>
      </trkpt>
      <trkpt lat="48.94712" lon="1.06387">
        <ele>218</ele>
        <time>2014-05-29T09:49:54.000Z</time>
      </trkpt>
      <trkpt lat="48.94709" lon="1.06388">
        <ele>218</ele>
        <time>2014-05-29T09:49:56.000Z</time>
      </trkpt>
      <trkpt lat="48.94709" lon="1.06388">
        <ele>218</ele>
        <time>2014-05-29T09:50:35.000Z</time>
      </trkpt>
      <trkpt lat="48.94706" lon="1.06386">
        <ele>218</ele>
        <time>2014-05-29T09:50:55.000Z</time>
      </trkpt>
      <trkpt lat="48.94703" lon="1.06387">
        <ele>219</ele>
        <time>2014-05-29T09:50:57.000Z</time>
      </trkpt>
      <trkpt lat="48.94699" lon="1.06388">
        <ele>219</ele>
        <time>2014-05-29T09:50:59.000Z</time>
      </trkpt>
      <trkpt lat="48.94696" lon="1.0639">
        <ele>219</ele>
        <time>2014-05-29T09:51:01.000Z</time>
      </trkpt>
      <trkpt lat="48.94693" lon="1.06393">
        <ele>219</ele>
        <time>2014-05-29T09:51:03.000Z</time>
      </trkpt>
      <trkpt lat="48.94686" lon="1.06398">
        <ele>219</ele>
        <time>2014-05-29T09:51:05.000Z</time>
      </trkpt>
      <trkpt lat="48.94676" lon="1.06403">
        <ele>219</ele>
        <time>2014-05-29T09:51:09.000Z</time>
      </trkpt>
      <trkpt lat="48.94664" lon="1.06406">
        <ele>218</ele>
        <time>2014-05-29T09:51:13.000Z</time>
      </trkpt>
      <trkpt lat="48.94657" lon="1.06411">
        <ele>218</ele>
        <time>2014-05-29T09:51:17.000Z</time>
      </trkpt>
      <trkpt lat="48.94657" lon="1.06411">
        <ele>218</ele>
        <time>2014-05-29T09:51:19.000Z</time>
      </trkpt>
      <trkpt lat="48.94651" lon="1.06417">
        <ele>219</ele>
        <time>2014-05-29T09:51:21.000Z</time>
      </trkpt>
      <trkpt lat="48.94645" lon="1.06421">
        <ele>219</ele>
        <time>2014-05-29T09:51:23.000Z</time>
      </trkpt>
      <trkpt lat="48.94639" lon="1.06426">
        <ele>219</ele>
        <time>2014-05-29T09:51:25.000Z</time>
      </trkpt>
      <trkpt lat="48.94632" lon="1.06432">
        <ele>219</ele>
        <time>2014-05-29T09:51:27.000Z</time>
      </trkpt>
      <trkpt lat="48.94621" lon="1.06438">
        <ele>219</ele>
        <time>2014-05-29T09:51:29.000Z</time>
      </trkpt>
      <trkpt lat="48.94611" lon="1.06446">
        <ele>219</ele>
        <time>2014-05-29T09:51:31.000Z</time>
      </trkpt>
      <trkpt lat="48.94603" lon="1.0645">
        <ele>219</ele>
        <time>2014-05-29T09:51:33.000Z</time>
      </trkpt>
      <trkpt lat="48.94603" lon="1.0645">
        <ele>219</ele>
        <time>2014-05-29T09:51:35.000Z</time>
      </trkpt>
      <trkpt lat="48.94593" lon="1.06454">
        <ele>220</ele>
        <time>2014-05-29T09:51:37.000Z</time>
      </trkpt>
      <trkpt lat="48.94587" lon="1.06458">
        <ele>220</ele>
        <time>2014-05-29T09:51:39.000Z</time>
      </trkpt>
      <trkpt lat="48.94587" lon="1.06458">
        <ele>220</ele>
        <time>2014-05-29T09:51:41.000Z</time>
      </trkpt>
      <trkpt lat="48.94579" lon="1.06464">
        <ele>221</ele>
        <time>2014-05-29T09:51:43.000Z</time>
      </trkpt>
      <trkpt lat="48.94579" lon="1.06464">
        <ele>221</ele>
        <time>2014-05-29T09:51:45.000Z</time>
      </trkpt>
      <trkpt lat="48.94572" lon="1.0647">
        <ele>221</ele>
        <time>2014-05-29T09:51:47.000Z</time>
      </trkpt>
      <trkpt lat="48.94572" lon="1.0647">
        <ele>221</ele>
        <time>2014-05-29T09:51:49.000Z</time>
      </trkpt>
      <trkpt lat="48.94562" lon="1.06474">
        <ele>220</ele>
        <time>2014-05-29T09:51:51.000Z</time>
      </trkpt>
      <trkpt lat="48.94556" lon="1.06478">
        <ele>220</ele>
        <time>2014-05-29T09:51:53.000Z</time>
      </trkpt>
      <trkpt lat="48.94548" lon="1.06482">
        <ele>220</ele>
        <time>2014-05-29T09:51:55.000Z</time>
      </trkpt>
      <trkpt lat="48.94542" lon="1.06485">
        <ele>220</ele>
        <time>2014-05-29T09:51:57.000Z</time>
      </trkpt>
      <trkpt lat="48.94537" lon="1.06489">
        <ele>220</ele>
        <time>2014-05-29T09:51:59.000Z</time>
      </trkpt>
      <trkpt lat="48.94537" lon="1.06489">
        <ele>220</ele>
        <time>2014-05-29T09:52:01.000Z</time>
      </trkpt>
      <trkpt lat="48.94526" lon="1.06496">
        <ele>220</ele>
        <time>2014-05-29T09:52:03.000Z</time>
      </trkpt>
      <trkpt lat="48.94526" lon="1.06496">
        <ele>220</ele>
        <time>2014-05-29T09:52:05.000Z</time>
      </trkpt>
      <trkpt lat="48.94518" lon="1.06504">
        <ele>220</ele>
        <time>2014-05-29T09:52:07.000Z</time>
      </trkpt>
      <trkpt lat="48.94518" lon="1.06504">
        <ele>220</ele>
        <time>2014-05-29T09:52:09.000Z</time>
      </trkpt>
      <trkpt lat="48.94513" lon="1.06509">
        <ele>220</ele>
        <time>2014-05-29T09:52:11.000Z</time>
      </trkpt>
      <trkpt lat="48.94513" lon="1.06509">
        <ele>220</ele>
        <time>2014-05-29T09:52:13.000Z</time>
      </trkpt>
      <trkpt lat="48.94506" lon="1.06516">
        <ele>219</ele>
        <time>2014-05-29T09:52:15.000Z</time>
      </trkpt>
      <trkpt lat="48.94501" lon="1.0652">
        <ele>219</ele>
        <time>2014-05-29T09:52:17.000Z</time>
      </trkpt>
      <trkpt lat="48.94495" lon="1.06522">
        <ele>219</ele>
        <time>2014-05-29T09:52:19.000Z</time>
      </trkpt>
      <trkpt lat="48.9449" lon="1.06525">
        <ele>219</ele>
        <time>2014-05-29T09:52:21.000Z</time>
      </trkpt>
      <trkpt lat="48.9449" lon="1.06525">
        <ele>219</ele>
        <time>2014-05-29T09:52:23.000Z</time>
      </trkpt>
      <trkpt lat="48.94481" lon="1.06533">
        <ele>218</ele>
        <time>2014-05-29T09:52:25.000Z</time>
      </trkpt>
      <trkpt lat="48.94481" lon="1.06533">
        <ele>218</ele>
        <time>2014-05-29T09:52:27.000Z</time>
      </trkpt>
      <trkpt lat="48.94473" lon="1.0654">
        <ele>217</ele>
        <time>2014-05-29T09:52:29.000Z</time>
      </trkpt>
      <trkpt lat="48.94467" lon="1.06543">
        <ele>217</ele>
        <time>2014-05-29T09:52:31.000Z</time>
      </trkpt>
      <trkpt lat="48.9446" lon="1.06548">
        <ele>216</ele>
        <time>2014-05-29T09:52:33.000Z</time>
      </trkpt>
      <trkpt lat="48.94454" lon="1.06553">
        <ele>216</ele>
        <time>2014-05-29T09:52:35.000Z</time>
      </trkpt>
      <trkpt lat="48.94447" lon="1.06557">
        <ele>216</ele>
        <time>2014-05-29T09:52:37.000Z</time>
      </trkpt>
      <trkpt lat="48.94441" lon="1.0656">
        <ele>216</ele>
        <time>2014-05-29T09:52:39.000Z</time>
      </trkpt>
      <trkpt lat="48.94435" lon="1.06562">
        <ele>216</ele>
        <time>2014-05-29T09:52:41.000Z</time>
      </trkpt>
      <trkpt lat="48.94435" lon="1.06562">
        <ele>216</ele>
        <time>2014-05-29T09:52:43.000Z</time>
      </trkpt>
      <trkpt lat="48.94426" lon="1.06567">
        <ele>217</ele>
        <time>2014-05-29T09:52:45.000Z</time>
      </trkpt>
      <trkpt lat="48.94421" lon="1.06572">
        <ele>217</ele>
        <time>2014-05-29T09:52:47.000Z</time>
      </trkpt>
      <trkpt lat="48.94414" lon="1.06579">
        <ele>217</ele>
        <time>2014-05-29T09:52:49.000Z</time>
      </trkpt>
      <trkpt lat="48.94409" lon="1.06584">
        <ele>217</ele>
        <time>2014-05-29T09:52:51.000Z</time>
      </trkpt>
      <trkpt lat="48.94403" lon="1.0659">
        <ele>217</ele>
        <time>2014-05-29T09:52:53.000Z</time>
      </trkpt>
      <trkpt lat="48.94397" lon="1.06594">
        <ele>217</ele>
        <time>2014-05-29T09:52:55.000Z</time>
      </trkpt>
      <trkpt lat="48.94397" lon="1.06594">
        <ele>217</ele>
        <time>2014-05-29T09:52:57.000Z</time>
      </trkpt>
      <trkpt lat="48.94388" lon="1.06601">
        <ele>216</ele>
        <time>2014-05-29T09:52:59.000Z</time>
      </trkpt>
      <trkpt lat="48.94381" lon="1.06605">
        <ele>216</ele>
        <time>2014-05-29T09:53:01.000Z</time>
      </trkpt>
      <trkpt lat="48.94374" lon="1.06609">
        <ele>216</ele>
        <time>2014-05-29T09:53:03.000Z</time>
      </trkpt>
      <trkpt lat="48.94368" lon="1.06613">
        <ele>217</ele>
        <time>2014-05-29T09:53:05.000Z</time>
      </trkpt>
      <trkpt lat="48.94368" lon="1.06613">
        <ele>217</ele>
        <time>2014-05-29T09:53:07.000Z</time>
      </trkpt>
      <trkpt lat="48.9436" lon="1.06617">
        <ele>217</ele>
        <time>2014-05-29T09:53:09.000Z</time>
      </trkpt>
      <trkpt lat="48.9436" lon="1.06617">
        <ele>217</ele>
        <time>2014-05-29T09:53:11.000Z</time>
      </trkpt>
      <trkpt lat="48.94351" lon="1.06622">
        <ele>217</ele>
        <time>2014-05-29T09:53:13.000Z</time>
      </trkpt>
      <trkpt lat="48.94345" lon="1.06625">
        <ele>217</ele>
        <time>2014-05-29T09:53:15.000Z</time>
      </trkpt>
      <trkpt lat="48.9434" lon="1.06629">
        <ele>216</ele>
        <time>2014-05-29T09:53:17.000Z</time>
      </trkpt>
      <trkpt lat="48.94334" lon="1.06633">
        <ele>216</ele>
        <time>2014-05-29T09:53:19.000Z</time>
      </trkpt>
      <trkpt lat="48.94327" lon="1.06638">
        <ele>216</ele>
        <time>2014-05-29T09:53:21.000Z</time>
      </trkpt>
      <trkpt lat="48.94318" lon="1.06646">
        <ele>216</ele>
        <time>2014-05-29T09:53:23.000Z</time>
      </trkpt>
      <trkpt lat="48.94309" lon="1.06654">
        <ele>215</ele>
        <time>2014-05-29T09:53:25.000Z</time>
      </trkpt>
      <trkpt lat="48.94302" lon="1.06661">
        <ele>215</ele>
        <time>2014-05-29T09:53:27.000Z</time>
      </trkpt>
      <trkpt lat="48.94294" lon="1.06666">
        <ele>215</ele>
        <time>2014-05-29T09:53:29.000Z</time>
      </trkpt>
      <trkpt lat="48.94284" lon="1.06673">
        <ele>214</ele>
        <time>2014-05-29T09:53:31.000Z</time>
      </trkpt>
      <trkpt lat="48.94276" lon="1.06678">
        <ele>214</ele>
        <time>2014-05-29T09:53:33.000Z</time>
      </trkpt>
      <trkpt lat="48.94269" lon="1.06683">
        <ele>214</ele>
        <time>2014-05-29T09:53:35.000Z</time>
      </trkpt>
      <trkpt lat="48.94263" lon="1.0669">
        <ele>213</ele>
        <time>2014-05-29T09:53:37.000Z</time>
      </trkpt>
      <trkpt lat="48.94257" lon="1.06697">
        <ele>213</ele>
        <time>2014-05-29T09:53:39.000Z</time>
      </trkpt>
      <trkpt lat="48.9425" lon="1.06701">
        <ele>213</ele>
        <time>2014-05-29T09:53:41.000Z</time>
      </trkpt>
      <trkpt lat="48.9425" lon="1.06701">
        <ele>213</ele>
        <time>2014-05-29T09:53:43.000Z</time>
      </trkpt>
      <trkpt lat="48.94242" lon="1.06703">
        <ele>213</ele>
        <time>2014-05-29T09:53:45.000Z</time>
      </trkpt>
      <trkpt lat="48.94234" lon="1.06704">
        <ele>213</ele>
        <time>2014-05-29T09:53:49.000Z</time>
      </trkpt>
      <trkpt lat="48.94226" lon="1.06708">
        <ele>213</ele>
        <time>2014-05-29T09:53:55.000Z</time>
      </trkpt>
      <trkpt lat="48.94226" lon="1.06708">
        <ele>213</ele>
        <time>2014-05-29T09:53:57.000Z</time>
      </trkpt>
      <trkpt lat="48.94226" lon="1.06708">
        <ele>213</ele>
        <time>2014-05-29T09:53:59.000Z</time>
      </trkpt>
      <trkpt lat="48.94218" lon="1.06707">
        <ele>213</ele>
        <time>2014-05-29T09:54:01.000Z</time>
      </trkpt>
      <trkpt lat="48.9421" lon="1.06713">
        <ele>213</ele>
        <time>2014-05-29T09:54:03.000Z</time>
      </trkpt>
      <trkpt lat="48.94202" lon="1.06719">
        <ele>214</ele>
        <time>2014-05-29T09:54:05.000Z</time>
      </trkpt>
      <trkpt lat="48.94196" lon="1.06722">
        <ele>214</ele>
        <time>2014-05-29T09:54:07.000Z</time>
      </trkpt>
      <trkpt lat="48.94189" lon="1.06723">
        <ele>214</ele>
        <time>2014-05-29T09:54:09.000Z</time>
      </trkpt>
      <trkpt lat="48.94184" lon="1.06726">
        <ele>214</ele>
        <time>2014-05-29T09:54:11.000Z</time>
      </trkpt>
      <trkpt lat="48.9418" lon="1.06732">
        <ele>214</ele>
        <time>2014-05-29T09:54:13.000Z</time>
      </trkpt>
      <trkpt lat="48.94176" lon="1.06739">
        <ele>214</ele>
        <time>2014-05-29T09:54:15.000Z</time>
      </trkpt>
      <trkpt lat="48.94176" lon="1.06739">
        <ele>214</ele>
        <time>2014-05-29T09:54:17.000Z</time>
      </trkpt>
      <trkpt lat="48.94168" lon="1.06748">
        <ele>214</ele>
        <time>2014-05-29T09:54:19.000Z</time>
      </trkpt>
      <trkpt lat="48.94168" lon="1.06748">
        <ele>214</ele>
        <time>2014-05-29T09:54:21.000Z</time>
      </trkpt>
      <trkpt lat="48.94162" lon="1.06756">
        <ele>213</ele>
        <time>2014-05-29T09:54:23.000Z</time>
      </trkpt>
      <trkpt lat="48.94152" lon="1.06761">
        <ele>213</ele>
        <time>2014-05-29T09:54:27.000Z</time>
      </trkpt>
      <trkpt lat="48.94145" lon="1.06764">
        <ele>212</ele>
        <time>2014-05-29T09:54:31.000Z</time>
      </trkpt>
      <trkpt lat="48.94138" lon="1.06764">
        <ele>212</ele>
        <time>2014-05-29T09:54:35.000Z</time>
      </trkpt>
      <trkpt lat="48.94134" lon="1.06768">
        <ele>212</ele>
        <time>2014-05-29T09:54:39.000Z</time>
      </trkpt>
      <trkpt lat="48.9413" lon="1.06771">
        <ele>212</ele>
        <time>2014-05-29T09:54:41.000Z</time>
      </trkpt>
      <trkpt lat="48.94126" lon="1.06773">
        <ele>212</ele>
        <time>2014-05-29T09:54:43.000Z</time>
      </trkpt>
      <trkpt lat="48.94122" lon="1.06777">
        <ele>213</ele>
        <time>2014-05-29T09:54:45.000Z</time>
      </trkpt>
      <trkpt lat="48.94118" lon="1.0678">
        <ele>213</ele>
        <time>2014-05-29T09:54:47.000Z</time>
      </trkpt>
      <trkpt lat="48.94108" lon="1.06787">
        <ele>213</ele>
        <time>2014-05-29T09:54:49.000Z</time>
      </trkpt>
      <trkpt lat="48.94102" lon="1.06793">
        <ele>213</ele>
        <time>2014-05-29T09:54:51.000Z</time>
      </trkpt>
      <trkpt lat="48.94097" lon="1.06796">
        <ele>213</ele>
        <time>2014-05-29T09:54:53.000Z</time>
      </trkpt>
      <trkpt lat="48.94097" lon="1.06796">
        <ele>213</ele>
        <time>2014-05-29T09:54:55.000Z</time>
      </trkpt>
      <trkpt lat="48.94086" lon="1.06802">
        <ele>214</ele>
        <time>2014-05-29T09:54:57.000Z</time>
      </trkpt>
      <trkpt lat="48.9408" lon="1.06805">
        <ele>213</ele>
        <time>2014-05-29T09:54:59.000Z</time>
      </trkpt>
      <trkpt lat="48.94075" lon="1.06807">
        <ele>214</ele>
        <time>2014-05-29T09:55:01.000Z</time>
      </trkpt>
      <trkpt lat="48.94069" lon="1.0681">
        <ele>213</ele>
        <time>2014-05-29T09:55:03.000Z</time>
      </trkpt>
      <trkpt lat="48.94063" lon="1.06816">
        <ele>214</ele>
        <time>2014-05-29T09:55:05.000Z</time>
      </trkpt>
      <trkpt lat="48.94047" lon="1.06828">
        <ele>214</ele>
        <time>2014-05-29T09:55:09.000Z</time>
      </trkpt>
      <trkpt lat="48.94039" lon="1.06833">
        <ele>214</ele>
        <time>2014-05-29T09:55:11.000Z</time>
      </trkpt>
      <trkpt lat="48.94032" lon="1.06839">
        <ele>214</ele>
        <time>2014-05-29T09:55:13.000Z</time>
      </trkpt>
      <trkpt lat="48.94027" lon="1.06842">
        <ele>214</ele>
        <time>2014-05-29T09:55:15.000Z</time>
      </trkpt>
      <trkpt lat="48.94027" lon="1.06842">
        <ele>214</ele>
        <time>2014-05-29T09:55:17.000Z</time>
      </trkpt>
      <trkpt lat="48.94016" lon="1.06852">
        <ele>214</ele>
        <time>2014-05-29T09:55:19.000Z</time>
      </trkpt>
      <trkpt lat="48.9401" lon="1.06856">
        <ele>213</ele>
        <time>2014-05-29T09:55:21.000Z</time>
      </trkpt>
      <trkpt lat="48.94004" lon="1.06859">
        <ele>213</ele>
        <time>2014-05-29T09:55:23.000Z</time>
      </trkpt>
      <trkpt lat="48.93998" lon="1.06864">
        <ele>213</ele>
        <time>2014-05-29T09:55:25.000Z</time>
      </trkpt>
      <trkpt lat="48.93991" lon="1.06869">
        <ele>212</ele>
        <time>2014-05-29T09:55:27.000Z</time>
      </trkpt>
      <trkpt lat="48.93985" lon="1.06872">
        <ele>212</ele>
        <time>2014-05-29T09:55:31.000Z</time>
      </trkpt>
      <trkpt lat="48.93977" lon="1.0687">
        <ele>212</ele>
        <time>2014-05-29T09:55:35.000Z</time>
      </trkpt>
      <trkpt lat="48.9397" lon="1.06878">
        <ele>211</ele>
        <time>2014-05-29T09:55:41.000Z</time>
      </trkpt>
      <trkpt lat="48.9397" lon="1.06878">
        <ele>211</ele>
        <time>2014-05-29T09:55:43.000Z</time>
      </trkpt>
      <trkpt lat="48.93964" lon="1.06888">
        <ele>211</ele>
        <time>2014-05-29T09:55:45.000Z</time>
      </trkpt>
      <trkpt lat="48.93964" lon="1.06888">
        <ele>211</ele>
        <time>2014-05-29T09:55:47.000Z</time>
      </trkpt>
      <trkpt lat="48.93954" lon="1.06895">
        <ele>211</ele>
        <time>2014-05-29T09:55:49.000Z</time>
      </trkpt>
      <trkpt lat="48.9394" lon="1.069">
        <ele>211</ele>
        <time>2014-05-29T09:55:53.000Z</time>
      </trkpt>
      <trkpt lat="48.93932" lon="1.06906">
        <ele>211</ele>
        <time>2014-05-29T09:55:55.000Z</time>
      </trkpt>
      <trkpt lat="48.93926" lon="1.06911">
        <ele>211</ele>
        <time>2014-05-29T09:55:57.000Z</time>
      </trkpt>
      <trkpt lat="48.93926" lon="1.06911">
        <ele>211</ele>
        <time>2014-05-29T09:56:01.000Z</time>
      </trkpt>
      <trkpt lat="48.93926" lon="1.06911">
        <ele>211</ele>
        <time>2014-05-29T09:56:03.000Z</time>
      </trkpt>
      <trkpt lat="48.93915" lon="1.06925">
        <ele>210</ele>
        <time>2014-05-29T09:56:05.000Z</time>
      </trkpt>
      <trkpt lat="48.93915" lon="1.06925">
        <ele>210</ele>
        <time>2014-05-29T09:56:11.000Z</time>
      </trkpt>
      <trkpt lat="48.93879" lon="1.06942">
        <ele>210</ele>
        <time>2014-05-29T09:56:22.000Z</time>
      </trkpt>
      <trkpt lat="48.93873" lon="1.06947">
        <ele>210</ele>
        <time>2014-05-29T09:56:26.000Z</time>
      </trkpt>
      <trkpt lat="48.93873" lon="1.06947">
        <ele>210</ele>
        <time>2014-05-29T09:56:28.000Z</time>
      </trkpt>
      <trkpt lat="48.93873" lon="1.06947">
        <ele>210</ele>
        <time>2014-05-29T09:56:32.000Z</time>
      </trkpt>
      <trkpt lat="48.93873" lon="1.06947">
        <ele>210</ele>
        <time>2014-05-29T09:56:42.000Z</time>
      </trkpt>
      <trkpt lat="48.93873" lon="1.06947">
        <ele>210</ele>
        <time>2014-05-29T09:56:52.000Z</time>
      </trkpt>
      <trkpt lat="48.93873" lon="1.06947">
        <ele>210</ele>
        <time>2014-05-29T09:56:58.000Z</time>
      </trkpt>
      <trkpt lat="48.93873" lon="1.06947">
        <ele>210</ele>
        <time>2014-05-29T09:57:08.000Z</time>
      </trkpt>
      <trkpt lat="48.9387" lon="1.06947">
        <ele>206</ele>
        <time>2014-05-29T09:57:34.000Z</time>
      </trkpt>
      <trkpt lat="48.9387" lon="1.06947">
        <ele>206</ele>
        <time>2014-05-29T09:57:41.000Z</time>
      </trkpt>
      <trkpt lat="48.9387" lon="1.06947">
        <ele>206</ele>
        <time>2014-05-29T09:57:43.000Z</time>
      </trkpt>
      <trkpt lat="48.9387" lon="1.06947">
        <ele>206</ele>
        <time>2014-05-29T09:57:45.000Z</time>
      </trkpt>
      <trkpt lat="48.93868" lon="1.06953">
        <ele>205</ele>
        <time>2014-05-29T09:57:53.000Z</time>
      </trkpt>
      <trkpt lat="48.93866" lon="1.06957">
        <ele>204</ele>
        <time>2014-05-29T09:57:55.000Z</time>
      </trkpt>
      <trkpt lat="48.93862" lon="1.06959">
        <ele>204</ele>
        <time>2014-05-29T09:57:57.000Z</time>
      </trkpt>
      <trkpt lat="48.93858" lon="1.06961">
        <ele>204</ele>
        <time>2014-05-29T09:57:59.000Z</time>
      </trkpt>
      <trkpt lat="48.93853" lon="1.06963">
        <ele>204</ele>
        <time>2014-05-29T09:58:01.000Z</time>
      </trkpt>
      <trkpt lat="48.93843" lon="1.06969">
        <ele>204</ele>
        <time>2014-05-29T09:58:03.000Z</time>
      </trkpt>
      <trkpt lat="48.93837" lon="1.06974">
        <ele>204</ele>
        <time>2014-05-29T09:58:05.000Z</time>
      </trkpt>
      <trkpt lat="48.93831" lon="1.06979">
        <ele>204</ele>
        <time>2014-05-29T09:58:07.000Z</time>
      </trkpt>
      <trkpt lat="48.93824" lon="1.06983">
        <ele>204</ele>
        <time>2014-05-29T09:58:09.000Z</time>
      </trkpt>
      <trkpt lat="48.93824" lon="1.06983">
        <ele>204</ele>
        <time>2014-05-29T09:58:11.000Z</time>
      </trkpt>
      <trkpt lat="48.93815" lon="1.06992">
        <ele>204</ele>
        <time>2014-05-29T09:58:13.000Z</time>
      </trkpt>
      <trkpt lat="48.93808" lon="1.06998">
        <ele>204</ele>
        <time>2014-05-29T09:58:15.000Z</time>
      </trkpt>
      <trkpt lat="48.93801" lon="1.07003">
        <ele>204</ele>
        <time>2014-05-29T09:58:17.000Z</time>
      </trkpt>
      <trkpt lat="48.93801" lon="1.07003">
        <ele>204</ele>
        <time>2014-05-29T09:58:19.000Z</time>
      </trkpt>
      <trkpt lat="48.93792" lon="1.07007">
        <ele>204</ele>
        <time>2014-05-29T09:58:21.000Z</time>
      </trkpt>
      <trkpt lat="48.93792" lon="1.07007">
        <ele>204</ele>
        <time>2014-05-29T09:58:24.000Z</time>
      </trkpt>
      <trkpt lat="48.93782" lon="1.07015">
        <ele>204</ele>
        <time>2014-05-29T09:58:25.000Z</time>
      </trkpt>
      <trkpt lat="48.93777" lon="1.07021">
        <ele>204</ele>
        <time>2014-05-29T09:58:27.000Z</time>
      </trkpt>
      <trkpt lat="48.93772" lon="1.07026">
        <ele>204</ele>
        <time>2014-05-29T09:58:29.000Z</time>
      </trkpt>
      <trkpt lat="48.93772" lon="1.07026">
        <ele>204</ele>
        <time>2014-05-29T09:58:31.000Z</time>
      </trkpt>
      <trkpt lat="48.93763" lon="1.07032">
        <ele>204</ele>
        <time>2014-05-29T09:58:33.000Z</time>
      </trkpt>
      <trkpt lat="48.93756" lon="1.07039">
        <ele>204</ele>
        <time>2014-05-29T09:58:35.000Z</time>
      </trkpt>
      <trkpt lat="48.93751" lon="1.07044">
        <ele>204</ele>
        <time>2014-05-29T09:58:37.000Z</time>
      </trkpt>
      <trkpt lat="48.93751" lon="1.07044">
        <ele>204</ele>
        <time>2014-05-29T09:58:39.000Z</time>
      </trkpt>
      <trkpt lat="48.93741" lon="1.07051">
        <ele>205</ele>
        <time>2014-05-29T09:58:41.000Z</time>
      </trkpt>
      <trkpt lat="48.93732" lon="1.07055">
        <ele>206</ele>
        <time>2014-05-29T09:58:43.000Z</time>
      </trkpt>
      <trkpt lat="48.93728" lon="1.07063">
        <ele>207</ele>
        <time>2014-05-29T09:58:48.000Z</time>
      </trkpt>
      <trkpt lat="48.93721" lon="1.07064">
        <ele>207</ele>
        <time>2014-05-29T09:58:50.000Z</time>
      </trkpt>
      <trkpt lat="48.93715" lon="1.07061">
        <ele>207</ele>
        <time>2014-05-29T09:58:52.000Z</time>
      </trkpt>
      <trkpt lat="48.93715" lon="1.07061">
        <ele>207</ele>
        <time>2014-05-29T09:58:54.000Z</time>
      </trkpt>
      <trkpt lat="48.93706" lon="1.0706">
        <ele>208</ele>
        <time>2014-05-29T09:58:56.000Z</time>
      </trkpt>
      <trkpt lat="48.93697" lon="1.07051">
        <ele>207</ele>
        <time>2014-05-29T09:59:00.000Z</time>
      </trkpt>
      <trkpt lat="48.93693" lon="1.07046">
        <ele>207</ele>
        <time>2014-05-29T09:59:02.000Z</time>
      </trkpt>
      <trkpt lat="48.93688" lon="1.0704">
        <ele>207</ele>
        <time>2014-05-29T09:59:04.000Z</time>
      </trkpt>
      <trkpt lat="48.93683" lon="1.07035">
        <ele>207</ele>
        <time>2014-05-29T09:59:06.000Z</time>
      </trkpt>
      <trkpt lat="48.93683" lon="1.07035">
        <ele>207</ele>
        <time>2014-05-29T09:59:08.000Z</time>
      </trkpt>
      <trkpt lat="48.93677" lon="1.0702">
        <ele>207</ele>
        <time>2014-05-29T09:59:10.000Z</time>
      </trkpt>
      <trkpt lat="48.93672" lon="1.07012">
        <ele>207</ele>
        <time>2014-05-29T09:59:12.000Z</time>
      </trkpt>
      <trkpt lat="48.93668" lon="1.07005">
        <ele>206</ele>
        <time>2014-05-29T09:59:14.000Z</time>
      </trkpt>
      <trkpt lat="48.93663" lon="1.06999">
        <ele>206</ele>
        <time>2014-05-29T09:59:16.000Z</time>
      </trkpt>
      <trkpt lat="48.93657" lon="1.06989">
        <ele>206</ele>
        <time>2014-05-29T09:59:18.000Z</time>
      </trkpt>
      <trkpt lat="48.93652" lon="1.06981">
        <ele>206</ele>
        <time>2014-05-29T09:59:20.000Z</time>
      </trkpt>
      <trkpt lat="48.93652" lon="1.06981">
        <ele>206</ele>
        <time>2014-05-29T09:59:22.000Z</time>
      </trkpt>
      <trkpt lat="48.93645" lon="1.06969">
        <ele>206</ele>
        <time>2014-05-29T09:59:24.000Z</time>
      </trkpt>
      <trkpt lat="48.9364" lon="1.06964">
        <ele>206</ele>
        <time>2014-05-29T09:59:26.000Z</time>
      </trkpt>
      <trkpt lat="48.93635" lon="1.06958">
        <ele>206</ele>
        <time>2014-05-29T09:59:28.000Z</time>
      </trkpt>
      <trkpt lat="48.93631" lon="1.06953">
        <ele>207</ele>
        <time>2014-05-29T09:59:30.000Z</time>
      </trkpt>
      <trkpt lat="48.93624" lon="1.06948">
        <ele>207</ele>
        <time>2014-05-29T09:59:32.000Z</time>
      </trkpt>
      <trkpt lat="48.93619" lon="1.06942">
        <ele>207</ele>
        <time>2014-05-29T09:59:34.000Z</time>
      </trkpt>
      <trkpt lat="48.93614" lon="1.06936">
        <ele>207</ele>
        <time>2014-05-29T09:59:36.000Z</time>
      </trkpt>
      <trkpt lat="48.9361" lon="1.0693">
        <ele>207</ele>
        <time>2014-05-29T09:59:38.000Z</time>
      </trkpt>
      <trkpt lat="48.93604" lon="1.06921">
        <ele>208</ele>
        <time>2014-05-29T09:59:40.000Z</time>
      </trkpt>
      <trkpt lat="48.93601" lon="1.06911">
        <ele>208</ele>
        <time>2014-05-29T09:59:42.000Z</time>
      </trkpt>
      <trkpt lat="48.93598" lon="1.06902">
        <ele>208</ele>
        <time>2014-05-29T09:59:44.000Z</time>
      </trkpt>
      <trkpt lat="48.93591" lon="1.06894">
        <ele>209</ele>
        <time>2014-05-29T09:59:46.000Z</time>
      </trkpt>
      <trkpt lat="48.93586" lon="1.06886">
        <ele>209</ele>
        <time>2014-05-29T09:59:48.000Z</time>
      </trkpt>
      <trkpt lat="48.93581" lon="1.06873">
        <ele>209</ele>
        <time>2014-05-29T09:59:52.000Z</time>
      </trkpt>
      <trkpt lat="48.93581" lon="1.06873">
        <ele>209</ele>
        <time>2014-05-29T09:59:54.000Z</time>
      </trkpt>
      <trkpt lat="48.93573" lon="1.06873">
        <ele>210</ele>
        <time>2014-05-29T09:59:56.000Z</time>
      </trkpt>
      <trkpt lat="48.93567" lon="1.06872">
        <ele>210</ele>
        <time>2014-05-29T09:59:58.000Z</time>
      </trkpt>
      <trkpt lat="48.93556" lon="1.06878">
        <ele>210</ele>
        <time>2014-05-29T10:00:02.000Z</time>
      </trkpt>
      <trkpt lat="48.93549" lon="1.06882">
        <ele>210</ele>
        <time>2014-05-29T10:00:04.000Z</time>
      </trkpt>
      <trkpt lat="48.93541" lon="1.06886">
        <ele>210</ele>
        <time>2014-05-29T10:00:06.000Z</time>
      </trkpt>
      <trkpt lat="48.9353" lon="1.06893">
        <ele>210</ele>
        <time>2014-05-29T10:00:08.000Z</time>
      </trkpt>
      <trkpt lat="48.9352" lon="1.06901">
        <ele>209</ele>
        <time>2014-05-29T10:00:10.000Z</time>
      </trkpt>
      <trkpt lat="48.93511" lon="1.06908">
        <ele>209</ele>
        <time>2014-05-29T10:00:12.000Z</time>
      </trkpt>
      <trkpt lat="48.93501" lon="1.06914">
        <ele>209</ele>
        <time>2014-05-29T10:00:14.000Z</time>
      </trkpt>
      <trkpt lat="48.93492" lon="1.0692">
        <ele>208</ele>
        <time>2014-05-29T10:00:16.000Z</time>
      </trkpt>
      <trkpt lat="48.93484" lon="1.06923">
        <ele>208</ele>
        <time>2014-05-29T10:00:18.000Z</time>
      </trkpt>
      <trkpt lat="48.93477" lon="1.06927">
        <ele>208</ele>
        <time>2014-05-29T10:00:20.000Z</time>
      </trkpt>
      <trkpt lat="48.9347" lon="1.0693">
        <ele>208</ele>
        <time>2014-05-29T10:00:22.000Z</time>
      </trkpt>
      <trkpt lat="48.93463" lon="1.06935">
        <ele>208</ele>
        <time>2014-05-29T10:00:24.000Z</time>
      </trkpt>
      <trkpt lat="48.93456" lon="1.06941">
        <ele>208</ele>
        <time>2014-05-29T10:00:26.000Z</time>
      </trkpt>
      <trkpt lat="48.9345" lon="1.06946">
        <ele>208</ele>
        <time>2014-05-29T10:00:28.000Z</time>
      </trkpt>
      <trkpt lat="48.93442" lon="1.06952">
        <ele>208</ele>
        <time>2014-05-29T10:00:30.000Z</time>
      </trkpt>
      <trkpt lat="48.93435" lon="1.06957">
        <ele>208</ele>
        <time>2014-05-29T10:00:32.000Z</time>
      </trkpt>
      <trkpt lat="48.93427" lon="1.06961">
        <ele>208</ele>
        <time>2014-05-29T10:00:34.000Z</time>
      </trkpt>
      <trkpt lat="48.9342" lon="1.06965">
        <ele>208</ele>
        <time>2014-05-29T10:00:36.000Z</time>
      </trkpt>
      <trkpt lat="48.93413" lon="1.06969">
        <ele>209</ele>
        <time>2014-05-29T10:00:38.000Z</time>
      </trkpt>
      <trkpt lat="48.93405" lon="1.06974">
        <ele>208</ele>
        <time>2014-05-29T10:00:40.000Z</time>
      </trkpt>
      <trkpt lat="48.93398" lon="1.06981">
        <ele>208</ele>
        <time>2014-05-29T10:00:42.000Z</time>
      </trkpt>
      <trkpt lat="48.9339" lon="1.06987">
        <ele>208</ele>
        <time>2014-05-29T10:00:44.000Z</time>
      </trkpt>
      <trkpt lat="48.93383" lon="1.06992">
        <ele>208</ele>
        <time>2014-05-29T10:00:46.000Z</time>
      </trkpt>
      <trkpt lat="48.93375" lon="1.06997">
        <ele>208</ele>
        <time>2014-05-29T10:00:48.000Z</time>
      </trkpt>
      <trkpt lat="48.93367" lon="1.07001">
        <ele>207</ele>
        <time>2014-05-29T10:00:50.000Z</time>
      </trkpt>
      <trkpt lat="48.93359" lon="1.07007">
        <ele>207</ele>
        <time>2014-05-29T10:00:52.000Z</time>
      </trkpt>
      <trkpt lat="48.93351" lon="1.07011">
        <ele>207</ele>
        <time>2014-05-29T10:00:54.000Z</time>
      </trkpt>
      <trkpt lat="48.93343" lon="1.07015">
        <ele>206</ele>
        <time>2014-05-29T10:00:56.000Z</time>
      </trkpt>
      <trkpt lat="48.93336" lon="1.07021">
        <ele>204</ele>
        <time>2014-05-29T10:00:58.000Z</time>
      </trkpt>
      <trkpt lat="48.9333" lon="1.07025">
        <ele>204</ele>
        <time>2014-05-29T10:01:00.000Z</time>
      </trkpt>
      <trkpt lat="48.93324" lon="1.07033">
        <ele>204</ele>
        <time>2014-05-29T10:01:02.000Z</time>
      </trkpt>
      <trkpt lat="48.93324" lon="1.07033">
        <ele>204</ele>
        <time>2014-05-29T10:01:04.000Z</time>
      </trkpt>
      <trkpt lat="48.93317" lon="1.0704">
        <ele>201</ele>
        <time>2014-05-29T10:01:06.000Z</time>
      </trkpt>
      <trkpt lat="48.93311" lon="1.07045">
        <ele>200</ele>
        <time>2014-05-29T10:01:08.000Z</time>
      </trkpt>
      <trkpt lat="48.93304" lon="1.07051">
        <ele>200</ele>
        <time>2014-05-29T10:01:10.000Z</time>
      </trkpt>
      <trkpt lat="48.93295" lon="1.07059">
        <ele>200</ele>
        <time>2014-05-29T10:01:12.000Z</time>
      </trkpt>
      <trkpt lat="48.93287" lon="1.07065">
        <ele>200</ele>
        <time>2014-05-29T10:01:14.000Z</time>
      </trkpt>
      <trkpt lat="48.9328" lon="1.07068">
        <ele>201</ele>
        <time>2014-05-29T10:01:16.000Z</time>
      </trkpt>
      <trkpt lat="48.93274" lon="1.07072">
        <ele>201</ele>
        <time>2014-05-29T10:01:18.000Z</time>
      </trkpt>
      <trkpt lat="48.93268" lon="1.07075">
        <ele>201</ele>
        <time>2014-05-29T10:01:20.000Z</time>
      </trkpt>
      <trkpt lat="48.93262" lon="1.07078">
        <ele>201</ele>
        <time>2014-05-29T10:01:22.000Z</time>
      </trkpt>
      <trkpt lat="48.93262" lon="1.07078">
        <ele>201</ele>
        <time>2014-05-29T10:01:24.000Z</time>
      </trkpt>
      <trkpt lat="48.93254" lon="1.07083">
        <ele>202</ele>
        <time>2014-05-29T10:01:26.000Z</time>
      </trkpt>
      <trkpt lat="48.93254" lon="1.07083">
        <ele>202</ele>
        <time>2014-05-29T10:01:28.000Z</time>
      </trkpt>
      <trkpt lat="48.93247" lon="1.07083">
        <ele>202</ele>
        <time>2014-05-29T10:01:30.000Z</time>
      </trkpt>
      <trkpt lat="48.93247" lon="1.07083">
        <ele>202</ele>
        <time>2014-05-29T10:01:32.000Z</time>
      </trkpt>
      <trkpt lat="48.93242" lon="1.07088">
        <ele>202</ele>
        <time>2014-05-29T10:01:34.000Z</time>
      </trkpt>
      <trkpt lat="48.93242" lon="1.07088">
        <ele>202</ele>
        <time>2014-05-29T10:01:36.000Z</time>
      </trkpt>
      <trkpt lat="48.93236" lon="1.07093">
        <ele>203</ele>
        <time>2014-05-29T10:01:38.000Z</time>
      </trkpt>
      <trkpt lat="48.93231" lon="1.07097">
        <ele>203</ele>
        <time>2014-05-29T10:01:42.000Z</time>
      </trkpt>
      <trkpt lat="48.93231" lon="1.07097">
        <ele>203</ele>
        <time>2014-05-29T10:01:44.000Z</time>
      </trkpt>
      <trkpt lat="48.93222" lon="1.07105">
        <ele>203</ele>
        <time>2014-05-29T10:01:46.000Z</time>
      </trkpt>
      <trkpt lat="48.93216" lon="1.0711">
        <ele>204</ele>
        <time>2014-05-29T10:01:48.000Z</time>
      </trkpt>
      <trkpt lat="48.93211" lon="1.07115">
        <ele>204</ele>
        <time>2014-05-29T10:01:50.000Z</time>
      </trkpt>
      <trkpt lat="48.93211" lon="1.07115">
        <ele>204</ele>
        <time>2014-05-29T10:01:52.000Z</time>
      </trkpt>
      <trkpt lat="48.93206" lon="1.0712">
        <ele>204</ele>
        <time>2014-05-29T10:01:54.000Z</time>
      </trkpt>
      <trkpt lat="48.93206" lon="1.0712">
        <ele>204</ele>
        <time>2014-05-29T10:01:56.000Z</time>
      </trkpt>
      <trkpt lat="48.932" lon="1.07123">
        <ele>205</ele>
        <time>2014-05-29T10:01:58.000Z</time>
      </trkpt>
      <trkpt lat="48.932" lon="1.07123">
        <ele>205</ele>
        <time>2014-05-29T10:02:00.000Z</time>
      </trkpt>
      <trkpt lat="48.932" lon="1.07123">
        <ele>205</ele>
        <time>2014-05-29T10:02:02.000Z</time>
      </trkpt>
      <trkpt lat="48.932" lon="1.07123">
        <ele>205</ele>
        <time>2014-05-29T10:02:04.000Z</time>
      </trkpt>
      <trkpt lat="48.93192" lon="1.0713">
        <ele>204</ele>
        <time>2014-05-29T10:02:06.000Z</time>
      </trkpt>
      <trkpt lat="48.93185" lon="1.07134">
        <ele>204</ele>
        <time>2014-05-29T10:02:08.000Z</time>
      </trkpt>
      <trkpt lat="48.93176" lon="1.07141">
        <ele>204</ele>
        <time>2014-05-29T10:02:10.000Z</time>
      </trkpt>
      <trkpt lat="48.93164" lon="1.07151">
        <ele>205</ele>
        <time>2014-05-29T10:02:14.000Z</time>
      </trkpt>
      <trkpt lat="48.93158" lon="1.07155">
        <ele>205</ele>
        <time>2014-05-29T10:02:16.000Z</time>
      </trkpt>
      <trkpt lat="48.93153" lon="1.07159">
        <ele>205</ele>
        <time>2014-05-29T10:02:18.000Z</time>
      </trkpt>
      <trkpt lat="48.93148" lon="1.07164">
        <ele>205</ele>
        <time>2014-05-29T10:02:20.000Z</time>
      </trkpt>
      <trkpt lat="48.93148" lon="1.07164">
        <ele>205</ele>
        <time>2014-05-29T10:02:22.000Z</time>
      </trkpt>
      <trkpt lat="48.93139" lon="1.0717">
        <ele>206</ele>
        <time>2014-05-29T10:02:24.000Z</time>
      </trkpt>
      <trkpt lat="48.93139" lon="1.0717">
        <ele>206</ele>
        <time>2014-05-29T10:02:26.000Z</time>
      </trkpt>
      <trkpt lat="48.9313" lon="1.07176">
        <ele>206</ele>
        <time>2014-05-29T10:02:28.000Z</time>
      </trkpt>
      <trkpt lat="48.93123" lon="1.07182">
        <ele>206</ele>
        <time>2014-05-29T10:02:30.000Z</time>
      </trkpt>
      <trkpt lat="48.93114" lon="1.07188">
        <ele>206</ele>
        <time>2014-05-29T10:02:32.000Z</time>
      </trkpt>
      <trkpt lat="48.93107" lon="1.07193">
        <ele>206</ele>
        <time>2014-05-29T10:02:34.000Z</time>
      </trkpt>
      <trkpt lat="48.931" lon="1.07199">
        <ele>206</ele>
        <time>2014-05-29T10:02:36.000Z</time>
      </trkpt>
      <trkpt lat="48.931" lon="1.07199">
        <ele>206</ele>
        <time>2014-05-29T10:02:38.000Z</time>
      </trkpt>
      <trkpt lat="48.93092" lon="1.07206">
        <ele>206</ele>
        <time>2014-05-29T10:02:40.000Z</time>
      </trkpt>
      <trkpt lat="48.93092" lon="1.07206">
        <ele>206</ele>
        <time>2014-05-29T10:02:42.000Z</time>
      </trkpt>
      <trkpt lat="48.93088" lon="1.07209">
        <ele>207</ele>
        <time>2014-05-29T10:02:44.000Z</time>
      </trkpt>
      <trkpt lat="48.93083" lon="1.07212">
        <ele>207</ele>
        <time>2014-05-29T10:02:46.000Z</time>
      </trkpt>
      <trkpt lat="48.93078" lon="1.07215">
        <ele>207</ele>
        <time>2014-05-29T10:02:48.000Z</time>
      </trkpt>
      <trkpt lat="48.93073" lon="1.07219">
        <ele>206</ele>
        <time>2014-05-29T10:02:50.000Z</time>
      </trkpt>
      <trkpt lat="48.93068" lon="1.07222">
        <ele>206</ele>
        <time>2014-05-29T10:02:52.000Z</time>
      </trkpt>
      <trkpt lat="48.93055" lon="1.0723">
        <ele>206</ele>
        <time>2014-05-29T10:02:54.000Z</time>
      </trkpt>
      <trkpt lat="48.93046" lon="1.07235">
        <ele>207</ele>
        <time>2014-05-29T10:02:56.000Z</time>
      </trkpt>
      <trkpt lat="48.93033" lon="1.07243">
        <ele>207</ele>
        <time>2014-05-29T10:02:58.000Z</time>
      </trkpt>
      <trkpt lat="48.93022" lon="1.07249">
        <ele>207</ele>
        <time>2014-05-29T10:03:00.000Z</time>
      </trkpt>
      <trkpt lat="48.93012" lon="1.07255">
        <ele>207</ele>
        <time>2014-05-29T10:03:02.000Z</time>
      </trkpt>
      <trkpt lat="48.93003" lon="1.0726">
        <ele>208</ele>
        <time>2014-05-29T10:03:04.000Z</time>
      </trkpt>
      <trkpt lat="48.92995" lon="1.07265">
        <ele>208</ele>
        <time>2014-05-29T10:03:06.000Z</time>
      </trkpt>
      <trkpt lat="48.92989" lon="1.0727">
        <ele>208</ele>
        <time>2014-05-29T10:03:08.000Z</time>
      </trkpt>
      <trkpt lat="48.92982" lon="1.07275">
        <ele>209</ele>
        <time>2014-05-29T10:03:10.000Z</time>
      </trkpt>
      <trkpt lat="48.92976" lon="1.07279">
        <ele>209</ele>
        <time>2014-05-29T10:03:12.000Z</time>
      </trkpt>
      <trkpt lat="48.92961" lon="1.07289">
        <ele>210</ele>
        <time>2014-05-29T10:03:16.000Z</time>
      </trkpt>
      <trkpt lat="48.92953" lon="1.07295">
        <ele>210</ele>
        <time>2014-05-29T10:03:18.000Z</time>
      </trkpt>
      <trkpt lat="48.92946" lon="1.073">
        <ele>210</ele>
        <time>2014-05-29T10:03:20.000Z</time>
      </trkpt>
      <trkpt lat="48.9294" lon="1.07305">
        <ele>210</ele>
        <time>2014-05-29T10:03:22.000Z</time>
      </trkpt>
      <trkpt lat="48.92933" lon="1.07315">
        <ele>210</ele>
        <time>2014-05-29T10:03:24.000Z</time>
      </trkpt>
      <trkpt lat="48.92926" lon="1.07323">
        <ele>210</ele>
        <time>2014-05-29T10:03:26.000Z</time>
      </trkpt>
      <trkpt lat="48.92917" lon="1.0733">
        <ele>210</ele>
        <time>2014-05-29T10:03:30.000Z</time>
      </trkpt>
      <trkpt lat="48.92917" lon="1.0733">
        <ele>210</ele>
        <time>2014-05-29T10:03:33.000Z</time>
      </trkpt>
      <trkpt lat="48.92909" lon="1.07335">
        <ele>210</ele>
        <time>2014-05-29T10:03:34.000Z</time>
      </trkpt>
      <trkpt lat="48.929" lon="1.07338">
        <ele>211</ele>
        <time>2014-05-29T10:03:38.000Z</time>
      </trkpt>
      <trkpt lat="48.929" lon="1.07338">
        <ele>211</ele>
        <time>2014-05-29T10:03:40.000Z</time>
      </trkpt>
      <trkpt lat="48.92895" lon="1.07336">
        <ele>211</ele>
        <time>2014-05-29T10:03:42.000Z</time>
      </trkpt>
      <trkpt lat="48.92889" lon="1.07337">
        <ele>211</ele>
        <time>2014-05-29T10:03:46.000Z</time>
      </trkpt>
      <trkpt lat="48.92882" lon="1.07345">
        <ele>211</ele>
        <time>2014-05-29T10:03:50.000Z</time>
      </trkpt>
      <trkpt lat="48.92877" lon="1.07349">
        <ele>211</ele>
        <time>2014-05-29T10:03:52.000Z</time>
      </trkpt>
      <trkpt lat="48.92871" lon="1.07357">
        <ele>211</ele>
        <time>2014-05-29T10:03:56.000Z</time>
      </trkpt>
      <trkpt lat="48.92871" lon="1.07357">
        <ele>211</ele>
        <time>2014-05-29T10:03:58.000Z</time>
      </trkpt>
      <trkpt lat="48.92871" lon="1.07357">
        <ele>211</ele>
        <time>2014-05-29T10:04:00.000Z</time>
      </trkpt>
      <trkpt lat="48.92864" lon="1.07361">
        <ele>210</ele>
        <time>2014-05-29T10:04:02.000Z</time>
      </trkpt>
      <trkpt lat="48.92852" lon="1.07367">
        <ele>210</ele>
        <time>2014-05-29T10:04:06.000Z</time>
      </trkpt>
      <trkpt lat="48.92846" lon="1.0737">
        <ele>210</ele>
        <time>2014-05-29T10:04:08.000Z</time>
      </trkpt>
      <trkpt lat="48.92846" lon="1.0737">
        <ele>210</ele>
        <time>2014-05-29T10:04:10.000Z</time>
      </trkpt>
      <trkpt lat="48.92838" lon="1.07376">
        <ele>210</ele>
        <time>2014-05-29T10:04:12.000Z</time>
      </trkpt>
      <trkpt lat="48.92838" lon="1.07376">
        <ele>210</ele>
        <time>2014-05-29T10:04:14.000Z</time>
      </trkpt>
      <trkpt lat="48.9283" lon="1.0738">
        <ele>210</ele>
        <time>2014-05-29T10:04:16.000Z</time>
      </trkpt>
      <trkpt lat="48.9283" lon="1.0738">
        <ele>210</ele>
        <time>2014-05-29T10:04:18.000Z</time>
      </trkpt>
      <trkpt lat="48.92824" lon="1.07386">
        <ele>210</ele>
        <time>2014-05-29T10:04:20.000Z</time>
      </trkpt>
      <trkpt lat="48.92815" lon="1.07393">
        <ele>209</ele>
        <time>2014-05-29T10:04:24.000Z</time>
      </trkpt>
      <trkpt lat="48.92806" lon="1.07397">
        <ele>209</ele>
        <time>2014-05-29T10:04:28.000Z</time>
      </trkpt>
      <trkpt lat="48.92799" lon="1.07402">
        <ele>209</ele>
        <time>2014-05-29T10:04:30.000Z</time>
      </trkpt>
      <trkpt lat="48.92792" lon="1.07406">
        <ele>209</ele>
        <time>2014-05-29T10:04:32.000Z</time>
      </trkpt>
      <trkpt lat="48.92792" lon="1.07406">
        <ele>209</ele>
        <time>2014-05-29T10:04:34.000Z</time>
      </trkpt>
      <trkpt lat="48.92782" lon="1.07411">
        <ele>209</ele>
        <time>2014-05-29T10:04:36.000Z</time>
      </trkpt>
      <trkpt lat="48.92776" lon="1.07415">
        <ele>209</ele>
        <time>2014-05-29T10:04:38.000Z</time>
      </trkpt>
      <trkpt lat="48.92771" lon="1.07418">
        <ele>209</ele>
        <time>2014-05-29T10:04:40.000Z</time>
      </trkpt>
      <trkpt lat="48.92764" lon="1.07422">
        <ele>209</ele>
        <time>2014-05-29T10:04:42.000Z</time>
      </trkpt>
      <trkpt lat="48.92757" lon="1.07428">
        <ele>209</ele>
        <time>2014-05-29T10:04:44.000Z</time>
      </trkpt>
      <trkpt lat="48.92751" lon="1.07434">
        <ele>209</ele>
        <time>2014-05-29T10:04:46.000Z</time>
      </trkpt>
      <trkpt lat="48.92745" lon="1.07436">
        <ele>209</ele>
        <time>2014-05-29T10:04:48.000Z</time>
      </trkpt>
      <trkpt lat="48.92738" lon="1.07436">
        <ele>208</ele>
        <time>2014-05-29T10:04:52.000Z</time>
      </trkpt>
      <trkpt lat="48.92738" lon="1.07436">
        <ele>208</ele>
        <time>2014-05-29T10:04:54.000Z</time>
      </trkpt>
      <trkpt lat="48.92733" lon="1.07442">
        <ele>208</ele>
        <time>2014-05-29T10:04:56.000Z</time>
      </trkpt>
      <trkpt lat="48.92733" lon="1.07442">
        <ele>208</ele>
        <time>2014-05-29T10:04:58.000Z</time>
      </trkpt>
      <trkpt lat="48.92731" lon="1.07451">
        <ele>207</ele>
        <time>2014-05-29T10:05:00.000Z</time>
      </trkpt>
      <trkpt lat="48.92731" lon="1.07451">
        <ele>207</ele>
        <time>2014-05-29T10:05:02.000Z</time>
      </trkpt>
      <trkpt lat="48.92731" lon="1.07451">
        <ele>207</ele>
        <time>2014-05-29T10:05:04.000Z</time>
      </trkpt>
      <trkpt lat="48.92731" lon="1.07451">
        <ele>207</ele>
        <time>2014-05-29T10:05:06.000Z</time>
      </trkpt>
      <trkpt lat="48.92723" lon="1.07457">
        <ele>206</ele>
        <time>2014-05-29T10:05:10.000Z</time>
      </trkpt>
      <trkpt lat="48.92717" lon="1.0746">
        <ele>206</ele>
        <time>2014-05-29T10:05:14.000Z</time>
      </trkpt>
      <trkpt lat="48.92717" lon="1.0746">
        <ele>206</ele>
        <time>2014-05-29T10:05:16.000Z</time>
      </trkpt>
      <trkpt lat="48.9271" lon="1.07466">
        <ele>206</ele>
        <time>2014-05-29T10:05:18.000Z</time>
      </trkpt>
      <trkpt lat="48.9271" lon="1.07466">
        <ele>206</ele>
        <time>2014-05-29T10:05:20.000Z</time>
      </trkpt>
      <trkpt lat="48.92702" lon="1.07471">
        <ele>205</ele>
        <time>2014-05-29T10:05:22.000Z</time>
      </trkpt>
      <trkpt lat="48.92696" lon="1.07475">
        <ele>205</ele>
        <time>2014-05-29T10:05:24.000Z</time>
      </trkpt>
      <trkpt lat="48.92691" lon="1.07478">
        <ele>205</ele>
        <time>2014-05-29T10:05:26.000Z</time>
      </trkpt>
      <trkpt lat="48.92691" lon="1.07478">
        <ele>205</ele>
        <time>2014-05-29T10:05:28.000Z</time>
      </trkpt>
      <trkpt lat="48.92681" lon="1.07486">
        <ele>205</ele>
        <time>2014-05-29T10:05:30.000Z</time>
      </trkpt>
      <trkpt lat="48.92673" lon="1.07491">
        <ele>205</ele>
        <time>2014-05-29T10:05:32.000Z</time>
      </trkpt>
      <trkpt lat="48.92665" lon="1.07496">
        <ele>205</ele>
        <time>2014-05-29T10:05:34.000Z</time>
      </trkpt>
      <trkpt lat="48.92656" lon="1.07502">
        <ele>204</ele>
        <time>2014-05-29T10:05:36.000Z</time>
      </trkpt>
      <trkpt lat="48.92647" lon="1.07509">
        <ele>205</ele>
        <time>2014-05-29T10:05:38.000Z</time>
      </trkpt>
      <trkpt lat="48.92637" lon="1.07517">
        <ele>205</ele>
        <time>2014-05-29T10:05:40.000Z</time>
      </trkpt>
      <trkpt lat="48.92628" lon="1.07523">
        <ele>205</ele>
        <time>2014-05-29T10:05:42.000Z</time>
      </trkpt>
      <trkpt lat="48.9262" lon="1.0753">
        <ele>206</ele>
        <time>2014-05-29T10:05:44.000Z</time>
      </trkpt>
      <trkpt lat="48.92613" lon="1.07536">
        <ele>206</ele>
        <time>2014-05-29T10:05:46.000Z</time>
      </trkpt>
      <trkpt lat="48.92613" lon="1.07536">
        <ele>206</ele>
        <time>2014-05-29T10:05:48.000Z</time>
      </trkpt>
      <trkpt lat="48.926" lon="1.07543">
        <ele>207</ele>
        <time>2014-05-29T10:05:50.000Z</time>
      </trkpt>
      <trkpt lat="48.92593" lon="1.07546">
        <ele>207</ele>
        <time>2014-05-29T10:05:52.000Z</time>
      </trkpt>
      <trkpt lat="48.92586" lon="1.07551">
        <ele>209</ele>
        <time>2014-05-29T10:05:54.000Z</time>
      </trkpt>
      <trkpt lat="48.9258" lon="1.07555">
        <ele>210</ele>
        <time>2014-05-29T10:05:56.000Z</time>
      </trkpt>
      <trkpt lat="48.92572" lon="1.07562">
        <ele>210</ele>
        <time>2014-05-29T10:05:58.000Z</time>
      </trkpt>
      <trkpt lat="48.92566" lon="1.07566">
        <ele>210</ele>
        <time>2014-05-29T10:06:00.000Z</time>
      </trkpt>
      <trkpt lat="48.92559" lon="1.07569">
        <ele>210</ele>
        <time>2014-05-29T10:06:02.000Z</time>
      </trkpt>
      <trkpt lat="48.92553" lon="1.07572">
        <ele>211</ele>
        <time>2014-05-29T10:06:04.000Z</time>
      </trkpt>
      <trkpt lat="48.92545" lon="1.07575">
        <ele>210</ele>
        <time>2014-05-29T10:06:06.000Z</time>
      </trkpt>
      <trkpt lat="48.92525" lon="1.07581">
        <ele>201</ele>
        <time>2014-05-29T10:06:13.000Z</time>
      </trkpt>
      <trkpt lat="48.92509" lon="1.07582">
        <ele>201</ele>
        <time>2014-05-29T10:06:17.000Z</time>
      </trkpt>
      <trkpt lat="48.92496" lon="1.07582">
        <ele>200</ele>
        <time>2014-05-29T10:06:19.000Z</time>
      </trkpt>
      <trkpt lat="48.92487" lon="1.07582">
        <ele>200</ele>
        <time>2014-05-29T10:06:21.000Z</time>
      </trkpt>
      <trkpt lat="48.92479" lon="1.07582">
        <ele>200</ele>
        <time>2014-05-29T10:06:23.000Z</time>
      </trkpt>
      <trkpt lat="48.92465" lon="1.07584">
        <ele>200</ele>
        <time>2014-05-29T10:06:25.000Z</time>
      </trkpt>
      <trkpt lat="48.92457" lon="1.07584">
        <ele>200</ele>
        <time>2014-05-29T10:06:27.000Z</time>
      </trkpt>
      <trkpt lat="48.92449" lon="1.07587">
        <ele>200</ele>
        <time>2014-05-29T10:06:29.000Z</time>
      </trkpt>
      <trkpt lat="48.92442" lon="1.07589">
        <ele>199</ele>
        <time>2014-05-29T10:06:31.000Z</time>
      </trkpt>
      <trkpt lat="48.92435" lon="1.07591">
        <ele>199</ele>
        <time>2014-05-29T10:06:33.000Z</time>
      </trkpt>
      <trkpt lat="48.92429" lon="1.07594">
        <ele>199</ele>
        <time>2014-05-29T10:06:35.000Z</time>
      </trkpt>
      <trkpt lat="48.92423" lon="1.07597">
        <ele>199</ele>
        <time>2014-05-29T10:06:37.000Z</time>
      </trkpt>
      <trkpt lat="48.92417" lon="1.076">
        <ele>199</ele>
        <time>2014-05-29T10:06:39.000Z</time>
      </trkpt>
      <trkpt lat="48.9241" lon="1.07603">
        <ele>199</ele>
        <time>2014-05-29T10:06:41.000Z</time>
      </trkpt>
      <trkpt lat="48.92403" lon="1.07606">
        <ele>199</ele>
        <time>2014-05-29T10:06:43.000Z</time>
      </trkpt>
      <trkpt lat="48.92396" lon="1.07607">
        <ele>199</ele>
        <time>2014-05-29T10:06:45.000Z</time>
      </trkpt>
      <trkpt lat="48.9239" lon="1.07608">
        <ele>199</ele>
        <time>2014-05-29T10:06:47.000Z</time>
      </trkpt>
      <trkpt lat="48.92384" lon="1.07609">
        <ele>199</ele>
        <time>2014-05-29T10:06:49.000Z</time>
      </trkpt>
      <trkpt lat="48.92378" lon="1.07609">
        <ele>200</ele>
        <time>2014-05-29T10:06:51.000Z</time>
      </trkpt>
      <trkpt lat="48.92372" lon="1.07608">
        <ele>200</ele>
        <time>2014-05-29T10:06:53.000Z</time>
      </trkpt>
      <trkpt lat="48.92365" lon="1.07607">
        <ele>200</ele>
        <time>2014-05-29T10:06:56.000Z</time>
      </trkpt>
      <trkpt lat="48.92358" lon="1.07606">
        <ele>200</ele>
        <time>2014-05-29T10:06:57.000Z</time>
      </trkpt>
      <trkpt lat="48.92352" lon="1.07604">
        <ele>200</ele>
        <time>2014-05-29T10:06:59.000Z</time>
      </trkpt>
      <trkpt lat="48.92346" lon="1.07601">
        <ele>200</ele>
        <time>2014-05-29T10:07:01.000Z</time>
      </trkpt>
      <trkpt lat="48.9234" lon="1.07603">
        <ele>200</ele>
        <time>2014-05-29T10:07:03.000Z</time>
      </trkpt>
      <trkpt lat="48.92336" lon="1.07609">
        <ele>201</ele>
        <time>2014-05-29T10:07:05.000Z</time>
      </trkpt>
      <trkpt lat="48.92331" lon="1.07615">
        <ele>201</ele>
        <time>2014-05-29T10:07:07.000Z</time>
      </trkpt>
      <trkpt lat="48.92323" lon="1.07621">
        <ele>202</ele>
        <time>2014-05-29T10:07:09.000Z</time>
      </trkpt>
      <trkpt lat="48.92316" lon="1.07627">
        <ele>204</ele>
        <time>2014-05-29T10:07:11.000Z</time>
      </trkpt>
      <trkpt lat="48.92307" lon="1.07633">
        <ele>204</ele>
        <time>2014-05-29T10:07:13.000Z</time>
      </trkpt>
      <trkpt lat="48.923" lon="1.07641">
        <ele>205</ele>
        <time>2014-05-29T10:07:15.000Z</time>
      </trkpt>
      <trkpt lat="48.92294" lon="1.07647">
        <ele>205</ele>
        <time>2014-05-29T10:07:17.000Z</time>
      </trkpt>
      <trkpt lat="48.92287" lon="1.07656">
        <ele>205</ele>
        <time>2014-05-29T10:07:19.000Z</time>
      </trkpt>
      <trkpt lat="48.92279" lon="1.07666">
        <ele>206</ele>
        <time>2014-05-29T10:07:21.000Z</time>
      </trkpt>
      <trkpt lat="48.92271" lon="1.07675">
        <ele>206</ele>
        <time>2014-05-29T10:07:23.000Z</time>
      </trkpt>
      <trkpt lat="48.92264" lon="1.07682">
        <ele>206</ele>
        <time>2014-05-29T10:07:25.000Z</time>
      </trkpt>
      <trkpt lat="48.92256" lon="1.07688">
        <ele>206</ele>
        <time>2014-05-29T10:07:27.000Z</time>
      </trkpt>
      <trkpt lat="48.92248" lon="1.07695">
        <ele>206</ele>
        <time>2014-05-29T10:07:29.000Z</time>
      </trkpt>
      <trkpt lat="48.9224" lon="1.07702">
        <ele>207</ele>
        <time>2014-05-29T10:07:31.000Z</time>
      </trkpt>
      <trkpt lat="48.92234" lon="1.07712">
        <ele>207</ele>
        <time>2014-05-29T10:07:33.000Z</time>
      </trkpt>
      <trkpt lat="48.92228" lon="1.07725">
        <ele>207</ele>
        <time>2014-05-29T10:07:35.000Z</time>
      </trkpt>
      <trkpt lat="48.92224" lon="1.07739">
        <ele>207</ele>
        <time>2014-05-29T10:07:37.000Z</time>
      </trkpt>
      <trkpt lat="48.92219" lon="1.07751">
        <ele>208</ele>
        <time>2014-05-29T10:07:39.000Z</time>
      </trkpt>
      <trkpt lat="48.92215" lon="1.07762">
        <ele>208</ele>
        <time>2014-05-29T10:07:41.000Z</time>
      </trkpt>
      <trkpt lat="48.92212" lon="1.07774">
        <ele>208</ele>
        <time>2014-05-29T10:07:43.000Z</time>
      </trkpt>
      <trkpt lat="48.92207" lon="1.07785">
        <ele>208</ele>
        <time>2014-05-29T10:07:45.000Z</time>
      </trkpt>
      <trkpt lat="48.92203" lon="1.07795">
        <ele>207</ele>
        <time>2014-05-29T10:07:47.000Z</time>
      </trkpt>
      <trkpt lat="48.92199" lon="1.07806">
        <ele>207</ele>
        <time>2014-05-29T10:07:49.000Z</time>
      </trkpt>
      <trkpt lat="48.92195" lon="1.07819">
        <ele>207</ele>
        <time>2014-05-29T10:07:51.000Z</time>
      </trkpt>
      <trkpt lat="48.92192" lon="1.07829">
        <ele>207</ele>
        <time>2014-05-29T10:07:53.000Z</time>
      </trkpt>
      <trkpt lat="48.92187" lon="1.07833">
        <ele>207</ele>
        <time>2014-05-29T10:07:55.000Z</time>
      </trkpt>
      <trkpt lat="48.92178" lon="1.07827">
        <ele>206</ele>
        <time>2014-05-29T10:07:59.000Z</time>
      </trkpt>
      <trkpt lat="48.92168" lon="1.07821">
        <ele>205</ele>
        <time>2014-05-29T10:08:03.000Z</time>
      </trkpt>
      <trkpt lat="48.92168" lon="1.07821">
        <ele>205</ele>
        <time>2014-05-29T10:08:05.000Z</time>
      </trkpt>
      <trkpt lat="48.92158" lon="1.07815">
        <ele>204</ele>
        <time>2014-05-29T10:08:07.000Z</time>
      </trkpt>
      <trkpt lat="48.92158" lon="1.07815">
        <ele>204</ele>
        <time>2014-05-29T10:08:09.000Z</time>
      </trkpt>
      <trkpt lat="48.92149" lon="1.07806">
        <ele>204</ele>
        <time>2014-05-29T10:08:11.000Z</time>
      </trkpt>
      <trkpt lat="48.92149" lon="1.07806">
        <ele>204</ele>
        <time>2014-05-29T10:08:13.000Z</time>
      </trkpt>
      <trkpt lat="48.92141" lon="1.07801">
        <ele>204</ele>
        <time>2014-05-29T10:08:15.000Z</time>
      </trkpt>
      <trkpt lat="48.92133" lon="1.07798">
        <ele>204</ele>
        <time>2014-05-29T10:08:19.000Z</time>
      </trkpt>
      <trkpt lat="48.92122" lon="1.07792">
        <ele>205</ele>
        <time>2014-05-29T10:08:23.000Z</time>
      </trkpt>
      <trkpt lat="48.92115" lon="1.07783">
        <ele>206</ele>
        <time>2014-05-29T10:08:27.000Z</time>
      </trkpt>
      <trkpt lat="48.92115" lon="1.07783">
        <ele>206</ele>
        <time>2014-05-29T10:08:29.000Z</time>
      </trkpt>
      <trkpt lat="48.92108" lon="1.07777">
        <ele>207</ele>
        <time>2014-05-29T10:08:31.000Z</time>
      </trkpt>
      <trkpt lat="48.92108" lon="1.07777">
        <ele>207</ele>
        <time>2014-05-29T10:08:33.000Z</time>
      </trkpt>
      <trkpt lat="48.92098" lon="1.07772">
        <ele>207</ele>
        <time>2014-05-29T10:08:35.000Z</time>
      </trkpt>
      <trkpt lat="48.92091" lon="1.07769">
        <ele>208</ele>
        <time>2014-05-29T10:08:37.000Z</time>
      </trkpt>
      <trkpt lat="48.92085" lon="1.07763">
        <ele>208</ele>
        <time>2014-05-29T10:08:39.000Z</time>
      </trkpt>
      <trkpt lat="48.92079" lon="1.07758">
        <ele>208</ele>
        <time>2014-05-29T10:08:41.000Z</time>
      </trkpt>
      <trkpt lat="48.9207" lon="1.07753">
        <ele>209</ele>
        <time>2014-05-29T10:08:43.000Z</time>
      </trkpt>
      <trkpt lat="48.9207" lon="1.07753">
        <ele>209</ele>
        <time>2014-05-29T10:08:45.000Z</time>
      </trkpt>
      <trkpt lat="48.92061" lon="1.07742">
        <ele>210</ele>
        <time>2014-05-29T10:08:47.000Z</time>
      </trkpt>
      <trkpt lat="48.92055" lon="1.07736">
        <ele>210</ele>
        <time>2014-05-29T10:08:49.000Z</time>
      </trkpt>
      <trkpt lat="48.92049" lon="1.07731">
        <ele>210</ele>
        <time>2014-05-29T10:08:51.000Z</time>
      </trkpt>
      <trkpt lat="48.92044" lon="1.07725">
        <ele>210</ele>
        <time>2014-05-29T10:08:53.000Z</time>
      </trkpt>
      <trkpt lat="48.92037" lon="1.0772">
        <ele>211</ele>
        <time>2014-05-29T10:08:55.000Z</time>
      </trkpt>
      <trkpt lat="48.92031" lon="1.07717">
        <ele>211</ele>
        <time>2014-05-29T10:08:57.000Z</time>
      </trkpt>
      <trkpt lat="48.92025" lon="1.07713">
        <ele>212</ele>
        <time>2014-05-29T10:08:59.000Z</time>
      </trkpt>
      <trkpt lat="48.92019" lon="1.07711">
        <ele>212</ele>
        <time>2014-05-29T10:09:01.000Z</time>
      </trkpt>
      <trkpt lat="48.92019" lon="1.07711">
        <ele>212</ele>
        <time>2014-05-29T10:09:03.000Z</time>
      </trkpt>
      <trkpt lat="48.92008" lon="1.07705">
        <ele>212</ele>
        <time>2014-05-29T10:09:05.000Z</time>
      </trkpt>
      <trkpt lat="48.92001" lon="1.07703">
        <ele>213</ele>
        <time>2014-05-29T10:09:07.000Z</time>
      </trkpt>
      <trkpt lat="48.91994" lon="1.07701">
        <ele>213</ele>
        <time>2014-05-29T10:09:09.000Z</time>
      </trkpt>
      <trkpt lat="48.91986" lon="1.07698">
        <ele>213</ele>
        <time>2014-05-29T10:09:11.000Z</time>
      </trkpt>
      <trkpt lat="48.91977" lon="1.07694">
        <ele>214</ele>
        <time>2014-05-29T10:09:13.000Z</time>
      </trkpt>
      <trkpt lat="48.91967" lon="1.07691">
        <ele>214</ele>
        <time>2014-05-29T10:09:15.000Z</time>
      </trkpt>
      <trkpt lat="48.91959" lon="1.07689">
        <ele>214</ele>
        <time>2014-05-29T10:09:17.000Z</time>
      </trkpt>
      <trkpt lat="48.91951" lon="1.07686">
        <ele>214</ele>
        <time>2014-05-29T10:09:19.000Z</time>
      </trkpt>
      <trkpt lat="48.91942" lon="1.07682">
        <ele>215</ele>
        <time>2014-05-29T10:09:21.000Z</time>
      </trkpt>
      <trkpt lat="48.91933" lon="1.0768">
        <ele>215</ele>
        <time>2014-05-29T10:09:23.000Z</time>
      </trkpt>
      <trkpt lat="48.91924" lon="1.07676">
        <ele>215</ele>
        <time>2014-05-29T10:09:25.000Z</time>
      </trkpt>
      <trkpt lat="48.91917" lon="1.07672">
        <ele>215</ele>
        <time>2014-05-29T10:09:27.000Z</time>
      </trkpt>
      <trkpt lat="48.91909" lon="1.07668">
        <ele>215</ele>
        <time>2014-05-29T10:09:29.000Z</time>
      </trkpt>
      <trkpt lat="48.91902" lon="1.07665">
        <ele>216</ele>
        <time>2014-05-29T10:09:31.000Z</time>
      </trkpt>
      <trkpt lat="48.91894" lon="1.07662">
        <ele>216</ele>
        <time>2014-05-29T10:09:33.000Z</time>
      </trkpt>
      <trkpt lat="48.91883" lon="1.07661">
        <ele>216</ele>
        <time>2014-05-29T10:09:35.000Z</time>
      </trkpt>
      <trkpt lat="48.9187" lon="1.07661">
        <ele>216</ele>
        <time>2014-05-29T10:09:37.000Z</time>
      </trkpt>
      <trkpt lat="48.91862" lon="1.0766">
        <ele>216</ele>
        <time>2014-05-29T10:09:39.000Z</time>
      </trkpt>
      <trkpt lat="48.91851" lon="1.07659">
        <ele>215</ele>
        <time>2014-05-29T10:09:41.000Z</time>
      </trkpt>
      <trkpt lat="48.91841" lon="1.07656">
        <ele>213</ele>
        <time>2014-05-29T10:09:43.000Z</time>
      </trkpt>
      <trkpt lat="48.9183" lon="1.07656">
        <ele>213</ele>
        <time>2014-05-29T10:09:45.000Z</time>
      </trkpt>
      <trkpt lat="48.91821" lon="1.07656">
        <ele>212</ele>
        <time>2014-05-29T10:09:47.000Z</time>
      </trkpt>
      <trkpt lat="48.91809" lon="1.07657">
        <ele>211</ele>
        <time>2014-05-29T10:09:49.000Z</time>
      </trkpt>
      <trkpt lat="48.91795" lon="1.0766">
        <ele>210</ele>
        <time>2014-05-29T10:09:51.000Z</time>
      </trkpt>
      <trkpt lat="48.91782" lon="1.07662">
        <ele>208</ele>
        <time>2014-05-29T10:09:53.000Z</time>
      </trkpt>
      <trkpt lat="48.9177" lon="1.07662">
        <ele>205</ele>
        <time>2014-05-29T10:09:55.000Z</time>
      </trkpt>
      <trkpt lat="48.91759" lon="1.07662">
        <ele>204</ele>
        <time>2014-05-29T10:09:57.000Z</time>
      </trkpt>
      <trkpt lat="48.91749" lon="1.07664">
        <ele>203</ele>
        <time>2014-05-29T10:09:59.000Z</time>
      </trkpt>
      <trkpt lat="48.91739" lon="1.07666">
        <ele>204</ele>
        <time>2014-05-29T10:10:01.000Z</time>
      </trkpt>
      <trkpt lat="48.91729" lon="1.07668">
        <ele>204</ele>
        <time>2014-05-29T10:10:03.000Z</time>
      </trkpt>
      <trkpt lat="48.91718" lon="1.07667">
        <ele>203</ele>
        <time>2014-05-29T10:10:05.000Z</time>
      </trkpt>
      <trkpt lat="48.91708" lon="1.07668">
        <ele>203</ele>
        <time>2014-05-29T10:10:07.000Z</time>
      </trkpt>
      <trkpt lat="48.91698" lon="1.07667">
        <ele>204</ele>
        <time>2014-05-29T10:10:09.000Z</time>
      </trkpt>
      <trkpt lat="48.91685" lon="1.07668">
        <ele>204</ele>
        <time>2014-05-29T10:10:11.000Z</time>
      </trkpt>
      <trkpt lat="48.91673" lon="1.07671">
        <ele>204</ele>
        <time>2014-05-29T10:10:13.000Z</time>
      </trkpt>
      <trkpt lat="48.9166" lon="1.07673">
        <ele>204</ele>
        <time>2014-05-29T10:10:15.000Z</time>
      </trkpt>
      <trkpt lat="48.91649" lon="1.07675">
        <ele>204</ele>
        <time>2014-05-29T10:10:17.000Z</time>
      </trkpt>
      <trkpt lat="48.91639" lon="1.07676">
        <ele>204</ele>
        <time>2014-05-29T10:10:19.000Z</time>
      </trkpt>
      <trkpt lat="48.91629" lon="1.07677">
        <ele>204</ele>
        <time>2014-05-29T10:10:21.000Z</time>
      </trkpt>
      <trkpt lat="48.91618" lon="1.07678">
        <ele>204</ele>
        <time>2014-05-29T10:10:23.000Z</time>
      </trkpt>
      <trkpt lat="48.91605" lon="1.07679">
        <ele>204</ele>
        <time>2014-05-29T10:10:25.000Z</time>
      </trkpt>
      <trkpt lat="48.91594" lon="1.07681">
        <ele>204</ele>
        <time>2014-05-29T10:10:27.000Z</time>
      </trkpt>
      <trkpt lat="48.91582" lon="1.07681">
        <ele>205</ele>
        <time>2014-05-29T10:10:29.000Z</time>
      </trkpt>
      <trkpt lat="48.9157" lon="1.07682">
        <ele>206</ele>
        <time>2014-05-29T10:10:31.000Z</time>
      </trkpt>
      <trkpt lat="48.91557" lon="1.07682">
        <ele>209</ele>
        <time>2014-05-29T10:10:33.000Z</time>
      </trkpt>
      <trkpt lat="48.91543" lon="1.07682">
        <ele>209</ele>
        <time>2014-05-29T10:10:35.000Z</time>
      </trkpt>
      <trkpt lat="48.91528" lon="1.07684">
        <ele>211</ele>
        <time>2014-05-29T10:10:37.000Z</time>
      </trkpt>
      <trkpt lat="48.9151" lon="1.0769">
        <ele>211</ele>
        <time>2014-05-29T10:10:39.000Z</time>
      </trkpt>
      <trkpt lat="48.91492" lon="1.07687">
        <ele>211</ele>
        <time>2014-05-29T10:10:41.000Z</time>
      </trkpt>
      <trkpt lat="48.91474" lon="1.07693">
        <ele>209</ele>
        <time>2014-05-29T10:10:43.000Z</time>
      </trkpt>
      <trkpt lat="48.91463" lon="1.0771">
        <ele>205</ele>
        <time>2014-05-29T10:10:45.000Z</time>
      </trkpt>
      <trkpt lat="48.91457" lon="1.07729">
        <ele>201</ele>
        <time>2014-05-29T10:10:47.000Z</time>
      </trkpt>
      <trkpt lat="48.91452" lon="1.07746">
        <ele>197</ele>
        <time>2014-05-29T10:10:49.000Z</time>
      </trkpt>
      <trkpt lat="48.91449" lon="1.07762">
        <ele>194</ele>
        <time>2014-05-29T10:10:51.000Z</time>
      </trkpt>
      <trkpt lat="48.91445" lon="1.07778">
        <ele>191</ele>
        <time>2014-05-29T10:10:53.000Z</time>
      </trkpt>
      <trkpt lat="48.91442" lon="1.07793">
        <ele>190</ele>
        <time>2014-05-29T10:10:55.000Z</time>
      </trkpt>
      <trkpt lat="48.91439" lon="1.07808">
        <ele>188</ele>
        <time>2014-05-29T10:10:57.000Z</time>
      </trkpt>
      <trkpt lat="48.91436" lon="1.07822">
        <ele>187</ele>
        <time>2014-05-29T10:10:59.000Z</time>
      </trkpt>
      <trkpt lat="48.91434" lon="1.07835">
        <ele>186</ele>
        <time>2014-05-29T10:11:01.000Z</time>
      </trkpt>
      <trkpt lat="48.91431" lon="1.07847">
        <ele>185</ele>
        <time>2014-05-29T10:11:03.000Z</time>
      </trkpt>
      <trkpt lat="48.91428" lon="1.07859">
        <ele>185</ele>
        <time>2014-05-29T10:11:05.000Z</time>
      </trkpt>
      <trkpt lat="48.91424" lon="1.0787">
        <ele>185</ele>
        <time>2014-05-29T10:11:07.000Z</time>
      </trkpt>
      <trkpt lat="48.91419" lon="1.0788">
        <ele>185</ele>
        <time>2014-05-29T10:11:09.000Z</time>
      </trkpt>
      <trkpt lat="48.91414" lon="1.0789">
        <ele>186</ele>
        <time>2014-05-29T10:11:11.000Z</time>
      </trkpt>
      <trkpt lat="48.91409" lon="1.079">
        <ele>186</ele>
        <time>2014-05-29T10:11:13.000Z</time>
      </trkpt>
      <trkpt lat="48.91403" lon="1.07912">
        <ele>186</ele>
        <time>2014-05-29T10:11:15.000Z</time>
      </trkpt>
      <trkpt lat="48.91397" lon="1.07923">
        <ele>187</ele>
        <time>2014-05-29T10:11:17.000Z</time>
      </trkpt>
      <trkpt lat="48.91391" lon="1.07934">
        <ele>188</ele>
        <time>2014-05-29T10:11:19.000Z</time>
      </trkpt>
      <trkpt lat="48.91386" lon="1.07946">
        <ele>187</ele>
        <time>2014-05-29T10:11:21.000Z</time>
      </trkpt>
      <trkpt lat="48.91381" lon="1.07955">
        <ele>186</ele>
        <time>2014-05-29T10:11:23.000Z</time>
      </trkpt>
      <trkpt lat="48.91376" lon="1.07966">
        <ele>185</ele>
        <time>2014-05-29T10:11:25.000Z</time>
      </trkpt>
      <trkpt lat="48.91369" lon="1.07979">
        <ele>186</ele>
        <time>2014-05-29T10:11:27.000Z</time>
      </trkpt>
      <trkpt lat="48.91363" lon="1.07991">
        <ele>187</ele>
        <time>2014-05-29T10:11:29.000Z</time>
      </trkpt>
      <trkpt lat="48.91357" lon="1.08004">
        <ele>187</ele>
        <time>2014-05-29T10:11:31.000Z</time>
      </trkpt>
      <trkpt lat="48.9135" lon="1.08016">
        <ele>186</ele>
        <time>2014-05-29T10:11:33.000Z</time>
      </trkpt>
      <trkpt lat="48.91343" lon="1.08028">
        <ele>186</ele>
        <time>2014-05-29T10:11:35.000Z</time>
      </trkpt>
      <trkpt lat="48.91336" lon="1.08042">
        <ele>186</ele>
        <time>2014-05-29T10:11:37.000Z</time>
      </trkpt>
      <trkpt lat="48.91328" lon="1.08055">
        <ele>186</ele>
        <time>2014-05-29T10:11:39.000Z</time>
      </trkpt>
      <trkpt lat="48.9132" lon="1.08069">
        <ele>186</ele>
        <time>2014-05-29T10:11:41.000Z</time>
      </trkpt>
      <trkpt lat="48.91313" lon="1.08085">
        <ele>186</ele>
        <time>2014-05-29T10:11:43.000Z</time>
      </trkpt>
      <trkpt lat="48.91306" lon="1.08101">
        <ele>186</ele>
        <time>2014-05-29T10:11:45.000Z</time>
      </trkpt>
      <trkpt lat="48.91301" lon="1.08113">
        <ele>185</ele>
        <time>2014-05-29T10:11:47.000Z</time>
      </trkpt>
      <trkpt lat="48.91296" lon="1.08125">
        <ele>185</ele>
        <time>2014-05-29T10:11:49.000Z</time>
      </trkpt>
      <trkpt lat="48.91288" lon="1.08138">
        <ele>185</ele>
        <time>2014-05-29T10:11:51.000Z</time>
      </trkpt>
      <trkpt lat="48.91283" lon="1.0815">
        <ele>184</ele>
        <time>2014-05-29T10:11:53.000Z</time>
      </trkpt>
      <trkpt lat="48.91278" lon="1.08161">
        <ele>185</ele>
        <time>2014-05-29T10:11:55.000Z</time>
      </trkpt>
      <trkpt lat="48.91274" lon="1.08169">
        <ele>185</ele>
        <time>2014-05-29T10:11:57.000Z</time>
      </trkpt>
      <trkpt lat="48.91269" lon="1.08177">
        <ele>185</ele>
        <time>2014-05-29T10:11:59.000Z</time>
      </trkpt>
      <trkpt lat="48.91265" lon="1.08186">
        <ele>185</ele>
        <time>2014-05-29T10:12:01.000Z</time>
      </trkpt>
      <trkpt lat="48.9126" lon="1.08194">
        <ele>185</ele>
        <time>2014-05-29T10:12:03.000Z</time>
      </trkpt>
      <trkpt lat="48.91255" lon="1.08202">
        <ele>186</ele>
        <time>2014-05-29T10:12:05.000Z</time>
      </trkpt>
      <trkpt lat="48.91249" lon="1.08212">
        <ele>188</ele>
        <time>2014-05-29T10:12:07.000Z</time>
      </trkpt>
      <trkpt lat="48.91242" lon="1.08224">
        <ele>190</ele>
        <time>2014-05-29T10:12:09.000Z</time>
      </trkpt>
      <trkpt lat="48.91236" lon="1.08232">
        <ele>190</ele>
        <time>2014-05-29T10:12:11.000Z</time>
      </trkpt>
      <trkpt lat="48.9123" lon="1.08242">
        <ele>190</ele>
        <time>2014-05-29T10:12:13.000Z</time>
      </trkpt>
      <trkpt lat="48.91224" lon="1.0825">
        <ele>190</ele>
        <time>2014-05-29T10:12:15.000Z</time>
      </trkpt>
      <trkpt lat="48.91216" lon="1.08261">
        <ele>189</ele>
        <time>2014-05-29T10:12:17.000Z</time>
      </trkpt>
      <trkpt lat="48.91209" lon="1.08271">
        <ele>189</ele>
        <time>2014-05-29T10:12:19.000Z</time>
      </trkpt>
      <trkpt lat="48.912" lon="1.08282">
        <ele>189</ele>
        <time>2014-05-29T10:12:21.000Z</time>
      </trkpt>
      <trkpt lat="48.91191" lon="1.08294">
        <ele>190</ele>
        <time>2014-05-29T10:12:23.000Z</time>
      </trkpt>
      <trkpt lat="48.9118" lon="1.08307">
        <ele>192</ele>
        <time>2014-05-29T10:12:25.000Z</time>
      </trkpt>
      <trkpt lat="48.91169" lon="1.08325">
        <ele>193</ele>
        <time>2014-05-29T10:12:27.000Z</time>
      </trkpt>
      <trkpt lat="48.91159" lon="1.08344">
        <ele>194</ele>
        <time>2014-05-29T10:12:29.000Z</time>
      </trkpt>
      <trkpt lat="48.91151" lon="1.0836">
        <ele>193</ele>
        <time>2014-05-29T10:12:31.000Z</time>
      </trkpt>
      <trkpt lat="48.91144" lon="1.08375">
        <ele>192</ele>
        <time>2014-05-29T10:12:33.000Z</time>
      </trkpt>
      <trkpt lat="48.91137" lon="1.08393">
        <ele>191</ele>
        <time>2014-05-29T10:12:35.000Z</time>
      </trkpt>
      <trkpt lat="48.91131" lon="1.0841">
        <ele>190</ele>
        <time>2014-05-29T10:12:37.000Z</time>
      </trkpt>
      <trkpt lat="48.91126" lon="1.08427">
        <ele>190</ele>
        <time>2014-05-29T10:12:39.000Z</time>
      </trkpt>
      <trkpt lat="48.91122" lon="1.08443">
        <ele>189</ele>
        <time>2014-05-29T10:12:41.000Z</time>
      </trkpt>
      <trkpt lat="48.91119" lon="1.08457">
        <ele>188</ele>
        <time>2014-05-29T10:12:43.000Z</time>
      </trkpt>
      <trkpt lat="48.91116" lon="1.08473">
        <ele>189</ele>
        <time>2014-05-29T10:12:45.000Z</time>
      </trkpt>
      <trkpt lat="48.91111" lon="1.08489">
        <ele>189</ele>
        <time>2014-05-29T10:12:47.000Z</time>
      </trkpt>
      <trkpt lat="48.91108" lon="1.08507">
        <ele>189</ele>
        <time>2014-05-29T10:12:49.000Z</time>
      </trkpt>
      <trkpt lat="48.91104" lon="1.08524">
        <ele>189</ele>
        <time>2014-05-29T10:12:51.000Z</time>
      </trkpt>
      <trkpt lat="48.911" lon="1.08538">
        <ele>188</ele>
        <time>2014-05-29T10:12:53.000Z</time>
      </trkpt>
      <trkpt lat="48.91095" lon="1.08549">
        <ele>187</ele>
        <time>2014-05-29T10:12:55.000Z</time>
      </trkpt>
      <trkpt lat="48.91092" lon="1.08557">
        <ele>187</ele>
        <time>2014-05-29T10:12:57.000Z</time>
      </trkpt>
      <trkpt lat="48.91089" lon="1.08566">
        <ele>187</ele>
        <time>2014-05-29T10:12:59.000Z</time>
      </trkpt>
      <trkpt lat="48.91089" lon="1.08566">
        <ele>187</ele>
        <time>2014-05-29T10:13:01.000Z</time>
      </trkpt>
      <trkpt lat="48.91086" lon="1.0858">
        <ele>187</ele>
        <time>2014-05-29T10:13:03.000Z</time>
      </trkpt>
      <trkpt lat="48.91086" lon="1.0858">
        <ele>187</ele>
        <time>2014-05-29T10:13:05.000Z</time>
      </trkpt>
      <trkpt lat="48.91081" lon="1.08597">
        <ele>187</ele>
        <time>2014-05-29T10:13:07.000Z</time>
      </trkpt>
      <trkpt lat="48.9108" lon="1.08606">
        <ele>187</ele>
        <time>2014-05-29T10:13:09.000Z</time>
      </trkpt>
      <trkpt lat="48.91078" lon="1.08615">
        <ele>187</ele>
        <time>2014-05-29T10:13:11.000Z</time>
      </trkpt>
      <trkpt lat="48.91076" lon="1.08624">
        <ele>187</ele>
        <time>2014-05-29T10:13:13.000Z</time>
      </trkpt>
      <trkpt lat="48.91076" lon="1.08624">
        <ele>187</ele>
        <time>2014-05-29T10:13:15.000Z</time>
      </trkpt>
      <trkpt lat="48.91071" lon="1.0864">
        <ele>187</ele>
        <time>2014-05-29T10:13:17.000Z</time>
      </trkpt>
      <trkpt lat="48.91066" lon="1.08651">
        <ele>188</ele>
        <time>2014-05-29T10:13:19.000Z</time>
      </trkpt>
      <trkpt lat="48.91061" lon="1.08663">
        <ele>188</ele>
        <time>2014-05-29T10:13:21.000Z</time>
      </trkpt>
      <trkpt lat="48.91056" lon="1.08675">
        <ele>188</ele>
        <time>2014-05-29T10:13:23.000Z</time>
      </trkpt>
      <trkpt lat="48.91052" lon="1.08685">
        <ele>188</ele>
        <time>2014-05-29T10:13:25.000Z</time>
      </trkpt>
      <trkpt lat="48.91049" lon="1.08692">
        <ele>187</ele>
        <time>2014-05-29T10:13:27.000Z</time>
      </trkpt>
      <trkpt lat="48.91049" lon="1.08692">
        <ele>187</ele>
        <time>2014-05-29T10:13:29.000Z</time>
      </trkpt>
      <trkpt lat="48.91043" lon="1.08707">
        <ele>187</ele>
        <time>2014-05-29T10:13:31.000Z</time>
      </trkpt>
      <trkpt lat="48.91043" lon="1.08707">
        <ele>187</ele>
        <time>2014-05-29T10:13:33.000Z</time>
      </trkpt>
      <trkpt lat="48.9104" lon="1.08718">
        <ele>187</ele>
        <time>2014-05-29T10:13:35.000Z</time>
      </trkpt>
      <trkpt lat="48.9104" lon="1.08718">
        <ele>187</ele>
        <time>2014-05-29T10:13:37.000Z</time>
      </trkpt>
      <trkpt lat="48.91038" lon="1.08727">
        <ele>188</ele>
        <time>2014-05-29T10:13:39.000Z</time>
      </trkpt>
      <trkpt lat="48.91038" lon="1.08727">
        <ele>188</ele>
        <time>2014-05-29T10:13:41.000Z</time>
      </trkpt>
      <trkpt lat="48.91035" lon="1.08737">
        <ele>188</ele>
        <time>2014-05-29T10:13:43.000Z</time>
      </trkpt>
      <trkpt lat="48.91035" lon="1.08737">
        <ele>188</ele>
        <time>2014-05-29T10:13:45.000Z</time>
      </trkpt>
      <trkpt lat="48.91033" lon="1.08748">
        <ele>188</ele>
        <time>2014-05-29T10:13:47.000Z</time>
      </trkpt>
      <trkpt lat="48.91033" lon="1.08748">
        <ele>188</ele>
        <time>2014-05-29T10:13:49.000Z</time>
      </trkpt>
      <trkpt lat="48.91031" lon="1.08759">
        <ele>189</ele>
        <time>2014-05-29T10:13:51.000Z</time>
      </trkpt>
      <trkpt lat="48.91031" lon="1.08759">
        <ele>189</ele>
        <time>2014-05-29T10:13:53.000Z</time>
      </trkpt>
      <trkpt lat="48.9103" lon="1.08768">
        <ele>189</ele>
        <time>2014-05-29T10:13:55.000Z</time>
      </trkpt>
      <trkpt lat="48.9103" lon="1.08768">
        <ele>189</ele>
        <time>2014-05-29T10:13:57.000Z</time>
      </trkpt>
      <trkpt lat="48.91028" lon="1.08777">
        <ele>190</ele>
        <time>2014-05-29T10:13:59.000Z</time>
      </trkpt>
      <trkpt lat="48.91026" lon="1.08788">
        <ele>190</ele>
        <time>2014-05-29T10:14:03.000Z</time>
      </trkpt>
      <trkpt lat="48.91023" lon="1.088">
        <ele>189</ele>
        <time>2014-05-29T10:14:07.000Z</time>
      </trkpt>
      <trkpt lat="48.91021" lon="1.0881">
        <ele>190</ele>
        <time>2014-05-29T10:14:11.000Z</time>
      </trkpt>
      <trkpt lat="48.91021" lon="1.0881">
        <ele>190</ele>
        <time>2014-05-29T10:14:13.000Z</time>
      </trkpt>
      <trkpt lat="48.91021" lon="1.0881">
        <ele>190</ele>
        <time>2014-05-29T10:14:15.000Z</time>
      </trkpt>
      <trkpt lat="48.91022" lon="1.08823">
        <ele>190</ele>
        <time>2014-05-29T10:14:17.000Z</time>
      </trkpt>
      <trkpt lat="48.91022" lon="1.08836">
        <ele>191</ele>
        <time>2014-05-29T10:14:21.000Z</time>
      </trkpt>
      <trkpt lat="48.91022" lon="1.08836">
        <ele>191</ele>
        <time>2014-05-29T10:14:23.000Z</time>
      </trkpt>
      <trkpt lat="48.91022" lon="1.0884">
        <ele>191</ele>
        <time>2014-05-29T10:14:25.000Z</time>
      </trkpt>
      <trkpt lat="48.91022" lon="1.08845">
        <ele>191</ele>
        <time>2014-05-29T10:14:27.000Z</time>
      </trkpt>
      <trkpt lat="48.91021" lon="1.08849">
        <ele>191</ele>
        <time>2014-05-29T10:14:29.000Z</time>
      </trkpt>
      <trkpt lat="48.91021" lon="1.08854">
        <ele>192</ele>
        <time>2014-05-29T10:14:31.000Z</time>
      </trkpt>
      <trkpt lat="48.9102" lon="1.0886">
        <ele>192</ele>
        <time>2014-05-29T10:14:33.000Z</time>
      </trkpt>
      <trkpt lat="48.91017" lon="1.08873">
        <ele>192</ele>
        <time>2014-05-29T10:14:35.000Z</time>
      </trkpt>
      <trkpt lat="48.91017" lon="1.08873">
        <ele>192</ele>
        <time>2014-05-29T10:14:37.000Z</time>
      </trkpt>
      <trkpt lat="48.91012" lon="1.08893">
        <ele>193</ele>
        <time>2014-05-29T10:14:39.000Z</time>
      </trkpt>
      <trkpt lat="48.91011" lon="1.08903">
        <ele>193</ele>
        <time>2014-05-29T10:14:41.000Z</time>
      </trkpt>
      <trkpt lat="48.91009" lon="1.08911">
        <ele>193</ele>
        <time>2014-05-29T10:14:43.000Z</time>
      </trkpt>
      <trkpt lat="48.91007" lon="1.08926">
        <ele>193</ele>
        <time>2014-05-29T10:14:47.000Z</time>
      </trkpt>
      <trkpt lat="48.91005" lon="1.08938">
        <ele>193</ele>
        <time>2014-05-29T10:14:51.000Z</time>
      </trkpt>
      <trkpt lat="48.91005" lon="1.08947">
        <ele>194</ele>
        <time>2014-05-29T10:14:53.000Z</time>
      </trkpt>
      <trkpt lat="48.91003" lon="1.08956">
        <ele>194</ele>
        <time>2014-05-29T10:14:55.000Z</time>
      </trkpt>
      <trkpt lat="48.91002" lon="1.08965">
        <ele>194</ele>
        <time>2014-05-29T10:14:57.000Z</time>
      </trkpt>
      <trkpt lat="48.90998" lon="1.0898">
        <ele>194</ele>
        <time>2014-05-29T10:15:01.000Z</time>
      </trkpt>
      <trkpt lat="48.90995" lon="1.08992">
        <ele>195</ele>
        <time>2014-05-29T10:15:05.000Z</time>
      </trkpt>
      <trkpt lat="48.90989" lon="1.09007">
        <ele>195</ele>
        <time>2014-05-29T10:15:09.000Z</time>
      </trkpt>
      <trkpt lat="48.90986" lon="1.09015">
        <ele>196</ele>
        <time>2014-05-29T10:15:11.000Z</time>
      </trkpt>
      <trkpt lat="48.90983" lon="1.09023">
        <ele>196</ele>
        <time>2014-05-29T10:15:13.000Z</time>
      </trkpt>
      <trkpt lat="48.90979" lon="1.09036">
        <ele>196</ele>
        <time>2014-05-29T10:15:17.000Z</time>
      </trkpt>
      <trkpt lat="48.90979" lon="1.09036">
        <ele>196</ele>
        <time>2014-05-29T10:15:19.000Z</time>
      </trkpt>
      <trkpt lat="48.90979" lon="1.09036">
        <ele>196</ele>
        <time>2014-05-29T10:15:21.000Z</time>
      </trkpt>
      <trkpt lat="48.90978" lon="1.09052">
        <ele>197</ele>
        <time>2014-05-29T10:15:23.000Z</time>
      </trkpt>
      <trkpt lat="48.90978" lon="1.09052">
        <ele>197</ele>
        <time>2014-05-29T10:15:25.000Z</time>
      </trkpt>
      <trkpt lat="48.90975" lon="1.09069">
        <ele>197</ele>
        <time>2014-05-29T10:15:27.000Z</time>
      </trkpt>
      <trkpt lat="48.90972" lon="1.09088">
        <ele>197</ele>
        <time>2014-05-29T10:15:31.000Z</time>
      </trkpt>
      <trkpt lat="48.90971" lon="1.09099">
        <ele>198</ele>
        <time>2014-05-29T10:15:33.000Z</time>
      </trkpt>
      <trkpt lat="48.90971" lon="1.09113">
        <ele>198</ele>
        <time>2014-05-29T10:15:37.000Z</time>
      </trkpt>
      <trkpt lat="48.9097" lon="1.0913">
        <ele>198</ele>
        <time>2014-05-29T10:15:41.000Z</time>
      </trkpt>
      <trkpt lat="48.90969" lon="1.0914">
        <ele>198</ele>
        <time>2014-05-29T10:15:43.000Z</time>
      </trkpt>
      <trkpt lat="48.9097" lon="1.09159">
        <ele>199</ele>
        <time>2014-05-29T10:15:47.000Z</time>
      </trkpt>
      <trkpt lat="48.90971" lon="1.09169">
        <ele>199</ele>
        <time>2014-05-29T10:15:49.000Z</time>
      </trkpt>
      <trkpt lat="48.9097" lon="1.0918">
        <ele>200</ele>
        <time>2014-05-29T10:15:51.000Z</time>
      </trkpt>
      <trkpt lat="48.90969" lon="1.0919">
        <ele>200</ele>
        <time>2014-05-29T10:15:53.000Z</time>
      </trkpt>
      <trkpt lat="48.90969" lon="1.0919">
        <ele>200</ele>
        <time>2014-05-29T10:15:55.000Z</time>
      </trkpt>
      <trkpt lat="48.90969" lon="1.09203">
        <ele>200</ele>
        <time>2014-05-29T10:15:57.000Z</time>
      </trkpt>
      <trkpt lat="48.90969" lon="1.09203">
        <ele>200</ele>
        <time>2014-05-29T10:15:59.000Z</time>
      </trkpt>
      <trkpt lat="48.90969" lon="1.09217">
        <ele>200</ele>
        <time>2014-05-29T10:16:01.000Z</time>
      </trkpt>
      <trkpt lat="48.9097" lon="1.09226">
        <ele>200</ele>
        <time>2014-05-29T10:16:03.000Z</time>
      </trkpt>
      <trkpt lat="48.90973" lon="1.09236">
        <ele>200</ele>
        <time>2014-05-29T10:16:05.000Z</time>
      </trkpt>
      <trkpt lat="48.90974" lon="1.09247">
        <ele>201</ele>
        <time>2014-05-29T10:16:07.000Z</time>
      </trkpt>
      <trkpt lat="48.90975" lon="1.09266">
        <ele>201</ele>
        <time>2014-05-29T10:16:11.000Z</time>
      </trkpt>
      <trkpt lat="48.90976" lon="1.09275">
        <ele>202</ele>
        <time>2014-05-29T10:16:13.000Z</time>
      </trkpt>
      <trkpt lat="48.90976" lon="1.09275">
        <ele>202</ele>
        <time>2014-05-29T10:16:15.000Z</time>
      </trkpt>
      <trkpt lat="48.90977" lon="1.09291">
        <ele>202</ele>
        <time>2014-05-29T10:16:17.000Z</time>
      </trkpt>
      <trkpt lat="48.90977" lon="1.09303">
        <ele>203</ele>
        <time>2014-05-29T10:16:19.000Z</time>
      </trkpt>
      <trkpt lat="48.90977" lon="1.09314">
        <ele>203</ele>
        <time>2014-05-29T10:16:21.000Z</time>
      </trkpt>
      <trkpt lat="48.90979" lon="1.09324">
        <ele>204</ele>
        <time>2014-05-29T10:16:23.000Z</time>
      </trkpt>
      <trkpt lat="48.90979" lon="1.09334">
        <ele>204</ele>
        <time>2014-05-29T10:16:25.000Z</time>
      </trkpt>
      <trkpt lat="48.9098" lon="1.09343">
        <ele>205</ele>
        <time>2014-05-29T10:16:27.000Z</time>
      </trkpt>
      <trkpt lat="48.9098" lon="1.09343">
        <ele>205</ele>
        <time>2014-05-29T10:16:29.000Z</time>
      </trkpt>
      <trkpt lat="48.90983" lon="1.09358">
        <ele>206</ele>
        <time>2014-05-29T10:16:31.000Z</time>
      </trkpt>
      <trkpt lat="48.90984" lon="1.0937">
        <ele>206</ele>
        <time>2014-05-29T10:16:33.000Z</time>
      </trkpt>
      <trkpt lat="48.90981" lon="1.09383">
        <ele>206</ele>
        <time>2014-05-29T10:16:35.000Z</time>
      </trkpt>
      <trkpt lat="48.90979" lon="1.09393">
        <ele>207</ele>
        <time>2014-05-29T10:16:37.000Z</time>
      </trkpt>
      <trkpt lat="48.90979" lon="1.09393">
        <ele>207</ele>
        <time>2014-05-29T10:16:39.000Z</time>
      </trkpt>
      <trkpt lat="48.9098" lon="1.09409">
        <ele>207</ele>
        <time>2014-05-29T10:16:41.000Z</time>
      </trkpt>
      <trkpt lat="48.9098" lon="1.09409">
        <ele>207</ele>
        <time>2014-05-29T10:16:43.000Z</time>
      </trkpt>
      <trkpt lat="48.90982" lon="1.09423">
        <ele>207</ele>
        <time>2014-05-29T10:16:45.000Z</time>
      </trkpt>
      <trkpt lat="48.90982" lon="1.09423">
        <ele>207</ele>
        <time>2014-05-29T10:16:47.000Z</time>
      </trkpt>
      <trkpt lat="48.90987" lon="1.09438">
        <ele>208</ele>
        <time>2014-05-29T10:16:49.000Z</time>
      </trkpt>
      <trkpt lat="48.90989" lon="1.09449">
        <ele>208</ele>
        <time>2014-05-29T10:16:51.000Z</time>
      </trkpt>
      <trkpt lat="48.90989" lon="1.09449">
        <ele>208</ele>
        <time>2014-05-29T10:16:53.000Z</time>
      </trkpt>
      <trkpt lat="48.9099" lon="1.09463">
        <ele>209</ele>
        <time>2014-05-29T10:16:55.000Z</time>
      </trkpt>
      <trkpt lat="48.9099" lon="1.09463">
        <ele>209</ele>
        <time>2014-05-29T10:16:57.000Z</time>
      </trkpt>
      <trkpt lat="48.90992" lon="1.09481">
        <ele>210</ele>
        <time>2014-05-29T10:16:59.000Z</time>
      </trkpt>
      <trkpt lat="48.90992" lon="1.09481">
        <ele>210</ele>
        <time>2014-05-29T10:17:01.000Z</time>
      </trkpt>
      <trkpt lat="48.9099" lon="1.09495">
        <ele>210</ele>
        <time>2014-05-29T10:17:03.000Z</time>
      </trkpt>
      <trkpt lat="48.9099" lon="1.09495">
        <ele>210</ele>
        <time>2014-05-29T10:17:05.000Z</time>
      </trkpt>
      <trkpt lat="48.90989" lon="1.09511">
        <ele>210</ele>
        <time>2014-05-29T10:17:07.000Z</time>
      </trkpt>
      <trkpt lat="48.90988" lon="1.09521">
        <ele>210</ele>
        <time>2014-05-29T10:17:09.000Z</time>
      </trkpt>
      <trkpt lat="48.90983" lon="1.09529">
        <ele>210</ele>
        <time>2014-05-29T10:17:11.000Z</time>
      </trkpt>
      <trkpt lat="48.90983" lon="1.09529">
        <ele>210</ele>
        <time>2014-05-29T10:17:13.000Z</time>
      </trkpt>
      <trkpt lat="48.90983" lon="1.09529">
        <ele>210</ele>
        <time>2014-05-29T10:17:15.000Z</time>
      </trkpt>
      <trkpt lat="48.90974" lon="1.0952">
        <ele>210</ele>
        <time>2014-05-29T10:17:19.000Z</time>
      </trkpt>
      <trkpt lat="48.90968" lon="1.0951">
        <ele>210</ele>
        <time>2014-05-29T10:17:21.000Z</time>
      </trkpt>
      <trkpt lat="48.90962" lon="1.09501">
        <ele>210</ele>
        <time>2014-05-29T10:17:23.000Z</time>
      </trkpt>
      <trkpt lat="48.90957" lon="1.09492">
        <ele>210</ele>
        <time>2014-05-29T10:17:25.000Z</time>
      </trkpt>
      <trkpt lat="48.90952" lon="1.0948">
        <ele>210</ele>
        <time>2014-05-29T10:17:27.000Z</time>
      </trkpt>
      <trkpt lat="48.90946" lon="1.09468">
        <ele>209</ele>
        <time>2014-05-29T10:17:29.000Z</time>
      </trkpt>
      <trkpt lat="48.9094" lon="1.09454">
        <ele>209</ele>
        <time>2014-05-29T10:17:31.000Z</time>
      </trkpt>
      <trkpt lat="48.90935" lon="1.09442">
        <ele>208</ele>
        <time>2014-05-29T10:17:33.000Z</time>
      </trkpt>
      <trkpt lat="48.90929" lon="1.0943">
        <ele>208</ele>
        <time>2014-05-29T10:17:35.000Z</time>
      </trkpt>
      <trkpt lat="48.90922" lon="1.0942">
        <ele>208</ele>
        <time>2014-05-29T10:17:37.000Z</time>
      </trkpt>
      <trkpt lat="48.90916" lon="1.0941">
        <ele>207</ele>
        <time>2014-05-29T10:17:39.000Z</time>
      </trkpt>
      <trkpt lat="48.90911" lon="1.09401">
        <ele>208</ele>
        <time>2014-05-29T10:17:41.000Z</time>
      </trkpt>
      <trkpt lat="48.90905" lon="1.09394">
        <ele>208</ele>
        <time>2014-05-29T10:17:43.000Z</time>
      </trkpt>
      <trkpt lat="48.90898" lon="1.09387">
        <ele>208</ele>
        <time>2014-05-29T10:17:45.000Z</time>
      </trkpt>
      <trkpt lat="48.90891" lon="1.09377">
        <ele>208</ele>
        <time>2014-05-29T10:17:47.000Z</time>
      </trkpt>
      <trkpt lat="48.90883" lon="1.09368">
        <ele>209</ele>
        <time>2014-05-29T10:17:49.000Z</time>
      </trkpt>
      <trkpt lat="48.90877" lon="1.09363">
        <ele>210</ele>
        <time>2014-05-29T10:17:51.000Z</time>
      </trkpt>
      <trkpt lat="48.90869" lon="1.09359">
        <ele>210</ele>
        <time>2014-05-29T10:17:53.000Z</time>
      </trkpt>
      <trkpt lat="48.9086" lon="1.09356">
        <ele>210</ele>
        <time>2014-05-29T10:17:55.000Z</time>
      </trkpt>
      <trkpt lat="48.90852" lon="1.09354">
        <ele>210</ele>
        <time>2014-05-29T10:17:57.000Z</time>
      </trkpt>
      <trkpt lat="48.90843" lon="1.09354">
        <ele>210</ele>
        <time>2014-05-29T10:17:59.000Z</time>
      </trkpt>
      <trkpt lat="48.90835" lon="1.09353">
        <ele>210</ele>
        <time>2014-05-29T10:18:01.000Z</time>
      </trkpt>
      <trkpt lat="48.90829" lon="1.09349">
        <ele>209</ele>
        <time>2014-05-29T10:18:03.000Z</time>
      </trkpt>
      <trkpt lat="48.90823" lon="1.09346">
        <ele>210</ele>
        <time>2014-05-29T10:18:05.000Z</time>
      </trkpt>
      <trkpt lat="48.90816" lon="1.09342">
        <ele>210</ele>
        <time>2014-05-29T10:18:07.000Z</time>
      </trkpt>
      <trkpt lat="48.90808" lon="1.09339">
        <ele>210</ele>
        <time>2014-05-29T10:18:09.000Z</time>
      </trkpt>
      <trkpt lat="48.908" lon="1.09332">
        <ele>210</ele>
        <time>2014-05-29T10:18:11.000Z</time>
      </trkpt>
      <trkpt lat="48.90792" lon="1.09323">
        <ele>210</ele>
        <time>2014-05-29T10:18:13.000Z</time>
      </trkpt>
      <trkpt lat="48.90785" lon="1.09316">
        <ele>211</ele>
        <time>2014-05-29T10:18:15.000Z</time>
      </trkpt>
      <trkpt lat="48.90776" lon="1.09308">
        <ele>211</ele>
        <time>2014-05-29T10:18:17.000Z</time>
      </trkpt>
      <trkpt lat="48.90768" lon="1.09301">
        <ele>213</ele>
        <time>2014-05-29T10:18:19.000Z</time>
      </trkpt>
      <trkpt lat="48.9076" lon="1.09293">
        <ele>214</ele>
        <time>2014-05-29T10:18:21.000Z</time>
      </trkpt>
      <trkpt lat="48.90753" lon="1.09284">
        <ele>214</ele>
        <time>2014-05-29T10:18:23.000Z</time>
      </trkpt>
      <trkpt lat="48.90744" lon="1.09276">
        <ele>216</ele>
        <time>2014-05-29T10:18:25.000Z</time>
      </trkpt>
      <trkpt lat="48.90736" lon="1.09267">
        <ele>217</ele>
        <time>2014-05-29T10:18:27.000Z</time>
      </trkpt>
      <trkpt lat="48.90726" lon="1.09255">
        <ele>218</ele>
        <time>2014-05-29T10:18:29.000Z</time>
      </trkpt>
      <trkpt lat="48.90717" lon="1.09244">
        <ele>217</ele>
        <time>2014-05-29T10:18:31.000Z</time>
      </trkpt>
      <trkpt lat="48.90708" lon="1.09233">
        <ele>215</ele>
        <time>2014-05-29T10:18:33.000Z</time>
      </trkpt>
      <trkpt lat="48.90704" lon="1.09226">
        <ele>214</ele>
        <time>2014-05-29T10:18:35.000Z</time>
      </trkpt>
      <trkpt lat="48.90704" lon="1.09226">
        <ele>214</ele>
        <time>2014-05-29T10:18:37.000Z</time>
      </trkpt>
      <trkpt lat="48.90704" lon="1.09226">
        <ele>214</ele>
        <time>2014-05-29T10:18:39.000Z</time>
      </trkpt>
      <trkpt lat="48.90704" lon="1.09226">
        <ele>214</ele>
        <time>2014-05-29T10:18:41.000Z</time>
      </trkpt>
      <trkpt lat="48.90706" lon="1.09221">
        <ele>213</ele>
        <time>2014-05-29T10:18:43.000Z</time>
      </trkpt>
      <trkpt lat="48.9071" lon="1.09216">
        <ele>213</ele>
        <time>2014-05-29T10:18:45.000Z</time>
      </trkpt>
      <trkpt lat="48.90714" lon="1.09209">
        <ele>213</ele>
        <time>2014-05-29T10:18:47.000Z</time>
      </trkpt>
      <trkpt lat="48.90718" lon="1.09204">
        <ele>212</ele>
        <time>2014-05-29T10:18:49.000Z</time>
      </trkpt>
      <trkpt lat="48.90723" lon="1.09199">
        <ele>212</ele>
        <time>2014-05-29T10:18:51.000Z</time>
      </trkpt>
      <trkpt lat="48.90733" lon="1.09189">
        <ele>212</ele>
        <time>2014-05-29T10:18:53.000Z</time>
      </trkpt>
      <trkpt lat="48.90733" lon="1.09189">
        <ele>212</ele>
        <time>2014-05-29T10:18:55.000Z</time>
      </trkpt>
      <trkpt lat="48.90735" lon="1.09175">
        <ele>212</ele>
        <time>2014-05-29T10:18:57.000Z</time>
      </trkpt>
      <trkpt lat="48.90734" lon="1.09165">
        <ele>212</ele>
        <time>2014-05-29T10:18:59.000Z</time>
      </trkpt>
      <trkpt lat="48.90732" lon="1.09153">
        <ele>211</ele>
        <time>2014-05-29T10:19:01.000Z</time>
      </trkpt>
      <trkpt lat="48.9073" lon="1.09141">
        <ele>211</ele>
        <time>2014-05-29T10:19:03.000Z</time>
      </trkpt>
      <trkpt lat="48.90726" lon="1.09128">
        <ele>211</ele>
        <time>2014-05-29T10:19:05.000Z</time>
      </trkpt>
      <trkpt lat="48.90723" lon="1.09117">
        <ele>211</ele>
        <time>2014-05-29T10:19:07.000Z</time>
      </trkpt>
      <trkpt lat="48.9072" lon="1.09105">
        <ele>210</ele>
        <time>2014-05-29T10:19:09.000Z</time>
      </trkpt>
      <trkpt lat="48.90716" lon="1.09093">
        <ele>210</ele>
        <time>2014-05-29T10:19:11.000Z</time>
      </trkpt>
      <trkpt lat="48.90713" lon="1.09082">
        <ele>209</ele>
        <time>2014-05-29T10:19:13.000Z</time>
      </trkpt>
      <trkpt lat="48.9071" lon="1.09073">
        <ele>209</ele>
        <time>2014-05-29T10:19:15.000Z</time>
      </trkpt>
      <trkpt lat="48.90706" lon="1.09063">
        <ele>208</ele>
        <time>2014-05-29T10:19:17.000Z</time>
      </trkpt>
      <trkpt lat="48.90702" lon="1.09053">
        <ele>208</ele>
        <time>2014-05-29T10:19:19.000Z</time>
      </trkpt>
      <trkpt lat="48.90699" lon="1.09042">
        <ele>208</ele>
        <time>2014-05-29T10:19:21.000Z</time>
      </trkpt>
      <trkpt lat="48.90694" lon="1.09029">
        <ele>208</ele>
        <time>2014-05-29T10:19:23.000Z</time>
      </trkpt>
      <trkpt lat="48.90691" lon="1.09015">
        <ele>205</ele>
        <time>2014-05-29T10:19:25.000Z</time>
      </trkpt>
      <trkpt lat="48.90686" lon="1.09002">
        <ele>201</ele>
        <time>2014-05-29T10:19:27.000Z</time>
      </trkpt>
      <trkpt lat="48.90684" lon="1.08989">
        <ele>197</ele>
        <time>2014-05-29T10:19:29.000Z</time>
      </trkpt>
      <trkpt lat="48.90679" lon="1.08975">
        <ele>196</ele>
        <time>2014-05-29T10:19:31.000Z</time>
      </trkpt>
      <trkpt lat="48.90675" lon="1.08958">
        <ele>195</ele>
        <time>2014-05-29T10:19:33.000Z</time>
      </trkpt>
      <trkpt lat="48.90671" lon="1.08938">
        <ele>194</ele>
        <time>2014-05-29T10:19:35.000Z</time>
      </trkpt>
      <trkpt lat="48.90668" lon="1.08917">
        <ele>192</ele>
        <time>2014-05-29T10:19:37.000Z</time>
      </trkpt>
      <trkpt lat="48.90665" lon="1.08898">
        <ele>192</ele>
        <time>2014-05-29T10:19:39.000Z</time>
      </trkpt>
      <trkpt lat="48.90662" lon="1.08883">
        <ele>191</ele>
        <time>2014-05-29T10:19:41.000Z</time>
      </trkpt>
      <trkpt lat="48.9066" lon="1.08869">
        <ele>191</ele>
        <time>2014-05-29T10:19:43.000Z</time>
      </trkpt>
      <trkpt lat="48.90659" lon="1.08857">
        <ele>191</ele>
        <time>2014-05-29T10:19:45.000Z</time>
      </trkpt>
      <trkpt lat="48.90657" lon="1.08846">
        <ele>191</ele>
        <time>2014-05-29T10:19:47.000Z</time>
      </trkpt>
      <trkpt lat="48.90657" lon="1.08846">
        <ele>191</ele>
        <time>2014-05-29T10:19:49.000Z</time>
      </trkpt>
      <trkpt lat="48.90655" lon="1.0883">
        <ele>192</ele>
        <time>2014-05-29T10:19:51.000Z</time>
      </trkpt>
      <trkpt lat="48.90654" lon="1.0882">
        <ele>192</ele>
        <time>2014-05-29T10:19:53.000Z</time>
      </trkpt>
      <trkpt lat="48.90653" lon="1.0881">
        <ele>193</ele>
        <time>2014-05-29T10:19:55.000Z</time>
      </trkpt>
      <trkpt lat="48.90651" lon="1.08798">
        <ele>193</ele>
        <time>2014-05-29T10:19:57.000Z</time>
      </trkpt>
      <trkpt lat="48.90646" lon="1.08788">
        <ele>194</ele>
        <time>2014-05-29T10:19:59.000Z</time>
      </trkpt>
      <trkpt lat="48.90641" lon="1.08781">
        <ele>194</ele>
        <time>2014-05-29T10:20:01.000Z</time>
      </trkpt>
      <trkpt lat="48.90636" lon="1.08775">
        <ele>194</ele>
        <time>2014-05-29T10:20:03.000Z</time>
      </trkpt>
      <trkpt lat="48.9063" lon="1.08771">
        <ele>194</ele>
        <time>2014-05-29T10:20:05.000Z</time>
      </trkpt>
      <trkpt lat="48.90624" lon="1.08765">
        <ele>194</ele>
        <time>2014-05-29T10:20:07.000Z</time>
      </trkpt>
      <trkpt lat="48.90618" lon="1.0876">
        <ele>194</ele>
        <time>2014-05-29T10:20:09.000Z</time>
      </trkpt>
      <trkpt lat="48.90611" lon="1.08754">
        <ele>194</ele>
        <time>2014-05-29T10:20:11.000Z</time>
      </trkpt>
      <trkpt lat="48.90605" lon="1.08748">
        <ele>194</ele>
        <time>2014-05-29T10:20:13.000Z</time>
      </trkpt>
      <trkpt lat="48.90599" lon="1.08742">
        <ele>195</ele>
        <time>2014-05-29T10:20:15.000Z</time>
      </trkpt>
      <trkpt lat="48.90594" lon="1.08736">
        <ele>195</ele>
        <time>2014-05-29T10:20:17.000Z</time>
      </trkpt>
      <trkpt lat="48.90588" lon="1.08735">
        <ele>195</ele>
        <time>2014-05-29T10:20:19.000Z</time>
      </trkpt>
      <trkpt lat="48.90582" lon="1.08733">
        <ele>195</ele>
        <time>2014-05-29T10:20:21.000Z</time>
      </trkpt>
      <trkpt lat="48.90577" lon="1.08729">
        <ele>195</ele>
        <time>2014-05-29T10:20:23.000Z</time>
      </trkpt>
      <trkpt lat="48.90572" lon="1.08724">
        <ele>195</ele>
        <time>2014-05-29T10:20:25.000Z</time>
      </trkpt>
      <trkpt lat="48.90566" lon="1.08717">
        <ele>195</ele>
        <time>2014-05-29T10:20:27.000Z</time>
      </trkpt>
      <trkpt lat="48.90561" lon="1.0871">
        <ele>195</ele>
        <time>2014-05-29T10:20:29.000Z</time>
      </trkpt>
      <trkpt lat="48.90557" lon="1.08702">
        <ele>194</ele>
        <time>2014-05-29T10:20:31.000Z</time>
      </trkpt>
      <trkpt lat="48.90558" lon="1.08693">
        <ele>194</ele>
        <time>2014-05-29T10:20:33.000Z</time>
      </trkpt>
      <trkpt lat="48.90558" lon="1.08693">
        <ele>194</ele>
        <time>2014-05-29T10:20:35.000Z</time>
      </trkpt>
      <trkpt lat="48.90554" lon="1.08679">
        <ele>193</ele>
        <time>2014-05-29T10:20:37.000Z</time>
      </trkpt>
      <trkpt lat="48.90548" lon="1.08675">
        <ele>191</ele>
        <time>2014-05-29T10:20:39.000Z</time>
      </trkpt>
      <trkpt lat="48.90541" lon="1.08675">
        <ele>190</ele>
        <time>2014-05-29T10:20:41.000Z</time>
      </trkpt>
      <trkpt lat="48.90533" lon="1.08681">
        <ele>189</ele>
        <time>2014-05-29T10:20:43.000Z</time>
      </trkpt>
      <trkpt lat="48.90522" lon="1.08687">
        <ele>188</ele>
        <time>2014-05-29T10:20:45.000Z</time>
      </trkpt>
      <trkpt lat="48.905" lon="1.08704">
        <ele>187</ele>
        <time>2014-05-29T10:20:48.000Z</time>
      </trkpt>
      <trkpt lat="48.9049" lon="1.08723">
        <ele>186</ele>
        <time>2014-05-29T10:20:51.000Z</time>
      </trkpt>
      <trkpt lat="48.90486" lon="1.08738">
        <ele>182</ele>
        <time>2014-05-29T10:20:53.000Z</time>
      </trkpt>
      <trkpt lat="48.90484" lon="1.08751">
        <ele>182</ele>
        <time>2014-05-29T10:20:55.000Z</time>
      </trkpt>
      <trkpt lat="48.90483" lon="1.08763">
        <ele>181</ele>
        <time>2014-05-29T10:20:57.000Z</time>
      </trkpt>
      <trkpt lat="48.90482" lon="1.08774">
        <ele>181</ele>
        <time>2014-05-29T10:20:59.000Z</time>
      </trkpt>
      <trkpt lat="48.90481" lon="1.08785">
        <ele>180</ele>
        <time>2014-05-29T10:21:01.000Z</time>
      </trkpt>
      <trkpt lat="48.90479" lon="1.08797">
        <ele>180</ele>
        <time>2014-05-29T10:21:03.000Z</time>
      </trkpt>
      <trkpt lat="48.90475" lon="1.08808">
        <ele>179</ele>
        <time>2014-05-29T10:21:05.000Z</time>
      </trkpt>
      <trkpt lat="48.90472" lon="1.0882">
        <ele>177</ele>
        <time>2014-05-29T10:21:07.000Z</time>
      </trkpt>
      <trkpt lat="48.90467" lon="1.08828">
        <ele>176</ele>
        <time>2014-05-29T10:21:09.000Z</time>
      </trkpt>
      <trkpt lat="48.90462" lon="1.08836">
        <ele>176</ele>
        <time>2014-05-29T10:21:11.000Z</time>
      </trkpt>
      <trkpt lat="48.90455" lon="1.08845">
        <ele>176</ele>
        <time>2014-05-29T10:21:13.000Z</time>
      </trkpt>
      <trkpt lat="48.90448" lon="1.08853">
        <ele>175</ele>
        <time>2014-05-29T10:21:15.000Z</time>
      </trkpt>
      <trkpt lat="48.90441" lon="1.08859">
        <ele>175</ele>
        <time>2014-05-29T10:21:17.000Z</time>
      </trkpt>
      <trkpt lat="48.90434" lon="1.08864">
        <ele>176</ele>
        <time>2014-05-29T10:21:19.000Z</time>
      </trkpt>
      <trkpt lat="48.90428" lon="1.0887">
        <ele>176</ele>
        <time>2014-05-29T10:21:21.000Z</time>
      </trkpt>
      <trkpt lat="48.90421" lon="1.08875">
        <ele>176</ele>
        <time>2014-05-29T10:21:23.000Z</time>
      </trkpt>
      <trkpt lat="48.90414" lon="1.08881">
        <ele>176</ele>
        <time>2014-05-29T10:21:25.000Z</time>
      </trkpt>
      <trkpt lat="48.90406" lon="1.08886">
        <ele>176</ele>
        <time>2014-05-29T10:21:27.000Z</time>
      </trkpt>
      <trkpt lat="48.904" lon="1.08892">
        <ele>176</ele>
        <time>2014-05-29T10:21:29.000Z</time>
      </trkpt>
      <trkpt lat="48.90393" lon="1.08897">
        <ele>176</ele>
        <time>2014-05-29T10:21:31.000Z</time>
      </trkpt>
      <trkpt lat="48.90387" lon="1.08901">
        <ele>176</ele>
        <time>2014-05-29T10:21:33.000Z</time>
      </trkpt>
      <trkpt lat="48.9038" lon="1.08906">
        <ele>176</ele>
        <time>2014-05-29T10:21:35.000Z</time>
      </trkpt>
      <trkpt lat="48.90374" lon="1.08911">
        <ele>176</ele>
        <time>2014-05-29T10:21:37.000Z</time>
      </trkpt>
      <trkpt lat="48.90368" lon="1.08915">
        <ele>176</ele>
        <time>2014-05-29T10:21:39.000Z</time>
      </trkpt>
      <trkpt lat="48.90361" lon="1.08919">
        <ele>176</ele>
        <time>2014-05-29T10:21:41.000Z</time>
      </trkpt>
      <trkpt lat="48.90355" lon="1.08922">
        <ele>176</ele>
        <time>2014-05-29T10:21:43.000Z</time>
      </trkpt>
      <trkpt lat="48.90348" lon="1.08926">
        <ele>176</ele>
        <time>2014-05-29T10:21:45.000Z</time>
      </trkpt>
      <trkpt lat="48.90348" lon="1.08926">
        <ele>176</ele>
        <time>2014-05-29T10:21:47.000Z</time>
      </trkpt>
      <trkpt lat="48.90336" lon="1.08932">
        <ele>176</ele>
        <time>2014-05-29T10:21:49.000Z</time>
      </trkpt>
      <trkpt lat="48.90336" lon="1.08932">
        <ele>176</ele>
        <time>2014-05-29T10:21:51.000Z</time>
      </trkpt>
      <trkpt lat="48.90327" lon="1.08937">
        <ele>176</ele>
        <time>2014-05-29T10:21:53.000Z</time>
      </trkpt>
      <trkpt lat="48.90327" lon="1.08937">
        <ele>176</ele>
        <time>2014-05-29T10:21:55.000Z</time>
      </trkpt>
      <trkpt lat="48.90316" lon="1.08945">
        <ele>177</ele>
        <time>2014-05-29T10:21:57.000Z</time>
      </trkpt>
      <trkpt lat="48.9031" lon="1.0895">
        <ele>177</ele>
        <time>2014-05-29T10:21:59.000Z</time>
      </trkpt>
      <trkpt lat="48.90305" lon="1.08956">
        <ele>177</ele>
        <time>2014-05-29T10:22:01.000Z</time>
      </trkpt>
      <trkpt lat="48.90305" lon="1.08956">
        <ele>177</ele>
        <time>2014-05-29T10:22:03.000Z</time>
      </trkpt>
      <trkpt lat="48.90298" lon="1.08967">
        <ele>177</ele>
        <time>2014-05-29T10:22:05.000Z</time>
      </trkpt>
      <trkpt lat="48.90293" lon="1.08975">
        <ele>178</ele>
        <time>2014-05-29T10:22:07.000Z</time>
      </trkpt>
      <trkpt lat="48.90289" lon="1.08983">
        <ele>178</ele>
        <time>2014-05-29T10:22:09.000Z</time>
      </trkpt>
      <trkpt lat="48.90285" lon="1.0899">
        <ele>178</ele>
        <time>2014-05-29T10:22:11.000Z</time>
      </trkpt>
      <trkpt lat="48.90281" lon="1.08998">
        <ele>178</ele>
        <time>2014-05-29T10:22:13.000Z</time>
      </trkpt>
      <trkpt lat="48.90279" lon="1.09006">
        <ele>178</ele>
        <time>2014-05-29T10:22:15.000Z</time>
      </trkpt>
      <trkpt lat="48.90276" lon="1.09014">
        <ele>178</ele>
        <time>2014-05-29T10:22:17.000Z</time>
      </trkpt>
      <trkpt lat="48.90273" lon="1.09022">
        <ele>178</ele>
        <time>2014-05-29T10:22:19.000Z</time>
      </trkpt>
      <trkpt lat="48.9027" lon="1.09031">
        <ele>178</ele>
        <time>2014-05-29T10:22:21.000Z</time>
      </trkpt>
      <trkpt lat="48.90266" lon="1.09039">
        <ele>178</ele>
        <time>2014-05-29T10:22:23.000Z</time>
      </trkpt>
      <trkpt lat="48.90263" lon="1.09048">
        <ele>178</ele>
        <time>2014-05-29T10:22:25.000Z</time>
      </trkpt>
      <trkpt lat="48.90258" lon="1.09057">
        <ele>178</ele>
        <time>2014-05-29T10:22:27.000Z</time>
      </trkpt>
      <trkpt lat="48.90254" lon="1.09064">
        <ele>178</ele>
        <time>2014-05-29T10:22:29.000Z</time>
      </trkpt>
      <trkpt lat="48.9025" lon="1.09073">
        <ele>178</ele>
        <time>2014-05-29T10:22:31.000Z</time>
      </trkpt>
      <trkpt lat="48.90245" lon="1.09081">
        <ele>178</ele>
        <time>2014-05-29T10:22:33.000Z</time>
      </trkpt>
      <trkpt lat="48.90241" lon="1.09088">
        <ele>178</ele>
        <time>2014-05-29T10:22:35.000Z</time>
      </trkpt>
      <trkpt lat="48.90237" lon="1.09095">
        <ele>178</ele>
        <time>2014-05-29T10:22:37.000Z</time>
      </trkpt>
      <trkpt lat="48.90233" lon="1.09102">
        <ele>178</ele>
        <time>2014-05-29T10:22:39.000Z</time>
      </trkpt>
      <trkpt lat="48.90227" lon="1.0911">
        <ele>178</ele>
        <time>2014-05-29T10:22:41.000Z</time>
      </trkpt>
      <trkpt lat="48.90222" lon="1.09118">
        <ele>178</ele>
        <time>2014-05-29T10:22:43.000Z</time>
      </trkpt>
      <trkpt lat="48.90218" lon="1.09124">
        <ele>178</ele>
        <time>2014-05-29T10:22:45.000Z</time>
      </trkpt>
      <trkpt lat="48.90213" lon="1.0913">
        <ele>178</ele>
        <time>2014-05-29T10:22:47.000Z</time>
      </trkpt>
      <trkpt lat="48.90208" lon="1.09137">
        <ele>178</ele>
        <time>2014-05-29T10:22:49.000Z</time>
      </trkpt>
      <trkpt lat="48.90203" lon="1.09143">
        <ele>179</ele>
        <time>2014-05-29T10:22:51.000Z</time>
      </trkpt>
      <trkpt lat="48.90203" lon="1.09143">
        <ele>179</ele>
        <time>2014-05-29T10:22:53.000Z</time>
      </trkpt>
      <trkpt lat="48.90196" lon="1.0915">
        <ele>179</ele>
        <time>2014-05-29T10:22:55.000Z</time>
      </trkpt>
      <trkpt lat="48.90196" lon="1.0915">
        <ele>179</ele>
        <time>2014-05-29T10:22:57.000Z</time>
      </trkpt>
      <trkpt lat="48.90192" lon="1.09157">
        <ele>180</ele>
        <time>2014-05-29T10:22:59.000Z</time>
      </trkpt>
      <trkpt lat="48.90192" lon="1.09157">
        <ele>180</ele>
        <time>2014-05-29T10:23:01.000Z</time>
      </trkpt>
      <trkpt lat="48.9018" lon="1.09162">
        <ele>181</ele>
        <time>2014-05-29T10:23:05.000Z</time>
      </trkpt>
      <trkpt lat="48.90174" lon="1.09165">
        <ele>181</ele>
        <time>2014-05-29T10:23:07.000Z</time>
      </trkpt>
      <trkpt lat="48.90167" lon="1.09169">
        <ele>181</ele>
        <time>2014-05-29T10:23:09.000Z</time>
      </trkpt>
      <trkpt lat="48.90161" lon="1.09169">
        <ele>181</ele>
        <time>2014-05-29T10:23:11.000Z</time>
      </trkpt>
      <trkpt lat="48.90154" lon="1.09167">
        <ele>181</ele>
        <time>2014-05-29T10:23:13.000Z</time>
      </trkpt>
      <trkpt lat="48.90146" lon="1.09158">
        <ele>182</ele>
        <time>2014-05-29T10:23:17.000Z</time>
      </trkpt>
      <trkpt lat="48.90141" lon="1.09145">
        <ele>182</ele>
        <time>2014-05-29T10:23:21.000Z</time>
      </trkpt>
      <trkpt lat="48.90141" lon="1.09145">
        <ele>182</ele>
        <time>2014-05-29T10:23:23.000Z</time>
      </trkpt>
      <trkpt lat="48.90139" lon="1.09128">
        <ele>182</ele>
        <time>2014-05-29T10:23:25.000Z</time>
      </trkpt>
      <trkpt lat="48.90137" lon="1.0912">
        <ele>182</ele>
        <time>2014-05-29T10:23:27.000Z</time>
      </trkpt>
      <trkpt lat="48.90136" lon="1.09111">
        <ele>182</ele>
        <time>2014-05-29T10:23:29.000Z</time>
      </trkpt>
      <trkpt lat="48.90133" lon="1.09096">
        <ele>182</ele>
        <time>2014-05-29T10:23:33.000Z</time>
      </trkpt>
      <trkpt lat="48.90129" lon="1.09082">
        <ele>182</ele>
        <time>2014-05-29T10:23:37.000Z</time>
      </trkpt>
      <trkpt lat="48.90129" lon="1.09082">
        <ele>182</ele>
        <time>2014-05-29T10:23:39.000Z</time>
      </trkpt>
      <trkpt lat="48.90125" lon="1.09067">
        <ele>183</ele>
        <time>2014-05-29T10:23:41.000Z</time>
      </trkpt>
      <trkpt lat="48.90125" lon="1.09067">
        <ele>183</ele>
        <time>2014-05-29T10:23:43.000Z</time>
      </trkpt>
      <trkpt lat="48.90121" lon="1.09055">
        <ele>183</ele>
        <time>2014-05-29T10:23:45.000Z</time>
      </trkpt>
      <trkpt lat="48.90121" lon="1.09055">
        <ele>183</ele>
        <time>2014-05-29T10:23:47.000Z</time>
      </trkpt>
      <trkpt lat="48.90117" lon="1.09041">
        <ele>183</ele>
        <time>2014-05-29T10:23:49.000Z</time>
      </trkpt>
      <trkpt lat="48.90117" lon="1.09041">
        <ele>183</ele>
        <time>2014-05-29T10:23:51.000Z</time>
      </trkpt>
      <trkpt lat="48.90113" lon="1.09025">
        <ele>183</ele>
        <time>2014-05-29T10:23:53.000Z</time>
      </trkpt>
      <trkpt lat="48.90111" lon="1.09017">
        <ele>183</ele>
        <time>2014-05-29T10:23:55.000Z</time>
      </trkpt>
      <trkpt lat="48.90108" lon="1.09009">
        <ele>183</ele>
        <time>2014-05-29T10:23:57.000Z</time>
      </trkpt>
      <trkpt lat="48.90102" lon="1.08992">
        <ele>184</ele>
        <time>2014-05-29T10:24:01.000Z</time>
      </trkpt>
      <trkpt lat="48.90097" lon="1.08977">
        <ele>184</ele>
        <time>2014-05-29T10:24:05.000Z</time>
      </trkpt>
      <trkpt lat="48.90093" lon="1.08969">
        <ele>184</ele>
        <time>2014-05-29T10:24:07.000Z</time>
      </trkpt>
      <trkpt lat="48.90089" lon="1.08961">
        <ele>184</ele>
        <time>2014-05-29T10:24:09.000Z</time>
      </trkpt>
      <trkpt lat="48.90086" lon="1.08953">
        <ele>184</ele>
        <time>2014-05-29T10:24:11.000Z</time>
      </trkpt>
      <trkpt lat="48.90081" lon="1.08947">
        <ele>184</ele>
        <time>2014-05-29T10:24:13.000Z</time>
      </trkpt>
      <trkpt lat="48.90075" lon="1.08941">
        <ele>184</ele>
        <time>2014-05-29T10:24:15.000Z</time>
      </trkpt>
      <trkpt lat="48.90069" lon="1.08937">
        <ele>184</ele>
        <time>2014-05-29T10:24:17.000Z</time>
      </trkpt>
      <trkpt lat="48.90062" lon="1.08933">
        <ele>185</ele>
        <time>2014-05-29T10:24:19.000Z</time>
      </trkpt>
      <trkpt lat="48.90055" lon="1.08928">
        <ele>185</ele>
        <time>2014-05-29T10:24:21.000Z</time>
      </trkpt>
      <trkpt lat="48.90048" lon="1.08924">
        <ele>188</ele>
        <time>2014-05-29T10:24:23.000Z</time>
      </trkpt>
      <trkpt lat="48.9004" lon="1.08918">
        <ele>191</ele>
        <time>2014-05-29T10:24:25.000Z</time>
      </trkpt>
      <trkpt lat="48.90031" lon="1.08912">
        <ele>193</ele>
        <time>2014-05-29T10:24:27.000Z</time>
      </trkpt>
      <trkpt lat="48.90022" lon="1.08903">
        <ele>194</ele>
        <time>2014-05-29T10:24:29.000Z</time>
      </trkpt>
      <trkpt lat="48.90013" lon="1.08891">
        <ele>193</ele>
        <time>2014-05-29T10:24:31.000Z</time>
      </trkpt>
      <trkpt lat="48.90004" lon="1.08877">
        <ele>192</ele>
        <time>2014-05-29T10:24:33.000Z</time>
      </trkpt>
      <trkpt lat="48.89996" lon="1.08865">
        <ele>190</ele>
        <time>2014-05-29T10:24:35.000Z</time>
      </trkpt>
      <trkpt lat="48.89987" lon="1.08853">
        <ele>189</ele>
        <time>2014-05-29T10:24:37.000Z</time>
      </trkpt>
      <trkpt lat="48.89979" lon="1.08842">
        <ele>189</ele>
        <time>2014-05-29T10:24:39.000Z</time>
      </trkpt>
      <trkpt lat="48.8997" lon="1.08831">
        <ele>189</ele>
        <time>2014-05-29T10:24:41.000Z</time>
      </trkpt>
      <trkpt lat="48.89962" lon="1.0882">
        <ele>189</ele>
        <time>2014-05-29T10:24:44.000Z</time>
      </trkpt>
      <trkpt lat="48.89954" lon="1.0881">
        <ele>189</ele>
        <time>2014-05-29T10:24:45.000Z</time>
      </trkpt>
      <trkpt lat="48.89946" lon="1.08799">
        <ele>189</ele>
        <time>2014-05-29T10:24:47.000Z</time>
      </trkpt>
      <trkpt lat="48.89938" lon="1.08789">
        <ele>189</ele>
        <time>2014-05-29T10:24:49.000Z</time>
      </trkpt>
      <trkpt lat="48.89931" lon="1.0878">
        <ele>190</ele>
        <time>2014-05-29T10:24:51.000Z</time>
      </trkpt>
      <trkpt lat="48.89924" lon="1.08771">
        <ele>190</ele>
        <time>2014-05-29T10:24:53.000Z</time>
      </trkpt>
      <trkpt lat="48.89917" lon="1.08763">
        <ele>190</ele>
        <time>2014-05-29T10:24:55.000Z</time>
      </trkpt>
      <trkpt lat="48.89911" lon="1.08755">
        <ele>190</ele>
        <time>2014-05-29T10:24:57.000Z</time>
      </trkpt>
      <trkpt lat="48.89905" lon="1.08747">
        <ele>190</ele>
        <time>2014-05-29T10:24:59.000Z</time>
      </trkpt>
      <trkpt lat="48.89899" lon="1.08739">
        <ele>190</ele>
        <time>2014-05-29T10:25:01.000Z</time>
      </trkpt>
      <trkpt lat="48.89893" lon="1.08731">
        <ele>190</ele>
        <time>2014-05-29T10:25:03.000Z</time>
      </trkpt>
      <trkpt lat="48.89888" lon="1.08723">
        <ele>190</ele>
        <time>2014-05-29T10:25:05.000Z</time>
      </trkpt>
      <trkpt lat="48.89883" lon="1.08716">
        <ele>190</ele>
        <time>2014-05-29T10:25:07.000Z</time>
      </trkpt>
      <trkpt lat="48.89878" lon="1.0871">
        <ele>190</ele>
        <time>2014-05-29T10:25:09.000Z</time>
      </trkpt>
      <trkpt lat="48.89874" lon="1.08704">
        <ele>190</ele>
        <time>2014-05-29T10:25:11.000Z</time>
      </trkpt>
      <trkpt lat="48.89868" lon="1.08697">
        <ele>190</ele>
        <time>2014-05-29T10:25:13.000Z</time>
      </trkpt>
      <trkpt lat="48.89864" lon="1.08691">
        <ele>190</ele>
        <time>2014-05-29T10:25:15.000Z</time>
      </trkpt>
      <trkpt lat="48.89858" lon="1.08684">
        <ele>190</ele>
        <time>2014-05-29T10:25:17.000Z</time>
      </trkpt>
      <trkpt lat="48.89854" lon="1.08678">
        <ele>190</ele>
        <time>2014-05-29T10:25:19.000Z</time>
      </trkpt>
      <trkpt lat="48.89849" lon="1.08671">
        <ele>190</ele>
        <time>2014-05-29T10:25:21.000Z</time>
      </trkpt>
      <trkpt lat="48.89844" lon="1.08666">
        <ele>190</ele>
        <time>2014-05-29T10:25:23.000Z</time>
      </trkpt>
      <trkpt lat="48.89839" lon="1.08659">
        <ele>190</ele>
        <time>2014-05-29T10:25:25.000Z</time>
      </trkpt>
      <trkpt lat="48.89834" lon="1.08653">
        <ele>190</ele>
        <time>2014-05-29T10:25:27.000Z</time>
      </trkpt>
      <trkpt lat="48.89828" lon="1.08645">
        <ele>189</ele>
        <time>2014-05-29T10:25:29.000Z</time>
      </trkpt>
      <trkpt lat="48.89824" lon="1.08639">
        <ele>189</ele>
        <time>2014-05-29T10:25:31.000Z</time>
      </trkpt>
      <trkpt lat="48.89824" lon="1.08639">
        <ele>189</ele>
        <time>2014-05-29T10:25:33.000Z</time>
      </trkpt>
      <trkpt lat="48.89816" lon="1.08627">
        <ele>189</ele>
        <time>2014-05-29T10:25:35.000Z</time>
      </trkpt>
      <trkpt lat="48.89816" lon="1.08627">
        <ele>189</ele>
        <time>2014-05-29T10:25:37.000Z</time>
      </trkpt>
      <trkpt lat="48.89809" lon="1.08617">
        <ele>189</ele>
        <time>2014-05-29T10:25:39.000Z</time>
      </trkpt>
      <trkpt lat="48.89809" lon="1.08617">
        <ele>189</ele>
        <time>2014-05-29T10:25:41.000Z</time>
      </trkpt>
      <trkpt lat="48.898" lon="1.08617">
        <ele>189</ele>
        <time>2014-05-29T10:25:43.000Z</time>
      </trkpt>
      <trkpt lat="48.898" lon="1.08617">
        <ele>189</ele>
        <time>2014-05-29T10:25:45.000Z</time>
      </trkpt>
      <trkpt lat="48.898" lon="1.08617">
        <ele>189</ele>
        <time>2014-05-29T10:25:47.000Z</time>
      </trkpt>
      <trkpt lat="48.89791" lon="1.08622">
        <ele>189</ele>
        <time>2014-05-29T10:25:49.000Z</time>
      </trkpt>
      <trkpt lat="48.89791" lon="1.08622">
        <ele>189</ele>
        <time>2014-05-29T10:25:51.000Z</time>
      </trkpt>
      <trkpt lat="48.89785" lon="1.08627">
        <ele>190</ele>
        <time>2014-05-29T10:25:53.000Z</time>
      </trkpt>
      <trkpt lat="48.89785" lon="1.08627">
        <ele>190</ele>
        <time>2014-05-29T10:25:55.000Z</time>
      </trkpt>
      <trkpt lat="48.89778" lon="1.08629">
        <ele>191</ele>
        <time>2014-05-29T10:25:57.000Z</time>
      </trkpt>
      <trkpt lat="48.89773" lon="1.08632">
        <ele>191</ele>
        <time>2014-05-29T10:25:59.000Z</time>
      </trkpt>
      <trkpt lat="48.89767" lon="1.08634">
        <ele>192</ele>
        <time>2014-05-29T10:26:01.000Z</time>
      </trkpt>
      <trkpt lat="48.89761" lon="1.08637">
        <ele>192</ele>
        <time>2014-05-29T10:26:03.000Z</time>
      </trkpt>
      <trkpt lat="48.89755" lon="1.08639">
        <ele>193</ele>
        <time>2014-05-29T10:26:07.000Z</time>
      </trkpt>
      <trkpt lat="48.8975" lon="1.08641">
        <ele>193</ele>
        <time>2014-05-29T10:26:09.000Z</time>
      </trkpt>
      <trkpt lat="48.89744" lon="1.08643">
        <ele>194</ele>
        <time>2014-05-29T10:26:11.000Z</time>
      </trkpt>
      <trkpt lat="48.89738" lon="1.08645">
        <ele>194</ele>
        <time>2014-05-29T10:26:13.000Z</time>
      </trkpt>
      <trkpt lat="48.89733" lon="1.08646">
        <ele>195</ele>
        <time>2014-05-29T10:26:15.000Z</time>
      </trkpt>
      <trkpt lat="48.89721" lon="1.08647">
        <ele>196</ele>
        <time>2014-05-29T10:26:17.000Z</time>
      </trkpt>
      <trkpt lat="48.89709" lon="1.0865">
        <ele>197</ele>
        <time>2014-05-29T10:26:21.000Z</time>
      </trkpt>
      <trkpt lat="48.89703" lon="1.08652">
        <ele>197</ele>
        <time>2014-05-29T10:26:23.000Z</time>
      </trkpt>
      <trkpt lat="48.89693" lon="1.08656">
        <ele>198</ele>
        <time>2014-05-29T10:26:27.000Z</time>
      </trkpt>
      <trkpt lat="48.89687" lon="1.08657">
        <ele>199</ele>
        <time>2014-05-29T10:26:29.000Z</time>
      </trkpt>
      <trkpt lat="48.8968" lon="1.08658">
        <ele>199</ele>
        <time>2014-05-29T10:26:31.000Z</time>
      </trkpt>
      <trkpt lat="48.89672" lon="1.08658">
        <ele>199</ele>
        <time>2014-05-29T10:26:33.000Z</time>
      </trkpt>
      <trkpt lat="48.89666" lon="1.08659">
        <ele>200</ele>
        <time>2014-05-29T10:26:35.000Z</time>
      </trkpt>
      <trkpt lat="48.89659" lon="1.0866">
        <ele>200</ele>
        <time>2014-05-29T10:26:37.000Z</time>
      </trkpt>
      <trkpt lat="48.89652" lon="1.0866">
        <ele>200</ele>
        <time>2014-05-29T10:26:39.000Z</time>
      </trkpt>
      <trkpt lat="48.89645" lon="1.08661">
        <ele>201</ele>
        <time>2014-05-29T10:26:41.000Z</time>
      </trkpt>
      <trkpt lat="48.89638" lon="1.08661">
        <ele>201</ele>
        <time>2014-05-29T10:26:43.000Z</time>
      </trkpt>
      <trkpt lat="48.89632" lon="1.08662">
        <ele>201</ele>
        <time>2014-05-29T10:26:45.000Z</time>
      </trkpt>
      <trkpt lat="48.89624" lon="1.08665">
        <ele>201</ele>
        <time>2014-05-29T10:26:47.000Z</time>
      </trkpt>
      <trkpt lat="48.89614" lon="1.08667">
        <ele>201</ele>
        <time>2014-05-29T10:26:49.000Z</time>
      </trkpt>
      <trkpt lat="48.89605" lon="1.08668">
        <ele>201</ele>
        <time>2014-05-29T10:26:51.000Z</time>
      </trkpt>
      <trkpt lat="48.89598" lon="1.08668">
        <ele>201</ele>
        <time>2014-05-29T10:26:53.000Z</time>
      </trkpt>
      <trkpt lat="48.89589" lon="1.0867">
        <ele>200</ele>
        <time>2014-05-29T10:26:55.000Z</time>
      </trkpt>
      <trkpt lat="48.8958" lon="1.08672">
        <ele>200</ele>
        <time>2014-05-29T10:26:57.000Z</time>
      </trkpt>
      <trkpt lat="48.89572" lon="1.08672">
        <ele>200</ele>
        <time>2014-05-29T10:26:59.000Z</time>
      </trkpt>
      <trkpt lat="48.89563" lon="1.08673">
        <ele>199</ele>
        <time>2014-05-29T10:27:01.000Z</time>
      </trkpt>
      <trkpt lat="48.89555" lon="1.08674">
        <ele>199</ele>
        <time>2014-05-29T10:27:03.000Z</time>
      </trkpt>
      <trkpt lat="48.89546" lon="1.08674">
        <ele>199</ele>
        <time>2014-05-29T10:27:05.000Z</time>
      </trkpt>
      <trkpt lat="48.89539" lon="1.08676">
        <ele>198</ele>
        <time>2014-05-29T10:27:07.000Z</time>
      </trkpt>
      <trkpt lat="48.89532" lon="1.08677">
        <ele>198</ele>
        <time>2014-05-29T10:27:09.000Z</time>
      </trkpt>
      <trkpt lat="48.89525" lon="1.08688">
        <ele>198</ele>
        <time>2014-05-29T10:27:13.000Z</time>
      </trkpt>
      <trkpt lat="48.89522" lon="1.08699">
        <ele>197</ele>
        <time>2014-05-29T10:27:15.000Z</time>
      </trkpt>
      <trkpt lat="48.89518" lon="1.08711">
        <ele>196</ele>
        <time>2014-05-29T10:27:17.000Z</time>
      </trkpt>
      <trkpt lat="48.89514" lon="1.08723">
        <ele>196</ele>
        <time>2014-05-29T10:27:19.000Z</time>
      </trkpt>
      <trkpt lat="48.89508" lon="1.08738">
        <ele>195</ele>
        <time>2014-05-29T10:27:21.000Z</time>
      </trkpt>
      <trkpt lat="48.895" lon="1.08753">
        <ele>194</ele>
        <time>2014-05-29T10:27:23.000Z</time>
      </trkpt>
      <trkpt lat="48.89492" lon="1.08768">
        <ele>192</ele>
        <time>2014-05-29T10:27:25.000Z</time>
      </trkpt>
      <trkpt lat="48.89484" lon="1.08781">
        <ele>191</ele>
        <time>2014-05-29T10:27:27.000Z</time>
      </trkpt>
      <trkpt lat="48.89476" lon="1.08794">
        <ele>189</ele>
        <time>2014-05-29T10:27:29.000Z</time>
      </trkpt>
      <trkpt lat="48.8947" lon="1.08805">
        <ele>189</ele>
        <time>2014-05-29T10:27:31.000Z</time>
      </trkpt>
      <trkpt lat="48.89463" lon="1.08816">
        <ele>188</ele>
        <time>2014-05-29T10:27:33.000Z</time>
      </trkpt>
      <trkpt lat="48.89456" lon="1.08828">
        <ele>186</ele>
        <time>2014-05-29T10:27:35.000Z</time>
      </trkpt>
      <trkpt lat="48.89449" lon="1.08839">
        <ele>185</ele>
        <time>2014-05-29T10:27:37.000Z</time>
      </trkpt>
      <trkpt lat="48.89443" lon="1.08849">
        <ele>184</ele>
        <time>2014-05-29T10:27:39.000Z</time>
      </trkpt>
      <trkpt lat="48.89437" lon="1.08858">
        <ele>184</ele>
        <time>2014-05-29T10:27:41.000Z</time>
      </trkpt>
      <trkpt lat="48.89431" lon="1.08867">
        <ele>183</ele>
        <time>2014-05-29T10:27:43.000Z</time>
      </trkpt>
      <trkpt lat="48.89423" lon="1.08875">
        <ele>183</ele>
        <time>2014-05-29T10:27:45.000Z</time>
      </trkpt>
      <trkpt lat="48.89416" lon="1.0888">
        <ele>183</ele>
        <time>2014-05-29T10:27:47.000Z</time>
      </trkpt>
      <trkpt lat="48.8941" lon="1.08881">
        <ele>184</ele>
        <time>2014-05-29T10:27:49.000Z</time>
      </trkpt>
      <trkpt lat="48.89404" lon="1.08883">
        <ele>187</ele>
        <time>2014-05-29T10:27:51.000Z</time>
      </trkpt>
      <trkpt lat="48.89396" lon="1.08885">
        <ele>189</ele>
        <time>2014-05-29T10:27:53.000Z</time>
      </trkpt>
      <trkpt lat="48.89388" lon="1.08887">
        <ele>190</ele>
        <time>2014-05-29T10:27:55.000Z</time>
      </trkpt>
      <trkpt lat="48.8938" lon="1.08889">
        <ele>191</ele>
        <time>2014-05-29T10:27:57.000Z</time>
      </trkpt>
      <trkpt lat="48.89371" lon="1.08892">
        <ele>192</ele>
        <time>2014-05-29T10:27:59.000Z</time>
      </trkpt>
      <trkpt lat="48.89362" lon="1.08894">
        <ele>193</ele>
        <time>2014-05-29T10:28:01.000Z</time>
      </trkpt>
      <trkpt lat="48.89354" lon="1.08896">
        <ele>193</ele>
        <time>2014-05-29T10:28:03.000Z</time>
      </trkpt>
      <trkpt lat="48.89346" lon="1.08899">
        <ele>193</ele>
        <time>2014-05-29T10:28:05.000Z</time>
      </trkpt>
      <trkpt lat="48.89339" lon="1.08902">
        <ele>194</ele>
        <time>2014-05-29T10:28:07.000Z</time>
      </trkpt>
      <trkpt lat="48.89331" lon="1.08906">
        <ele>195</ele>
        <time>2014-05-29T10:28:09.000Z</time>
      </trkpt>
      <trkpt lat="48.89323" lon="1.08909">
        <ele>196</ele>
        <time>2014-05-29T10:28:11.000Z</time>
      </trkpt>
      <trkpt lat="48.89314" lon="1.08912">
        <ele>196</ele>
        <time>2014-05-29T10:28:13.000Z</time>
      </trkpt>
      <trkpt lat="48.89303" lon="1.08915">
        <ele>197</ele>
        <time>2014-05-29T10:28:15.000Z</time>
      </trkpt>
      <trkpt lat="48.89295" lon="1.08918">
        <ele>197</ele>
        <time>2014-05-29T10:28:17.000Z</time>
      </trkpt>
      <trkpt lat="48.89285" lon="1.0892">
        <ele>198</ele>
        <time>2014-05-29T10:28:19.000Z</time>
      </trkpt>
      <trkpt lat="48.89275" lon="1.08923">
        <ele>200</ele>
        <time>2014-05-29T10:28:21.000Z</time>
      </trkpt>
      <trkpt lat="48.89265" lon="1.08924">
        <ele>201</ele>
        <time>2014-05-29T10:28:23.000Z</time>
      </trkpt>
      <trkpt lat="48.89257" lon="1.08924">
        <ele>203</ele>
        <time>2014-05-29T10:28:25.000Z</time>
      </trkpt>
      <trkpt lat="48.89247" lon="1.08926">
        <ele>202</ele>
        <time>2014-05-29T10:28:27.000Z</time>
      </trkpt>
      <trkpt lat="48.89236" lon="1.0893">
        <ele>203</ele>
        <time>2014-05-29T10:28:29.000Z</time>
      </trkpt>
      <trkpt lat="48.89226" lon="1.08935">
        <ele>203</ele>
        <time>2014-05-29T10:28:31.000Z</time>
      </trkpt>
      <trkpt lat="48.89215" lon="1.08942">
        <ele>203</ele>
        <time>2014-05-29T10:28:33.000Z</time>
      </trkpt>
      <trkpt lat="48.89205" lon="1.0895">
        <ele>202</ele>
        <time>2014-05-29T10:28:35.000Z</time>
      </trkpt>
      <trkpt lat="48.89195" lon="1.08957">
        <ele>201</ele>
        <time>2014-05-29T10:28:37.000Z</time>
      </trkpt>
      <trkpt lat="48.89185" lon="1.08965">
        <ele>200</ele>
        <time>2014-05-29T10:28:39.000Z</time>
      </trkpt>
      <trkpt lat="48.89175" lon="1.0897">
        <ele>200</ele>
        <time>2014-05-29T10:28:41.000Z</time>
      </trkpt>
      <trkpt lat="48.89166" lon="1.08976">
        <ele>200</ele>
        <time>2014-05-29T10:28:43.000Z</time>
      </trkpt>
      <trkpt lat="48.89157" lon="1.08983">
        <ele>201</ele>
        <time>2014-05-29T10:28:45.000Z</time>
      </trkpt>
      <trkpt lat="48.89149" lon="1.08989">
        <ele>203</ele>
        <time>2014-05-29T10:28:47.000Z</time>
      </trkpt>
      <trkpt lat="48.8914" lon="1.08997">
        <ele>204</ele>
        <time>2014-05-29T10:28:49.000Z</time>
      </trkpt>
      <trkpt lat="48.8913" lon="1.09004">
        <ele>205</ele>
        <time>2014-05-29T10:28:51.000Z</time>
      </trkpt>
      <trkpt lat="48.8912" lon="1.0901">
        <ele>205</ele>
        <time>2014-05-29T10:28:53.000Z</time>
      </trkpt>
      <trkpt lat="48.89109" lon="1.09019">
        <ele>204</ele>
        <time>2014-05-29T10:28:55.000Z</time>
      </trkpt>
      <trkpt lat="48.891" lon="1.09027">
        <ele>203</ele>
        <time>2014-05-29T10:28:57.000Z</time>
      </trkpt>
      <trkpt lat="48.8909" lon="1.09036">
        <ele>202</ele>
        <time>2014-05-29T10:28:59.000Z</time>
      </trkpt>
      <trkpt lat="48.89081" lon="1.09045">
        <ele>201</ele>
        <time>2014-05-29T10:29:01.000Z</time>
      </trkpt>
      <trkpt lat="48.89071" lon="1.09054">
        <ele>199</ele>
        <time>2014-05-29T10:29:03.000Z</time>
      </trkpt>
      <trkpt lat="48.89061" lon="1.09062">
        <ele>198</ele>
        <time>2014-05-29T10:29:05.000Z</time>
      </trkpt>
      <trkpt lat="48.89053" lon="1.0907">
        <ele>196</ele>
        <time>2014-05-29T10:29:07.000Z</time>
      </trkpt>
      <trkpt lat="48.89045" lon="1.09079">
        <ele>195</ele>
        <time>2014-05-29T10:29:09.000Z</time>
      </trkpt>
      <trkpt lat="48.89037" lon="1.09087">
        <ele>194</ele>
        <time>2014-05-29T10:29:11.000Z</time>
      </trkpt>
      <trkpt lat="48.8903" lon="1.09094">
        <ele>194</ele>
        <time>2014-05-29T10:29:13.000Z</time>
      </trkpt>
      <trkpt lat="48.89023" lon="1.09101">
        <ele>194</ele>
        <time>2014-05-29T10:29:15.000Z</time>
      </trkpt>
      <trkpt lat="48.89017" lon="1.09106">
        <ele>194</ele>
        <time>2014-05-29T10:29:17.000Z</time>
      </trkpt>
      <trkpt lat="48.89011" lon="1.09112">
        <ele>194</ele>
        <time>2014-05-29T10:29:19.000Z</time>
      </trkpt>
      <trkpt lat="48.89005" lon="1.09117">
        <ele>194</ele>
        <time>2014-05-29T10:29:21.000Z</time>
      </trkpt>
      <trkpt lat="48.88999" lon="1.09122">
        <ele>194</ele>
        <time>2014-05-29T10:29:23.000Z</time>
      </trkpt>
      <trkpt lat="48.88993" lon="1.09126">
        <ele>194</ele>
        <time>2014-05-29T10:29:25.000Z</time>
      </trkpt>
      <trkpt lat="48.88988" lon="1.09134">
        <ele>194</ele>
        <time>2014-05-29T10:29:27.000Z</time>
      </trkpt>
      <trkpt lat="48.88985" lon="1.09142">
        <ele>194</ele>
        <time>2014-05-29T10:29:29.000Z</time>
      </trkpt>
      <trkpt lat="48.88985" lon="1.09142">
        <ele>194</ele>
        <time>2014-05-29T10:29:31.000Z</time>
      </trkpt>
      <trkpt lat="48.88978" lon="1.09155">
        <ele>194</ele>
        <time>2014-05-29T10:29:33.000Z</time>
      </trkpt>
      <trkpt lat="48.88971" lon="1.09162">
        <ele>194</ele>
        <time>2014-05-29T10:29:35.000Z</time>
      </trkpt>
      <trkpt lat="48.88963" lon="1.09167">
        <ele>193</ele>
        <time>2014-05-29T10:29:37.000Z</time>
      </trkpt>
      <trkpt lat="48.88955" lon="1.09167">
        <ele>194</ele>
        <time>2014-05-29T10:29:39.000Z</time>
      </trkpt>
      <trkpt lat="48.88947" lon="1.09168">
        <ele>196</ele>
        <time>2014-05-29T10:29:41.000Z</time>
      </trkpt>
      <trkpt lat="48.88937" lon="1.09169">
        <ele>197</ele>
        <time>2014-05-29T10:29:43.000Z</time>
      </trkpt>
      <trkpt lat="48.88929" lon="1.09172">
        <ele>197</ele>
        <time>2014-05-29T10:29:45.000Z</time>
      </trkpt>
      <trkpt lat="48.88922" lon="1.09174">
        <ele>197</ele>
        <time>2014-05-29T10:29:47.000Z</time>
      </trkpt>
      <trkpt lat="48.88914" lon="1.09174">
        <ele>198</ele>
        <time>2014-05-29T10:29:49.000Z</time>
      </trkpt>
      <trkpt lat="48.88907" lon="1.09175">
        <ele>199</ele>
        <time>2014-05-29T10:29:51.000Z</time>
      </trkpt>
      <trkpt lat="48.88899" lon="1.09176">
        <ele>199</ele>
        <time>2014-05-29T10:29:53.000Z</time>
      </trkpt>
      <trkpt lat="48.88892" lon="1.09175">
        <ele>200</ele>
        <time>2014-05-29T10:29:55.000Z</time>
      </trkpt>
      <trkpt lat="48.88884" lon="1.09175">
        <ele>200</ele>
        <time>2014-05-29T10:29:57.000Z</time>
      </trkpt>
      <trkpt lat="48.88877" lon="1.09174">
        <ele>200</ele>
        <time>2014-05-29T10:29:59.000Z</time>
      </trkpt>
      <trkpt lat="48.88869" lon="1.09175">
        <ele>200</ele>
        <time>2014-05-29T10:30:01.000Z</time>
      </trkpt>
      <trkpt lat="48.88861" lon="1.09175">
        <ele>200</ele>
        <time>2014-05-29T10:30:03.000Z</time>
      </trkpt>
      <trkpt lat="48.88853" lon="1.09175">
        <ele>200</ele>
        <time>2014-05-29T10:30:05.000Z</time>
      </trkpt>
      <trkpt lat="48.88847" lon="1.09175">
        <ele>200</ele>
        <time>2014-05-29T10:30:07.000Z</time>
      </trkpt>
      <trkpt lat="48.88839" lon="1.09175">
        <ele>200</ele>
        <time>2014-05-29T10:30:09.000Z</time>
      </trkpt>
      <trkpt lat="48.8883" lon="1.09177">
        <ele>200</ele>
        <time>2014-05-29T10:30:11.000Z</time>
      </trkpt>
      <trkpt lat="48.88823" lon="1.0918">
        <ele>200</ele>
        <time>2014-05-29T10:30:13.000Z</time>
      </trkpt>
      <trkpt lat="48.88815" lon="1.09183">
        <ele>199</ele>
        <time>2014-05-29T10:30:15.000Z</time>
      </trkpt>
      <trkpt lat="48.88807" lon="1.09186">
        <ele>198</ele>
        <time>2014-05-29T10:30:17.000Z</time>
      </trkpt>
      <trkpt lat="48.88799" lon="1.0919">
        <ele>198</ele>
        <time>2014-05-29T10:30:19.000Z</time>
      </trkpt>
      <trkpt lat="48.88791" lon="1.09192">
        <ele>197</ele>
        <time>2014-05-29T10:30:21.000Z</time>
      </trkpt>
      <trkpt lat="48.88784" lon="1.09194">
        <ele>197</ele>
        <time>2014-05-29T10:30:23.000Z</time>
      </trkpt>
      <trkpt lat="48.88777" lon="1.09196">
        <ele>197</ele>
        <time>2014-05-29T10:30:25.000Z</time>
      </trkpt>
      <trkpt lat="48.88769" lon="1.09198">
        <ele>197</ele>
        <time>2014-05-29T10:30:27.000Z</time>
      </trkpt>
      <trkpt lat="48.88759" lon="1.09199">
        <ele>197</ele>
        <time>2014-05-29T10:30:29.000Z</time>
      </trkpt>
      <trkpt lat="48.8875" lon="1.09201">
        <ele>197</ele>
        <time>2014-05-29T10:30:31.000Z</time>
      </trkpt>
      <trkpt lat="48.88741" lon="1.09202">
        <ele>197</ele>
        <time>2014-05-29T10:30:33.000Z</time>
      </trkpt>
      <trkpt lat="48.88733" lon="1.09202">
        <ele>197</ele>
        <time>2014-05-29T10:30:35.000Z</time>
      </trkpt>
      <trkpt lat="48.88725" lon="1.09201">
        <ele>197</ele>
        <time>2014-05-29T10:30:37.000Z</time>
      </trkpt>
      <trkpt lat="48.88718" lon="1.09201">
        <ele>197</ele>
        <time>2014-05-29T10:30:39.000Z</time>
      </trkpt>
      <trkpt lat="48.88712" lon="1.09201">
        <ele>197</ele>
        <time>2014-05-29T10:30:41.000Z</time>
      </trkpt>
      <trkpt lat="48.88706" lon="1.092">
        <ele>197</ele>
        <time>2014-05-29T10:30:43.000Z</time>
      </trkpt>
      <trkpt lat="48.887" lon="1.09201">
        <ele>197</ele>
        <time>2014-05-29T10:30:45.000Z</time>
      </trkpt>
      <trkpt lat="48.887" lon="1.09201">
        <ele>197</ele>
        <time>2014-05-29T10:30:47.000Z</time>
      </trkpt>
      <trkpt lat="48.88689" lon="1.09202">
        <ele>198</ele>
        <time>2014-05-29T10:30:49.000Z</time>
      </trkpt>
      <trkpt lat="48.88689" lon="1.09202">
        <ele>198</ele>
        <time>2014-05-29T10:30:51.000Z</time>
      </trkpt>
      <trkpt lat="48.88679" lon="1.09202">
        <ele>198</ele>
        <time>2014-05-29T10:30:53.000Z</time>
      </trkpt>
      <trkpt lat="48.88679" lon="1.09202">
        <ele>198</ele>
        <time>2014-05-29T10:30:55.000Z</time>
      </trkpt>
      <trkpt lat="48.88671" lon="1.09206">
        <ele>199</ele>
        <time>2014-05-29T10:30:57.000Z</time>
      </trkpt>
      <trkpt lat="48.88671" lon="1.09206">
        <ele>199</ele>
        <time>2014-05-29T10:30:59.000Z</time>
      </trkpt>
      <trkpt lat="48.8866" lon="1.0921">
        <ele>199</ele>
        <time>2014-05-29T10:31:01.000Z</time>
      </trkpt>
      <trkpt lat="48.88654" lon="1.09212">
        <ele>200</ele>
        <time>2014-05-29T10:31:03.000Z</time>
      </trkpt>
      <trkpt lat="48.88643" lon="1.09215">
        <ele>200</ele>
        <time>2014-05-29T10:31:07.000Z</time>
      </trkpt>
      <trkpt lat="48.88631" lon="1.09218">
        <ele>201</ele>
        <time>2014-05-29T10:31:11.000Z</time>
      </trkpt>
      <trkpt lat="48.88625" lon="1.0922">
        <ele>201</ele>
        <time>2014-05-29T10:31:13.000Z</time>
      </trkpt>
      <trkpt lat="48.88618" lon="1.09222">
        <ele>201</ele>
        <time>2014-05-29T10:31:15.000Z</time>
      </trkpt>
      <trkpt lat="48.88612" lon="1.09225">
        <ele>201</ele>
        <time>2014-05-29T10:31:17.000Z</time>
      </trkpt>
      <trkpt lat="48.88605" lon="1.09228">
        <ele>201</ele>
        <time>2014-05-29T10:31:19.000Z</time>
      </trkpt>
      <trkpt lat="48.88599" lon="1.09232">
        <ele>201</ele>
        <time>2014-05-29T10:31:21.000Z</time>
      </trkpt>
      <trkpt lat="48.88593" lon="1.09236">
        <ele>201</ele>
        <time>2014-05-29T10:31:23.000Z</time>
      </trkpt>
      <trkpt lat="48.88585" lon="1.0924">
        <ele>201</ele>
        <time>2014-05-29T10:31:25.000Z</time>
      </trkpt>
      <trkpt lat="48.88577" lon="1.09247">
        <ele>200</ele>
        <time>2014-05-29T10:31:27.000Z</time>
      </trkpt>
      <trkpt lat="48.88569" lon="1.09255">
        <ele>199</ele>
        <time>2014-05-29T10:31:29.000Z</time>
      </trkpt>
      <trkpt lat="48.88563" lon="1.09262">
        <ele>198</ele>
        <time>2014-05-29T10:31:31.000Z</time>
      </trkpt>
      <trkpt lat="48.88556" lon="1.09271">
        <ele>198</ele>
        <time>2014-05-29T10:31:33.000Z</time>
      </trkpt>
      <trkpt lat="48.8855" lon="1.0928">
        <ele>199</ele>
        <time>2014-05-29T10:31:35.000Z</time>
      </trkpt>
      <trkpt lat="48.88544" lon="1.0929">
        <ele>199</ele>
        <time>2014-05-29T10:31:37.000Z</time>
      </trkpt>
      <trkpt lat="48.88539" lon="1.09301">
        <ele>199</ele>
        <time>2014-05-29T10:31:39.000Z</time>
      </trkpt>
      <trkpt lat="48.88534" lon="1.09312">
        <ele>200</ele>
        <time>2014-05-29T10:31:41.000Z</time>
      </trkpt>
      <trkpt lat="48.8853" lon="1.09324">
        <ele>201</ele>
        <time>2014-05-29T10:31:43.000Z</time>
      </trkpt>
      <trkpt lat="48.88527" lon="1.09337">
        <ele>202</ele>
        <time>2014-05-29T10:31:45.000Z</time>
      </trkpt>
      <trkpt lat="48.88524" lon="1.0935">
        <ele>200</ele>
        <time>2014-05-29T10:31:47.000Z</time>
      </trkpt>
      <trkpt lat="48.88521" lon="1.09362">
        <ele>198</ele>
        <time>2014-05-29T10:31:49.000Z</time>
      </trkpt>
      <trkpt lat="48.88519" lon="1.09375">
        <ele>196</ele>
        <time>2014-05-29T10:31:51.000Z</time>
      </trkpt>
      <trkpt lat="48.88518" lon="1.09388">
        <ele>194</ele>
        <time>2014-05-29T10:31:53.000Z</time>
      </trkpt>
      <trkpt lat="48.88517" lon="1.094">
        <ele>194</ele>
        <time>2014-05-29T10:31:55.000Z</time>
      </trkpt>
      <trkpt lat="48.88517" lon="1.09412">
        <ele>193</ele>
        <time>2014-05-29T10:31:57.000Z</time>
      </trkpt>
      <trkpt lat="48.88515" lon="1.09427">
        <ele>192</ele>
        <time>2014-05-29T10:31:59.000Z</time>
      </trkpt>
      <trkpt lat="48.88512" lon="1.09441">
        <ele>192</ele>
        <time>2014-05-29T10:32:01.000Z</time>
      </trkpt>
      <trkpt lat="48.88511" lon="1.09455">
        <ele>191</ele>
        <time>2014-05-29T10:32:03.000Z</time>
      </trkpt>
      <trkpt lat="48.88509" lon="1.09467">
        <ele>191</ele>
        <time>2014-05-29T10:32:05.000Z</time>
      </trkpt>
      <trkpt lat="48.88507" lon="1.09477">
        <ele>190</ele>
        <time>2014-05-29T10:32:07.000Z</time>
      </trkpt>
      <trkpt lat="48.88507" lon="1.09488">
        <ele>190</ele>
        <time>2014-05-29T10:32:09.000Z</time>
      </trkpt>
      <trkpt lat="48.88506" lon="1.09501">
        <ele>190</ele>
        <time>2014-05-29T10:32:11.000Z</time>
      </trkpt>
      <trkpt lat="48.88505" lon="1.09512">
        <ele>190</ele>
        <time>2014-05-29T10:32:13.000Z</time>
      </trkpt>
      <trkpt lat="48.88504" lon="1.09523">
        <ele>190</ele>
        <time>2014-05-29T10:32:15.000Z</time>
      </trkpt>
      <trkpt lat="48.88503" lon="1.09534">
        <ele>190</ele>
        <time>2014-05-29T10:32:17.000Z</time>
      </trkpt>
      <trkpt lat="48.88502" lon="1.09546">
        <ele>191</ele>
        <time>2014-05-29T10:32:19.000Z</time>
      </trkpt>
      <trkpt lat="48.88502" lon="1.09557">
        <ele>191</ele>
        <time>2014-05-29T10:32:21.000Z</time>
      </trkpt>
      <trkpt lat="48.88501" lon="1.09568">
        <ele>192</ele>
        <time>2014-05-29T10:32:23.000Z</time>
      </trkpt>
      <trkpt lat="48.88499" lon="1.09581">
        <ele>193</ele>
        <time>2014-05-29T10:32:25.000Z</time>
      </trkpt>
      <trkpt lat="48.88498" lon="1.09594">
        <ele>193</ele>
        <time>2014-05-29T10:32:27.000Z</time>
      </trkpt>
      <trkpt lat="48.88496" lon="1.09606">
        <ele>194</ele>
        <time>2014-05-29T10:32:29.000Z</time>
      </trkpt>
      <trkpt lat="48.88494" lon="1.09619">
        <ele>194</ele>
        <time>2014-05-29T10:32:31.000Z</time>
      </trkpt>
      <trkpt lat="48.88492" lon="1.09631">
        <ele>194</ele>
        <time>2014-05-29T10:32:33.000Z</time>
      </trkpt>
      <trkpt lat="48.88491" lon="1.09643">
        <ele>194</ele>
        <time>2014-05-29T10:32:35.000Z</time>
      </trkpt>
      <trkpt lat="48.88489" lon="1.09655">
        <ele>194</ele>
        <time>2014-05-29T10:32:37.000Z</time>
      </trkpt>
      <trkpt lat="48.88487" lon="1.09667">
        <ele>194</ele>
        <time>2014-05-29T10:32:39.000Z</time>
      </trkpt>
      <trkpt lat="48.88486" lon="1.09679">
        <ele>194</ele>
        <time>2014-05-29T10:32:41.000Z</time>
      </trkpt>
      <trkpt lat="48.88484" lon="1.0969">
        <ele>194</ele>
        <time>2014-05-29T10:32:43.000Z</time>
      </trkpt>
      <trkpt lat="48.88482" lon="1.09702">
        <ele>194</ele>
        <time>2014-05-29T10:32:45.000Z</time>
      </trkpt>
      <trkpt lat="48.8848" lon="1.09712">
        <ele>194</ele>
        <time>2014-05-29T10:32:47.000Z</time>
      </trkpt>
      <trkpt lat="48.88479" lon="1.09723">
        <ele>194</ele>
        <time>2014-05-29T10:32:49.000Z</time>
      </trkpt>
      <trkpt lat="48.88477" lon="1.09733">
        <ele>194</ele>
        <time>2014-05-29T10:32:51.000Z</time>
      </trkpt>
      <trkpt lat="48.88476" lon="1.09744">
        <ele>194</ele>
        <time>2014-05-29T10:32:53.000Z</time>
      </trkpt>
      <trkpt lat="48.88474" lon="1.09755">
        <ele>194</ele>
        <time>2014-05-29T10:32:55.000Z</time>
      </trkpt>
      <trkpt lat="48.88472" lon="1.09764">
        <ele>194</ele>
        <time>2014-05-29T10:32:57.000Z</time>
      </trkpt>
      <trkpt lat="48.8847" lon="1.09774">
        <ele>194</ele>
        <time>2014-05-29T10:32:59.000Z</time>
      </trkpt>
      <trkpt lat="48.88469" lon="1.09783">
        <ele>194</ele>
        <time>2014-05-29T10:33:01.000Z</time>
      </trkpt>
      <trkpt lat="48.88467" lon="1.09793">
        <ele>194</ele>
        <time>2014-05-29T10:33:03.000Z</time>
      </trkpt>
      <trkpt lat="48.88465" lon="1.09803">
        <ele>194</ele>
        <time>2014-05-29T10:33:05.000Z</time>
      </trkpt>
      <trkpt lat="48.88463" lon="1.09813">
        <ele>194</ele>
        <time>2014-05-29T10:33:07.000Z</time>
      </trkpt>
      <trkpt lat="48.8846" lon="1.09822">
        <ele>194</ele>
        <time>2014-05-29T10:33:09.000Z</time>
      </trkpt>
      <trkpt lat="48.88457" lon="1.09831">
        <ele>194</ele>
        <time>2014-05-29T10:33:11.000Z</time>
      </trkpt>
      <trkpt lat="48.88454" lon="1.09839">
        <ele>194</ele>
        <time>2014-05-29T10:33:13.000Z</time>
      </trkpt>
      <trkpt lat="48.88454" lon="1.09839">
        <ele>194</ele>
        <time>2014-05-29T10:33:15.000Z</time>
      </trkpt>
      <trkpt lat="48.88448" lon="1.09852">
        <ele>194</ele>
        <time>2014-05-29T10:33:17.000Z</time>
      </trkpt>
      <trkpt lat="48.88448" lon="1.09852">
        <ele>194</ele>
        <time>2014-05-29T10:33:19.000Z</time>
      </trkpt>
      <trkpt lat="48.88448" lon="1.09852">
        <ele>194</ele>
        <time>2014-05-29T10:33:21.000Z</time>
      </trkpt>
      <trkpt lat="48.88441" lon="1.09849">
        <ele>194</ele>
        <time>2014-05-29T10:33:23.000Z</time>
      </trkpt>
      <trkpt lat="48.88439" lon="1.09841">
        <ele>194</ele>
        <time>2014-05-29T10:33:25.000Z</time>
      </trkpt>
      <trkpt lat="48.88437" lon="1.09832">
        <ele>194</ele>
        <time>2014-05-29T10:33:27.000Z</time>
      </trkpt>
      <trkpt lat="48.88435" lon="1.09823">
        <ele>194</ele>
        <time>2014-05-29T10:33:29.000Z</time>
      </trkpt>
      <trkpt lat="48.88433" lon="1.09813">
        <ele>194</ele>
        <time>2014-05-29T10:33:31.000Z</time>
      </trkpt>
      <trkpt lat="48.88431" lon="1.09802">
        <ele>194</ele>
        <time>2014-05-29T10:33:33.000Z</time>
      </trkpt>
      <trkpt lat="48.88428" lon="1.0979">
        <ele>194</ele>
        <time>2014-05-29T10:33:35.000Z</time>
      </trkpt>
      <trkpt lat="48.88426" lon="1.09779">
        <ele>193</ele>
        <time>2014-05-29T10:33:37.000Z</time>
      </trkpt>
      <trkpt lat="48.88423" lon="1.09768">
        <ele>194</ele>
        <time>2014-05-29T10:33:39.000Z</time>
      </trkpt>
      <trkpt lat="48.8842" lon="1.09754">
        <ele>193</ele>
        <time>2014-05-29T10:33:41.000Z</time>
      </trkpt>
      <trkpt lat="48.88416" lon="1.09741">
        <ele>192</ele>
        <time>2014-05-29T10:33:43.000Z</time>
      </trkpt>
      <trkpt lat="48.88412" lon="1.09728">
        <ele>191</ele>
        <time>2014-05-29T10:33:45.000Z</time>
      </trkpt>
      <trkpt lat="48.88408" lon="1.0972">
        <ele>191</ele>
        <time>2014-05-29T10:33:47.000Z</time>
      </trkpt>
      <trkpt lat="48.88402" lon="1.09709">
        <ele>192</ele>
        <time>2014-05-29T10:33:49.000Z</time>
      </trkpt>
      <trkpt lat="48.88396" lon="1.09701">
        <ele>194</ele>
        <time>2014-05-29T10:33:51.000Z</time>
      </trkpt>
      <trkpt lat="48.8839" lon="1.09692">
        <ele>196</ele>
        <time>2014-05-29T10:33:53.000Z</time>
      </trkpt>
      <trkpt lat="48.88384" lon="1.09683">
        <ele>198</ele>
        <time>2014-05-29T10:33:55.000Z</time>
      </trkpt>
      <trkpt lat="48.88378" lon="1.09675">
        <ele>200</ele>
        <time>2014-05-29T10:33:57.000Z</time>
      </trkpt>
      <trkpt lat="48.88372" lon="1.09669">
        <ele>200</ele>
        <time>2014-05-29T10:33:59.000Z</time>
      </trkpt>
      <trkpt lat="48.88365" lon="1.0966">
        <ele>200</ele>
        <time>2014-05-29T10:34:01.000Z</time>
      </trkpt>
      <trkpt lat="48.88358" lon="1.09649">
        <ele>200</ele>
        <time>2014-05-29T10:34:03.000Z</time>
      </trkpt>
      <trkpt lat="48.88351" lon="1.09638">
        <ele>200</ele>
        <time>2014-05-29T10:34:05.000Z</time>
      </trkpt>
      <trkpt lat="48.88345" lon="1.09628">
        <ele>200</ele>
        <time>2014-05-29T10:34:07.000Z</time>
      </trkpt>
      <trkpt lat="48.88343" lon="1.09616">
        <ele>200</ele>
        <time>2014-05-29T10:34:09.000Z</time>
      </trkpt>
      <trkpt lat="48.88344" lon="1.09604">
        <ele>199</ele>
        <time>2014-05-29T10:34:11.000Z</time>
      </trkpt>
      <trkpt lat="48.88344" lon="1.09604">
        <ele>199</ele>
        <time>2014-05-29T10:34:13.000Z</time>
      </trkpt>
      <trkpt lat="48.88346" lon="1.09596">
        <ele>199</ele>
        <time>2014-05-29T10:34:15.000Z</time>
      </trkpt>
      <trkpt lat="48.88346" lon="1.09596">
        <ele>199</ele>
        <time>2014-05-29T10:34:17.000Z</time>
      </trkpt>
      <trkpt lat="48.88346" lon="1.09596">
        <ele>199</ele>
        <time>2014-05-29T10:34:19.000Z</time>
      </trkpt>
      <trkpt lat="48.88346" lon="1.09596">
        <ele>199</ele>
        <time>2014-05-29T10:34:21.000Z</time>
      </trkpt>
      <trkpt lat="48.88346" lon="1.09596">
        <ele>199</ele>
        <time>2014-05-29T10:34:25.000Z</time>
      </trkpt>
      <trkpt lat="48.88346" lon="1.09596">
        <ele>199</ele>
        <time>2014-05-29T10:34:27.000Z</time>
      </trkpt>
    </trkseg>
  </trk>
</gpx>